<?xml version='1.0' encoding='UTF-8'?><gpx version="1.1" creator="JPX - https://github.com/jenetics/jpx" xmlns="http://www.topografix.com/GPX/1/1"><trk><trkseg><trkpt lat="45.340625489820894" lon="9.272936276292366"><ele>92.0</ele><time>2026-04-11T12:04:18Z</time></trkpt><trkpt lat="45.34070878970502" lon="9.27298195135619"><ele>92.0</ele><time>2026-04-11T12:04:21Z</time></trkpt><trkpt lat="45.34077237673374" lon="9.273024821721728"><ele>92.0</ele><time>2026-04-11T12:04:23Z</time></trkpt><trkpt lat="45.34084546136301" lon="9.273089449056584"><ele>92.0</ele><time>2026-04-11T12:04:26Z</time></trkpt><trkpt lat="45.34089021404104" lon="9.273193321246385"><ele>92.0</ele><time>2026-04-11T12:04:31Z</time></trkpt><trkpt lat="45.34082150066996" lon="9.273315736070233"><ele>92.0</ele><time>2026-04-11T12:04:33Z</time></trkpt><trkpt lat="45.34077453566073" lon="9.273396593310018"><ele>91.83333333333334</ele><time>2026-04-11T12:04:34Z</time></trkpt><trkpt lat="45.340735587863634" lon="9.273470160533854"><ele>91.66666666666667</ele><time>2026-04-11T12:04:35Z</time></trkpt><trkpt lat="45.34069321433207" lon="9.273556581604852"><ele>91.5</ele><time>2026-04-11T12:04:36Z</time></trkpt><trkpt lat="45.34064765732368" lon="9.273641817403256"><ele>91.33333333333333</ele><time>2026-04-11T12:04:37Z</time></trkpt><trkpt lat="45.34059904732164" lon="9.273740144321733"><ele>91.16666666666666</ele><time>2026-04-11T12:04:38Z</time></trkpt><trkpt lat="45.34053122031847" lon="9.273810036626303"><ele>91.0</ele><time>2026-04-11T12:04:39Z</time></trkpt><trkpt lat="45.34046225914663" lon="9.273874552417551"><ele>91.0</ele><time>2026-04-11T12:04:40Z</time></trkpt><trkpt lat="45.340400752091426" lon="9.273951097501131"><ele>91.0</ele><time>2026-04-11T12:04:41Z</time></trkpt><trkpt lat="45.340328891732014" lon="9.27400414634321"><ele>91.0</ele><time>2026-04-11T12:04:42Z</time></trkpt><trkpt lat="45.34021930310401" lon="9.273972027213519"><ele>91.0</ele><time>2026-04-11T12:04:43Z</time></trkpt><trkpt lat="45.340135935632716" lon="9.27397255481046"><ele>91.0</ele><time>2026-04-11T12:04:44Z</time></trkpt><trkpt lat="45.34006792010827" lon="9.27397992557756"><ele>91.0</ele><time>2026-04-11T12:04:45Z</time></trkpt><trkpt lat="45.339947597637924" lon="9.274022328756946"><ele>91.0</ele><time>2026-04-11T12:04:47Z</time></trkpt><trkpt lat="45.3398693045907" lon="9.274075108278245"><ele>91.0</ele><time>2026-04-11T12:04:48Z</time></trkpt><trkpt lat="45.339786821383534" lon="9.274148054274303"><ele>91.0</ele><time>2026-04-11T12:04:49Z</time></trkpt><trkpt lat="45.33969330015403" lon="9.274231734292425"><ele>91.0</ele><time>2026-04-11T12:04:50Z</time></trkpt><trkpt lat="45.33960123885632" lon="9.274324121394951"><ele>91.0</ele><time>2026-04-11T12:04:51Z</time></trkpt><trkpt lat="45.33951339132392" lon="9.274420198509969"><ele>91.0</ele><time>2026-04-11T12:04:52Z</time></trkpt><trkpt lat="45.33943739476362" lon="9.274514080840955"><ele>91.0</ele><time>2026-04-11T12:04:53Z</time></trkpt><trkpt lat="45.33937844243714" lon="9.274591358503027"><ele>91.0</ele><time>2026-04-11T12:04:54Z</time></trkpt><trkpt lat="45.33932601271068" lon="9.27466872629789"><ele>91.0</ele><time>2026-04-11T12:04:55Z</time></trkpt><trkpt lat="45.33925115989186" lon="9.274766247181484"><ele>91.0</ele><time>2026-04-11T12:04:57Z</time></trkpt><trkpt lat="45.33919480932076" lon="9.274809437339094"><ele>91.0</ele><time>2026-04-11T12:05:00Z</time></trkpt><trkpt lat="45.3390559206807" lon="9.2745744364968"><ele>90.5</ele><time>2026-04-11T12:05:02Z</time></trkpt><trkpt lat="45.33898716279636" lon="9.274446344633184"><ele>90.0</ele><time>2026-04-11T12:05:03Z</time></trkpt><trkpt lat="45.3388868567415" lon="9.274290404671959"><ele>89.5</ele><time>2026-04-11T12:05:04Z</time></trkpt><trkpt lat="45.338758306207794" lon="9.274102336068232"><ele>89.0</ele><time>2026-04-11T12:05:05Z</time></trkpt><trkpt lat="45.33861852946689" lon="9.273893036592515"><ele>89.0</ele><time>2026-04-11T12:05:06Z</time></trkpt><trkpt lat="45.338498369507455" lon="9.273712745189833"><ele>89.0</ele><time>2026-04-11T12:05:07Z</time></trkpt><trkpt lat="45.33839628521192" lon="9.27355224763142"><ele>89.0</ele><time>2026-04-11T12:05:08Z</time></trkpt><trkpt lat="45.33831150056532" lon="9.273409711114995"><ele>89.0</ele><time>2026-04-11T12:05:09Z</time></trkpt><trkpt lat="45.33823981370824" lon="9.273269340282225"><ele>89.0</ele><time>2026-04-11T12:05:10Z</time></trkpt><trkpt lat="45.33820308244231" lon="9.27310681592159"><ele>89.0</ele><time>2026-04-11T12:05:11Z</time></trkpt><trkpt lat="45.338154114603526" lon="9.272932697831108"><ele>89.0</ele><time>2026-04-11T12:05:12Z</time></trkpt><trkpt lat="45.33808873294754" lon="9.272752653434942"><ele>89.25</ele><time>2026-04-11T12:05:13Z</time></trkpt><trkpt lat="45.33802688711005" lon="9.27256531585235"><ele>89.5</ele><time>2026-04-11T12:05:14Z</time></trkpt><trkpt lat="45.337966800601095" lon="9.272399576544396"><ele>89.75</ele><time>2026-04-11T12:05:15Z</time></trkpt><trkpt lat="45.33791497581308" lon="9.272245146594907"><ele>90.0</ele><time>2026-04-11T12:05:16Z</time></trkpt><trkpt lat="45.33786164654916" lon="9.27208632163039"><ele>90.0</ele><time>2026-04-11T12:05:17Z</time></trkpt><trkpt lat="45.33780865078337" lon="9.271931511935232"><ele>90.0</ele><time>2026-04-11T12:05:18Z</time></trkpt><trkpt lat="45.337761005321106" lon="9.271791793585752"><ele>90.0</ele><time>2026-04-11T12:05:19Z</time></trkpt><trkpt lat="45.337718828351115" lon="9.271662917308378"><ele>90.0</ele><time>2026-04-11T12:05:20Z</time></trkpt><trkpt lat="45.33768129022821" lon="9.271546187894447"><ele>90.0</ele><time>2026-04-11T12:05:21Z</time></trkpt><trkpt lat="45.337650558501785" lon="9.271454852457593"><ele>90.0</ele><time>2026-04-11T12:05:23Z</time></trkpt><trkpt lat="45.33760152279921" lon="9.271354647927181"><ele>90.0</ele><time>2026-04-11T12:05:28Z</time></trkpt><trkpt lat="45.33744021931217" lon="9.271476366748745"><ele>90.0</ele><time>2026-04-11T12:05:29Z</time></trkpt><trkpt lat="45.33732708476638" lon="9.271548137942663"><ele>90.0</ele><time>2026-04-11T12:05:30Z</time></trkpt><trkpt lat="45.33721519233626" lon="9.271625596329807"><ele>90.0</ele><time>2026-04-11T12:05:31Z</time></trkpt><trkpt lat="45.337091924586325" lon="9.27171380393097"><ele>90.0</ele><time>2026-04-11T12:05:32Z</time></trkpt><trkpt lat="45.33697284965258" lon="9.271796453358014"><ele>90.0</ele><time>2026-04-11T12:05:33Z</time></trkpt><trkpt lat="45.33684983284035" lon="9.271875282899362"><ele>90.0</ele><time>2026-04-11T12:05:34Z</time></trkpt><trkpt lat="45.33672583187083" lon="9.271954133888807"><ele>90.0</ele><time>2026-04-11T12:05:35Z</time></trkpt><trkpt lat="45.33660124226389" lon="9.272029171935513"><ele>90.0</ele><time>2026-04-11T12:05:36Z</time></trkpt><trkpt lat="45.3364758485963" lon="9.272106883585748"><ele>90.0</ele><time>2026-04-11T12:05:37Z</time></trkpt><trkpt lat="45.336368351457466" lon="9.272171840295993"><ele>90.0</ele><time>2026-04-11T12:05:38Z</time></trkpt><trkpt lat="45.33627636600056" lon="9.272229359536865"><ele>89.66666666666667</ele><time>2026-04-11T12:05:39Z</time></trkpt><trkpt lat="45.336194071911635" lon="9.272276688464"><ele>89.33333333333333</ele><time>2026-04-11T12:05:40Z</time></trkpt><trkpt lat="45.33610475183087" lon="9.272289613503748"><ele>89.0</ele><time>2026-04-11T12:05:41Z</time></trkpt><trkpt lat="45.33602474490304" lon="9.27226394230505"><ele>88.66666666666666</ele><time>2026-04-11T12:05:42Z</time></trkpt><trkpt lat="45.335956981811805" lon="9.272288476799693"><ele>88.33333333333333</ele><time>2026-04-11T12:05:43Z</time></trkpt><trkpt lat="45.33588048308646" lon="9.272403452743003"><ele>88.0</ele><time>2026-04-11T12:05:44Z</time></trkpt><trkpt lat="45.33578028066606" lon="9.27254990268447"><ele>88.0</ele><time>2026-04-11T12:05:45Z</time></trkpt><trkpt lat="45.33563889485057" lon="9.272673972097357"><ele>88.0</ele><time>2026-04-11T12:05:46Z</time></trkpt><trkpt lat="45.33545313454705" lon="9.272725828153721"><ele>88.0</ele><time>2026-04-11T12:05:47Z</time></trkpt><trkpt lat="45.3353053276195" lon="9.272839582623758"><ele>88.0</ele><time>2026-04-11T12:05:48Z</time></trkpt><trkpt lat="45.33520257673669" lon="9.272983701247226"><ele>88.0</ele><time>2026-04-11T12:05:49Z</time></trkpt><trkpt lat="45.33509050248325" lon="9.273062407207135"><ele>88.0</ele><time>2026-04-11T12:05:50Z</time></trkpt><trkpt lat="45.33498667563943" lon="9.273131900865456"><ele>88.0</ele><time>2026-04-11T12:05:51Z</time></trkpt><trkpt lat="45.334874600472524" lon="9.273210853537298"><ele>88.0</ele><time>2026-04-11T12:05:52Z</time></trkpt><trkpt lat="45.33473162519106" lon="9.2733146190451"><ele>88.0</ele><time>2026-04-11T12:05:53Z</time></trkpt><trkpt lat="45.334569542128364" lon="9.273436537089939"><ele>88.0</ele><time>2026-04-11T12:05:54Z</time></trkpt><trkpt lat="45.334401567447706" lon="9.273575375185173"><ele>88.0</ele><time>2026-04-11T12:05:55Z</time></trkpt><trkpt lat="45.33422837494354" lon="9.273712532719342"><ele>88.0</ele><time>2026-04-11T12:05:56Z</time></trkpt><trkpt lat="45.33407054860812" lon="9.273851699544592"><ele>88.0</ele><time>2026-04-11T12:05:57Z</time></trkpt><trkpt lat="45.33391629971925" lon="9.27398970499698"><ele>88.66666666666666</ele><time>2026-04-11T12:05:58Z</time></trkpt><trkpt lat="45.33376163828913" lon="9.274126824944464"><ele>89.33333333333333</ele><time>2026-04-11T12:05:59Z</time></trkpt><trkpt lat="45.333611220105425" lon="9.274261380752613"><ele>90.0</ele><time>2026-04-11T12:06:00Z</time></trkpt><trkpt lat="45.333453368857306" lon="9.274393914714741"><ele>90.0</ele><time>2026-04-11T12:06:01Z</time></trkpt><trkpt lat="45.333304525504204" lon="9.274530651599525"><ele>90.0</ele><time>2026-04-11T12:06:02Z</time></trkpt><trkpt lat="45.33313793074916" lon="9.274677742298824"><ele>90.0</ele><time>2026-04-11T12:06:03Z</time></trkpt><trkpt lat="45.33297117898188" lon="9.274837872766605"><ele>90.33333333333333</ele><time>2026-04-11T12:06:04Z</time></trkpt><trkpt lat="45.33280045154762" lon="9.274999687433496"><ele>90.66666666666666</ele><time>2026-04-11T12:06:05Z</time></trkpt><trkpt lat="45.332628325476726" lon="9.275148277735877"><ele>91.0</ele><time>2026-04-11T12:06:06Z</time></trkpt><trkpt lat="45.33245342350369" lon="9.275291077678915"><ele>91.0</ele><time>2026-04-11T12:06:07Z</time></trkpt><trkpt lat="45.332289484980954" lon="9.27542805519152"><ele>91.0</ele><time>2026-04-11T12:06:08Z</time></trkpt><trkpt lat="45.332137011362484" lon="9.275566888886742"><ele>91.0</ele><time>2026-04-11T12:06:09Z</time></trkpt><trkpt lat="45.33199303732671" lon="9.275703637451212"><ele>90.66666666666666</ele><time>2026-04-11T12:06:10Z</time></trkpt><trkpt lat="45.331863123838126" lon="9.27583847146016"><ele>90.33333333333333</ele><time>2026-04-11T12:06:11Z</time></trkpt><trkpt lat="45.331737109733346" lon="9.275976497804809"><ele>90.0</ele><time>2026-04-11T12:06:12Z</time></trkpt><trkpt lat="45.33161225996543" lon="9.27611194931824"><ele>90.0</ele><time>2026-04-11T12:06:13Z</time></trkpt><trkpt lat="45.3314871423489" lon="9.276247798155541"><ele>90.0</ele><time>2026-04-11T12:06:14Z</time></trkpt><trkpt lat="45.331364012631155" lon="9.276386925239507"><ele>90.0</ele><time>2026-04-11T12:06:15Z</time></trkpt><trkpt lat="45.33124504879964" lon="9.276527304546224"><ele>90.0</ele><time>2026-04-11T12:06:16Z</time></trkpt><trkpt lat="45.33112521130303" lon="9.276666985242212"><ele>90.0</ele><time>2026-04-11T12:06:17Z</time></trkpt><trkpt lat="45.33100934115151" lon="9.276801317747339"><ele>90.0</ele><time>2026-04-11T12:06:18Z</time></trkpt><trkpt lat="45.33089616046243" lon="9.276934705077746"><ele>90.0</ele><time>2026-04-11T12:06:19Z</time></trkpt><trkpt lat="45.33078492316782" lon="9.277065064266447"><ele>90.0</ele><time>2026-04-11T12:06:20Z</time></trkpt><trkpt lat="45.33067178256662" lon="9.27719692254641"><ele>90.0</ele><time>2026-04-11T12:06:21Z</time></trkpt><trkpt lat="45.330560112808264" lon="9.277320734586526"><ele>90.0</ele><time>2026-04-11T12:06:22Z</time></trkpt><trkpt lat="45.3304439455234" lon="9.277436022682778"><ele>89.5</ele><time>2026-04-11T12:06:23Z</time></trkpt><trkpt lat="45.33032290549269" lon="9.277546302961792"><ele>89.0</ele><time>2026-04-11T12:06:24Z</time></trkpt><trkpt lat="45.33019923168742" lon="9.277651934162991"><ele>88.5</ele><time>2026-04-11T12:06:25Z</time></trkpt><trkpt lat="45.33007759301819" lon="9.277763906353117"><ele>88.0</ele><time>2026-04-11T12:06:26Z</time></trkpt><trkpt lat="45.329955792705306" lon="9.277876731062015"><ele>88.0</ele><time>2026-04-11T12:06:27Z</time></trkpt><trkpt lat="45.329831804284815" lon="9.277991680412747"><ele>88.0</ele><time>2026-04-11T12:06:28Z</time></trkpt><trkpt lat="45.32970809325813" lon="9.278107540978638"><ele>88.0</ele><time>2026-04-11T12:06:29Z</time></trkpt><trkpt lat="45.329584436836406" lon="9.278223130666847"><ele>88.0</ele><time>2026-04-11T12:06:30Z</time></trkpt><trkpt lat="45.32945664313909" lon="9.27833743758745"><ele>87.66666666666666</ele><time>2026-04-11T12:06:31Z</time></trkpt><trkpt lat="45.32932522768272" lon="9.278453796916214"><ele>87.33333333333333</ele><time>2026-04-11T12:06:32Z</time></trkpt><trkpt lat="45.329196084208654" lon="9.278572075439188"><ele>87.0</ele><time>2026-04-11T12:06:33Z</time></trkpt><trkpt lat="45.329064163928784" lon="9.278695598420859"><ele>87.0</ele><time>2026-04-11T12:06:34Z</time></trkpt><trkpt lat="45.32893477405122" lon="9.278818779188354"><ele>87.0</ele><time>2026-04-11T12:06:35Z</time></trkpt><trkpt lat="45.328804817932706" lon="9.278941708716498"><ele>87.0</ele><time>2026-04-11T12:06:36Z</time></trkpt><trkpt lat="45.32867296208763" lon="9.27906257190416"><ele>87.0</ele><time>2026-04-11T12:06:37Z</time></trkpt><trkpt lat="45.32854172268508" lon="9.279185102958227"><ele>87.0</ele><time>2026-04-11T12:06:38Z</time></trkpt><trkpt lat="45.328408982659205" lon="9.279302031669149"><ele>87.0</ele><time>2026-04-11T12:06:39Z</time></trkpt><trkpt lat="45.3282789301998" lon="9.279419340103287"><ele>87.0</ele><time>2026-04-11T12:06:40Z</time></trkpt><trkpt lat="45.32814942381478" lon="9.27953680363913"><ele>87.0</ele><time>2026-04-11T12:06:41Z</time></trkpt><trkpt lat="45.32802266640181" lon="9.27965669121163"><ele>87.0</ele><time>2026-04-11T12:06:42Z</time></trkpt><trkpt lat="45.32789865129169" lon="9.279778710064196"><ele>88.0</ele><time>2026-04-11T12:06:43Z</time></trkpt><trkpt lat="45.32777210417318" lon="9.279903351977334"><ele>89.0</ele><time>2026-04-11T12:06:44Z</time></trkpt><trkpt lat="45.32764766453296" lon="9.280026646960618"><ele>90.0</ele><time>2026-04-11T12:06:45Z</time></trkpt><trkpt lat="45.327526919657565" lon="9.280142371318174"><ele>90.0</ele><time>2026-04-11T12:06:46Z</time></trkpt><trkpt lat="45.327407730125366" lon="9.280257124439778"><ele>90.0</ele><time>2026-04-11T12:06:47Z</time></trkpt><trkpt lat="45.32728742537018" lon="9.280375057545362"><ele>90.0</ele><time>2026-04-11T12:06:48Z</time></trkpt><trkpt lat="45.32717280952295" lon="9.280488902209866"><ele>90.0</ele><time>2026-04-11T12:06:49Z</time></trkpt><trkpt lat="45.32704883150118" lon="9.280605630726031"><ele>90.0</ele><time>2026-04-11T12:06:50Z</time></trkpt><trkpt lat="45.32692703093547" lon="9.280712809016402"><ele>90.0</ele><time>2026-04-11T12:06:51Z</time></trkpt><trkpt lat="45.326804211531126" lon="9.280819442403995"><ele>90.0</ele><time>2026-04-11T12:06:52Z</time></trkpt><trkpt lat="45.32668805097434" lon="9.280924754774757"><ele>90.0</ele><time>2026-04-11T12:06:53Z</time></trkpt><trkpt lat="45.32656654269234" lon="9.281035184914076"><ele>90.0</ele><time>2026-04-11T12:06:54Z</time></trkpt><trkpt lat="45.32645489554052" lon="9.281137018979507"><ele>90.0</ele><time>2026-04-11T12:06:55Z</time></trkpt><trkpt lat="45.32633978162284" lon="9.281241240397932"><ele>90.0</ele><time>2026-04-11T12:06:56Z</time></trkpt><trkpt lat="45.32621774965451" lon="9.281345339346032"><ele>90.0</ele><time>2026-04-11T12:06:57Z</time></trkpt><trkpt lat="45.32610432587536" lon="9.2814551745309"><ele>89.75</ele><time>2026-04-11T12:06:58Z</time></trkpt><trkpt lat="45.325998237674646" lon="9.281562879304555"><ele>89.5</ele><time>2026-04-11T12:06:59Z</time></trkpt><trkpt lat="45.32589918540521" lon="9.2816685578016"><ele>89.25</ele><time>2026-04-11T12:07:00Z</time></trkpt><trkpt lat="45.32580496517952" lon="9.281777255335472"><ele>89.0</ele><time>2026-04-11T12:07:01Z</time></trkpt><trkpt lat="45.32571506140348" lon="9.281892199929874"><ele>89.0</ele><time>2026-04-11T12:07:02Z</time></trkpt><trkpt lat="45.32563274293409" lon="9.28201352451558"><ele>89.0</ele><time>2026-04-11T12:07:03Z</time></trkpt><trkpt lat="45.32555651554911" lon="9.282140923975343"><ele>89.0</ele><time>2026-04-11T12:07:04Z</time></trkpt><trkpt lat="45.325491759093545" lon="9.282257673383251"><ele>89.0</ele><time>2026-04-11T12:07:05Z</time></trkpt><trkpt lat="45.325425286518595" lon="9.282371498652232"><ele>89.0</ele><time>2026-04-11T12:07:06Z</time></trkpt><trkpt lat="45.32536463497304" lon="9.282489494326892"><ele>89.0</ele><time>2026-04-11T12:07:06.999Z</time></trkpt><trkpt lat="45.325307181768366" lon="9.282603573956242"><ele>89.0</ele><time>2026-04-11T12:07:07.999Z</time></trkpt><trkpt lat="45.325256355293156" lon="9.282704424853158"><ele>89.0</ele><time>2026-04-11T12:07:08.999Z</time></trkpt><trkpt lat="45.32521398388157" lon="9.282779340342408"><ele>89.0</ele><time>2026-04-11T12:07:09.999Z</time></trkpt><trkpt lat="45.32513980871309" lon="9.28288015929707"><ele>89.0</ele><time>2026-04-11T12:07:11.999Z</time></trkpt><trkpt lat="45.3250825066794" lon="9.282924012482361"><ele>89.0</ele><time>2026-04-11T12:07:13.999Z</time></trkpt><trkpt lat="45.32499290269198" lon="9.282937564942237"><ele>89.0</ele><time>2026-04-11T12:07:19.999Z</time></trkpt><trkpt lat="45.32491957178504" lon="9.282920114126135"><ele>89.0</ele><time>2026-04-11T12:07:21.999Z</time></trkpt><trkpt lat="45.32484282636354" lon="9.282921131238682"><ele>89.0</ele><time>2026-04-11T12:07:23.999Z</time></trkpt><trkpt lat="45.32474905214852" lon="9.282955735188326"><ele>89.0</ele><time>2026-04-11T12:07:26Z</time></trkpt><trkpt lat="45.32467719926064" lon="9.282804891476047"><ele>89.0</ele><time>2026-04-11T12:07:27Z</time></trkpt><trkpt lat="45.3245772019316" lon="9.282721967006292"><ele>89.0</ele><time>2026-04-11T12:07:28Z</time></trkpt><trkpt lat="45.32449587164242" lon="9.282582818508466"><ele>89.0</ele><time>2026-04-11T12:07:29Z</time></trkpt><trkpt lat="45.324385697562235" lon="9.282432623900549"><ele>89.0</ele><time>2026-04-11T12:07:30Z</time></trkpt><trkpt lat="45.324249569981745" lon="9.282243344906755"><ele>89.0</ele><time>2026-04-11T12:07:31Z</time></trkpt><trkpt lat="45.32411043189881" lon="9.282049348893027"><ele>89.0</ele><time>2026-04-11T12:07:32Z</time></trkpt><trkpt lat="45.323965982745534" lon="9.281847318078235"><ele>89.0</ele><time>2026-04-11T12:07:33Z</time></trkpt><trkpt lat="45.323834807213956" lon="9.281663719488213"><ele>89.0</ele><time>2026-04-11T12:07:34Z</time></trkpt><trkpt lat="45.323711695922526" lon="9.281491274532804"><ele>89.0</ele><time>2026-04-11T12:07:35Z</time></trkpt><trkpt lat="45.32358911283277" lon="9.281320883930073"><ele>89.0</ele><time>2026-04-11T12:07:36Z</time></trkpt><trkpt lat="45.32347718966706" lon="9.281165382537845"><ele>88.75</ele><time>2026-04-11T12:07:37Z</time></trkpt><trkpt lat="45.32337415209189" lon="9.281020069606749"><ele>88.5</ele><time>2026-04-11T12:07:38Z</time></trkpt><trkpt lat="45.32327598219321" lon="9.28088159197568"><ele>88.25</ele><time>2026-04-11T12:07:39Z</time></trkpt><trkpt lat="45.32315821832955" lon="9.280720186848837"><ele>88.0</ele><time>2026-04-11T12:07:40Z</time></trkpt><trkpt lat="45.32301422453442" lon="9.280521330228893"><ele>87.5</ele><time>2026-04-11T12:07:41Z</time></trkpt><trkpt lat="45.32286102260417" lon="9.280308792576172"><ele>87.0</ele><time>2026-04-11T12:07:42Z</time></trkpt><trkpt lat="45.32268759889857" lon="9.280068201209028"><ele>87.0</ele><time>2026-04-11T12:07:43Z</time></trkpt><trkpt lat="45.322527010351656" lon="9.279844259266541"><ele>87.0</ele><time>2026-04-11T12:07:44Z</time></trkpt><trkpt lat="45.322384618518875" lon="9.279645665514744"><ele>87.0</ele><time>2026-04-11T12:07:45Z</time></trkpt><trkpt lat="45.32226036807949" lon="9.279472044500526"><ele>87.0</ele><time>2026-04-11T12:07:46Z</time></trkpt><trkpt lat="45.32213791547512" lon="9.279324240793304"><ele>87.0</ele><time>2026-04-11T12:07:47Z</time></trkpt><trkpt lat="45.32203297859808" lon="9.27916643070392"><ele>87.0</ele><time>2026-04-11T12:07:48Z</time></trkpt><trkpt lat="45.32193259142112" lon="9.27902728259677"><ele>87.0</ele><time>2026-04-11T12:07:49Z</time></trkpt><trkpt lat="45.321840770890695" lon="9.278898057060816"><ele>87.0</ele><time>2026-04-11T12:07:50Z</time></trkpt><trkpt lat="45.32175691367352" lon="9.27877611289201"><ele>87.0</ele><time>2026-04-11T12:07:51Z</time></trkpt><trkpt lat="45.321681028787" lon="9.278668881963188"><ele>87.0</ele><time>2026-04-11T12:07:52Z</time></trkpt><trkpt lat="45.32160799180511" lon="9.278566380087158"><ele>87.0</ele><time>2026-04-11T12:07:53Z</time></trkpt><trkpt lat="45.32154981819282" lon="9.278464069603395"><ele>87.0</ele><time>2026-04-11T12:07:54Z</time></trkpt><trkpt lat="45.32149328649159" lon="9.278341190933745"><ele>87.0</ele><time>2026-04-11T12:07:55Z</time></trkpt><trkpt lat="45.32145486586041" lon="9.278200920104421"><ele>87.0</ele><time>2026-04-11T12:07:56Z</time></trkpt><trkpt lat="45.32142451858928" lon="9.27807247816192"><ele>87.0</ele><time>2026-04-11T12:07:57Z</time></trkpt><trkpt lat="45.32140562292286" lon="9.277948199668892"><ele>87.0</ele><time>2026-04-11T12:07:58Z</time></trkpt><trkpt lat="45.3213280970222" lon="9.277875345111674"><ele>87.0</ele><time>2026-04-11T12:07:59Z</time></trkpt><trkpt lat="45.3212246751229" lon="9.2778616993057"><ele>87.0</ele><time>2026-04-11T12:08:00Z</time></trkpt><trkpt lat="45.32113223171518" lon="9.277845384461681"><ele>87.0</ele><time>2026-04-11T12:08:01Z</time></trkpt><trkpt lat="45.32106254543487" lon="9.277786605870668"><ele>87.0</ele><time>2026-04-11T12:08:02Z</time></trkpt><trkpt lat="45.32097216432883" lon="9.277740301242918"><ele>87.0</ele><time>2026-04-11T12:08:03Z</time></trkpt><trkpt lat="45.32090385273745" lon="9.277560955332106"><ele>87.0</ele><time>2026-04-11T12:08:04Z</time></trkpt><trkpt lat="45.32078244888839" lon="9.277390716832114"><ele>87.0</ele><time>2026-04-11T12:08:05Z</time></trkpt><trkpt lat="45.320641673054915" lon="9.277225852322976"><ele>88.33333333333333</ele><time>2026-04-11T12:08:06Z</time></trkpt><trkpt lat="45.320515678209695" lon="9.277012973968471"><ele>89.66666666666666</ele><time>2026-04-11T12:08:07Z</time></trkpt><trkpt lat="45.32038379264747" lon="9.276821624090996"><ele>91.0</ele><time>2026-04-11T12:08:08Z</time></trkpt><trkpt lat="45.32024731570589" lon="9.276636981951187"><ele>91.0</ele><time>2026-04-11T12:08:09Z</time></trkpt><trkpt lat="45.32011101705431" lon="9.276451552137168"><ele>91.0</ele><time>2026-04-11T12:08:10Z</time></trkpt><trkpt lat="45.319975411117355" lon="9.276259201712836"><ele>91.0</ele><time>2026-04-11T12:08:11Z</time></trkpt><trkpt lat="45.31983525316962" lon="9.276063883416118"><ele>90.0</ele><time>2026-04-11T12:08:12Z</time></trkpt><trkpt lat="45.31969728903796" lon="9.27587167367347"><ele>89.0</ele><time>2026-04-11T12:08:13Z</time></trkpt><trkpt lat="45.31956054082201" lon="9.275681794095346"><ele>88.0</ele><time>2026-04-11T12:08:14Z</time></trkpt><trkpt lat="45.31942718640259" lon="9.275492557041987"><ele>88.0</ele><time>2026-04-11T12:08:15Z</time></trkpt><trkpt lat="45.319295967317615" lon="9.275303699491987"><ele>88.0</ele><time>2026-04-11T12:08:16Z</time></trkpt><trkpt lat="45.31916664247982" lon="9.27511505304399"><ele>88.0</ele><time>2026-04-11T12:08:17Z</time></trkpt><trkpt lat="45.31903651895095" lon="9.27492297922341"><ele>87.66666666666666</ele><time>2026-04-11T12:08:18Z</time></trkpt><trkpt lat="45.31890766584422" lon="9.274737316916708"><ele>87.33333333333333</ele><time>2026-04-11T12:08:19Z</time></trkpt><trkpt lat="45.318776460488415" lon="9.27454859503264"><ele>87.0</ele><time>2026-04-11T12:08:20Z</time></trkpt><trkpt lat="45.31862850605193" lon="9.274351376405983"><ele>87.0</ele><time>2026-04-11T12:08:21Z</time></trkpt><trkpt lat="45.31847440614073" lon="9.274156486340104"><ele>87.0</ele><time>2026-04-11T12:08:22Z</time></trkpt><trkpt lat="45.31832543543309" lon="9.273918545278361"><ele>87.0</ele><time>2026-04-11T12:08:23Z</time></trkpt><trkpt lat="45.31816320976966" lon="9.273685451650776"><ele>88.0</ele><time>2026-04-11T12:08:24Z</time></trkpt><trkpt lat="45.31799669465331" lon="9.273446138579619"><ele>89.0</ele><time>2026-04-11T12:08:25Z</time></trkpt><trkpt lat="45.31782090924624" lon="9.273214266442343"><ele>87.5</ele><time>2026-04-11T12:08:26Z</time></trkpt><trkpt lat="45.31766484715129" lon="9.272964625092401"><ele>86.0</ele><time>2026-04-11T12:08:27Z</time></trkpt><trkpt lat="45.31750071000012" lon="9.272728534846422"><ele>86.0</ele><time>2026-04-11T12:08:28Z</time></trkpt><trkpt lat="45.31733382073156" lon="9.27249442191361"><ele>86.0</ele><time>2026-04-11T12:08:29Z</time></trkpt><trkpt lat="45.31717067751108" lon="9.272269065994951"><ele>86.66666666666667</ele><time>2026-04-11T12:08:30Z</time></trkpt><trkpt lat="45.31701514664482" lon="9.272049731244605"><ele>87.33333333333333</ele><time>2026-04-11T12:08:31Z</time></trkpt><trkpt lat="45.3168658537126" lon="9.271837949524624"><ele>88.0</ele><time>2026-04-11T12:08:32Z</time></trkpt><trkpt lat="45.316724508312554" lon="9.271636672299755"><ele>87.66666666666666</ele><time>2026-04-11T12:08:33Z</time></trkpt><trkpt lat="45.31658480419001" lon="9.271439808771927"><ele>87.33333333333333</ele><time>2026-04-11T12:08:34Z</time></trkpt><trkpt lat="45.31645112257138" lon="9.271257017109605"><ele>87.0</ele><time>2026-04-11T12:08:35Z</time></trkpt><trkpt lat="45.3163330538067" lon="9.271098984772898"><ele>87.0</ele><time>2026-04-11T12:08:36Z</time></trkpt><trkpt lat="45.31621557523316" lon="9.270946357045132"><ele>87.0</ele><time>2026-04-11T12:08:37Z</time></trkpt><trkpt lat="45.31609863963377" lon="9.27079309294382"><ele>87.0</ele><time>2026-04-11T12:08:38Z</time></trkpt><trkpt lat="45.3159738793824" lon="9.270643610317254"><ele>87.0</ele><time>2026-04-11T12:08:39Z</time></trkpt><trkpt lat="45.315838225719716" lon="9.270526391480582"><ele>87.0</ele><time>2026-04-11T12:08:40Z</time></trkpt><trkpt lat="45.31567964903042" lon="9.27044141016107"><ele>87.0</ele><time>2026-04-11T12:08:41Z</time></trkpt><trkpt lat="45.315506762508086" lon="9.270380984729409"><ele>87.0</ele><time>2026-04-11T12:08:42Z</time></trkpt><trkpt lat="45.315331760842945" lon="9.270330081769938"><ele>87.0</ele><time>2026-04-11T12:08:43Z</time></trkpt><trkpt lat="45.31516872424195" lon="9.270286524177342"><ele>87.0</ele><time>2026-04-11T12:08:44Z</time></trkpt><trkpt lat="45.31501306062776" lon="9.270243215082465"><ele>87.0</ele><time>2026-04-11T12:08:45Z</time></trkpt><trkpt lat="45.314867031821876" lon="9.270197677459018"><ele>87.0</ele><time>2026-04-11T12:08:46Z</time></trkpt><trkpt lat="45.31472053455567" lon="9.2701569651258"><ele>87.0</ele><time>2026-04-11T12:08:47Z</time></trkpt><trkpt lat="45.314572090284756" lon="9.270129466716218"><ele>87.0</ele><time>2026-04-11T12:08:48Z</time></trkpt><trkpt lat="45.3144210881697" lon="9.270135283573987"><ele>87.33333333333333</ele><time>2026-04-11T12:08:49Z</time></trkpt><trkpt lat="45.31426570390985" lon="9.270174593007148"><ele>87.66666666666666</ele><time>2026-04-11T12:08:50Z</time></trkpt><trkpt lat="45.314121449351425" lon="9.27024261129973"><ele>88.0</ele><time>2026-04-11T12:08:51Z</time></trkpt><trkpt lat="45.31397785386279" lon="9.27035070157135"><ele>88.0</ele><time>2026-04-11T12:08:52Z</time></trkpt><trkpt lat="45.31383097729467" lon="9.270466281754981"><ele>88.0</ele><time>2026-04-11T12:08:53Z</time></trkpt><trkpt lat="45.31367904751087" lon="9.270589728053462"><ele>88.0</ele><time>2026-04-11T12:08:54Z</time></trkpt><trkpt lat="45.313523404560065" lon="9.270717705669066"><ele>88.0</ele><time>2026-04-11T12:08:55Z</time></trkpt><trkpt lat="45.3133632270511" lon="9.270844031731766"><ele>88.0</ele><time>2026-04-11T12:08:56Z</time></trkpt><trkpt lat="45.31318409042047" lon="9.270986471222004"><ele>88.0</ele><time>2026-04-11T12:08:57Z</time></trkpt><trkpt lat="45.312987211315985" lon="9.271147527478576"><ele>88.5</ele><time>2026-04-11T12:08:58Z</time></trkpt><trkpt lat="45.31276054312239" lon="9.27130750178484"><ele>89.0</ele><time>2026-04-11T12:08:59Z</time></trkpt><trkpt lat="45.31252167985089" lon="9.271472243173033"><ele>89.0</ele><time>2026-04-11T12:09:00Z</time></trkpt><trkpt lat="45.31227414724527" lon="9.271649549449169"><ele>89.0</ele><time>2026-04-11T12:09:01Z</time></trkpt><trkpt lat="45.31202109583771" lon="9.27184137122329"><ele>88.0</ele><time>2026-04-11T12:09:02Z</time></trkpt><trkpt lat="45.311758571349266" lon="9.272038486356628"><ele>87.0</ele><time>2026-04-11T12:09:03Z</time></trkpt><trkpt lat="45.311489363892875" lon="9.272241195131508"><ele>86.5</ele><time>2026-04-11T12:09:04Z</time></trkpt><trkpt lat="45.311239562690766" lon="9.272424660853082"><ele>86.0</ele><time>2026-04-11T12:09:05Z</time></trkpt><trkpt lat="45.31101707401821" lon="9.272580584807613"><ele>86.0</ele><time>2026-04-11T12:09:06Z</time></trkpt><trkpt lat="45.310816276289515" lon="9.272718273920058"><ele>86.0</ele><time>2026-04-11T12:09:07Z</time></trkpt><trkpt lat="45.310628616018576" lon="9.272813530885243"><ele>86.0</ele><time>2026-04-11T12:09:08Z</time></trkpt><trkpt lat="45.31043603458071" lon="9.272867311742823"><ele>86.0</ele><time>2026-04-11T12:09:09Z</time></trkpt><trkpt lat="45.31024320102447" lon="9.272876655863044"><ele>86.0</ele><time>2026-04-11T12:09:10Z</time></trkpt><trkpt lat="45.31005313292472" lon="9.272844060900384"><ele>86.0</ele><time>2026-04-11T12:09:11Z</time></trkpt><trkpt lat="45.309895043507346" lon="9.272775774948979"><ele>86.0</ele><time>2026-04-11T12:09:12Z</time></trkpt><trkpt lat="45.309790619241774" lon="9.272689113637586"><ele>86.0</ele><time>2026-04-11T12:09:12.999Z</time></trkpt><trkpt lat="45.30973540411225" lon="9.272562351866076"><ele>86.0</ele><time>2026-04-11T12:09:13.999Z</time></trkpt><trkpt lat="45.30968493160534" lon="9.272435186037471"><ele>86.0</ele><time>2026-04-11T12:09:14.999Z</time></trkpt><trkpt lat="45.30965157358579" lon="9.272281300965624"><ele>86.0</ele><time>2026-04-11T12:09:15.999Z</time></trkpt><trkpt lat="45.30964222786093" lon="9.27213243416427"><ele>86.0</ele><time>2026-04-11T12:09:16.999Z</time></trkpt><trkpt lat="45.30966077707976" lon="9.271966893093376"><ele>86.0</ele><time>2026-04-11T12:09:17.999Z</time></trkpt><trkpt lat="45.309698599041674" lon="9.271767503553399"><ele>86.0</ele><time>2026-04-11T12:09:18.999Z</time></trkpt><trkpt lat="45.3096772798253" lon="9.271583698646598"><ele>86.0</ele><time>2026-04-11T12:09:19.999Z</time></trkpt><trkpt lat="45.30965178811133" lon="9.271426757690095"><ele>86.0</ele><time>2026-04-11T12:09:20.999Z</time></trkpt><trkpt lat="45.30958916817839" lon="9.271317496536536"><ele>86.0</ele><time>2026-04-11T12:09:21.999Z</time></trkpt><trkpt lat="45.309480696224114" lon="9.271207701421154"><ele>86.0</ele><time>2026-04-11T12:09:22.999Z</time></trkpt><trkpt lat="45.309333626627925" lon="9.27113694705322"><ele>86.0</ele><time>2026-04-11T12:09:23.999Z</time></trkpt><trkpt lat="45.30918389390416" lon="9.27107967412681"><ele>86.0</ele><time>2026-04-11T12:09:24.999Z</time></trkpt><trkpt lat="45.30903904418904" lon="9.270985491353459"><ele>86.0</ele><time>2026-04-11T12:09:25.999Z</time></trkpt><trkpt lat="45.30894395662525" lon="9.270787148246592"><ele>86.0</ele><time>2026-04-11T12:09:26.999Z</time></trkpt><trkpt lat="45.308816750378455" lon="9.27056231692664"><ele>86.33333333333334</ele><time>2026-04-11T12:09:28Z</time></trkpt><trkpt lat="45.30866356561997" lon="9.270325633356663"><ele>86.66666666666667</ele><time>2026-04-11T12:09:29Z</time></trkpt><trkpt lat="45.308540737008975" lon="9.270100035449484"><ele>87.0</ele><time>2026-04-11T12:09:30Z</time></trkpt><trkpt lat="45.30842965035315" lon="9.269899538839708"><ele>87.0</ele><time>2026-04-11T12:09:31Z</time></trkpt><trkpt lat="45.30832070139878" lon="9.269703292113311"><ele>87.0</ele><time>2026-04-11T12:09:32Z</time></trkpt><trkpt lat="45.30821104525202" lon="9.269506632531108"><ele>87.0</ele><time>2026-04-11T12:09:33Z</time></trkpt><trkpt lat="45.30810799594308" lon="9.26932515956046"><ele>87.0</ele><time>2026-04-11T12:09:34Z</time></trkpt><trkpt lat="45.308021214212125" lon="9.269167877453253"><ele>87.0</ele><time>2026-04-11T12:09:35Z</time></trkpt><trkpt lat="45.307955972219276" lon="9.269032328095163"><ele>87.0</ele><time>2026-04-11T12:09:36Z</time></trkpt><trkpt lat="45.30790317940949" lon="9.268906170317605"><ele>87.0</ele><time>2026-04-11T12:09:37Z</time></trkpt><trkpt lat="45.30787806688984" lon="9.26878188829704"><ele>86.8</ele><time>2026-04-11T12:09:38Z</time></trkpt><trkpt lat="45.30787140533192" lon="9.268649459079487"><ele>86.6</ele><time>2026-04-11T12:09:39Z</time></trkpt><trkpt lat="45.30788984899071" lon="9.268500565215838"><ele>86.39999999999999</ele><time>2026-04-11T12:09:40Z</time></trkpt><trkpt lat="45.30784720036222" lon="9.268368117021716"><ele>86.19999999999999</ele><time>2026-04-11T12:09:41Z</time></trkpt><trkpt lat="45.30774624019555" lon="9.268290872524775"><ele>86.0</ele><time>2026-04-11T12:09:42Z</time></trkpt><trkpt lat="45.307644490888336" lon="9.268212532569146"><ele>86.0</ele><time>2026-04-11T12:09:43Z</time></trkpt><trkpt lat="45.30752213507634" lon="9.268181643802041"><ele>86.0</ele><time>2026-04-11T12:09:44Z</time></trkpt><trkpt lat="45.307413160350364" lon="9.268108781366356"><ele>86.0</ele><time>2026-04-11T12:09:45Z</time></trkpt><trkpt lat="45.30730068668874" lon="9.268057472480649"><ele>86.0</ele><time>2026-04-11T12:09:46Z</time></trkpt><trkpt lat="45.30724739529749" lon="9.267839713770794"><ele>86.0</ele><time>2026-04-11T12:09:47Z</time></trkpt><trkpt lat="45.30714289408484" lon="9.267666611575072"><ele>86.0</ele><time>2026-04-11T12:09:48Z</time></trkpt><trkpt lat="45.307014084483065" lon="9.26744843807865"><ele>86.0</ele><time>2026-04-11T12:09:49Z</time></trkpt><trkpt lat="45.30687087217346" lon="9.26720580589477"><ele>86.5</ele><time>2026-04-11T12:09:50Z</time></trkpt><trkpt lat="45.306718204113444" lon="9.266947153657824"><ele>87.0</ele><time>2026-04-11T12:09:51Z</time></trkpt><trkpt lat="45.30655744891462" lon="9.26667643702269"><ele>86.0</ele><time>2026-04-11T12:09:52Z</time></trkpt><trkpt lat="45.30639451796739" lon="9.26641121051143"><ele>85.0</ele><time>2026-04-11T12:09:53Z</time></trkpt><trkpt lat="45.30625693469045" lon="9.266162221933673"><ele>85.0</ele><time>2026-04-11T12:09:54Z</time></trkpt><trkpt lat="45.30612490510864" lon="9.265944157701634"><ele>85.0</ele><time>2026-04-11T12:09:55Z</time></trkpt><trkpt lat="45.305990213175626" lon="9.265724004290176"><ele>85.0</ele><time>2026-04-11T12:09:56Z</time></trkpt><trkpt lat="45.30585765427679" lon="9.265509326388738"><ele>85.0</ele><time>2026-04-11T12:09:57Z</time></trkpt><trkpt lat="45.30573527355779" lon="9.265306781389906"><ele>85.0</ele><time>2026-04-11T12:09:58Z</time></trkpt><trkpt lat="45.305613877763975" lon="9.265105993618242"><ele>85.0</ele><time>2026-04-11T12:09:59Z</time></trkpt><trkpt lat="45.30549389467079" lon="9.264901615756944"><ele>84.66666666666666</ele><time>2026-04-11T12:10:00Z</time></trkpt><trkpt lat="45.30538654992034" lon="9.264683254902167"><ele>84.33333333333333</ele><time>2026-04-11T12:10:01Z</time></trkpt><trkpt lat="45.30525436346117" lon="9.264502852676264"><ele>84.0</ele><time>2026-04-11T12:10:02Z</time></trkpt><trkpt lat="45.30513592819016" lon="9.264299790746811"><ele>84.0</ele><time>2026-04-11T12:10:03Z</time></trkpt><trkpt lat="45.30500943136098" lon="9.264089592947197"><ele>84.0</ele><time>2026-04-11T12:10:04Z</time></trkpt><trkpt lat="45.304870626845954" lon="9.263867857193778"><ele>84.0</ele><time>2026-04-11T12:10:05Z</time></trkpt><trkpt lat="45.30472424248951" lon="9.263639860895895"><ele>83.0</ele><time>2026-04-11T12:10:06Z</time></trkpt><trkpt lat="45.30460894363337" lon="9.263366696314074"><ele>82.0</ele><time>2026-04-11T12:10:07Z</time></trkpt><trkpt lat="45.30446079729443" lon="9.263116364169006"><ele>81.0</ele><time>2026-04-11T12:10:08Z</time></trkpt><trkpt lat="45.30430571120764" lon="9.262854158293607"><ele>80.0</ele><time>2026-04-11T12:10:09Z</time></trkpt><trkpt lat="45.304141916223635" lon="9.26257601140528"><ele>80.0</ele><time>2026-04-11T12:10:10Z</time></trkpt><trkpt lat="45.30398715969816" lon="9.26231450680826"><ele>80.0</ele><time>2026-04-11T12:10:11Z</time></trkpt><trkpt lat="45.30383897676414" lon="9.262065028976949"><ele>81.33333333333334</ele><time>2026-04-11T12:10:12Z</time></trkpt><trkpt lat="45.30370133592411" lon="9.261832881083633"><ele>82.66666666666667</ele><time>2026-04-11T12:10:13Z</time></trkpt><trkpt lat="45.30355600661496" lon="9.261614902569706"><ele>84.0</ele><time>2026-04-11T12:10:14Z</time></trkpt><trkpt lat="45.303427393841645" lon="9.261385616231605"><ele>84.0</ele><time>2026-04-11T12:10:15Z</time></trkpt><trkpt lat="45.30329459701972" lon="9.261159706571386"><ele>84.0</ele><time>2026-04-11T12:10:16Z</time></trkpt><trkpt lat="45.30316388348565" lon="9.260941583930688"><ele>84.0</ele><time>2026-04-11T12:10:17Z</time></trkpt><trkpt lat="45.30303832687402" lon="9.260728917124775"><ele>84.33333333333333</ele><time>2026-04-11T12:10:18Z</time></trkpt><trkpt lat="45.302914032421114" lon="9.260520641289286"><ele>84.66666666666666</ele><time>2026-04-11T12:10:19Z</time></trkpt><trkpt lat="45.30279314190223" lon="9.260316471640989"><ele>85.0</ele><time>2026-04-11T12:10:20Z</time></trkpt><trkpt lat="45.30267184304681" lon="9.26011264265997"><ele>85.0</ele><time>2026-04-11T12:10:21Z</time></trkpt><trkpt lat="45.30255077578371" lon="9.259909468984453"><ele>85.0</ele><time>2026-04-11T12:10:22Z</time></trkpt><trkpt lat="45.302428543586814" lon="9.259704039295471"><ele>85.0</ele><time>2026-04-11T12:10:23Z</time></trkpt><trkpt lat="45.302309812427026" lon="9.259494385383285"><ele>84.66666666666666</ele><time>2026-04-11T12:10:24Z</time></trkpt><trkpt lat="45.30219232836031" lon="9.259291944764152"><ele>84.33333333333333</ele><time>2026-04-11T12:10:25Z</time></trkpt><trkpt lat="45.302074262871706" lon="9.259088707884247"><ele>84.0</ele><time>2026-04-11T12:10:26Z</time></trkpt><trkpt lat="45.30195602761017" lon="9.258883161043913"><ele>84.0</ele><time>2026-04-11T12:10:27Z</time></trkpt><trkpt lat="45.301837729512144" lon="9.258681179252932"><ele>84.0</ele><time>2026-04-11T12:10:28Z</time></trkpt><trkpt lat="45.30171772141204" lon="9.25847801791007"><ele>84.0</ele><time>2026-04-11T12:10:29Z</time></trkpt><trkpt lat="45.30159366205311" lon="9.258276425585745"><ele>84.0</ele><time>2026-04-11T12:10:30Z</time></trkpt><trkpt lat="45.30147481975489" lon="9.25807550016139"><ele>84.0</ele><time>2026-04-11T12:10:31Z</time></trkpt><trkpt lat="45.30135327811488" lon="9.257872559742752"><ele>84.0</ele><time>2026-04-11T12:10:32Z</time></trkpt><trkpt lat="45.30123588604879" lon="9.257666276601565"><ele>84.0</ele><time>2026-04-11T12:10:33Z</time></trkpt><trkpt lat="45.30111992857832" lon="9.257469071169302"><ele>84.0</ele><time>2026-04-11T12:10:34Z</time></trkpt><trkpt lat="45.301004238424014" lon="9.257276652510132"><ele>84.0</ele><time>2026-04-11T12:10:35Z</time></trkpt><trkpt lat="45.300891960916495" lon="9.257093641229362"><ele>84.0</ele><time>2026-04-11T12:10:36Z</time></trkpt><trkpt lat="45.30078124045234" lon="9.256907325441464"><ele>84.0</ele><time>2026-04-11T12:10:37Z</time></trkpt><trkpt lat="45.30067582199406" lon="9.256726402433843"><ele>84.0</ele><time>2026-04-11T12:10:38Z</time></trkpt><trkpt lat="45.30057408437783" lon="9.256552441152564"><ele>84.0</ele><time>2026-04-11T12:10:39Z</time></trkpt><trkpt lat="45.30047811342718" lon="9.256388015559114"><ele>84.0</ele><time>2026-04-11T12:10:40Z</time></trkpt><trkpt lat="45.300384411556074" lon="9.256230545876793"><ele>84.0</ele><time>2026-04-11T12:10:41Z</time></trkpt><trkpt lat="45.30029667888807" lon="9.256081730420682"><ele>84.0</ele><time>2026-04-11T12:10:42Z</time></trkpt><trkpt lat="45.300211076961205" lon="9.255936355791015"><ele>84.0</ele><time>2026-04-11T12:10:43Z</time></trkpt><trkpt lat="45.3001269492104" lon="9.255791071396759"><ele>84.0</ele><time>2026-04-11T12:10:44Z</time></trkpt><trkpt lat="45.300047463003104" lon="9.255658517371307"><ele>84.0</ele><time>2026-04-11T12:10:45Z</time></trkpt><trkpt lat="45.299974256844614" lon="9.255537718363437"><ele>84.0</ele><time>2026-04-11T12:10:46Z</time></trkpt><trkpt lat="45.29989741119642" lon="9.255411303357818"><ele>83.80000000000001</ele><time>2026-04-11T12:10:47Z</time></trkpt><trkpt lat="45.299822960118846" lon="9.255293850417754"><ele>83.60000000000001</ele><time>2026-04-11T12:10:48Z</time></trkpt><trkpt lat="45.29975401139962" lon="9.255183404079082"><ele>83.4</ele><time>2026-04-11T12:10:49Z</time></trkpt><trkpt lat="45.29969274955848" lon="9.255078747836988"><ele>83.2</ele><time>2026-04-11T12:10:50Z</time></trkpt><trkpt lat="45.299634309450184" lon="9.254980557854015"><ele>83.0</ele><time>2026-04-11T12:10:51Z</time></trkpt><trkpt lat="45.299583102217355" lon="9.254892066676287"><ele>82.85714285714285</ele><time>2026-04-11T12:10:52Z</time></trkpt><trkpt lat="45.299535234058894" lon="9.254809910555657"><ele>82.71428571428572</ele><time>2026-04-11T12:10:53Z</time></trkpt><trkpt lat="45.299496955055716" lon="9.254726420088257"><ele>82.57142857142857</ele><time>2026-04-11T12:10:54Z</time></trkpt><trkpt lat="45.29946423406827" lon="9.254644038772572"><ele>82.42857142857142</ele><time>2026-04-11T12:10:55Z</time></trkpt><trkpt lat="45.299436130502244" lon="9.254559954066172"><ele>82.28571428571428</ele><time>2026-04-11T12:10:56Z</time></trkpt><trkpt lat="45.299418416753525" lon="9.254471682879595"><ele>82.14285714285714</ele><time>2026-04-11T12:10:57.001Z</time></trkpt><trkpt lat="45.299416073981654" lon="9.25436213172298"><ele>82.0</ele><time>2026-04-11T12:10:58.001Z</time></trkpt><trkpt lat="45.29940166309214" lon="9.254253400522275"><ele>82.0</ele><time>2026-04-11T12:10:59.001Z</time></trkpt><trkpt lat="45.29936207767788" lon="9.2541490710027"><ele>82.0</ele><time>2026-04-11T12:11:00.001Z</time></trkpt><trkpt lat="45.29926929354908" lon="9.254105761933383"><ele>82.0</ele><time>2026-04-11T12:11:01.001Z</time></trkpt><trkpt lat="45.29918561679663" lon="9.254122880522399"><ele>82.0</ele><time>2026-04-11T12:11:02.001Z</time></trkpt><trkpt lat="45.29912061595713" lon="9.254195448251535"><ele>82.0</ele><time>2026-04-11T12:11:03.001Z</time></trkpt><trkpt lat="45.29908644951565" lon="9.254304240287775"><ele>82.0</ele><time>2026-04-11T12:11:04.001Z</time></trkpt><trkpt lat="45.29909700033398" lon="9.25442388682015"><ele>82.0</ele><time>2026-04-11T12:11:05.001Z</time></trkpt><trkpt lat="45.2991537663277" lon="9.254523268622766"><ele>82.0</ele><time>2026-04-11T12:11:06.001Z</time></trkpt><trkpt lat="45.29924321964437" lon="9.254585858210906"><ele>82.0</ele><time>2026-04-11T12:11:07.001Z</time></trkpt><trkpt lat="45.29935010264232" lon="9.254642643737274"><ele>82.0</ele><time>2026-04-11T12:11:08.001Z</time></trkpt><trkpt lat="45.29944903943087" lon="9.254747341627896"><ele>82.0</ele><time>2026-04-11T12:11:09.001Z</time></trkpt><trkpt lat="45.29956910064137" lon="9.254925867678253"><ele>81.66666666666666</ele><time>2026-04-11T12:11:10.001Z</time></trkpt><trkpt lat="45.2997064053664" lon="9.255144851866271"><ele>81.33333333333333</ele><time>2026-04-11T12:11:11.001Z</time></trkpt><trkpt lat="45.299861027826324" lon="9.255401379859098"><ele>81.0</ele><time>2026-04-11T12:11:12.001Z</time></trkpt><trkpt lat="45.30000927988798" lon="9.255643451931777"><ele>82.0</ele><time>2026-04-11T12:11:13.001Z</time></trkpt><trkpt lat="45.30013743946434" lon="9.25586015502426"><ele>83.0</ele><time>2026-04-11T12:11:14.001Z</time></trkpt><trkpt lat="45.30025751388564" lon="9.256065623192152"><ele>84.0</ele><time>2026-04-11T12:11:15.001Z</time></trkpt><trkpt lat="45.30037342977235" lon="9.25626244698836"><ele>84.0</ele><time>2026-04-11T12:11:16.001Z</time></trkpt><trkpt lat="45.300483286380945" lon="9.256455526807315"><ele>84.0</ele><time>2026-04-11T12:11:17.001Z</time></trkpt><trkpt lat="45.30059167534566" lon="9.256643173640471"><ele>84.0</ele><time>2026-04-11T12:11:18.001Z</time></trkpt><trkpt lat="45.3007036473881" lon="9.256833902738933"><ele>84.0</ele><time>2026-04-11T12:11:19Z</time></trkpt><trkpt lat="45.30081636924738" lon="9.2570227539003"><ele>84.0</ele><time>2026-04-11T12:11:20Z</time></trkpt><trkpt lat="45.30092707995092" lon="9.257210861521045"><ele>84.0</ele><time>2026-04-11T12:11:21Z</time></trkpt><trkpt lat="45.301035915704794" lon="9.257400480806503"><ele>84.0</ele><time>2026-04-11T12:11:22Z</time></trkpt><trkpt lat="45.30114392284721" lon="9.257589537216342"><ele>84.0</ele><time>2026-04-11T12:11:23Z</time></trkpt><trkpt lat="45.301253351087176" lon="9.257773053633265"><ele>84.0</ele><time>2026-04-11T12:11:24Z</time></trkpt><trkpt lat="45.30136166232288" lon="9.257954691105837"><ele>84.0</ele><time>2026-04-11T12:11:25Z</time></trkpt><trkpt lat="45.30147021159351" lon="9.258137742119391"><ele>84.0</ele><time>2026-04-11T12:11:26Z</time></trkpt><trkpt lat="45.30157877093675" lon="9.25832339030447"><ele>84.0</ele><time>2026-04-11T12:11:27Z</time></trkpt><trkpt lat="45.301692046337976" lon="9.258504974557155"><ele>84.0</ele><time>2026-04-11T12:11:28Z</time></trkpt><trkpt lat="45.301807049054275" lon="9.258703420127839"><ele>84.0</ele><time>2026-04-11T12:11:29Z</time></trkpt><trkpt lat="45.301924744485426" lon="9.25891466462279"><ele>84.0</ele><time>2026-04-11T12:11:30Z</time></trkpt><trkpt lat="45.302044204008936" lon="9.259121431310968"><ele>83.66666666666667</ele><time>2026-04-11T12:11:31Z</time></trkpt><trkpt lat="45.30216692445714" lon="9.25932890241801"><ele>83.33333333333334</ele><time>2026-04-11T12:11:32Z</time></trkpt><trkpt lat="45.30228894029596" lon="9.25953700993381"><ele>83.0</ele><time>2026-04-11T12:11:33Z</time></trkpt><trkpt lat="45.30240846804365" lon="9.25973759705735"><ele>83.66666666666667</ele><time>2026-04-11T12:11:34Z</time></trkpt><trkpt lat="45.30253041365958" lon="9.259940645769733"><ele>84.33333333333333</ele><time>2026-04-11T12:11:35Z</time></trkpt><trkpt lat="45.30264773877659" lon="9.260140860355538"><ele>85.0</ele><time>2026-04-11T12:11:36Z</time></trkpt><trkpt lat="45.30276268558766" lon="9.260338970052064"><ele>85.0</ele><time>2026-04-11T12:11:37Z</time></trkpt><trkpt lat="45.30287708037683" lon="9.260531885585758"><ele>85.0</ele><time>2026-04-11T12:11:38Z</time></trkpt><trkpt lat="45.30299306154072" lon="9.260721496166845"><ele>85.0</ele><time>2026-04-11T12:11:39Z</time></trkpt><trkpt lat="45.30310435521473" lon="9.260915074398255"><ele>85.0</ele><time>2026-04-11T12:11:40Z</time></trkpt><trkpt lat="45.30321553016818" lon="9.261106703530649"><ele>85.0</ele><time>2026-04-11T12:11:41Z</time></trkpt><trkpt lat="45.303332288776446" lon="9.261305658262646"><ele>85.0</ele><time>2026-04-11T12:11:42Z</time></trkpt><trkpt lat="45.30344964953443" lon="9.261499890239312"><ele>84.66666666666666</ele><time>2026-04-11T12:11:43Z</time></trkpt><trkpt lat="45.30356896147407" lon="9.261697062130365"><ele>84.33333333333333</ele><time>2026-04-11T12:11:44Z</time></trkpt><trkpt lat="45.303683000030404" lon="9.261893272728267"><ele>84.0</ele><time>2026-04-11T12:11:45Z</time></trkpt><trkpt lat="45.3037984309298" lon="9.26208780420376"><ele>82.66666666666667</ele><time>2026-04-11T12:11:46Z</time></trkpt><trkpt lat="45.303917380883995" lon="9.262282984126124"><ele>81.33333333333334</ele><time>2026-04-11T12:11:47Z</time></trkpt><trkpt lat="45.30403288634143" lon="9.262478929770666"><ele>80.0</ele><time>2026-04-11T12:11:48Z</time></trkpt><trkpt lat="45.30414855739252" lon="9.262672268617932"><ele>80.0</ele><time>2026-04-11T12:11:49Z</time></trkpt><trkpt lat="45.304263414824845" lon="9.262866244579655"><ele>80.0</ele><time>2026-04-11T12:11:50Z</time></trkpt><trkpt lat="45.30437787809213" lon="9.263061305846529"><ele>80.0</ele><time>2026-04-11T12:11:51Z</time></trkpt><trkpt lat="45.30448368725913" lon="9.263251835845132"><ele>80.66666666666667</ele><time>2026-04-11T12:11:52Z</time></trkpt><trkpt lat="45.304589772457334" lon="9.263450214012762"><ele>81.33333333333333</ele><time>2026-04-11T12:11:53Z</time></trkpt><trkpt lat="45.30468958995054" lon="9.263643186847366"><ele>82.0</ele><time>2026-04-11T12:11:54Z</time></trkpt><trkpt lat="45.304789194031386" lon="9.263824534316285"><ele>82.66666666666666</ele><time>2026-04-11T12:11:55Z</time></trkpt><trkpt lat="45.304891545126715" lon="9.2639945540589"><ele>83.33333333333333</ele><time>2026-04-11T12:11:56Z</time></trkpt><trkpt lat="45.30499435205005" lon="9.264163746729857"><ele>84.0</ele><time>2026-04-11T12:11:57Z</time></trkpt><trkpt lat="45.30508484806516" lon="9.264317202409709"><ele>84.0</ele><time>2026-04-11T12:11:58Z</time></trkpt><trkpt lat="45.3051630339365" lon="9.264455861388923"><ele>84.0</ele><time>2026-04-11T12:11:59Z</time></trkpt><trkpt lat="45.30523145436965" lon="9.264591700794012"><ele>84.0</ele><time>2026-04-11T12:12:00Z</time></trkpt><trkpt lat="45.30530109182245" lon="9.264703593513651"><ele>84.0</ele><time>2026-04-11T12:12:01Z</time></trkpt><trkpt lat="45.30535937533795" lon="9.264803009634152"><ele>84.0</ele><time>2026-04-11T12:12:02Z</time></trkpt><trkpt lat="45.30528680318626" lon="9.265032124280205"><ele>83.5</ele><time>2026-04-11T12:12:03Z</time></trkpt><trkpt lat="45.305264588306336" lon="9.265175669129313"><ele>83.0</ele><time>2026-04-11T12:12:04Z</time></trkpt><trkpt lat="45.30517047977492" lon="9.265426785072512"><ele>82.5</ele><time>2026-04-11T12:12:06Z</time></trkpt><trkpt lat="45.30510411482915" lon="9.265528800726157"><ele>82.0</ele><time>2026-04-11T12:12:07Z</time></trkpt><trkpt lat="45.30501858804044" lon="9.2656096259596"><ele>82.39999999999999</ele><time>2026-04-11T12:12:08Z</time></trkpt><trkpt lat="45.30492417207689" lon="9.26566292913363"><ele>82.8</ele><time>2026-04-11T12:12:09Z</time></trkpt><trkpt lat="45.304824006708344" lon="9.265706087887704"><ele>83.2</ele><time>2026-04-11T12:12:10Z</time></trkpt><trkpt lat="45.30472214837" lon="9.265758094121624"><ele>83.6</ele><time>2026-04-11T12:12:11Z</time></trkpt><trkpt lat="45.30462638589823" lon="9.26581002956434"><ele>84.0</ele><time>2026-04-11T12:12:12Z</time></trkpt><trkpt lat="45.30453698090275" lon="9.26585513147215"><ele>84.2</ele><time>2026-04-11T12:12:13Z</time></trkpt><trkpt lat="45.304453561874226" lon="9.265889341807908"><ele>84.4</ele><time>2026-04-11T12:12:14Z</time></trkpt><trkpt lat="45.304357271528055" lon="9.265938110532268"><ele>84.6</ele><time>2026-04-11T12:12:15Z</time></trkpt><trkpt lat="45.304252849492464" lon="9.265990744035912"><ele>84.8</ele><time>2026-04-11T12:12:16Z</time></trkpt><trkpt lat="45.3041453673152" lon="9.26604545736609"><ele>85.0</ele><time>2026-04-11T12:12:17Z</time></trkpt><trkpt lat="45.30403800183832" lon="9.266096424295945"><ele>85.0</ele><time>2026-04-11T12:12:18Z</time></trkpt><trkpt lat="45.30392592271665" lon="9.266144307967421"><ele>85.0</ele><time>2026-04-11T12:12:19Z</time></trkpt><trkpt lat="45.303805404904665" lon="9.266172184036089"><ele>85.0</ele><time>2026-04-11T12:12:20Z</time></trkpt><trkpt lat="45.30368755873018" lon="9.266215669309101"><ele>85.0</ele><time>2026-04-11T12:12:21Z</time></trkpt><trkpt lat="45.303569423022935" lon="9.266259171987427"><ele>85.0</ele><time>2026-04-11T12:12:22Z</time></trkpt><trkpt lat="45.30343875842823" lon="9.266315439920323"><ele>85.0</ele><time>2026-04-11T12:12:23Z</time></trkpt><trkpt lat="45.303283485681845" lon="9.266371233747389"><ele>85.0</ele><time>2026-04-11T12:12:24Z</time></trkpt><trkpt lat="45.30313740896712" lon="9.266420665829623"><ele>85.0</ele><time>2026-04-11T12:12:25Z</time></trkpt><trkpt lat="45.302988706329636" lon="9.266469742099078"><ele>85.0</ele><time>2026-04-11T12:12:26Z</time></trkpt><trkpt lat="45.30284216561867" lon="9.266525675926328"><ele>85.0</ele><time>2026-04-11T12:12:27Z</time></trkpt><trkpt lat="45.302707022505246" lon="9.266588804782158"><ele>85.0</ele><time>2026-04-11T12:12:28Z</time></trkpt><trkpt lat="45.30256814634722" lon="9.266652894503343"><ele>85.0</ele><time>2026-04-11T12:12:29Z</time></trkpt><trkpt lat="45.3024281186631" lon="9.26672427123059"><ele>85.0</ele><time>2026-04-11T12:12:30Z</time></trkpt><trkpt lat="45.302288544875196" lon="9.266801220073791"><ele>85.0</ele><time>2026-04-11T12:12:31Z</time></trkpt><trkpt lat="45.30214615830251" lon="9.266873478475983"><ele>85.0</ele><time>2026-04-11T12:12:32Z</time></trkpt><trkpt lat="45.301999603503546" lon="9.266933280629285"><ele>84.75</ele><time>2026-04-11T12:12:33Z</time></trkpt><trkpt lat="45.30185343267509" lon="9.266995333185827"><ele>84.5</ele><time>2026-04-11T12:12:34Z</time></trkpt><trkpt lat="45.30171452063535" lon="9.267052372847322"><ele>84.25</ele><time>2026-04-11T12:12:35Z</time></trkpt><trkpt lat="45.3015697438315" lon="9.267108405672834"><ele>84.0</ele><time>2026-04-11T12:12:36Z</time></trkpt><trkpt lat="45.301427881250284" lon="9.267163837126786"><ele>84.0</ele><time>2026-04-11T12:12:37Z</time></trkpt><trkpt lat="45.3012843221588" lon="9.26721231427008"><ele>84.0</ele><time>2026-04-11T12:12:38Z</time></trkpt><trkpt lat="45.30113752975589" lon="9.267261279336694"><ele>84.0</ele><time>2026-04-11T12:12:39Z</time></trkpt><trkpt lat="45.300994041229046" lon="9.267304039230067"><ele>84.0</ele><time>2026-04-11T12:12:40Z</time></trkpt><trkpt lat="45.30085345659557" lon="9.267347781277548"><ele>84.25</ele><time>2026-04-11T12:12:41Z</time></trkpt><trkpt lat="45.30071990151412" lon="9.267386709358215"><ele>84.5</ele><time>2026-04-11T12:12:42Z</time></trkpt><trkpt lat="45.30058644804827" lon="9.26742649038832"><ele>84.75</ele><time>2026-04-11T12:12:43Z</time></trkpt><trkpt lat="45.300469055452055" lon="9.26746396982646"><ele>85.0</ele><time>2026-04-11T12:12:44.001Z</time></trkpt><trkpt lat="45.300355664303055" lon="9.267500993761962"><ele>84.6</ele><time>2026-04-11T12:12:45.001Z</time></trkpt><trkpt lat="45.300245083184166" lon="9.267535986759329"><ele>84.2</ele><time>2026-04-11T12:12:46.001Z</time></trkpt><trkpt lat="45.30014499994725" lon="9.267567151593365"><ele>83.80000000000001</ele><time>2026-04-11T12:12:47.001Z</time></trkpt><trkpt lat="45.30005663093616" lon="9.267601671982758"><ele>83.4</ele><time>2026-04-11T12:12:48.001Z</time></trkpt><trkpt lat="45.2999760807659" lon="9.2676318728965"><ele>83.0</ele><time>2026-04-11T12:12:49.001Z</time></trkpt><trkpt lat="45.29990729092301" lon="9.267660695968651"><ele>83.0</ele><time>2026-04-11T12:12:50.001Z</time></trkpt><trkpt lat="45.299842563264505" lon="9.267683872514095"><ele>83.0</ele><time>2026-04-11T12:12:51.001Z</time></trkpt><trkpt lat="45.299734263958385" lon="9.26769718341344"><ele>83.0</ele><time>2026-04-11T12:12:53.001Z</time></trkpt><trkpt lat="45.299659496339885" lon="9.267715522928784"><ele>83.0</ele><time>2026-04-11T12:12:55.001Z</time></trkpt><trkpt lat="45.299592220694464" lon="9.267731141353483"><ele>83.0</ele><time>2026-04-11T12:12:57.001Z</time></trkpt><trkpt lat="45.29951325459557" lon="9.267749478875949"><ele>83.0</ele><time>2026-04-11T12:12:59.001Z</time></trkpt><trkpt lat="45.29942257352403" lon="9.267770542975688"><ele>83.2</ele><time>2026-04-11T12:13:01.001Z</time></trkpt><trkpt lat="45.299332788224376" lon="9.267812730983158"><ele>83.4</ele><time>2026-04-11T12:13:03.001Z</time></trkpt><trkpt lat="45.29922167663357" lon="9.267837696072432"><ele>83.60000000000001</ele><time>2026-04-11T12:13:05.001Z</time></trkpt><trkpt lat="45.29910573245997" lon="9.267865061007784"><ele>83.80000000000001</ele><time>2026-04-11T12:13:07.001Z</time></trkpt><trkpt lat="45.29904043941931" lon="9.267877908845351"><ele>84.0</ele><time>2026-04-11T12:13:08.001Z</time></trkpt><trkpt lat="45.29897288248716" lon="9.267895686604376"><ele>84.0</ele><time>2026-04-11T12:13:09.001Z</time></trkpt><trkpt lat="45.29890274505303" lon="9.267907020177276"><ele>84.0</ele><time>2026-04-11T12:13:10.001Z</time></trkpt><trkpt lat="45.29883309536225" lon="9.267924766259304"><ele>84.0</ele><time>2026-04-11T12:13:11.001Z</time></trkpt><trkpt lat="45.298754918098346" lon="9.267938670642437"><ele>84.0</ele><time>2026-04-11T12:13:12.001Z</time></trkpt><trkpt lat="45.29866541807037" lon="9.267962082232245"><ele>84.0</ele><time>2026-04-11T12:13:13.001Z</time></trkpt><trkpt lat="45.298573115824084" lon="9.267984262768117"><ele>84.0</ele><time>2026-04-11T12:13:14.001Z</time></trkpt><trkpt lat="45.29847649736169" lon="9.268005142597794"><ele>84.0</ele><time>2026-04-11T12:13:15.001Z</time></trkpt><trkpt lat="45.29835461481419" lon="9.268032138548795"><ele>84.0</ele><time>2026-04-11T12:13:16.001Z</time></trkpt><trkpt lat="45.29819559383952" lon="9.268067975120365"><ele>84.0</ele><time>2026-04-11T12:13:17.001Z</time></trkpt><trkpt lat="45.29804281255281" lon="9.268103288550373"><ele>84.0</ele><time>2026-04-11T12:13:18.001Z</time></trkpt><trkpt lat="45.2978890908439" lon="9.26813464434617"><ele>84.0</ele><time>2026-04-11T12:13:19.001Z</time></trkpt><trkpt lat="45.29774935193478" lon="9.268164647330792"><ele>84.0</ele><time>2026-04-11T12:13:20.001Z</time></trkpt><trkpt lat="45.297606617524096" lon="9.268197784508184"><ele>84.0</ele><time>2026-04-11T12:13:21.001Z</time></trkpt><trkpt lat="45.297471948376845" lon="9.268230121768644"><ele>84.0</ele><time>2026-04-11T12:13:22.001Z</time></trkpt><trkpt lat="45.29733166655156" lon="9.268263170839166"><ele>84.0</ele><time>2026-04-11T12:13:23.001Z</time></trkpt><trkpt lat="45.29719135085366" lon="9.268293321672115"><ele>84.0</ele><time>2026-04-11T12:13:24.001Z</time></trkpt><trkpt lat="45.29704973279132" lon="9.268325780378474"><ele>84.0</ele><time>2026-04-11T12:13:25Z</time></trkpt><trkpt lat="45.296911403595686" lon="9.268356621414853"><ele>84.0</ele><time>2026-04-11T12:13:26Z</time></trkpt><trkpt lat="45.29676811368597" lon="9.268390755722494"><ele>84.0</ele><time>2026-04-11T12:13:27Z</time></trkpt><trkpt lat="45.2966246220623" lon="9.268421354770988"><ele>84.0</ele><time>2026-04-11T12:13:28Z</time></trkpt><trkpt lat="45.296472640714676" lon="9.268450140027403"><ele>84.0</ele><time>2026-04-11T12:13:29Z</time></trkpt><trkpt lat="45.29631749250899" lon="9.26847157931183"><ele>84.0</ele><time>2026-04-11T12:13:30Z</time></trkpt><trkpt lat="45.296165208763895" lon="9.268494878588003"><ele>84.0</ele><time>2026-04-11T12:13:31Z</time></trkpt><trkpt lat="45.29602158767557" lon="9.268513432595908"><ele>84.0</ele><time>2026-04-11T12:13:32Z</time></trkpt><trkpt lat="45.295875278521294" lon="9.268532137809755"><ele>84.0</ele><time>2026-04-11T12:13:33Z</time></trkpt><trkpt lat="45.29574445536002" lon="9.268555416883393"><ele>84.0</ele><time>2026-04-11T12:13:34Z</time></trkpt><trkpt lat="45.29560685244141" lon="9.268581337728147"><ele>84.0</ele><time>2026-04-11T12:13:35Z</time></trkpt><trkpt lat="45.295469583559345" lon="9.268603554768594"><ele>84.0</ele><time>2026-04-11T12:13:36Z</time></trkpt><trkpt lat="45.29532686753086" lon="9.268627285210606"><ele>84.0</ele><time>2026-04-11T12:13:37Z</time></trkpt><trkpt lat="45.29518407983671" lon="9.268648218411531"><ele>84.0</ele><time>2026-04-11T12:13:38Z</time></trkpt><trkpt lat="45.2950551751005" lon="9.268660920069125"><ele>84.0</ele><time>2026-04-11T12:13:39Z</time></trkpt><trkpt lat="45.294921227426144" lon="9.26866964588932"><ele>84.0</ele><time>2026-04-11T12:13:40Z</time></trkpt><trkpt lat="45.29479908181144" lon="9.268669662396364"><ele>84.0</ele><time>2026-04-11T12:13:41Z</time></trkpt><trkpt lat="45.294687373146374" lon="9.26865190611666"><ele>84.0</ele><time>2026-04-11T12:13:42Z</time></trkpt><trkpt lat="45.29458496675982" lon="9.26862959181278"><ele>84.0</ele><time>2026-04-11T12:13:43Z</time></trkpt><trkpt lat="45.29449225344185" lon="9.26860647839621"><ele>84.0</ele><time>2026-04-11T12:13:44Z</time></trkpt><trkpt lat="45.29441488038296" lon="9.268578026395716"><ele>84.0</ele><time>2026-04-11T12:13:45Z</time></trkpt><trkpt lat="45.29435012617085" lon="9.268552369653342"><ele>84.0</ele><time>2026-04-11T12:13:46Z</time></trkpt><trkpt lat="45.294288078186824" lon="9.268510989740319"><ele>84.0</ele><time>2026-04-11T12:13:47Z</time></trkpt><trkpt lat="45.29422945173622" lon="9.268451154573611"><ele>84.0</ele><time>2026-04-11T12:13:48Z</time></trkpt><trkpt lat="45.29417762076162" lon="9.268375425514286"><ele>84.0</ele><time>2026-04-11T12:13:49Z</time></trkpt><trkpt lat="45.29417763187587" lon="9.268252321687642"><ele>84.0</ele><time>2026-04-11T12:13:50Z</time></trkpt><trkpt lat="45.29414678090124" lon="9.268135950117559"><ele>84.0</ele><time>2026-04-11T12:13:51Z</time></trkpt><trkpt lat="45.29411259826996" lon="9.267995338781345"><ele>84.0</ele><time>2026-04-11T12:13:52Z</time></trkpt><trkpt lat="45.29407171605852" lon="9.267817256998635"><ele>83.66666666666667</ele><time>2026-04-11T12:13:53Z</time></trkpt><trkpt lat="45.29402284808621" lon="9.267604388791364"><ele>83.33333333333334</ele><time>2026-04-11T12:13:54Z</time></trkpt><trkpt lat="45.29397174996921" lon="9.267381806268883"><ele>83.0</ele><time>2026-04-11T12:13:55Z</time></trkpt><trkpt lat="45.29392407170934" lon="9.267174120640448"><ele>83.16666666666667</ele><time>2026-04-11T12:13:56Z</time></trkpt><trkpt lat="45.293888054429274" lon="9.267014456731006"><ele>83.33333333333334</ele><time>2026-04-11T12:13:57Z</time></trkpt><trkpt lat="45.293853111352355" lon="9.26688669024668"><ele>83.5</ele><time>2026-04-11T12:13:58Z</time></trkpt><trkpt lat="45.29382258153081" lon="9.266774837909173"><ele>83.66666666666667</ele><time>2026-04-11T12:13:59Z</time></trkpt><trkpt lat="45.293790146303245" lon="9.266679756450106"><ele>83.83333333333333</ele><time>2026-04-11T12:14:00Z</time></trkpt><trkpt lat="45.293741693633066" lon="9.266609004162296"><ele>84.0</ele><time>2026-04-11T12:14:01Z</time></trkpt><trkpt lat="45.293674305392955" lon="9.266552645464882"><ele>84.0</ele><time>2026-04-11T12:14:02Z</time></trkpt><trkpt lat="45.293590658790286" lon="9.266530288078416"><ele>84.0</ele><time>2026-04-11T12:14:03Z</time></trkpt><trkpt lat="45.29349575169351" lon="9.266553481622605"><ele>84.0</ele><time>2026-04-11T12:14:04Z</time></trkpt><trkpt lat="45.29338168205084" lon="9.266599880369517"><ele>84.0</ele><time>2026-04-11T12:14:05Z</time></trkpt><trkpt lat="45.29324215069443" lon="9.266670645865643"><ele>84.0</ele><time>2026-04-11T12:14:06Z</time></trkpt><trkpt lat="45.29309737814097" lon="9.266737428644674"><ele>84.25</ele><time>2026-04-11T12:14:07Z</time></trkpt><trkpt lat="45.292951323211994" lon="9.266797854228825"><ele>84.5</ele><time>2026-04-11T12:14:08Z</time></trkpt><trkpt lat="45.292816725204695" lon="9.266855106169901"><ele>84.75</ele><time>2026-04-11T12:14:09Z</time></trkpt><trkpt lat="45.29269653531678" lon="9.266901358978181"><ele>85.0</ele><time>2026-04-11T12:14:10Z</time></trkpt><trkpt lat="45.292582304669104" lon="9.266941622558384"><ele>85.0</ele><time>2026-04-11T12:14:11Z</time></trkpt><trkpt lat="45.29247289651921" lon="9.266977197554167"><ele>85.0</ele><time>2026-04-11T12:14:12Z</time></trkpt><trkpt lat="45.29237251418989" lon="9.267004679059658"><ele>85.0</ele><time>2026-04-11T12:14:13Z</time></trkpt><trkpt lat="45.29226982269285" lon="9.266992090992447"><ele>85.0</ele><time>2026-04-11T12:14:14Z</time></trkpt><trkpt lat="45.292182931939934" lon="9.267015348887671"><ele>85.0</ele><time>2026-04-11T12:14:15Z</time></trkpt><trkpt lat="45.29211441818608" lon="9.267082525399372"><ele>84.66666666666666</ele><time>2026-04-11T12:14:16Z</time></trkpt><trkpt lat="45.29203458423235" lon="9.26713094425299"><ele>84.33333333333333</ele><time>2026-04-11T12:14:17Z</time></trkpt><trkpt lat="45.29196931621881" lon="9.267172651238083"><ele>84.0</ele><time>2026-04-11T12:14:18Z</time></trkpt><trkpt lat="45.291907611163836" lon="9.267206346309473"><ele>83.66666666666667</ele><time>2026-04-11T12:14:19Z</time></trkpt><trkpt lat="45.29183699859509" lon="9.26721998452524"><ele>83.33333333333334</ele><time>2026-04-11T12:14:20Z</time></trkpt><trkpt lat="45.29177686673801" lon="9.267252495371556"><ele>83.0</ele><time>2026-04-11T12:14:21Z</time></trkpt><trkpt lat="45.29167858574729" lon="9.267314704796462"><ele>83.0</ele><time>2026-04-11T12:14:23Z</time></trkpt><trkpt lat="45.291579066203965" lon="9.267380159281576"><ele>83.0</ele><time>2026-04-11T12:14:25Z</time></trkpt><trkpt lat="45.291480128078206" lon="9.267425089861096"><ele>83.0</ele><time>2026-04-11T12:14:27Z</time></trkpt><trkpt lat="45.291389326833595" lon="9.267473693420062"><ele>83.0</ele><time>2026-04-11T12:14:29Z</time></trkpt><trkpt lat="45.291317101655196" lon="9.26752336552445"><ele>83.0</ele><time>2026-04-11T12:14:31Z</time></trkpt><trkpt lat="45.29124171222275" lon="9.267566220678562"><ele>83.0</ele><time>2026-04-11T12:14:33Z</time></trkpt><trkpt lat="45.29115131745282" lon="9.267618549967422"><ele>83.0</ele><time>2026-04-11T12:14:36Z</time></trkpt><trkpt lat="45.2910852339788" lon="9.267654539553469"><ele>83.0</ele><time>2026-04-11T12:14:38.001Z</time></trkpt><trkpt lat="45.291021920502985" lon="9.267693721790444"><ele>83.0</ele><time>2026-04-11T12:14:40.001Z</time></trkpt><trkpt lat="45.29093257158389" lon="9.267747331742322"><ele>83.0</ele><time>2026-04-11T12:14:42.001Z</time></trkpt><trkpt lat="45.29083363841034" lon="9.267809328299286"><ele>83.0</ele><time>2026-04-11T12:14:44.001Z</time></trkpt><trkpt lat="45.29072880633218" lon="9.267879877510092"><ele>83.0</ele><time>2026-04-11T12:14:46.001Z</time></trkpt><trkpt lat="45.29065274105447" lon="9.267927770246652"><ele>83.0</ele><time>2026-04-11T12:14:47.001Z</time></trkpt><trkpt lat="45.290574268366825" lon="9.267980680500356"><ele>83.0</ele><time>2026-04-11T12:14:48.001Z</time></trkpt><trkpt lat="45.290516526271546" lon="9.268025445842175"><ele>83.0</ele><time>2026-04-11T12:14:49.001Z</time></trkpt><trkpt lat="45.29045934908287" lon="9.26807329016986"><ele>83.0</ele><time>2026-04-11T12:14:51.001Z</time></trkpt><trkpt lat="45.29037437281984" lon="9.268135960673984"><ele>83.0</ele><time>2026-04-11T12:14:54.001Z</time></trkpt><trkpt lat="45.29029699481503" lon="9.268184047187775"><ele>82.83333333333334</ele><time>2026-04-11T12:14:57.001Z</time></trkpt><trkpt lat="45.290222459873476" lon="9.268234841072827"><ele>82.66666666666667</ele><time>2026-04-11T12:15:00.001Z</time></trkpt><trkpt lat="45.29016446706223" lon="9.268276454012884"><ele>82.5</ele><time>2026-04-11T12:15:02.001Z</time></trkpt><trkpt lat="45.2900918367161" lon="9.268332752899942"><ele>82.33333333333333</ele><time>2026-04-11T12:15:05.001Z</time></trkpt><trkpt lat="45.29002042314943" lon="9.268368941296698"><ele>82.16666666666666</ele><time>2026-04-11T12:15:07.001Z</time></trkpt><trkpt lat="45.289942468321236" lon="9.268408855040816"><ele>82.0</ele><time>2026-04-11T12:15:09.001Z</time></trkpt><trkpt lat="45.28987418442897" lon="9.268442654210983"><ele>82.0</ele><time>2026-04-11T12:15:11.001Z</time></trkpt><trkpt lat="45.2898024298426" lon="9.268496557254387"><ele>82.0</ele><time>2026-04-11T12:15:14.001Z</time></trkpt><trkpt lat="45.28974258531172" lon="9.268589575182673"><ele>82.0</ele><time>2026-04-11T12:15:18.001Z</time></trkpt><trkpt lat="45.28968311183128" lon="9.26867252616961"><ele>82.0</ele><time>2026-04-11T12:15:22.001Z</time></trkpt><trkpt lat="45.289630329354104" lon="9.268731610385888"><ele>82.0</ele><time>2026-04-11T12:15:25.001Z</time></trkpt><trkpt lat="45.28956430390191" lon="9.26878201693532"><ele>82.0</ele><time>2026-04-11T12:15:31Z</time></trkpt><trkpt lat="45.289517201204156" lon="9.268844518128876"><ele>82.0</ele><time>2026-04-11T12:15:33Z</time></trkpt><trkpt lat="45.28947099437211" lon="9.268915151014214"><ele>82.0</ele><time>2026-04-11T12:15:35Z</time></trkpt><trkpt lat="45.2893900651279" lon="9.269026905156034"><ele>82.0</ele><time>2026-04-11T12:15:38Z</time></trkpt><trkpt lat="45.2893327614562" lon="9.269096226908543"><ele>82.0</ele><time>2026-04-11T12:15:39Z</time></trkpt><trkpt lat="45.289250096499" lon="9.26919957692523"><ele>82.0</ele><time>2026-04-11T12:15:40Z</time></trkpt><trkpt lat="45.28915871720397" lon="9.26931273038545"><ele>82.0</ele><time>2026-04-11T12:15:41Z</time></trkpt><trkpt lat="45.289084142364054" lon="9.269394518615139"><ele>82.0</ele><time>2026-04-11T12:15:42Z</time></trkpt><trkpt lat="45.289027130383495" lon="9.269470288478681"><ele>82.0</ele><time>2026-04-11T12:15:43Z</time></trkpt><trkpt lat="45.28897347484684" lon="9.269533504128889"><ele>82.0</ele><time>2026-04-11T12:15:44Z</time></trkpt><trkpt lat="45.288883398166966" lon="9.269631781785083"><ele>82.0</ele><time>2026-04-11T12:15:46Z</time></trkpt><trkpt lat="45.28878939305508" lon="9.26974925879908"><ele>81.8</ele><time>2026-04-11T12:15:48Z</time></trkpt><trkpt lat="45.2886956516695" lon="9.269864056655273"><ele>81.6</ele><time>2026-04-11T12:15:50Z</time></trkpt><trkpt lat="45.28859882780362" lon="9.269981324602002"><ele>81.39999999999999</ele><time>2026-04-11T12:15:52Z</time></trkpt><trkpt lat="45.28853252562985" lon="9.270051297129623"><ele>81.19999999999999</ele><time>2026-04-11T12:15:53Z</time></trkpt><trkpt lat="45.288457818446716" lon="9.270153853494552"><ele>81.0</ele><time>2026-04-11T12:15:54Z</time></trkpt><trkpt lat="45.28836404752897" lon="9.27026030279533"><ele>81.0</ele><time>2026-04-11T12:15:55Z</time></trkpt><trkpt lat="45.28829055578219" lon="9.270351375360795"><ele>81.0</ele><time>2026-04-11T12:15:56Z</time></trkpt><trkpt lat="45.28823282441702" lon="9.27042581205075"><ele>81.0</ele><time>2026-04-11T12:15:57Z</time></trkpt><trkpt lat="45.28817920651418" lon="9.270495110407262"><ele>81.0</ele><time>2026-04-11T12:15:58Z</time></trkpt><trkpt lat="45.2881251655075" lon="9.27056158177838"><ele>81.0</ele><time>2026-04-11T12:15:59Z</time></trkpt><trkpt lat="45.288032923079534" lon="9.270683006253646"><ele>81.0</ele><time>2026-04-11T12:16:01Z</time></trkpt><trkpt lat="45.28794552776157" lon="9.270799458897649"><ele>81.0</ele><time>2026-04-11T12:16:03Z</time></trkpt><trkpt lat="45.28790063418755" lon="9.270862196610393"><ele>81.0</ele><time>2026-04-11T12:16:04Z</time></trkpt><trkpt lat="45.287809835199965" lon="9.270978290294781"><ele>81.0</ele><time>2026-04-11T12:16:06Z</time></trkpt><trkpt lat="45.287728362002014" lon="9.271095100202299"><ele>81.0</ele><time>2026-04-11T12:16:08Z</time></trkpt><trkpt lat="45.287651686828774" lon="9.271223710032737"><ele>81.0</ele><time>2026-04-11T12:16:10Z</time></trkpt><trkpt lat="45.28758370853606" lon="9.271354904219251"><ele>81.0</ele><time>2026-04-11T12:16:12Z</time></trkpt><trkpt lat="45.28752368354785" lon="9.27149316306257"><ele>81.0</ele><time>2026-04-11T12:16:14Z</time></trkpt><trkpt lat="45.28747351779719" lon="9.271615942676963"><ele>81.0</ele><time>2026-04-11T12:16:16Z</time></trkpt><trkpt lat="45.28741502322258" lon="9.271761106613273"><ele>81.0</ele><time>2026-04-11T12:16:18Z</time></trkpt><trkpt lat="45.28737948066811" lon="9.27183556701122"><ele>81.0</ele><time>2026-04-11T12:16:19Z</time></trkpt><trkpt lat="45.28731189938312" lon="9.271982535390219"><ele>81.0</ele><time>2026-04-11T12:16:21Z</time></trkpt><trkpt lat="45.28727357951161" lon="9.272068726231698"><ele>81.0</ele><time>2026-04-11T12:16:22Z</time></trkpt><trkpt lat="45.287232168149316" lon="9.272170428132398"><ele>81.0</ele><time>2026-04-11T12:16:23Z</time></trkpt><trkpt lat="45.28718280190396" lon="9.272277521536815"><ele>81.0</ele><time>2026-04-11T12:16:24Z</time></trkpt><trkpt lat="45.28713591084259" lon="9.272393264355001"><ele>81.0</ele><time>2026-04-11T12:16:25Z</time></trkpt><trkpt lat="45.28709019600534" lon="9.272516586813355"><ele>81.0</ele><time>2026-04-11T12:16:26Z</time></trkpt><trkpt lat="45.28704724094903" lon="9.272630533776606"><ele>80.85714285714286</ele><time>2026-04-11T12:16:27Z</time></trkpt><trkpt lat="45.287003825980186" lon="9.272736385331275"><ele>80.71428571428571</ele><time>2026-04-11T12:16:28Z</time></trkpt><trkpt lat="45.286964176898444" lon="9.272823336374689"><ele>80.57142857142857</ele><time>2026-04-11T12:16:29Z</time></trkpt><trkpt lat="45.286924363869886" lon="9.272896466718134"><ele>80.42857142857143</ele><time>2026-04-11T12:16:30Z</time></trkpt><trkpt lat="45.28687391437032" lon="9.27295171829257"><ele>80.28571428571429</ele><time>2026-04-11T12:16:31.001Z</time></trkpt><trkpt lat="45.286808134891004" lon="9.272982054644741"><ele>80.14285714285714</ele><time>2026-04-11T12:16:32.001Z</time></trkpt><trkpt lat="45.2867394211999" lon="9.273010116444498"><ele>80.0</ele><time>2026-04-11T12:16:33.001Z</time></trkpt><trkpt lat="45.286658310915186" lon="9.273038386804828"><ele>80.0</ele><time>2026-04-11T12:16:34.001Z</time></trkpt><trkpt lat="45.28655012970592" lon="9.273063011732452"><ele>80.0</ele><time>2026-04-11T12:16:35.001Z</time></trkpt><trkpt lat="45.28640967324423" lon="9.27310602495681"><ele>80.0</ele><time>2026-04-11T12:16:36.001Z</time></trkpt><trkpt lat="45.2862594792642" lon="9.27319091450354"><ele>80.0</ele><time>2026-04-11T12:16:37.001Z</time></trkpt><trkpt lat="45.28611663884426" lon="9.27325598138947"><ele>79.6</ele><time>2026-04-11T12:16:38.001Z</time></trkpt><trkpt lat="45.28599663600022" lon="9.273315316021613"><ele>79.2</ele><time>2026-04-11T12:16:39.001Z</time></trkpt><trkpt lat="45.285901994811454" lon="9.27337082936276"><ele>78.8</ele><time>2026-04-11T12:16:40.001Z</time></trkpt><trkpt lat="45.28582254700585" lon="9.273422808976669"><ele>78.4</ele><time>2026-04-11T12:16:41.001Z</time></trkpt><trkpt lat="45.285761773631116" lon="9.273463859729707"><ele>78.0</ele><time>2026-04-11T12:16:42.001Z</time></trkpt><trkpt lat="45.285678317088724" lon="9.273535739302428"><ele>78.0</ele><time>2026-04-11T12:16:44.001Z</time></trkpt><trkpt lat="45.285604969826295" lon="9.273591264310312"><ele>78.0</ele><time>2026-04-11T12:16:46.001Z</time></trkpt><trkpt lat="45.28555888767709" lon="9.273701132274729"><ele>78.0</ele><time>2026-04-11T12:16:48.001Z</time></trkpt><trkpt lat="45.28551037303389" lon="9.273828196799935"><ele>78.0</ele><time>2026-04-11T12:16:50.001Z</time></trkpt><trkpt lat="45.28549176191512" lon="9.2739685693413"><ele>78.0</ele><time>2026-04-11T12:16:52.001Z</time></trkpt><trkpt lat="45.28548278863185" lon="9.27413669441048"><ele>78.0</ele><time>2026-04-11T12:16:54.001Z</time></trkpt><trkpt lat="45.28548085080734" lon="9.274262351429634"><ele>78.0</ele><time>2026-04-11T12:16:55.001Z</time></trkpt><trkpt lat="45.285478078981804" lon="9.274413320973283"><ele>78.0</ele><time>2026-04-11T12:16:56.001Z</time></trkpt><trkpt lat="45.28547491378327" lon="9.274563015858703"><ele>78.0</ele><time>2026-04-11T12:16:57.001Z</time></trkpt><trkpt lat="45.28547585278857" lon="9.274689556478688"><ele>78.0</ele><time>2026-04-11T12:16:58.001Z</time></trkpt><trkpt lat="45.285471573991366" lon="9.274797901847732"><ele>78.16666666666667</ele><time>2026-04-11T12:16:59.001Z</time></trkpt><trkpt lat="45.28545476823069" lon="9.274907683454762"><ele>78.33333333333333</ele><time>2026-04-11T12:17:00.001Z</time></trkpt><trkpt lat="45.285423368580744" lon="9.275011708698827"><ele>78.5</ele><time>2026-04-11T12:17:01.001Z</time></trkpt><trkpt lat="45.2853785168957" lon="9.275112484586206"><ele>78.66666666666666</ele><time>2026-04-11T12:17:02.001Z</time></trkpt><trkpt lat="45.285299070177246" lon="9.2751893026177"><ele>78.83333333333333</ele><time>2026-04-11T12:17:03.001Z</time></trkpt><trkpt lat="45.28522596138205" lon="9.275293612201482"><ele>79.0</ele><time>2026-04-11T12:17:04.001Z</time></trkpt><trkpt lat="45.285101045701666" lon="9.275419087650961"><ele>79.0</ele><time>2026-04-11T12:17:05.001Z</time></trkpt><trkpt lat="45.284946473299094" lon="9.275579586170101"><ele>79.0</ele><time>2026-04-11T12:17:06.001Z</time></trkpt><trkpt lat="45.284782126455184" lon="9.275752575823075"><ele>79.0</ele><time>2026-04-11T12:17:07.001Z</time></trkpt><trkpt lat="45.284648080385644" lon="9.27589905080271"><ele>78.0</ele><time>2026-04-11T12:17:08.001Z</time></trkpt><trkpt lat="45.284522989988076" lon="9.276039984245868"><ele>77.0</ele><time>2026-04-11T12:17:09.001Z</time></trkpt><trkpt lat="45.2844058264606" lon="9.276171693107408"><ele>76.0</ele><time>2026-04-11T12:17:10.001Z</time></trkpt><trkpt lat="45.28429375317133" lon="9.27630020105469"><ele>76.0</ele><time>2026-04-11T12:17:11.001Z</time></trkpt><trkpt lat="45.284185910891566" lon="9.276426082225997"><ele>76.0</ele><time>2026-04-11T12:17:12.001Z</time></trkpt><trkpt lat="45.28407862044254" lon="9.276541935705875"><ele>76.0</ele><time>2026-04-11T12:17:13.001Z</time></trkpt><trkpt lat="45.28397097800712" lon="9.276655240714645"><ele>76.0</ele><time>2026-04-11T12:17:14.001Z</time></trkpt><trkpt lat="45.2838585061918" lon="9.276769711759268"><ele>75.75</ele><time>2026-04-11T12:17:15.001Z</time></trkpt><trkpt lat="45.283743784095954" lon="9.276871397570046"><ele>75.5</ele><time>2026-04-11T12:17:16.001Z</time></trkpt><trkpt lat="45.283620146351545" lon="9.276921394286838"><ele>75.25</ele><time>2026-04-11T12:17:17.001Z</time></trkpt><trkpt lat="45.28349875757473" lon="9.276970480367954"><ele>75.0</ele><time>2026-04-11T12:17:18.001Z</time></trkpt><trkpt lat="45.28337996055976" lon="9.277062257876302"><ele>75.0</ele><time>2026-04-11T12:17:19.001Z</time></trkpt><trkpt lat="45.28325813395164" lon="9.277143177471089"><ele>75.0</ele><time>2026-04-11T12:17:20.001Z</time></trkpt><trkpt lat="45.283152617132544" lon="9.277225097601642"><ele>75.0</ele><time>2026-04-11T12:17:21.001Z</time></trkpt><trkpt lat="45.2830612294626" lon="9.277299696262554"><ele>75.0</ele><time>2026-04-11T12:17:22.001Z</time></trkpt><trkpt lat="45.282976303035746" lon="9.277368547051"><ele>75.6</ele><time>2026-04-11T12:17:23.001Z</time></trkpt><trkpt lat="45.28281489060761" lon="9.277479400966971"><ele>76.2</ele><time>2026-04-11T12:17:25.001Z</time></trkpt><trkpt lat="45.28273444817105" lon="9.277518169803708"><ele>76.8</ele><time>2026-04-11T12:17:26.001Z</time></trkpt><trkpt lat="45.282664556196266" lon="9.277535002101164"><ele>77.4</ele><time>2026-04-11T12:17:27.001Z</time></trkpt><trkpt lat="45.28259992048194" lon="9.277545896503257"><ele>78.0</ele><time>2026-04-11T12:17:28.001Z</time></trkpt><trkpt lat="45.282494467488924" lon="9.277512916117086"><ele>78.0</ele><time>2026-04-11T12:17:30.001Z</time></trkpt><trkpt lat="45.28241886860757" lon="9.277499841592677"><ele>78.0</ele><time>2026-04-11T12:17:32.001Z</time></trkpt><trkpt lat="45.28236327102061" lon="9.277385758698271"><ele>78.0</ele><time>2026-04-11T12:17:34.001Z</time></trkpt><trkpt lat="45.28232931653565" lon="9.277309570203466"><ele>78.0</ele><time>2026-04-11T12:17:35.001Z</time></trkpt><trkpt lat="45.28229362083815" lon="9.277205115346705"><ele>78.0</ele><time>2026-04-11T12:17:36.001Z</time></trkpt><trkpt lat="45.282249745621215" lon="9.277089785839161"><ele>78.0</ele><time>2026-04-11T12:17:37Z</time></trkpt><trkpt lat="45.28220210830607" lon="9.276967634741979"><ele>78.8</ele><time>2026-04-11T12:17:38Z</time></trkpt><trkpt lat="45.282149312282016" lon="9.276838899646972"><ele>79.6</ele><time>2026-04-11T12:17:39Z</time></trkpt><trkpt lat="45.28210167894203" lon="9.276704886801703"><ele>80.39999999999999</ele><time>2026-04-11T12:17:40Z</time></trkpt><trkpt lat="45.28204619946127" lon="9.276577624848946"><ele>81.19999999999999</ele><time>2026-04-11T12:17:41Z</time></trkpt><trkpt lat="45.28195768571359" lon="9.27646246457286"><ele>82.0</ele><time>2026-04-11T12:17:42Z</time></trkpt><trkpt lat="45.28184321269413" lon="9.276371893964559"><ele>82.25</ele><time>2026-04-11T12:17:43Z</time></trkpt><trkpt lat="45.28173282607298" lon="9.276281542507899"><ele>82.5</ele><time>2026-04-11T12:17:44Z</time></trkpt><trkpt lat="45.28162843383692" lon="9.276187521682074"><ele>82.75</ele><time>2026-04-11T12:17:45Z</time></trkpt><trkpt lat="45.281536636525" lon="9.276087187840261"><ele>83.0</ele><time>2026-04-11T12:17:46Z</time></trkpt><trkpt lat="45.28145364559881" lon="9.27598824804135"><ele>83.2</ele><time>2026-04-11T12:17:47Z</time></trkpt><trkpt lat="45.28137953305217" lon="9.275904200663987"><ele>83.4</ele><time>2026-04-11T12:17:48Z</time></trkpt><trkpt lat="45.28130292998756" lon="9.275855854960325"><ele>83.60000000000001</ele><time>2026-04-11T12:17:49Z</time></trkpt><trkpt lat="45.281222545127854" lon="9.275870096048926"><ele>83.80000000000001</ele><time>2026-04-11T12:17:50Z</time></trkpt><trkpt lat="45.281140959020085" lon="9.275920210515382"><ele>84.0</ele><time>2026-04-11T12:17:51Z</time></trkpt><trkpt lat="45.28104970846918" lon="9.276000163594066"><ele>84.0</ele><time>2026-04-11T12:17:52Z</time></trkpt><trkpt lat="45.280949100188074" lon="9.276072642230442"><ele>84.0</ele><time>2026-04-11T12:17:53Z</time></trkpt><trkpt lat="45.280848573508734" lon="9.276120196790828"><ele>84.0</ele><time>2026-04-11T12:17:54Z</time></trkpt><trkpt lat="45.2807687616291" lon="9.276149990527083"><ele>84.0</ele><time>2026-04-11T12:17:55Z</time></trkpt><trkpt lat="45.280706820202255" lon="9.276175241364093"><ele>84.0</ele><time>2026-04-11T12:17:56Z</time></trkpt><trkpt lat="45.280612323107036" lon="9.276124503820052"><ele>83.80000000000001</ele><time>2026-04-11T12:17:58Z</time></trkpt><trkpt lat="45.2805873731466" lon="9.276018475014652"><ele>83.60000000000001</ele><time>2026-04-11T12:17:59Z</time></trkpt><trkpt lat="45.280554936343435" lon="9.275878888697799"><ele>83.4</ele><time>2026-04-11T12:18:00Z</time></trkpt><trkpt lat="45.2805083286674" lon="9.275735184418691"><ele>83.2</ele><time>2026-04-11T12:18:01Z</time></trkpt><trkpt lat="45.28046890595681" lon="9.275592890082587"><ele>83.0</ele><time>2026-04-11T12:18:02Z</time></trkpt><trkpt lat="45.28042894799883" lon="9.275438648621522"><ele>82.75</ele><time>2026-04-11T12:18:03Z</time></trkpt><trkpt lat="45.28038425261725" lon="9.275283456129735"><ele>82.5</ele><time>2026-04-11T12:18:04Z</time></trkpt><trkpt lat="45.28033173872616" lon="9.275133033304707"><ele>82.25</ele><time>2026-04-11T12:18:05Z</time></trkpt><trkpt lat="45.28027160803001" lon="9.274994650929656"><ele>82.0</ele><time>2026-04-11T12:18:06Z</time></trkpt><trkpt lat="45.28020664006646" lon="9.274857379827298"><ele>82.25</ele><time>2026-04-11T12:18:07Z</time></trkpt><trkpt lat="45.28012707827716" lon="9.274734781370237"><ele>82.5</ele><time>2026-04-11T12:18:08Z</time></trkpt><trkpt lat="45.28004454184395" lon="9.2746189286168"><ele>82.75</ele><time>2026-04-11T12:18:09Z</time></trkpt><trkpt lat="45.27997593565783" lon="9.274494573242308"><ele>83.0</ele><time>2026-04-11T12:18:10Z</time></trkpt><trkpt lat="45.27992141551026" lon="9.274353367748457"><ele>83.0</ele><time>2026-04-11T12:18:11Z</time></trkpt><trkpt lat="45.279872522082876" lon="9.274206838554367"><ele>83.0</ele><time>2026-04-11T12:18:12Z</time></trkpt><trkpt lat="45.27981932096383" lon="9.27406169773045"><ele>83.0</ele><time>2026-04-11T12:18:13Z</time></trkpt><trkpt lat="45.27974823885057" lon="9.273933188993677"><ele>83.0</ele><time>2026-04-11T12:18:14Z</time></trkpt><trkpt lat="45.279655858468644" lon="9.273823376988984"><ele>83.0</ele><time>2026-04-11T12:18:15Z</time></trkpt><trkpt lat="45.27956488625068" lon="9.273712768696122"><ele>83.0</ele><time>2026-04-11T12:18:16Z</time></trkpt><trkpt lat="45.279485166501026" lon="9.273606037637128"><ele>83.0</ele><time>2026-04-11T12:18:17Z</time></trkpt><trkpt lat="45.27940950772907" lon="9.273495038184393"><ele>83.0</ele><time>2026-04-11T12:18:18Z</time></trkpt><trkpt lat="45.27933271425517" lon="9.273384714554469"><ele>83.0</ele><time>2026-04-11T12:18:19Z</time></trkpt><trkpt lat="45.27924830544086" lon="9.273273319357736"><ele>83.0</ele><time>2026-04-11T12:18:20Z</time></trkpt><trkpt lat="45.279156247469054" lon="9.273168981205599"><ele>83.0</ele><time>2026-04-11T12:18:21Z</time></trkpt><trkpt lat="45.27905466688189" lon="9.273081401925387"><ele>83.0</ele><time>2026-04-11T12:18:22Z</time></trkpt><trkpt lat="45.278950452042324" lon="9.273006186454783"><ele>83.0</ele><time>2026-04-11T12:18:23Z</time></trkpt><trkpt lat="45.27884260802891" lon="9.272941297347545"><ele>83.25</ele><time>2026-04-11T12:18:24Z</time></trkpt><trkpt lat="45.27872505489416" lon="9.272901675329992"><ele>83.5</ele><time>2026-04-11T12:18:25Z</time></trkpt><trkpt lat="45.27858766940355" lon="9.272893322632093"><ele>83.75</ele><time>2026-04-11T12:18:26Z</time></trkpt><trkpt lat="45.27844126137142" lon="9.27288872183699"><ele>84.0</ele><time>2026-04-11T12:18:27Z</time></trkpt><trkpt lat="45.27829461110003" lon="9.2728807943999"><ele>84.0</ele><time>2026-04-11T12:18:28Z</time></trkpt><trkpt lat="45.27814733660353" lon="9.272867805146458"><ele>84.0</ele><time>2026-04-11T12:18:29Z</time></trkpt><trkpt lat="45.27799925536499" lon="9.272853019572747"><ele>84.0</ele><time>2026-04-11T12:18:30Z</time></trkpt><trkpt lat="45.27785265125251" lon="9.27282752565527"><ele>84.0</ele><time>2026-04-11T12:18:31Z</time></trkpt><trkpt lat="45.277709929105335" lon="9.272778886150217"><ele>84.0</ele><time>2026-04-11T12:18:32Z</time></trkpt><trkpt lat="45.27757342785934" lon="9.272702907948007"><ele>84.0</ele><time>2026-04-11T12:18:33Z</time></trkpt><trkpt lat="45.27744732015688" lon="9.272608062071354"><ele>84.0</ele><time>2026-04-11T12:18:34Z</time></trkpt><trkpt lat="45.27731446488206" lon="9.272549513808388"><ele>84.0</ele><time>2026-04-11T12:18:35Z</time></trkpt><trkpt lat="45.27717227636102" lon="9.272533968392683"><ele>84.0</ele><time>2026-04-11T12:18:36Z</time></trkpt><trkpt lat="45.27702388187462" lon="9.27255548712652"><ele>84.0</ele><time>2026-04-11T12:18:37Z</time></trkpt><trkpt lat="45.276874868979256" lon="9.272575391580752"><ele>84.0</ele><time>2026-04-11T12:18:38Z</time></trkpt><trkpt lat="45.27672713404531" lon="9.272584789924693"><ele>84.0</ele><time>2026-04-11T12:18:39Z</time></trkpt><trkpt lat="45.27658846201349" lon="9.27258287754813"><ele>84.0</ele><time>2026-04-11T12:18:40Z</time></trkpt><trkpt lat="45.2764692388283" lon="9.27255391739408"><ele>84.0</ele><time>2026-04-11T12:18:41Z</time></trkpt><trkpt lat="45.27635605249896" lon="9.272554372607997"><ele>84.0</ele><time>2026-04-11T12:18:42Z</time></trkpt><trkpt lat="45.276260507500886" lon="9.272530271053338"><ele>84.0</ele><time>2026-04-11T12:18:43.001Z</time></trkpt><trkpt lat="45.27617320652192" lon="9.272505002965616"><ele>84.0</ele><time>2026-04-11T12:18:44.001Z</time></trkpt><trkpt lat="45.27608830766009" lon="9.272441067514036"><ele>83.5</ele><time>2026-04-11T12:18:45.001Z</time></trkpt><trkpt lat="45.27601651317987" lon="9.272353114966538"><ele>83.0</ele><time>2026-04-11T12:18:46.001Z</time></trkpt><trkpt lat="45.27594940134921" lon="9.272197238406637"><ele>82.5</ele><time>2026-04-11T12:18:47.001Z</time></trkpt><trkpt lat="45.27586430859862" lon="9.27203601623811"><ele>82.0</ele><time>2026-04-11T12:18:48.001Z</time></trkpt><trkpt lat="45.27579019221095" lon="9.271847563811763"><ele>82.0</ele><time>2026-04-11T12:18:49.001Z</time></trkpt><trkpt lat="45.27570900927118" lon="9.271664517107277"><ele>82.0</ele><time>2026-04-11T12:18:50.001Z</time></trkpt><trkpt lat="45.27561947374243" lon="9.271482527029315"><ele>82.0</ele><time>2026-04-11T12:18:51.001Z</time></trkpt><trkpt lat="45.27553279036772" lon="9.271289922099163"><ele>81.66666666666666</ele><time>2026-04-11T12:18:52.001Z</time></trkpt><trkpt lat="45.275464657323035" lon="9.271079616591036"><ele>81.33333333333333</ele><time>2026-04-11T12:18:53.001Z</time></trkpt><trkpt lat="45.27539190867525" lon="9.270879038758737"><ele>81.0</ele><time>2026-04-11T12:18:54.001Z</time></trkpt><trkpt lat="45.27532414360083" lon="9.270673769501967"><ele>81.0</ele><time>2026-04-11T12:18:55.001Z</time></trkpt><trkpt lat="45.27524619521934" lon="9.270485200003572"><ele>81.0</ele><time>2026-04-11T12:18:56.001Z</time></trkpt><trkpt lat="45.2751868507582" lon="9.270305959596872"><ele>81.0</ele><time>2026-04-11T12:18:57.001Z</time></trkpt><trkpt lat="45.27510045806848" lon="9.270149881941453"><ele>81.0</ele><time>2026-04-11T12:18:58.001Z</time></trkpt><trkpt lat="45.27497695684121" lon="9.270034909239573"><ele>81.0</ele><time>2026-04-11T12:18:59.001Z</time></trkpt><trkpt lat="45.27483239615454" lon="9.269929819358335"><ele>81.0</ele><time>2026-04-11T12:19:00.001Z</time></trkpt><trkpt lat="45.27468152334015" lon="9.269819103257335"><ele>81.0</ele><time>2026-04-11T12:19:01.001Z</time></trkpt><trkpt lat="45.27454442974332" lon="9.269687924593232"><ele>81.0</ele><time>2026-04-11T12:19:02.001Z</time></trkpt><trkpt lat="45.274407335402316" lon="9.269573976662908"><ele>81.0</ele><time>2026-04-11T12:19:03.001Z</time></trkpt><trkpt lat="45.27426985396993" lon="9.26947764747778"><ele>81.0</ele><time>2026-04-11T12:19:04.001Z</time></trkpt><trkpt lat="45.27416194795802" lon="9.269327308305032"><ele>81.0</ele><time>2026-04-11T12:19:05.001Z</time></trkpt><trkpt lat="45.27409379940026" lon="9.269130977505554"><ele>81.0</ele><time>2026-04-11T12:19:06.001Z</time></trkpt><trkpt lat="45.274010382114085" lon="9.268938709295988"><ele>81.0</ele><time>2026-04-11T12:19:07.001Z</time></trkpt><trkpt lat="45.27395721001478" lon="9.26871437320016"><ele>81.33333333333333</ele><time>2026-04-11T12:19:08.001Z</time></trkpt><trkpt lat="45.27388892692655" lon="9.26848326798418"><ele>81.66666666666666</ele><time>2026-04-11T12:19:09.001Z</time></trkpt><trkpt lat="45.27382492787806" lon="9.268261188807024"><ele>82.0</ele><time>2026-04-11T12:19:10.001Z</time></trkpt><trkpt lat="45.2737555171604" lon="9.26806868207348"><ele>82.0</ele><time>2026-04-11T12:19:11.001Z</time></trkpt><trkpt lat="45.27371441072053" lon="9.267888165343294"><ele>82.0</ele><time>2026-04-11T12:19:12.001Z</time></trkpt><trkpt lat="45.27367424159855" lon="9.267738416857448"><ele>82.0</ele><time>2026-04-11T12:19:13.001Z</time></trkpt><trkpt lat="45.273637617326955" lon="9.267620769070628"><ele>82.0</ele><time>2026-04-11T12:19:14.001Z</time></trkpt><trkpt lat="45.27360836288468" lon="9.267533882611085"><ele>82.0</ele><time>2026-04-11T12:19:15.001Z</time></trkpt><trkpt lat="45.27351128304191" lon="9.267482256841783"><ele>82.0</ele><time>2026-04-11T12:19:16.001Z</time></trkpt><trkpt lat="45.27339012968462" lon="9.267544473191732"><ele>82.0</ele><time>2026-04-11T12:19:17.001Z</time></trkpt><trkpt lat="45.27326737116666" lon="9.267623167738282"><ele>82.0</ele><time>2026-04-11T12:19:18.001Z</time></trkpt><trkpt lat="45.273136504349324" lon="9.267702917971034"><ele>82.0</ele><time>2026-04-11T12:19:19.001Z</time></trkpt><trkpt lat="45.273003489943086" lon="9.267774733722765"><ele>81.5</ele><time>2026-04-11T12:19:20.001Z</time></trkpt><trkpt lat="45.27286379442665" lon="9.267847172962005"><ele>81.0</ele><time>2026-04-11T12:19:21.001Z</time></trkpt><trkpt lat="45.272719200639344" lon="9.267918289283639"><ele>80.5</ele><time>2026-04-11T12:19:22.001Z</time></trkpt><trkpt lat="45.27258265847745" lon="9.267995065270501"><ele>80.0</ele><time>2026-04-11T12:19:23.001Z</time></trkpt><trkpt lat="45.27245439779766" lon="9.26807799395954"><ele>80.25</ele><time>2026-04-11T12:19:24.001Z</time></trkpt><trkpt lat="45.272339375030256" lon="9.268166588821902"><ele>80.5</ele><time>2026-04-11T12:19:25.001Z</time></trkpt><trkpt lat="45.27222513150221" lon="9.268259069774443"><ele>80.75</ele><time>2026-04-11T12:19:26.001Z</time></trkpt><trkpt lat="45.27209554166002" lon="9.26835701826331"><ele>81.0</ele><time>2026-04-11T12:19:27.001Z</time></trkpt><trkpt lat="45.27195671843268" lon="9.268452885901123"><ele>80.33333333333333</ele><time>2026-04-11T12:19:28.001Z</time></trkpt><trkpt lat="45.27181132293289" lon="9.268545685122895"><ele>79.66666666666666</ele><time>2026-04-11T12:19:29.001Z</time></trkpt><trkpt lat="45.27166342749222" lon="9.268642133399167"><ele>79.0</ele><time>2026-04-11T12:19:30.001Z</time></trkpt><trkpt lat="45.27151767846778" lon="9.268742048715835"><ele>79.66666666666666</ele><time>2026-04-11T12:19:31.001Z</time></trkpt><trkpt lat="45.27137172215035" lon="9.268844055652151"><ele>80.33333333333333</ele><time>2026-04-11T12:19:32.001Z</time></trkpt><trkpt lat="45.271226780650906" lon="9.268948411230177"><ele>81.0</ele><time>2026-04-11T12:19:33.001Z</time></trkpt><trkpt lat="45.27108105059056" lon="9.269052217832437"><ele>81.0</ele><time>2026-04-11T12:19:34.001Z</time></trkpt><trkpt lat="45.27093787452399" lon="9.269153960665776"><ele>81.0</ele><time>2026-04-11T12:19:35.001Z</time></trkpt><trkpt lat="45.27080783639022" lon="9.269247646515632"><ele>81.0</ele><time>2026-04-11T12:19:36.001Z</time></trkpt><trkpt lat="45.27068974502766" lon="9.26933614785948"><ele>81.0</ele><time>2026-04-11T12:19:37.001Z</time></trkpt><trkpt lat="45.270579946697595" lon="9.26943068587788"><ele>81.0</ele><time>2026-04-11T12:19:38.001Z</time></trkpt><trkpt lat="45.27047296277625" lon="9.269552687111823"><ele>81.0</ele><time>2026-04-11T12:19:39.001Z</time></trkpt><trkpt lat="45.270370841126535" lon="9.269709672608519"><ele>81.0</ele><time>2026-04-11T12:19:40.001Z</time></trkpt><trkpt lat="45.27027046434601" lon="9.269878253779066"><ele>81.0</ele><time>2026-04-11T12:19:41.001Z</time></trkpt><trkpt lat="45.2701698144194" lon="9.270052042843645"><ele>80.75</ele><time>2026-04-11T12:19:42.001Z</time></trkpt><trkpt lat="45.27007296847512" lon="9.27022636898018"><ele>80.5</ele><time>2026-04-11T12:19:43Z</time></trkpt><trkpt lat="45.26998811208171" lon="9.270383109674357"><ele>80.25</ele><time>2026-04-11T12:19:44Z</time></trkpt><trkpt lat="45.2699116775967" lon="9.270534840273601"><ele>80.0</ele><time>2026-04-11T12:19:45Z</time></trkpt><trkpt lat="45.2698373559597" lon="9.270693546868998"><ele>80.2</ele><time>2026-04-11T12:19:46Z</time></trkpt><trkpt lat="45.26976291760629" lon="9.270839694085304"><ele>80.4</ele><time>2026-04-11T12:19:47Z</time></trkpt><trkpt lat="45.269696989969326" lon="9.270950314981922"><ele>80.6</ele><time>2026-04-11T12:19:48Z</time></trkpt><trkpt lat="45.2696422695454" lon="9.271059129011554"><ele>80.8</ele><time>2026-04-11T12:19:49Z</time></trkpt><trkpt lat="45.26962388030192" lon="9.27121420912702"><ele>81.0</ele><time>2026-04-11T12:19:50Z</time></trkpt><trkpt lat="45.26964432682946" lon="9.271401601800683"><ele>81.0</ele><time>2026-04-11T12:19:51Z</time></trkpt><trkpt lat="45.26966577023161" lon="9.271611967565978"><ele>81.0</ele><time>2026-04-11T12:19:52Z</time></trkpt><trkpt lat="45.26967305790447" lon="9.271820340447379"><ele>81.0</ele><time>2026-04-11T12:19:53Z</time></trkpt><trkpt lat="45.269671769538036" lon="9.272025143642761"><ele>81.0</ele><time>2026-04-11T12:19:54Z</time></trkpt><trkpt lat="45.269672187184206" lon="9.272200921259333"><ele>81.0</ele><time>2026-04-11T12:19:55Z</time></trkpt><trkpt lat="45.26966599469994" lon="9.272350997985525"><ele>81.0</ele><time>2026-04-11T12:19:56Z</time></trkpt><trkpt lat="45.26963488844277" lon="9.27248210633052"><ele>81.0</ele><time>2026-04-11T12:19:57Z</time></trkpt><trkpt lat="45.26957192787753" lon="9.272590146435585"><ele>81.0</ele><time>2026-04-11T12:19:58Z</time></trkpt><trkpt lat="45.26947295601677" lon="9.272644493833287"><ele>81.0</ele><time>2026-04-11T12:19:59Z</time></trkpt><trkpt lat="45.269367637736345" lon="9.272725343017598"><ele>81.0</ele><time>2026-04-11T12:20:00Z</time></trkpt><trkpt lat="45.26924596261178" lon="9.272798781933924"><ele>81.0</ele><time>2026-04-11T12:20:01Z</time></trkpt><trkpt lat="45.26912087777363" lon="9.272888179425344"><ele>81.0</ele><time>2026-04-11T12:20:02Z</time></trkpt><trkpt lat="45.269002952093814" lon="9.272971179605698"><ele>81.0</ele><time>2026-04-11T12:20:03Z</time></trkpt><trkpt lat="45.26888987248739" lon="9.273076539183075"><ele>81.25</ele><time>2026-04-11T12:20:04Z</time></trkpt><trkpt lat="45.268774361429365" lon="9.2731743746351"><ele>81.5</ele><time>2026-04-11T12:20:05Z</time></trkpt><trkpt lat="45.268659640738676" lon="9.273269874264953"><ele>81.75</ele><time>2026-04-11T12:20:06Z</time></trkpt><trkpt lat="45.268555571623914" lon="9.273361200311328"><ele>82.0</ele><time>2026-04-11T12:20:07Z</time></trkpt><trkpt lat="45.26845873434523" lon="9.273451552342017"><ele>82.0</ele><time>2026-04-11T12:20:08Z</time></trkpt><trkpt lat="45.26836653555285" lon="9.273534250306652"><ele>82.0</ele><time>2026-04-11T12:20:09Z</time></trkpt><trkpt lat="45.2682894553295" lon="9.273591396996117"><ele>82.0</ele><time>2026-04-11T12:20:10Z</time></trkpt><trkpt lat="45.268189442258425" lon="9.273592587111356"><ele>82.0</ele><time>2026-04-11T12:20:12Z</time></trkpt><trkpt lat="45.26810029043936" lon="9.273602610067451"><ele>82.0</ele><time>2026-04-11T12:20:14Z</time></trkpt><trkpt lat="45.26797919726953" lon="9.27371439611486"><ele>82.19999999999999</ele><time>2026-04-11T12:20:16Z</time></trkpt><trkpt lat="45.2679127009546" lon="9.273813493890392"><ele>82.4</ele><time>2026-04-11T12:20:17Z</time></trkpt><trkpt lat="45.26783231636604" lon="9.273906049307735"><ele>82.6</ele><time>2026-04-11T12:20:18Z</time></trkpt><trkpt lat="45.267738747299504" lon="9.27398349068863"><ele>82.80000000000001</ele><time>2026-04-11T12:20:19Z</time></trkpt><trkpt lat="45.26764803480246" lon="9.274062496044456"><ele>83.0</ele><time>2026-04-11T12:20:20Z</time></trkpt><trkpt lat="45.26755653288029" lon="9.274131080422785"><ele>83.0</ele><time>2026-04-11T12:20:21Z</time></trkpt><trkpt lat="45.26746862287101" lon="9.27420104400927"><ele>83.0</ele><time>2026-04-11T12:20:22Z</time></trkpt><trkpt lat="45.267368344339296" lon="9.274264452737638"><ele>83.0</ele><time>2026-04-11T12:20:23Z</time></trkpt><trkpt lat="45.26725649141477" lon="9.274323120184508"><ele>83.0</ele><time>2026-04-11T12:20:24Z</time></trkpt><trkpt lat="45.26713820556508" lon="9.274375645192114"><ele>83.0</ele><time>2026-04-11T12:20:25Z</time></trkpt><trkpt lat="45.26701497172139" lon="9.274423061207859"><ele>83.0</ele><time>2026-04-11T12:20:26Z</time></trkpt><trkpt lat="45.26688275549077" lon="9.274476971008026"><ele>83.0</ele><time>2026-04-11T12:20:27Z</time></trkpt><trkpt lat="45.266754821477214" lon="9.274530621055412"><ele>83.0</ele><time>2026-04-11T12:20:28Z</time></trkpt><trkpt lat="45.26663402374972" lon="9.274585409788015"><ele>83.0</ele><time>2026-04-11T12:20:29Z</time></trkpt><trkpt lat="45.266521422678956" lon="9.27465847259162"><ele>83.0</ele><time>2026-04-11T12:20:30Z</time></trkpt><trkpt lat="45.26640904054807" lon="9.274745040364587"><ele>83.0</ele><time>2026-04-11T12:20:31Z</time></trkpt><trkpt lat="45.266312095816886" lon="9.274831828162117"><ele>83.0</ele><time>2026-04-11T12:20:32Z</time></trkpt><trkpt lat="45.26622559925052" lon="9.27492396039209"><ele>83.16666666666667</ele><time>2026-04-11T12:20:33Z</time></trkpt><trkpt lat="45.266148477060526" lon="9.275012779179141"><ele>83.33333333333334</ele><time>2026-04-11T12:20:34Z</time></trkpt><trkpt lat="45.266077452240715" lon="9.275097911293527"><ele>83.5</ele><time>2026-04-11T12:20:35Z</time></trkpt><trkpt lat="45.2660075926001" lon="9.27516328845495"><ele>83.66666666666667</ele><time>2026-04-11T12:20:36Z</time></trkpt><trkpt lat="45.26594125974878" lon="9.2752119614669"><ele>83.83333333333333</ele><time>2026-04-11T12:20:37Z</time></trkpt><trkpt lat="45.26588516322855" lon="9.275256775577574"><ele>84.0</ele><time>2026-04-11T12:20:38Z</time></trkpt><trkpt lat="45.26578643738593" lon="9.275280472025004"><ele>84.0</ele><time>2026-04-11T12:20:40Z</time></trkpt><trkpt lat="45.26570880144681" lon="9.275230486236989"><ele>84.0</ele><time>2026-04-11T12:20:41Z</time></trkpt><trkpt lat="45.26563538464743" lon="9.275115907616438"><ele>84.0</ele><time>2026-04-11T12:20:42Z</time></trkpt><trkpt lat="45.26553192055511" lon="9.275033521764056"><ele>84.0</ele><time>2026-04-11T12:20:43Z</time></trkpt><trkpt lat="45.26543140617505" lon="9.274934654867874"><ele>84.0</ele><time>2026-04-11T12:20:44Z</time></trkpt><trkpt lat="45.26532313081618" lon="9.274835004531456"><ele>84.0</ele><time>2026-04-11T12:20:45Z</time></trkpt><trkpt lat="45.26522542015664" lon="9.27474132384646"><ele>84.0</ele><time>2026-04-11T12:20:46Z</time></trkpt><trkpt lat="45.26514982388761" lon="9.274670674693667"><ele>84.0</ele><time>2026-04-11T12:20:47Z</time></trkpt><trkpt lat="45.26508204831692" lon="9.274611709747408"><ele>84.0</ele><time>2026-04-11T12:20:48Z</time></trkpt><trkpt lat="45.26501396706807" lon="9.274585214100654"><ele>84.0</ele><time>2026-04-11T12:20:49Z</time></trkpt><trkpt lat="45.26494288428263" lon="9.274619032122216"><ele>84.0</ele><time>2026-04-11T12:20:50Z</time></trkpt><trkpt lat="45.26486770599799" lon="9.274683349902368"><ele>83.80000000000001</ele><time>2026-04-11T12:20:51Z</time></trkpt><trkpt lat="45.26476933729119" lon="9.274720841711101"><ele>83.60000000000001</ele><time>2026-04-11T12:20:52Z</time></trkpt><trkpt lat="45.26466378871162" lon="9.274730052435457"><ele>83.4</ele><time>2026-04-11T12:20:53Z</time></trkpt><trkpt lat="45.26456927221323" lon="9.274744854181563"><ele>83.2</ele><time>2026-04-11T12:20:54.001Z</time></trkpt><trkpt lat="45.264466497660685" lon="9.274774308468139"><ele>83.0</ele><time>2026-04-11T12:20:55.001Z</time></trkpt><trkpt lat="45.26435667620394" lon="9.274822614630558"><ele>83.0</ele><time>2026-04-11T12:20:56.001Z</time></trkpt><trkpt lat="45.26423893212043" lon="9.274877699752423"><ele>83.0</ele><time>2026-04-11T12:20:57.001Z</time></trkpt><trkpt lat="45.26412067897662" lon="9.274925950407349"><ele>83.0</ele><time>2026-04-11T12:20:58.001Z</time></trkpt><trkpt lat="45.264017259691265" lon="9.27496889013429"><ele>83.0</ele><time>2026-04-11T12:20:59.001Z</time></trkpt><trkpt lat="45.26392570651915" lon="9.275019722828606"><ele>83.0</ele><time>2026-04-11T12:21:00.001Z</time></trkpt><trkpt lat="45.26383093176087" lon="9.275101543469512"><ele>83.0</ele><time>2026-04-11T12:21:01.001Z</time></trkpt><trkpt lat="45.26372186759555" lon="9.275217137969078"><ele>83.0</ele><time>2026-04-11T12:21:02.001Z</time></trkpt><trkpt lat="45.26361477095404" lon="9.275341500554893"><ele>83.0</ele><time>2026-04-11T12:21:03.001Z</time></trkpt><trkpt lat="45.26350072610164" lon="9.275477250496795"><ele>83.0</ele><time>2026-04-11T12:21:04.001Z</time></trkpt><trkpt lat="45.26338310288808" lon="9.275623202978881"><ele>83.0</ele><time>2026-04-11T12:21:05.001Z</time></trkpt><trkpt lat="45.263262448308176" lon="9.275771536602049"><ele>83.0</ele><time>2026-04-11T12:21:06.001Z</time></trkpt><trkpt lat="45.26313144957193" lon="9.275917198195774"><ele>82.5</ele><time>2026-04-11T12:21:07.001Z</time></trkpt><trkpt lat="45.263014554598634" lon="9.276046690020971"><ele>82.0</ele><time>2026-04-11T12:21:08.001Z</time></trkpt><trkpt lat="45.26291151658987" lon="9.276162162818864"><ele>81.5</ele><time>2026-04-11T12:21:09.001Z</time></trkpt><trkpt lat="45.26281473172186" lon="9.276271039044213"><ele>81.0</ele><time>2026-04-11T12:21:10.001Z</time></trkpt><trkpt lat="45.26272031587335" lon="9.276374540740397"><ele>81.0</ele><time>2026-04-11T12:21:11.001Z</time></trkpt><trkpt lat="45.262641054361474" lon="9.276457113197033"><ele>81.0</ele><time>2026-04-11T12:21:12.001Z</time></trkpt><trkpt lat="45.262575894092436" lon="9.276520313399867"><ele>81.0</ele><time>2026-04-11T12:21:13.001Z</time></trkpt><trkpt lat="45.26246828761785" lon="9.276560902182057"><ele>81.0</ele><time>2026-04-11T12:21:15.001Z</time></trkpt><trkpt lat="45.26238666970215" lon="9.276422006002608"><ele>81.0</ele><time>2026-04-11T12:21:16.001Z</time></trkpt><trkpt lat="45.26230323822649" lon="9.27636628196666"><ele>81.0</ele><time>2026-04-11T12:21:17.001Z</time></trkpt><trkpt lat="45.2622256259029" lon="9.276252724808119"><ele>81.0</ele><time>2026-04-11T12:21:18.001Z</time></trkpt><trkpt lat="45.2621341663737" lon="9.276151976063062"><ele>81.0</ele><time>2026-04-11T12:21:19.001Z</time></trkpt><trkpt lat="45.26203626453082" lon="9.276048632416924"><ele>81.0</ele><time>2026-04-11T12:21:20.001Z</time></trkpt><trkpt lat="45.26193568621925" lon="9.275948003885008"><ele>81.0</ele><time>2026-04-11T12:21:21.001Z</time></trkpt><trkpt lat="45.2618292514131" lon="9.27584897785207"><ele>81.0</ele><time>2026-04-11T12:21:22.001Z</time></trkpt><trkpt lat="45.26171064632047" lon="9.275771202812832"><ele>81.0</ele><time>2026-04-11T12:21:23.001Z</time></trkpt><trkpt lat="45.261594931286076" lon="9.275671108118695"><ele>81.0</ele><time>2026-04-11T12:21:24.001Z</time></trkpt><trkpt lat="45.26147837077988" lon="9.275569156509896"><ele>81.25</ele><time>2026-04-11T12:21:25.001Z</time></trkpt><trkpt lat="45.26135910508075" lon="9.27546718786483"><ele>81.5</ele><time>2026-04-11T12:21:26.001Z</time></trkpt><trkpt lat="45.26124132152761" lon="9.275367050214902"><ele>81.75</ele><time>2026-04-11T12:21:27.001Z</time></trkpt><trkpt lat="45.26113636320154" lon="9.275249817813792"><ele>82.0</ele><time>2026-04-11T12:21:28.001Z</time></trkpt><trkpt lat="45.261016434095495" lon="9.275173247525114"><ele>82.0</ele><time>2026-04-11T12:21:29.001Z</time></trkpt><trkpt lat="45.26090492233291" lon="9.275071901907499"><ele>82.0</ele><time>2026-04-11T12:21:30.001Z</time></trkpt><trkpt lat="45.260795009246635" lon="9.274972020907231"><ele>82.0</ele><time>2026-04-11T12:21:31.001Z</time></trkpt><trkpt lat="45.260684677278604" lon="9.274878386091485"><ele>82.0</ele><time>2026-04-11T12:21:32.001Z</time></trkpt><trkpt lat="45.260574547486115" lon="9.274791594589292"><ele>82.25</ele><time>2026-04-11T12:21:33.001Z</time></trkpt><trkpt lat="45.26046231121733" lon="9.274700614430875"><ele>82.5</ele><time>2026-04-11T12:21:34.001Z</time></trkpt><trkpt lat="45.260352988779886" lon="9.274611258003784"><ele>82.75</ele><time>2026-04-11T12:21:35.001Z</time></trkpt><trkpt lat="45.260245398039814" lon="9.274517938185108"><ele>83.0</ele><time>2026-04-11T12:21:36.001Z</time></trkpt><trkpt lat="45.260138328968836" lon="9.274422481259453"><ele>83.0</ele><time>2026-04-11T12:21:37.001Z</time></trkpt><trkpt lat="45.26002924533774" lon="9.27432373722496"><ele>83.0</ele><time>2026-04-11T12:21:38.001Z</time></trkpt><trkpt lat="45.259920161375945" lon="9.274224495136817"><ele>83.0</ele><time>2026-04-11T12:21:39.001Z</time></trkpt><trkpt lat="45.259808654037876" lon="9.27413449985135"><ele>83.0</ele><time>2026-04-11T12:21:40.001Z</time></trkpt><trkpt lat="45.259694025091335" lon="9.27404464382763"><ele>82.75</ele><time>2026-04-11T12:21:41.001Z</time></trkpt><trkpt lat="45.2595838291368" lon="9.273959015827918"><ele>82.5</ele><time>2026-04-11T12:21:42.001Z</time></trkpt><trkpt lat="45.259478396570955" lon="9.2738739740035"><ele>82.25</ele><time>2026-04-11T12:21:43.001Z</time></trkpt><trkpt lat="45.259376449571455" lon="9.273783217570875"><ele>82.0</ele><time>2026-04-11T12:21:44.001Z</time></trkpt><trkpt lat="45.25927678851584" lon="9.2736821303235"><ele>81.75</ele><time>2026-04-11T12:21:45.001Z</time></trkpt><trkpt lat="45.2591746742033" lon="9.273582268419872"><ele>81.5</ele><time>2026-04-11T12:21:46.001Z</time></trkpt><trkpt lat="45.25906632817652" lon="9.273486674637372"><ele>81.25</ele><time>2026-04-11T12:21:47.001Z</time></trkpt><trkpt lat="45.25896455746921" lon="9.273393355738035"><ele>81.0</ele><time>2026-04-11T12:21:48.001Z</time></trkpt><trkpt lat="45.25886419704985" lon="9.273313187807515"><ele>81.4</ele><time>2026-04-11T12:21:49Z</time></trkpt><trkpt lat="45.25877103959601" lon="9.273241986416052"><ele>81.8</ele><time>2026-04-11T12:21:50Z</time></trkpt><trkpt lat="45.258685331149515" lon="9.273168411427735"><ele>82.2</ele><time>2026-04-11T12:21:51Z</time></trkpt><trkpt lat="45.25859848751699" lon="9.273117783159428"><ele>82.60000000000001</ele><time>2026-04-11T12:21:52Z</time></trkpt><trkpt lat="45.25851669547484" lon="9.273070537242885"><ele>83.0</ele><time>2026-04-11T12:21:53Z</time></trkpt><trkpt lat="45.25842568238177" lon="9.273017134221538"><ele>83.2</ele><time>2026-04-11T12:21:54Z</time></trkpt><trkpt lat="45.25833900587296" lon="9.272962071883095"><ele>83.4</ele><time>2026-04-11T12:21:55Z</time></trkpt><trkpt lat="45.258268379077386" lon="9.272868378420931"><ele>83.60000000000001</ele><time>2026-04-11T12:21:56Z</time></trkpt><trkpt lat="45.258189121286705" lon="9.272785289484435"><ele>83.80000000000001</ele><time>2026-04-11T12:21:57Z</time></trkpt><trkpt lat="45.25809881679918" lon="9.272688191104175"><ele>84.0</ele><time>2026-04-11T12:21:58Z</time></trkpt><trkpt lat="45.25799774786272" lon="9.27257782461644"><ele>83.5</ele><time>2026-04-11T12:21:59Z</time></trkpt><trkpt lat="45.25787698014679" lon="9.272488895897698"><ele>83.0</ele><time>2026-04-11T12:22:00Z</time></trkpt><trkpt lat="45.257786681421024" lon="9.272393180324137"><ele>82.5</ele><time>2026-04-11T12:22:01Z</time></trkpt><trkpt lat="45.257677975574815" lon="9.272303504224901"><ele>82.0</ele><time>2026-04-11T12:22:02Z</time></trkpt><trkpt lat="45.2575707300185" lon="9.272208774058704"><ele>81.75</ele><time>2026-04-11T12:22:03Z</time></trkpt><trkpt lat="45.257463837674635" lon="9.272116567839907"><ele>81.5</ele><time>2026-04-11T12:22:04Z</time></trkpt><trkpt lat="45.257357618482914" lon="9.272020634805122"><ele>81.25</ele><time>2026-04-11T12:22:05Z</time></trkpt><trkpt lat="45.25725941182883" lon="9.27192851613534"><ele>81.0</ele><time>2026-04-11T12:22:06Z</time></trkpt><trkpt lat="45.25716587730277" lon="9.271843905966705"><ele>80.8</ele><time>2026-04-11T12:22:07Z</time></trkpt><trkpt lat="45.257081907044586" lon="9.271752387483716"><ele>80.6</ele><time>2026-04-11T12:22:08Z</time></trkpt><trkpt lat="45.256987732229085" lon="9.2716749047141"><ele>80.4</ele><time>2026-04-11T12:22:09Z</time></trkpt><trkpt lat="45.256905362065076" lon="9.271601533227349"><ele>80.2</ele><time>2026-04-11T12:22:10Z</time></trkpt><trkpt lat="45.25681580885643" lon="9.271531316190536"><ele>80.0</ele><time>2026-04-11T12:22:11Z</time></trkpt><trkpt lat="45.25673500467763" lon="9.271456465247871"><ele>79.8</ele><time>2026-04-11T12:22:12Z</time></trkpt><trkpt lat="45.25665361216295" lon="9.27138129445672"><ele>79.6</ele><time>2026-04-11T12:22:13Z</time></trkpt><trkpt lat="45.2565646981766" lon="9.271305638743787"><ele>79.4</ele><time>2026-04-11T12:22:14Z</time></trkpt><trkpt lat="45.25648821742236" lon="9.27122157882845"><ele>79.2</ele><time>2026-04-11T12:22:15Z</time></trkpt><trkpt lat="45.25639740234293" lon="9.271143006355015"><ele>79.0</ele><time>2026-04-11T12:22:16Z</time></trkpt><trkpt lat="45.25630303500952" lon="9.271065469466954"><ele>79.5</ele><time>2026-04-11T12:22:17Z</time></trkpt><trkpt lat="45.25619594476091" lon="9.27101403768001"><ele>80.0</ele><time>2026-04-11T12:22:18Z</time></trkpt><trkpt lat="45.2561027601842" lon="9.270915077860991"><ele>80.5</ele><time>2026-04-11T12:22:19Z</time></trkpt><trkpt lat="45.256004316001835" lon="9.270839438789778"><ele>81.0</ele><time>2026-04-11T12:22:20Z</time></trkpt><trkpt lat="45.25591360521134" lon="9.27072259851187"><ele>81.0</ele><time>2026-04-11T12:22:21Z</time></trkpt><trkpt lat="45.25580239849024" lon="9.270642888752457"><ele>81.0</ele><time>2026-04-11T12:22:22Z</time></trkpt><trkpt lat="45.25569292313645" lon="9.270538158834508"><ele>81.0</ele><time>2026-04-11T12:22:23Z</time></trkpt><trkpt lat="45.255575663997874" lon="9.270424022227582"><ele>81.0</ele><time>2026-04-11T12:22:24Z</time></trkpt><trkpt lat="45.25545240268099" lon="9.270324415614306"><ele>81.0</ele><time>2026-04-11T12:22:25Z</time></trkpt><trkpt lat="45.25533610390555" lon="9.270211500045363"><ele>81.0</ele><time>2026-04-11T12:22:26Z</time></trkpt><trkpt lat="45.25522053482189" lon="9.270110999289109"><ele>81.0</ele><time>2026-04-11T12:22:27Z</time></trkpt><trkpt lat="45.255096636481824" lon="9.270007593880578"><ele>81.0</ele><time>2026-04-11T12:22:28Z</time></trkpt><trkpt lat="45.254982046664914" lon="9.269900239744109"><ele>81.0</ele><time>2026-04-11T12:22:29Z</time></trkpt><trkpt lat="45.254856058983464" lon="9.269800683096662"><ele>81.0</ele><time>2026-04-11T12:22:30Z</time></trkpt><trkpt lat="45.254734939602734" lon="9.269694435706755"><ele>81.0</ele><time>2026-04-11T12:22:31Z</time></trkpt><trkpt lat="45.254615991459445" lon="9.269593234336622"><ele>81.0</ele><time>2026-04-11T12:22:32Z</time></trkpt><trkpt lat="45.254491646524265" lon="9.269490090981067"><ele>81.5</ele><time>2026-04-11T12:22:33Z</time></trkpt><trkpt lat="45.25437375056286" lon="9.269390146756665"><ele>82.0</ele><time>2026-04-11T12:22:34Z</time></trkpt><trkpt lat="45.25425540410729" lon="9.26928771644274"><ele>82.5</ele><time>2026-04-11T12:22:35Z</time></trkpt><trkpt lat="45.25413257996038" lon="9.269182172588032"><ele>83.0</ele><time>2026-04-11T12:22:36Z</time></trkpt><trkpt lat="45.2540108545178" lon="9.269075699700267"><ele>83.0</ele><time>2026-04-11T12:22:37Z</time></trkpt><trkpt lat="45.25388529698487" lon="9.268970306909559"><ele>83.0</ele><time>2026-04-11T12:22:38Z</time></trkpt><trkpt lat="45.25376322819997" lon="9.268862229506992"><ele>83.0</ele><time>2026-04-11T12:22:39Z</time></trkpt><trkpt lat="45.25364221202223" lon="9.268756288108401"><ele>83.0</ele><time>2026-04-11T12:22:40Z</time></trkpt><trkpt lat="45.25352083986429" lon="9.268651981669922"><ele>82.5</ele><time>2026-04-11T12:22:41Z</time></trkpt><trkpt lat="45.25340466808379" lon="9.268557082659646"><ele>82.0</ele><time>2026-04-11T12:22:42Z</time></trkpt><trkpt lat="45.25329472730242" lon="9.268462480356828"><ele>81.5</ele><time>2026-04-11T12:22:43Z</time></trkpt><trkpt lat="45.253183138977164" lon="9.268362195894346"><ele>81.0</ele><time>2026-04-11T12:22:44Z</time></trkpt><trkpt lat="45.25307138939551" lon="9.268269328679638"><ele>80.75</ele><time>2026-04-11T12:22:45Z</time></trkpt><trkpt lat="45.25296108398143" lon="9.268173224600128"><ele>80.5</ele><time>2026-04-11T12:22:46Z</time></trkpt><trkpt lat="45.252849928032944" lon="9.268078039220363"><ele>80.25</ele><time>2026-04-11T12:22:47Z</time></trkpt><trkpt lat="45.252733861608945" lon="9.267983689168585"><ele>80.0</ele><time>2026-04-11T12:22:48Z</time></trkpt><trkpt lat="45.25261928465458" lon="9.267890771992832"><ele>80.0</ele><time>2026-04-11T12:22:49Z</time></trkpt><trkpt lat="45.252508903425415" lon="9.26779941099293"><ele>80.0</ele><time>2026-04-11T12:22:50Z</time></trkpt><trkpt lat="45.252396731529345" lon="9.26770235127711"><ele>80.0</ele><time>2026-04-11T12:22:51Z</time></trkpt><trkpt lat="45.252296132875074" lon="9.267607901756977"><ele>80.0</ele><time>2026-04-11T12:22:52Z</time></trkpt><trkpt lat="45.25219825611" lon="9.267524853764277"><ele>80.2</ele><time>2026-04-11T12:22:53Z</time></trkpt><trkpt lat="45.25211360580771" lon="9.267445280104655"><ele>80.4</ele><time>2026-04-11T12:22:54Z</time></trkpt><trkpt lat="45.252026609660696" lon="9.26737170587923"><ele>80.6</ele><time>2026-04-11T12:22:55Z</time></trkpt><trkpt lat="45.25192958727498" lon="9.267282246803848"><ele>80.8</ele><time>2026-04-11T12:22:56.001Z</time></trkpt><trkpt lat="45.251831890092056" lon="9.267196495291385"><ele>81.0</ele><time>2026-04-11T12:22:57.001Z</time></trkpt><trkpt lat="45.25174785637609" lon="9.267119230903301"><ele>81.19999999999999</ele><time>2026-04-11T12:22:58.001Z</time></trkpt><trkpt lat="45.25166082984813" lon="9.267042550463369"><ele>81.39999999999999</ele><time>2026-04-11T12:22:59.001Z</time></trkpt><trkpt lat="45.25156925031058" lon="9.266965046493633"><ele>81.6</ele><time>2026-04-11T12:23:00.001Z</time></trkpt><trkpt lat="45.25148290136639" lon="9.266885478453917"><ele>81.8</ele><time>2026-04-11T12:23:01.001Z</time></trkpt><trkpt lat="45.25138796123761" lon="9.266805864289674"><ele>82.0</ele><time>2026-04-11T12:23:02.001Z</time></trkpt><trkpt lat="45.2512970775136" lon="9.266729078048336"><ele>82.0</ele><time>2026-04-11T12:23:03.001Z</time></trkpt><trkpt lat="45.25119936479986" lon="9.266647060544635"><ele>82.0</ele><time>2026-04-11T12:23:04.001Z</time></trkpt><trkpt lat="45.251108307993114" lon="9.266564820459312"><ele>82.0</ele><time>2026-04-11T12:23:05.001Z</time></trkpt><trkpt lat="45.25101807148613" lon="9.266488315899817"><ele>82.0</ele><time>2026-04-11T12:23:06.001Z</time></trkpt><trkpt lat="45.25092626122101" lon="9.26640617902049"><ele>82.0</ele><time>2026-04-11T12:23:07.001Z</time></trkpt><trkpt lat="45.25083261985051" lon="9.266315671373224"><ele>82.0</ele><time>2026-04-11T12:23:08.001Z</time></trkpt><trkpt lat="45.2507226037653" lon="9.266258792773854"><ele>82.0</ele><time>2026-04-11T12:23:09.001Z</time></trkpt><trkpt lat="45.25061557221127" lon="9.266197171479782"><ele>82.0</ele><time>2026-04-11T12:23:10.001Z</time></trkpt><trkpt lat="45.25051297683759" lon="9.266140447085645"><ele>82.0</ele><time>2026-04-11T12:23:11.001Z</time></trkpt><trkpt lat="45.25042840140449" lon="9.266049523463566"><ele>82.0</ele><time>2026-04-11T12:23:12.001Z</time></trkpt><trkpt lat="45.25034435807899" lon="9.265961894687651"><ele>81.75</ele><time>2026-04-11T12:23:13.001Z</time></trkpt><trkpt lat="45.25024424437538" lon="9.265882031129292"><ele>81.5</ele><time>2026-04-11T12:23:14.001Z</time></trkpt><trkpt lat="45.25014610845265" lon="9.265776573791387"><ele>81.25</ele><time>2026-04-11T12:23:15.001Z</time></trkpt><trkpt lat="45.25003676104152" lon="9.265645622840818"><ele>81.0</ele><time>2026-04-11T12:23:16.001Z</time></trkpt><trkpt lat="45.24993020372497" lon="9.265540301571745"><ele>81.0</ele><time>2026-04-11T12:23:17.001Z</time></trkpt><trkpt lat="45.24981978607409" lon="9.265439789051069"><ele>81.0</ele><time>2026-04-11T12:23:18.001Z</time></trkpt><trkpt lat="45.2497080704521" lon="9.265343947992017"><ele>81.0</ele><time>2026-04-11T12:23:19.001Z</time></trkpt><trkpt lat="45.249605331591205" lon="9.265257877708514"><ele>81.0</ele><time>2026-04-11T12:23:20.001Z</time></trkpt><trkpt lat="45.24949701132553" lon="9.265172567524292"><ele>81.0</ele><time>2026-04-11T12:23:21.001Z</time></trkpt><trkpt lat="45.249399647326065" lon="9.26509056347889"><ele>81.0</ele><time>2026-04-11T12:23:22.001Z</time></trkpt><trkpt lat="45.24931037883792" lon="9.265008138554338"><ele>81.0</ele><time>2026-04-11T12:23:23.001Z</time></trkpt><trkpt lat="45.24923406298376" lon="9.264939151866862"><ele>81.0</ele><time>2026-04-11T12:23:24.001Z</time></trkpt><trkpt lat="45.249165930457494" lon="9.26488232133205"><ele>81.0</ele><time>2026-04-11T12:23:25.001Z</time></trkpt><trkpt lat="45.249050373567385" lon="9.264867928794645"><ele>81.0</ele><time>2026-04-11T12:23:27.001Z</time></trkpt><trkpt lat="45.24896944595496" lon="9.26489940675497"><ele>81.0</ele><time>2026-04-11T12:23:28.001Z</time></trkpt><trkpt lat="45.24888237931555" lon="9.264947356502208"><ele>81.0</ele><time>2026-04-11T12:23:29.001Z</time></trkpt><trkpt lat="45.24879160166146" lon="9.265003428644146"><ele>81.0</ele><time>2026-04-11T12:23:30.001Z</time></trkpt><trkpt lat="45.24870702972651" lon="9.265036400929322"><ele>81.0</ele><time>2026-04-11T12:23:31.001Z</time></trkpt><trkpt lat="45.24861687507583" lon="9.264988440905698"><ele>81.16666666666667</ele><time>2026-04-11T12:23:32.001Z</time></trkpt><trkpt lat="45.24851596453263" lon="9.264955627204245"><ele>81.33333333333333</ele><time>2026-04-11T12:23:33.001Z</time></trkpt><trkpt lat="45.24842986848235" lon="9.264953485875575"><ele>81.5</ele><time>2026-04-11T12:23:34.001Z</time></trkpt><trkpt lat="45.248349122281" lon="9.264944524886277"><ele>81.66666666666666</ele><time>2026-04-11T12:23:35.001Z</time></trkpt><trkpt lat="45.248263877277346" lon="9.264957209772627"><ele>81.83333333333333</ele><time>2026-04-11T12:23:36.001Z</time></trkpt><trkpt lat="45.24817795991075" lon="9.265005310714061"><ele>82.0</ele><time>2026-04-11T12:23:37.001Z</time></trkpt><trkpt lat="45.248098344850995" lon="9.26508113447662"><ele>81.5</ele><time>2026-04-11T12:23:38.001Z</time></trkpt><trkpt lat="45.248004276544975" lon="9.26519562517294"><ele>81.0</ele><time>2026-04-11T12:23:39.001Z</time></trkpt><trkpt lat="45.247900341234605" lon="9.265312546135947"><ele>80.5</ele><time>2026-04-11T12:23:40.001Z</time></trkpt><trkpt lat="45.24778658332933" lon="9.265402095409506"><ele>80.0</ele><time>2026-04-11T12:23:41.001Z</time></trkpt><trkpt lat="45.2476579827476" lon="9.265475083183919"><ele>80.0</ele><time>2026-04-11T12:23:42.001Z</time></trkpt><trkpt lat="45.247508350327344" lon="9.265534452459425"><ele>80.0</ele><time>2026-04-11T12:23:43.001Z</time></trkpt><trkpt lat="45.24733646194163" lon="9.26561664221185"><ele>80.0</ele><time>2026-04-11T12:23:44.001Z</time></trkpt><trkpt lat="45.24717263328501" lon="9.265693637996863"><ele>79.75</ele><time>2026-04-11T12:23:45.001Z</time></trkpt><trkpt lat="45.247031478087365" lon="9.265753351850226"><ele>79.5</ele><time>2026-04-11T12:23:46.001Z</time></trkpt><trkpt lat="45.24690202629895" lon="9.265816956013621"><ele>79.25</ele><time>2026-04-11T12:23:47.001Z</time></trkpt><trkpt lat="45.246782817674735" lon="9.265879172480146"><ele>79.0</ele><time>2026-04-11T12:23:48.001Z</time></trkpt><trkpt lat="45.246675513890665" lon="9.265930917819267"><ele>79.0</ele><time>2026-04-11T12:23:49.001Z</time></trkpt><trkpt lat="45.24657326718296" lon="9.26598556493183"><ele>79.0</ele><time>2026-04-11T12:23:50.001Z</time></trkpt><trkpt lat="45.24647482383693" lon="9.266036390813728"><ele>79.0</ele><time>2026-04-11T12:23:51.001Z</time></trkpt><trkpt lat="45.24636194307289" lon="9.266085812306967"><ele>79.0</ele><time>2026-04-11T12:23:52.001Z</time></trkpt><trkpt lat="45.246241984304596" lon="9.266135379225567"><ele>79.0</ele><time>2026-04-11T12:23:53.001Z</time></trkpt><trkpt lat="45.246125203936664" lon="9.26619288964574"><ele>79.0</ele><time>2026-04-11T12:23:54.001Z</time></trkpt><trkpt lat="45.24602670114114" lon="9.266243401765237"><ele>79.0</ele><time>2026-04-11T12:23:55Z</time></trkpt><trkpt lat="45.245925131654886" lon="9.266303947708078"><ele>79.0</ele><time>2026-04-11T12:23:56Z</time></trkpt><trkpt lat="45.24581941882781" lon="9.2663610409015"><ele>79.0</ele><time>2026-04-11T12:23:57Z</time></trkpt><trkpt lat="45.24570051392755" lon="9.266426727897867"><ele>79.0</ele><time>2026-04-11T12:23:58Z</time></trkpt><trkpt lat="45.24558781957711" lon="9.266486061956838"><ele>79.0</ele><time>2026-04-11T12:23:59Z</time></trkpt><trkpt lat="45.24548896689265" lon="9.266534714727085"><ele>79.0</ele><time>2026-04-11T12:24:00Z</time></trkpt><trkpt lat="45.24539444075645" lon="9.266578352769509"><ele>79.25</ele><time>2026-04-11T12:24:01Z</time></trkpt><trkpt lat="45.24528948834009" lon="9.266634191475205"><ele>79.5</ele><time>2026-04-11T12:24:02Z</time></trkpt><trkpt lat="45.24518214650572" lon="9.266694985418878"><ele>79.75</ele><time>2026-04-11T12:24:03Z</time></trkpt><trkpt lat="45.245076365712045" lon="9.266758094925683"><ele>80.0</ele><time>2026-04-11T12:24:04Z</time></trkpt><trkpt lat="45.24496245028271" lon="9.266822989361197"><ele>80.0</ele><time>2026-04-11T12:24:05Z</time></trkpt><trkpt lat="45.24484014106892" lon="9.266883673749733"><ele>80.0</ele><time>2026-04-11T12:24:06Z</time></trkpt><trkpt lat="45.24471956500381" lon="9.26694472093657"><ele>80.0</ele><time>2026-04-11T12:24:07Z</time></trkpt><trkpt lat="45.24459806258948" lon="9.267009802123587"><ele>80.0</ele><time>2026-04-11T12:24:08Z</time></trkpt><trkpt lat="45.244472145617216" lon="9.26707597160588"><ele>80.0</ele><time>2026-04-11T12:24:09Z</time></trkpt><trkpt lat="45.24435141095387" lon="9.26714381965069"><ele>80.0</ele><time>2026-04-11T12:24:10Z</time></trkpt><trkpt lat="45.24422748374202" lon="9.267216580673074"><ele>80.0</ele><time>2026-04-11T12:24:11Z</time></trkpt><trkpt lat="45.244100928316676" lon="9.267282676345545"><ele>80.0</ele><time>2026-04-11T12:24:12Z</time></trkpt><trkpt lat="45.24397260029789" lon="9.26735479401257"><ele>80.0</ele><time>2026-04-11T12:24:13Z</time></trkpt><trkpt lat="45.24384794148187" lon="9.267419923456206"><ele>80.0</ele><time>2026-04-11T12:24:14Z</time></trkpt><trkpt lat="45.24372855671112" lon="9.267489489068193"><ele>80.0</ele><time>2026-04-11T12:24:15Z</time></trkpt><trkpt lat="45.24360319756927" lon="9.26755825278804"><ele>80.0</ele><time>2026-04-11T12:24:16Z</time></trkpt><trkpt lat="45.24347989517871" lon="9.267629444840393"><ele>80.0</ele><time>2026-04-11T12:24:17Z</time></trkpt><trkpt lat="45.24335565885711" lon="9.267694332044691"><ele>80.0</ele><time>2026-04-11T12:24:18Z</time></trkpt><trkpt lat="45.243229731763115" lon="9.267759177242494"><ele>80.0</ele><time>2026-04-11T12:24:19Z</time></trkpt><trkpt lat="45.24309968816228" lon="9.267828011121399"><ele>80.0</ele><time>2026-04-11T12:24:20Z</time></trkpt><trkpt lat="45.24297032845355" lon="9.267896655258774"><ele>80.0</ele><time>2026-04-11T12:24:21Z</time></trkpt><trkpt lat="45.242846518625335" lon="9.267965696859113"><ele>80.0</ele><time>2026-04-11T12:24:22Z</time></trkpt><trkpt lat="45.2427387683306" lon="9.26802440373333"><ele>80.0</ele><time>2026-04-11T12:24:23Z</time></trkpt><trkpt lat="45.242643200912696" lon="9.268076042386275"><ele>80.0</ele><time>2026-04-11T12:24:24Z</time></trkpt><trkpt lat="45.24255561360924" lon="9.26812682517628"><ele>80.0</ele><time>2026-04-11T12:24:25Z</time></trkpt><trkpt lat="45.24247659666951" lon="9.268173958495199"><ele>80.0</ele><time>2026-04-11T12:24:26Z</time></trkpt><trkpt lat="45.242405496499124" lon="9.268209964098153"><ele>80.0</ele><time>2026-04-11T12:24:27Z</time></trkpt><trkpt lat="45.24231692572494" lon="9.268220491079393"><ele>80.0</ele><time>2026-04-11T12:24:29Z</time></trkpt><trkpt lat="45.24229975912568" lon="9.268374528013263"><ele>80.0</ele><time>2026-04-11T12:24:31Z</time></trkpt><trkpt lat="45.24225752035069" lon="9.26850602702118"><ele>80.0</ele><time>2026-04-11T12:24:33Z</time></trkpt><trkpt lat="45.24218843957868" lon="9.26854006011721"><ele>80.0</ele><time>2026-04-11T12:24:34Z</time></trkpt><trkpt lat="45.24212311574123" lon="9.268613791972049"><ele>80.16666666666667</ele><time>2026-04-11T12:24:35Z</time></trkpt><trkpt lat="45.2420794944703" lon="9.268715294951189"><ele>80.33333333333334</ele><time>2026-04-11T12:24:36Z</time></trkpt><trkpt lat="45.24203503745281" lon="9.26881701720114"><ele>80.5</ele><time>2026-04-11T12:24:37Z</time></trkpt><trkpt lat="45.24200873922614" lon="9.268901441035718"><ele>80.66666666666667</ele><time>2026-04-11T12:24:38Z</time></trkpt><trkpt lat="45.24197518424715" lon="9.269026134205388"><ele>80.83333333333333</ele><time>2026-04-11T12:24:40Z</time></trkpt><trkpt lat="45.24193309111197" lon="9.269163474753233"><ele>81.0</ele><time>2026-04-11T12:24:42Z</time></trkpt><trkpt lat="45.24165036155919" lon="9.269117697238256"><ele>81.0</ele><time>2026-04-11T12:24:43Z</time></trkpt><trkpt lat="45.24154155075548" lon="9.26916840459284"><ele>81.0</ele><time>2026-04-11T12:24:44Z</time></trkpt><trkpt lat="45.24143021628381" lon="9.269220309078273"><ele>81.0</ele><time>2026-04-11T12:24:45Z</time></trkpt><trkpt lat="45.24131287843877" lon="9.269280569778157"><ele>81.0</ele><time>2026-04-11T12:24:46Z</time></trkpt><trkpt lat="45.2411985227046" lon="9.26934101601185"><ele>80.75</ele><time>2026-04-11T12:24:47Z</time></trkpt><trkpt lat="45.24108627393773" lon="9.269408543052306"><ele>80.5</ele><time>2026-04-11T12:24:48Z</time></trkpt><trkpt lat="45.24097338535593" lon="9.269477460111522"><ele>80.25</ele><time>2026-04-11T12:24:49Z</time></trkpt><trkpt lat="45.24085971114991" lon="9.269544523278729"><ele>80.0</ele><time>2026-04-11T12:24:50Z</time></trkpt><trkpt lat="45.240755973166614" lon="9.269595956679682"><ele>80.0</ele><time>2026-04-11T12:24:51Z</time></trkpt><trkpt lat="45.2406377320568" lon="9.269661233157942"><ele>80.0</ele><time>2026-04-11T12:24:52Z</time></trkpt><trkpt lat="45.240531492660786" lon="9.269719649125895"><ele>80.0</ele><time>2026-04-11T12:24:53Z</time></trkpt><trkpt lat="45.240423554203154" lon="9.269779777915327"><ele>80.0</ele><time>2026-04-11T12:24:54Z</time></trkpt><trkpt lat="45.240315403763034" lon="9.269836888772657"><ele>79.75</ele><time>2026-04-11T12:24:55Z</time></trkpt><trkpt lat="45.24020521759577" lon="9.269889864628572"><ele>79.5</ele><time>2026-04-11T12:24:56Z</time></trkpt><trkpt lat="45.24009837152958" lon="9.269941367842627"><ele>79.25</ele><time>2026-04-11T12:24:57Z</time></trkpt><trkpt lat="45.23999269284699" lon="9.269985280678902"><ele>79.0</ele><time>2026-04-11T12:24:58Z</time></trkpt><trkpt lat="45.23987866022144" lon="9.270015861422854"><ele>78.75</ele><time>2026-04-11T12:24:59Z</time></trkpt><trkpt lat="45.23975718982262" lon="9.270053552307528"><ele>78.5</ele><time>2026-04-11T12:25:00Z</time></trkpt><trkpt lat="45.23963896549785" lon="9.270083973839677"><ele>78.25</ele><time>2026-04-11T12:25:01Z</time></trkpt><trkpt lat="45.23949967600735" lon="9.270114970215626"><ele>78.0</ele><time>2026-04-11T12:25:02.001Z</time></trkpt><trkpt lat="45.239362091111566" lon="9.270137698936036"><ele>78.0</ele><time>2026-04-11T12:25:03.001Z</time></trkpt><trkpt lat="45.23925844479821" lon="9.270145198739174"><ele>78.0</ele><time>2026-04-11T12:25:04.001Z</time></trkpt><trkpt lat="45.23915461081642" lon="9.270165933416362"><ele>78.0</ele><time>2026-04-11T12:25:05.001Z</time></trkpt><trkpt lat="45.239067939772944" lon="9.270189711919395"><ele>78.0</ele><time>2026-04-11T12:25:06.001Z</time></trkpt><trkpt lat="45.23900219091698" lon="9.27021119393121"><ele>78.0</ele><time>2026-04-11T12:25:07.001Z</time></trkpt><trkpt lat="45.23893485160355" lon="9.27024821029175"><ele>78.0</ele><time>2026-04-11T12:25:09.001Z</time></trkpt><trkpt lat="45.23885541987592" lon="9.270284081934433"><ele>78.33333333333333</ele><time>2026-04-11T12:25:12.001Z</time></trkpt><trkpt lat="45.2389120277208" lon="9.270651216244948"><ele>78.66666666666666</ele><time>2026-04-11T12:25:14.001Z</time></trkpt><trkpt lat="45.238957483536815" lon="9.270865404597247"><ele>79.0</ele><time>2026-04-11T12:25:15.001Z</time></trkpt><trkpt lat="45.23900185513208" lon="9.271086097033876"><ele>79.0</ele><time>2026-04-11T12:25:16.001Z</time></trkpt><trkpt lat="45.23905078435632" lon="9.271348969338966"><ele>79.0</ele><time>2026-04-11T12:25:17.001Z</time></trkpt><trkpt lat="45.23911187550027" lon="9.27167991733262"><ele>79.0</ele><time>2026-04-11T12:25:18.001Z</time></trkpt><trkpt lat="45.23917072496155" lon="9.272008485889566"><ele>78.33333333333333</ele><time>2026-04-11T12:25:19.001Z</time></trkpt><trkpt lat="45.23922363698336" lon="9.272299216091415"><ele>77.66666666666667</ele><time>2026-04-11T12:25:20.001Z</time></trkpt><trkpt lat="45.239270608865574" lon="9.272555862344875"><ele>77.0</ele><time>2026-04-11T12:25:21.001Z</time></trkpt><trkpt lat="45.23932214877554" lon="9.272801165137315"><ele>77.0</ele><time>2026-04-11T12:25:22.001Z</time></trkpt><trkpt lat="45.239402973281315" lon="9.273045273568258"><ele>77.0</ele><time>2026-04-11T12:25:23.001Z</time></trkpt><trkpt lat="45.239525479046755" lon="9.273304817659893"><ele>77.0</ele><time>2026-04-11T12:25:24.001Z</time></trkpt><trkpt lat="45.23966780775553" lon="9.273569987934453"><ele>77.33333333333334</ele><time>2026-04-11T12:25:25.001Z</time></trkpt><trkpt lat="45.23979682210162" lon="9.273821902690061"><ele>77.66666666666667</ele><time>2026-04-11T12:25:26.001Z</time></trkpt><trkpt lat="45.23990526985473" lon="9.274072190103393"><ele>78.0</ele><time>2026-04-11T12:25:27.001Z</time></trkpt><trkpt lat="45.239996041042446" lon="9.274327506465083"><ele>78.0</ele><time>2026-04-11T12:25:28.001Z</time></trkpt><trkpt lat="45.240076091018615" lon="9.274621597957946"><ele>78.0</ele><time>2026-04-11T12:25:29.001Z</time></trkpt><trkpt lat="45.240141627676614" lon="9.274956371407978"><ele>78.0</ele><time>2026-04-11T12:25:30.001Z</time></trkpt><trkpt lat="45.24019326605518" lon="9.27530232098526"><ele>78.0</ele><time>2026-04-11T12:25:31.001Z</time></trkpt><trkpt lat="45.240239883405295" lon="9.275640075784976"><ele>78.0</ele><time>2026-04-11T12:25:32.001Z</time></trkpt><trkpt lat="45.24028811321159" lon="9.275940817451472"><ele>78.0</ele><time>2026-04-11T12:25:33.001Z</time></trkpt><trkpt lat="45.24033411213615" lon="9.276232788912237"><ele>78.0</ele><time>2026-04-11T12:25:34.001Z</time></trkpt><trkpt lat="45.240367636914236" lon="9.27654224462653"><ele>78.0</ele><time>2026-04-11T12:25:35.001Z</time></trkpt><trkpt lat="45.24039329064696" lon="9.276871773634095"><ele>78.0</ele><time>2026-04-11T12:25:36.001Z</time></trkpt><trkpt lat="45.24041946354689" lon="9.277224854648141"><ele>78.0</ele><time>2026-04-11T12:25:37.001Z</time></trkpt><trkpt lat="45.24044684891922" lon="9.277583762601516"><ele>78.0</ele><time>2026-04-11T12:25:38.001Z</time></trkpt><trkpt lat="45.24047290907388" lon="9.277931802112443"><ele>78.0</ele><time>2026-04-11T12:25:39.001Z</time></trkpt><trkpt lat="45.2404957522052" lon="9.27826560251448"><ele>78.0</ele><time>2026-04-11T12:25:40.001Z</time></trkpt><trkpt lat="45.24051886317689" lon="9.278572064665703"><ele>78.0</ele><time>2026-04-11T12:25:41.001Z</time></trkpt><trkpt lat="45.24053830961648" lon="9.278854890119172"><ele>78.0</ele><time>2026-04-11T12:25:42.001Z</time></trkpt><trkpt lat="45.24055905572039" lon="9.279145727512443"><ele>78.0</ele><time>2026-04-11T12:25:43.001Z</time></trkpt><trkpt lat="45.24058068795406" lon="9.279420312915061"><ele>78.0</ele><time>2026-04-11T12:25:44.001Z</time></trkpt><trkpt lat="45.240616835893995" lon="9.27969306792587"><ele>78.0</ele><time>2026-04-11T12:25:45.001Z</time></trkpt><trkpt lat="45.24067812721045" lon="9.279969394686438"><ele>78.0</ele><time>2026-04-11T12:25:46.001Z</time></trkpt><trkpt lat="45.24074821524963" lon="9.280253889244655"><ele>78.0</ele><time>2026-04-11T12:25:47.001Z</time></trkpt><trkpt lat="45.2408130319364" lon="9.280518244284666"><ele>78.0</ele><time>2026-04-11T12:25:48.001Z</time></trkpt><trkpt lat="45.24086918517387" lon="9.28074835856547"><ele>78.0</ele><time>2026-04-11T12:25:49.001Z</time></trkpt><trkpt lat="45.24093374551888" lon="9.280981776501477"><ele>78.0</ele><time>2026-04-11T12:25:50.001Z</time></trkpt><trkpt lat="45.24101372395084" lon="9.28120931614275"><ele>78.0</ele><time>2026-04-11T12:25:51.001Z</time></trkpt><trkpt lat="45.241094093740315" lon="9.281416374270274"><ele>78.0</ele><time>2026-04-11T12:25:52.001Z</time></trkpt><trkpt lat="45.241166827408414" lon="9.28159294009729"><ele>78.2</ele><time>2026-04-11T12:25:53.001Z</time></trkpt><trkpt lat="45.24123424330756" lon="9.281748467883885"><ele>78.4</ele><time>2026-04-11T12:25:54.001Z</time></trkpt><trkpt lat="45.24129552872302" lon="9.281892277107044"><ele>78.60000000000001</ele><time>2026-04-11T12:25:55.001Z</time></trkpt><trkpt lat="45.24134961868273" lon="9.282020945513281"><ele>78.8</ele><time>2026-04-11T12:25:56.001Z</time></trkpt><trkpt lat="45.24139331675976" lon="9.282125853416073"><ele>79.0</ele><time>2026-04-11T12:25:57.001Z</time></trkpt><trkpt lat="45.241436172396945" lon="9.282237159189185"><ele>79.0</ele><time>2026-04-11T12:25:59.001Z</time></trkpt><trkpt lat="45.24125367439714" lon="9.282479948549877"><ele>79.0</ele><time>2026-04-11T12:26:05Z</time></trkpt><trkpt lat="45.24119132488866" lon="9.282556189127213"><ele>79.0</ele><time>2026-04-11T12:26:06Z</time></trkpt><trkpt lat="45.241126284626745" lon="9.282636380287437"><ele>79.0</ele><time>2026-04-11T12:26:07Z</time></trkpt><trkpt lat="45.24106062447108" lon="9.28271635136641"><ele>79.0</ele><time>2026-04-11T12:26:08Z</time></trkpt><trkpt lat="45.24099688226574" lon="9.282803887978337"><ele>79.0</ele><time>2026-04-11T12:26:09Z</time></trkpt><trkpt lat="45.24094331894519" lon="9.282881345394655"><ele>79.0</ele><time>2026-04-11T12:26:10Z</time></trkpt><trkpt lat="45.24088708496832" lon="9.28295154781064"><ele>79.0</ele><time>2026-04-11T12:26:11Z</time></trkpt><trkpt lat="45.240838429170786" lon="9.283024665555418"><ele>79.0</ele><time>2026-04-11T12:26:12Z</time></trkpt><trkpt lat="45.24074815436624" lon="9.28312208320802"><ele>79.0</ele><time>2026-04-11T12:26:14Z</time></trkpt><trkpt lat="45.2406499509344" lon="9.283235504360055"><ele>78.8</ele><time>2026-04-11T12:26:16Z</time></trkpt><trkpt lat="45.24058329754017" lon="9.28332586496397"><ele>78.60000000000001</ele><time>2026-04-11T12:26:17Z</time></trkpt><trkpt lat="45.24050786419717" lon="9.28342444582119"><ele>78.4</ele><time>2026-04-11T12:26:18Z</time></trkpt><trkpt lat="45.240423976224584" lon="9.28353545821568"><ele>78.2</ele><time>2026-04-11T12:26:19Z</time></trkpt><trkpt lat="45.24033908739698" lon="9.283650178737222"><ele>78.0</ele><time>2026-04-11T12:26:20Z</time></trkpt><trkpt lat="45.24025058478929" lon="9.283764436034303"><ele>78.0</ele><time>2026-04-11T12:26:21Z</time></trkpt><trkpt lat="45.24016394682673" lon="9.283883501465782"><ele>78.0</ele><time>2026-04-11T12:26:22Z</time></trkpt><trkpt lat="45.24007733394581" lon="9.283997985904227"><ele>78.0</ele><time>2026-04-11T12:26:23Z</time></trkpt><trkpt lat="45.23998929562709" lon="9.284110119876482"><ele>78.0</ele><time>2026-04-11T12:26:24Z</time></trkpt><trkpt lat="45.23990033777712" lon="9.284223069544957"><ele>78.0</ele><time>2026-04-11T12:26:25Z</time></trkpt><trkpt lat="45.239813242093774" lon="9.284335049926545"><ele>78.0</ele><time>2026-04-11T12:26:26Z</time></trkpt><trkpt lat="45.23973738501705" lon="9.284431626578883"><ele>78.0</ele><time>2026-04-11T12:26:27Z</time></trkpt><trkpt lat="45.23966748030177" lon="9.284518998293585"><ele>78.0</ele><time>2026-04-11T12:26:28Z</time></trkpt><trkpt lat="45.23961175159121" lon="9.28460408663407"><ele>78.0</ele><time>2026-04-11T12:26:29Z</time></trkpt><trkpt lat="45.239566845841814" lon="9.284708382927892"><ele>78.4</ele><time>2026-04-11T12:26:30Z</time></trkpt><trkpt lat="45.23953001780609" lon="9.284843397675639"><ele>78.8</ele><time>2026-04-11T12:26:31Z</time></trkpt><trkpt lat="45.23948804407531" lon="9.284989772291102"><ele>79.2</ele><time>2026-04-11T12:26:32Z</time></trkpt><trkpt lat="45.23943900179785" lon="9.285137960669557"><ele>79.6</ele><time>2026-04-11T12:26:33Z</time></trkpt><trkpt lat="45.23938820398854" lon="9.285278047430452"><ele>80.0</ele><time>2026-04-11T12:26:34Z</time></trkpt><trkpt lat="45.239336153146176" lon="9.285425642280101"><ele>80.0</ele><time>2026-04-11T12:26:35Z</time></trkpt><trkpt lat="45.23928025971568" lon="9.285574730951481"><ele>80.0</ele><time>2026-04-11T12:26:36Z</time></trkpt><trkpt lat="45.239226452442914" lon="9.285720887530031"><ele>80.0</ele><time>2026-04-11T12:26:37Z</time></trkpt><trkpt lat="45.239179572778625" lon="9.285843581047132"><ele>80.0</ele><time>2026-04-11T12:26:38Z</time></trkpt><trkpt lat="45.23913087546124" lon="9.285947312661058"><ele>80.0</ele><time>2026-04-11T12:26:39Z</time></trkpt><trkpt lat="45.23906327482269" lon="9.286023589363198"><ele>80.0</ele><time>2026-04-11T12:26:40Z</time></trkpt><trkpt lat="45.2389846162252" lon="9.286092822824186"><ele>80.0</ele><time>2026-04-11T12:26:41Z</time></trkpt><trkpt lat="45.23889553523241" lon="9.286167028421678"><ele>80.0</ele><time>2026-04-11T12:26:42Z</time></trkpt><trkpt lat="45.23882271782761" lon="9.286246672329069"><ele>80.0</ele><time>2026-04-11T12:26:43Z</time></trkpt><trkpt lat="45.238763347344786" lon="9.286344305584004"><ele>80.0</ele><time>2026-04-11T12:26:44Z</time></trkpt><trkpt lat="45.23871137730318" lon="9.286480921048334"><ele>79.6</ele><time>2026-04-11T12:26:45Z</time></trkpt><trkpt lat="45.23865382169125" lon="9.286617965593354"><ele>79.2</ele><time>2026-04-11T12:26:46Z</time></trkpt><trkpt lat="45.238585640148045" lon="9.28675775428966"><ele>78.8</ele><time>2026-04-11T12:26:47Z</time></trkpt><trkpt lat="45.23851409835219" lon="9.286879380295565"><ele>78.4</ele><time>2026-04-11T12:26:48Z</time></trkpt><trkpt lat="45.23845548440065" lon="9.286986509637497"><ele>78.0</ele><time>2026-04-11T12:26:49Z</time></trkpt><trkpt lat="45.23840446593889" lon="9.287089291924577"><ele>78.0</ele><time>2026-04-11T12:26:50Z</time></trkpt><trkpt lat="45.23836679238547" lon="9.287200840243223"><ele>78.0</ele><time>2026-04-11T12:26:51Z</time></trkpt><trkpt lat="45.23834201160574" lon="9.287322371942837"><ele>78.0</ele><time>2026-04-11T12:26:52Z</time></trkpt><trkpt lat="45.23832119262497" lon="9.287470311797687"><ele>78.0</ele><time>2026-04-11T12:26:53Z</time></trkpt><trkpt lat="45.23829674975588" lon="9.287622795845078"><ele>78.0</ele><time>2026-04-11T12:26:54Z</time></trkpt><trkpt lat="45.238262407535885" lon="9.287779752431918"><ele>78.25</ele><time>2026-04-11T12:26:55Z</time></trkpt><trkpt lat="45.23822516255942" lon="9.287937373277373"><ele>78.5</ele><time>2026-04-11T12:26:56Z</time></trkpt><trkpt lat="45.2381869400701" lon="9.288096511082374"><ele>78.75</ele><time>2026-04-11T12:26:57Z</time></trkpt><trkpt lat="45.23815211561157" lon="9.28825703275763"><ele>79.0</ele><time>2026-04-11T12:26:58Z</time></trkpt><trkpt lat="45.23811783699252" lon="9.288413724600554"><ele>78.60000000000001</ele><time>2026-04-11T12:26:59Z</time></trkpt><trkpt lat="45.23808797689148" lon="9.288556975982036"><ele>78.2</ele><time>2026-04-11T12:27:00Z</time></trkpt><trkpt lat="45.23806086303678" lon="9.288681874153543"><ele>77.80000000000001</ele><time>2026-04-11T12:27:01Z</time></trkpt><trkpt lat="45.23803621685239" lon="9.288808533952995"><ele>77.4</ele><time>2026-04-11T12:27:02Z</time></trkpt><trkpt lat="45.23800960124261" lon="9.288951930114917"><ele>77.0</ele><time>2026-04-11T12:27:03Z</time></trkpt><trkpt lat="45.237975277769415" lon="9.289097833815502"><ele>77.0</ele><time>2026-04-11T12:27:04Z</time></trkpt><trkpt lat="45.23794299558152" lon="9.28924961787744"><ele>77.0</ele><time>2026-04-11T12:27:05Z</time></trkpt><trkpt lat="45.23791397843624" lon="9.289400705416222"><ele>77.0</ele><time>2026-04-11T12:27:06Z</time></trkpt><trkpt lat="45.23788193390368" lon="9.289546888914481"><ele>77.0</ele><time>2026-04-11T12:27:07Z</time></trkpt><trkpt lat="45.23784759537725" lon="9.289697239812867"><ele>77.0</ele><time>2026-04-11T12:27:08Z</time></trkpt><trkpt lat="45.23781211391621" lon="9.289833060889661"><ele>77.0</ele><time>2026-04-11T12:27:09Z</time></trkpt><trkpt lat="45.23777953548888" lon="9.289964058075265"><ele>77.0</ele><time>2026-04-11T12:27:10.001Z</time></trkpt><trkpt lat="45.23774534271732" lon="9.29010063963077"><ele>77.0</ele><time>2026-04-11T12:27:11.001Z</time></trkpt><trkpt lat="45.23770718646016" lon="9.290243508979051"><ele>77.0</ele><time>2026-04-11T12:27:12.001Z</time></trkpt><trkpt lat="45.2376685290966" lon="9.290389712498968"><ele>77.0</ele><time>2026-04-11T12:27:13.001Z</time></trkpt><trkpt lat="45.237626956921964" lon="9.290545356359097"><ele>77.0</ele><time>2026-04-11T12:27:14.001Z</time></trkpt><trkpt lat="45.237585175172384" lon="9.290699844073494"><ele>77.0</ele><time>2026-04-11T12:27:15.001Z</time></trkpt><trkpt lat="45.23754768232784" lon="9.290853716889007"><ele>77.0</ele><time>2026-04-11T12:27:16.001Z</time></trkpt><trkpt lat="45.23748457722158" lon="9.291122253067911"><ele>77.0</ele><time>2026-04-11T12:27:18.001Z</time></trkpt><trkpt lat="45.23744654968983" lon="9.291244665867708"><ele>77.0</ele><time>2026-04-11T12:27:19.001Z</time></trkpt><trkpt lat="45.23738877182917" lon="9.291357362539419"><ele>77.0</ele><time>2026-04-11T12:27:20.001Z</time></trkpt><trkpt lat="45.237315579846" lon="9.29147069830796"><ele>77.0</ele><time>2026-04-11T12:27:21.001Z</time></trkpt><trkpt lat="45.237233021932155" lon="9.29157369587658"><ele>77.0</ele><time>2026-04-11T12:27:22.001Z</time></trkpt><trkpt lat="45.23714680035182" lon="9.291689546675928"><ele>77.0</ele><time>2026-04-11T12:27:23.001Z</time></trkpt><trkpt lat="45.23705963103556" lon="9.291810884316869"><ele>77.0</ele><time>2026-04-11T12:27:24.001Z</time></trkpt><trkpt lat="45.23697174969396" lon="9.29193775999739"><ele>77.0</ele><time>2026-04-11T12:27:25.001Z</time></trkpt><trkpt lat="45.23688819066685" lon="9.292058818088647"><ele>77.0</ele><time>2026-04-11T12:27:26.001Z</time></trkpt><trkpt lat="45.236811919379456" lon="9.292172163166956"><ele>77.0</ele><time>2026-04-11T12:27:27.001Z</time></trkpt><trkpt lat="45.23673955087406" lon="9.29228558727944"><ele>77.0</ele><time>2026-04-11T12:27:28.001Z</time></trkpt><trkpt lat="45.23666042675232" lon="9.292404845023656"><ele>77.0</ele><time>2026-04-11T12:27:29.001Z</time></trkpt><trkpt lat="45.23657922119931" lon="9.292524403932285"><ele>77.0</ele><time>2026-04-11T12:27:30.001Z</time></trkpt><trkpt lat="45.23650736286113" lon="9.292640550855328"><ele>77.0</ele><time>2026-04-11T12:27:31.001Z</time></trkpt><trkpt lat="45.23644317927912" lon="9.292727776782538"><ele>77.0</ele><time>2026-04-11T12:27:32.001Z</time></trkpt><trkpt lat="45.23638753403065" lon="9.292816041130852"><ele>77.0</ele><time>2026-04-11T12:27:33.001Z</time></trkpt><trkpt lat="45.23632565952433" lon="9.292878606503137"><ele>77.0</ele><time>2026-04-11T12:27:34.001Z</time></trkpt><trkpt lat="45.23628821652598" lon="9.292969012263148"><ele>77.0</ele><time>2026-04-11T12:27:35.001Z</time></trkpt><trkpt lat="45.23620019170852" lon="9.2930935714746"><ele>77.0</ele><time>2026-04-11T12:27:37.001Z</time></trkpt><trkpt lat="45.23613724522129" lon="9.293198808218195"><ele>77.0</ele><time>2026-04-11T12:27:39.001Z</time></trkpt><trkpt lat="45.23608686365932" lon="9.293253440564031"><ele>77.0</ele><time>2026-04-11T12:27:41.001Z</time></trkpt><trkpt lat="45.23616400106973" lon="9.293408668350166"><ele>76.8</ele><time>2026-04-11T12:27:44.001Z</time></trkpt><trkpt lat="45.23620323292313" lon="9.293478619958398"><ele>76.6</ele><time>2026-04-11T12:27:45.001Z</time></trkpt><trkpt lat="45.23625417954532" lon="9.293577588019222"><ele>76.39999999999999</ele><time>2026-04-11T12:27:46.001Z</time></trkpt><trkpt lat="45.23629109217726" lon="9.293667429863945"><ele>76.2</ele><time>2026-04-11T12:27:47.001Z</time></trkpt><trkpt lat="45.23634448765636" lon="9.293831412711414"><ele>76.0</ele><time>2026-04-11T12:27:49.001Z</time></trkpt><trkpt lat="45.23638521250184" lon="9.293965341602663"><ele>75.8</ele><time>2026-04-11T12:27:51.001Z</time></trkpt><trkpt lat="45.23633124711965" lon="9.294137286255134"><ele>75.6</ele><time>2026-04-11T12:27:54.001Z</time></trkpt><trkpt lat="45.2363048705944" lon="9.294250573215004"><ele>75.4</ele><time>2026-04-11T12:27:55.001Z</time></trkpt><trkpt lat="45.236256632075516" lon="9.294372852775693"><ele>75.2</ele><time>2026-04-11T12:27:56.001Z</time></trkpt><trkpt lat="45.23621283937717" lon="9.294476544632664"><ele>75.0</ele><time>2026-04-11T12:27:57.001Z</time></trkpt><trkpt lat="45.2361462253811" lon="9.294568254177412"><ele>75.0</ele><time>2026-04-11T12:27:58.001Z</time></trkpt><trkpt lat="45.2360834321925" lon="9.294694876095788"><ele>75.0</ele><time>2026-04-11T12:27:59.001Z</time></trkpt><trkpt lat="45.236002799530326" lon="9.294801469691615"><ele>75.0</ele><time>2026-04-11T12:28:00.001Z</time></trkpt><trkpt lat="45.235916388045965" lon="9.294911929091704"><ele>75.0</ele><time>2026-04-11T12:28:01.001Z</time></trkpt><trkpt lat="45.23584912805696" lon="9.2950136602048"><ele>75.0</ele><time>2026-04-11T12:28:02.001Z</time></trkpt><trkpt lat="45.235773899545585" lon="9.29512067197975"><ele>75.2</ele><time>2026-04-11T12:28:03.001Z</time></trkpt><trkpt lat="45.23570221582369" lon="9.295236841022728"><ele>75.4</ele><time>2026-04-11T12:28:04.001Z</time></trkpt><trkpt lat="45.23563675538343" lon="9.295349332176457"><ele>75.6</ele><time>2026-04-11T12:28:05.001Z</time></trkpt><trkpt lat="45.235572417521986" lon="9.295438031552788"><ele>75.8</ele><time>2026-04-11T12:28:06.001Z</time></trkpt><trkpt lat="45.235511963758505" lon="9.295533779155091"><ele>76.0</ele><time>2026-04-11T12:28:07Z</time></trkpt><trkpt lat="45.2354371617696" lon="9.295639087907128"><ele>76.2</ele><time>2026-04-11T12:28:08Z</time></trkpt><trkpt lat="45.2353574514757" lon="9.29573751777199"><ele>76.39999999999999</ele><time>2026-04-11T12:28:09Z</time></trkpt><trkpt lat="45.235295397596104" lon="9.295841547294756"><ele>76.6</ele><time>2026-04-11T12:28:10Z</time></trkpt><trkpt lat="45.23523914058668" lon="9.295951650561685"><ele>76.8</ele><time>2026-04-11T12:28:11Z</time></trkpt><trkpt lat="45.23517670238447" lon="9.296072428660072"><ele>77.0</ele><time>2026-04-11T12:28:12Z</time></trkpt><trkpt lat="45.235106599072004" lon="9.296208448180227"><ele>77.0</ele><time>2026-04-11T12:28:13Z</time></trkpt><trkpt lat="45.23503205147365" lon="9.296351293456702"><ele>77.0</ele><time>2026-04-11T12:28:14Z</time></trkpt><trkpt lat="45.2349611177375" lon="9.296492606343946"><ele>77.0</ele><time>2026-04-11T12:28:15Z</time></trkpt><trkpt lat="45.234888673604075" lon="9.296628449902824"><ele>77.0</ele><time>2026-04-11T12:28:16Z</time></trkpt><trkpt lat="45.234828954623765" lon="9.296744681289564"><ele>76.8</ele><time>2026-04-11T12:28:17Z</time></trkpt><trkpt lat="45.23476755622802" lon="9.296862336240181"><ele>76.6</ele><time>2026-04-11T12:28:18Z</time></trkpt><trkpt lat="45.23470981754657" lon="9.296983979814753"><ele>76.39999999999999</ele><time>2026-04-11T12:28:19Z</time></trkpt><trkpt lat="45.23465450215161" lon="9.297088343583946"><ele>76.2</ele><time>2026-04-11T12:28:20Z</time></trkpt><trkpt lat="45.234600312529786" lon="9.297184093022071"><ele>76.0</ele><time>2026-04-11T12:28:21Z</time></trkpt><trkpt lat="45.23453432759456" lon="9.297279764983358"><ele>76.0</ele><time>2026-04-11T12:28:22Z</time></trkpt><trkpt lat="45.23445566551143" lon="9.297358435460952"><ele>76.0</ele><time>2026-04-11T12:28:23Z</time></trkpt><trkpt lat="45.2343754379718" lon="9.297418398281872"><ele>76.0</ele><time>2026-04-11T12:28:24Z</time></trkpt><trkpt lat="45.23429782003358" lon="9.29746966534959"><ele>76.0</ele><time>2026-04-11T12:28:25Z</time></trkpt><trkpt lat="45.23420560266927" lon="9.29752253114997"><ele>76.0</ele><time>2026-04-11T12:28:26Z</time></trkpt><trkpt lat="45.234106411805335" lon="9.297580458320537"><ele>76.0</ele><time>2026-04-11T12:28:27Z</time></trkpt><trkpt lat="45.23400558700919" lon="9.297638031040172"><ele>76.0</ele><time>2026-04-11T12:28:28Z</time></trkpt><trkpt lat="45.23390663499997" lon="9.297673186036368"><ele>76.0</ele><time>2026-04-11T12:28:29Z</time></trkpt><trkpt lat="45.233802704144026" lon="9.297700934254099"><ele>76.0</ele><time>2026-04-11T12:28:30Z</time></trkpt><trkpt lat="45.23369572928879" lon="9.297731911446757"><ele>76.0</ele><time>2026-04-11T12:28:31Z</time></trkpt><trkpt lat="45.233592603399686" lon="9.297760315754031"><ele>76.0</ele><time>2026-04-11T12:28:32Z</time></trkpt><trkpt lat="45.233492219081725" lon="9.297773804146441"><ele>76.0</ele><time>2026-04-11T12:28:33Z</time></trkpt><trkpt lat="45.23339170281214" lon="9.297803131368584"><ele>76.0</ele><time>2026-04-11T12:28:34Z</time></trkpt><trkpt lat="45.23329234390692" lon="9.297824837546111"><ele>76.0</ele><time>2026-04-11T12:28:35Z</time></trkpt><trkpt lat="45.23319474976097" lon="9.29784176204577"><ele>76.0</ele><time>2026-04-11T12:28:36Z</time></trkpt><trkpt lat="45.23310475462123" lon="9.297858986511676"><ele>75.6</ele><time>2026-04-11T12:28:37Z</time></trkpt><trkpt lat="45.233017309832526" lon="9.297873472347288"><ele>75.19999999999999</ele><time>2026-04-11T12:28:38Z</time></trkpt><trkpt lat="45.232927339363776" lon="9.297894144141349"><ele>74.80000000000001</ele><time>2026-04-11T12:28:39Z</time></trkpt><trkpt lat="45.2328362471882" lon="9.297897648109252"><ele>74.4</ele><time>2026-04-11T12:28:40Z</time></trkpt><trkpt lat="45.23275264600643" lon="9.297932452803993"><ele>74.0</ele><time>2026-04-11T12:28:41Z</time></trkpt><trkpt lat="45.23265836341307" lon="9.297954274880261"><ele>74.0</ele><time>2026-04-11T12:28:42Z</time></trkpt><trkpt lat="45.23256609243942" lon="9.297972838625334"><ele>74.0</ele><time>2026-04-11T12:28:43Z</time></trkpt><trkpt lat="45.232472188633" lon="9.297986284394124"><ele>74.0</ele><time>2026-04-11T12:28:44Z</time></trkpt><trkpt lat="45.23238080192179" lon="9.298002995637363"><ele>74.0</ele><time>2026-04-11T12:28:45Z</time></trkpt><trkpt lat="45.232295379141334" lon="9.298014318174312"><ele>74.0</ele><time>2026-04-11T12:28:46Z</time></trkpt><trkpt lat="45.232203568644444" lon="9.298028557172733"><ele>74.4</ele><time>2026-04-11T12:28:47Z</time></trkpt><trkpt lat="45.232112962633686" lon="9.29804033991057"><ele>74.80000000000001</ele><time>2026-04-11T12:28:48Z</time></trkpt><trkpt lat="45.23202317510215" lon="9.298046134925544"><ele>75.19999999999999</ele><time>2026-04-11T12:28:49Z</time></trkpt><trkpt lat="45.231926081207334" lon="9.298029276187187"><ele>75.6</ele><time>2026-04-11T12:28:50Z</time></trkpt><trkpt lat="45.231830260842074" lon="9.29803276559404"><ele>76.0</ele><time>2026-04-11T12:28:51Z</time></trkpt><trkpt lat="45.231749101080645" lon="9.29803890262445"><ele>76.0</ele><time>2026-04-11T12:28:52Z</time></trkpt><trkpt lat="45.231672437733614" lon="9.298047540723687"><ele>76.0</ele><time>2026-04-11T12:28:53Z</time></trkpt><trkpt lat="45.23158415981702" lon="9.29805793937275"><ele>76.0</ele><time>2026-04-11T12:28:54Z</time></trkpt><trkpt lat="45.23150390710726" lon="9.298085329627774"><ele>76.0</ele><time>2026-04-11T12:28:55Z</time></trkpt><trkpt lat="45.23142008159678" lon="9.298081267790945"><ele>76.0</ele><time>2026-04-11T12:28:56Z</time></trkpt><trkpt lat="45.231337627059084" lon="9.29807829681721"><ele>76.0</ele><time>2026-04-11T12:28:57Z</time></trkpt><trkpt lat="45.231252596836846" lon="9.298066944788324"><ele>76.0</ele><time>2026-04-11T12:28:58Z</time></trkpt><trkpt lat="45.2311720757491" lon="9.2980406685386"><ele>76.0</ele><time>2026-04-11T12:28:59Z</time></trkpt><trkpt lat="45.23109631111836" lon="9.298008706544758"><ele>76.0</ele><time>2026-04-11T12:29:00Z</time></trkpt><trkpt lat="45.231028348398894" lon="9.297978462843323"><ele>76.0</ele><time>2026-04-11T12:29:01Z</time></trkpt><trkpt lat="45.230916913053825" lon="9.29794369443941"><ele>76.0</ele><time>2026-04-11T12:29:03Z</time></trkpt><trkpt lat="45.230827734544995" lon="9.297924348049543"><ele>76.0</ele><time>2026-04-11T12:29:05Z</time></trkpt><trkpt lat="45.23072179259219" lon="9.297884126658488"><ele>75.8</ele><time>2026-04-11T12:29:07Z</time></trkpt><trkpt lat="45.23062330627096" lon="9.297890487472866"><ele>75.6</ele><time>2026-04-11T12:29:09Z</time></trkpt><trkpt lat="45.23051524098658" lon="9.297907822669755"><ele>75.4</ele><time>2026-04-11T12:29:11Z</time></trkpt><trkpt lat="45.23038718609693" lon="9.297927271369861"><ele>75.2</ele><time>2026-04-11T12:29:13.001Z</time></trkpt><trkpt lat="45.230312169587066" lon="9.297936556805931"><ele>75.0</ele><time>2026-04-11T12:29:14.001Z</time></trkpt><trkpt lat="45.23021368360915" lon="9.297948621534456"><ele>75.0</ele><time>2026-04-11T12:29:15.001Z</time></trkpt><trkpt lat="45.23011075785611" lon="9.297960831126273"><ele>75.0</ele><time>2026-04-11T12:29:16.001Z</time></trkpt><trkpt lat="45.23000226310503" lon="9.297974679021266"><ele>75.0</ele><time>2026-04-11T12:29:17.001Z</time></trkpt><trkpt lat="45.229906442556796" lon="9.297987738474859"><ele>75.0</ele><time>2026-04-11T12:29:18.001Z</time></trkpt><trkpt lat="45.229806440389375" lon="9.298003592355569"><ele>75.0</ele><time>2026-04-11T12:29:19.001Z</time></trkpt><trkpt lat="45.2296936575107" lon="9.298025517457752"><ele>75.16666666666667</ele><time>2026-04-11T12:29:20.001Z</time></trkpt><trkpt lat="45.22958989822653" lon="9.29804950882897"><ele>75.33333333333333</ele><time>2026-04-11T12:29:21.001Z</time></trkpt><trkpt lat="45.229496528722485" lon="9.29807570573237"><ele>75.5</ele><time>2026-04-11T12:29:22.001Z</time></trkpt><trkpt lat="45.229417599518946" lon="9.29812019307008"><ele>75.66666666666666</ele><time>2026-04-11T12:29:23.001Z</time></trkpt><trkpt lat="45.229346105181484" lon="9.298160331958515"><ele>75.83333333333333</ele><time>2026-04-11T12:29:24.001Z</time></trkpt><trkpt lat="45.22928568110012" lon="9.29822527334935"><ele>76.0</ele><time>2026-04-11T12:29:25.001Z</time></trkpt><trkpt lat="45.22922515732947" lon="9.298307223614573"><ele>76.0</ele><time>2026-04-11T12:29:26.001Z</time></trkpt><trkpt lat="45.22914903399133" lon="9.29840830077054"><ele>76.0</ele><time>2026-04-11T12:29:27.001Z</time></trkpt><trkpt lat="45.22906769038345" lon="9.298509211418157"><ele>76.0</ele><time>2026-04-11T12:29:28.001Z</time></trkpt><trkpt lat="45.2290022239867" lon="9.298589000856692"><ele>76.0</ele><time>2026-04-11T12:29:29.001Z</time></trkpt><trkpt lat="45.22891629540477" lon="9.298642408267195"><ele>76.0</ele><time>2026-04-11T12:29:31.001Z</time></trkpt><trkpt lat="45.2288209377014" lon="9.29852628919903"><ele>76.0</ele><time>2026-04-11T12:29:33.001Z</time></trkpt><trkpt lat="45.22878993851028" lon="9.298447091667962"><ele>76.0</ele><time>2026-04-11T12:29:34.001Z</time></trkpt><trkpt lat="45.22872017288405" lon="9.298325959475074"><ele>76.0</ele><time>2026-04-11T12:29:35.001Z</time></trkpt><trkpt lat="45.228636187803296" lon="9.298173872982222"><ele>76.0</ele><time>2026-04-11T12:29:36.001Z</time></trkpt><trkpt lat="45.22853978221531" lon="9.29799714452307"><ele>76.0</ele><time>2026-04-11T12:29:37.001Z</time></trkpt><trkpt lat="45.2284334933043" lon="9.297799948788096"><ele>76.0</ele><time>2026-04-11T12:29:38.001Z</time></trkpt><trkpt lat="45.22833461102954" lon="9.297619204506926"><ele>76.0</ele><time>2026-04-11T12:29:39.001Z</time></trkpt><trkpt lat="45.22826211739348" lon="9.29748647222184"><ele>76.0</ele><time>2026-04-11T12:29:40.001Z</time></trkpt><trkpt lat="45.228201548477806" lon="9.29736940064357"><ele>76.0</ele><time>2026-04-11T12:29:41.001Z</time></trkpt><trkpt lat="45.22814920347033" lon="9.297255386591758"><ele>76.0</ele><time>2026-04-11T12:29:42.001Z</time></trkpt><trkpt lat="45.2281008373094" lon="9.29714336304454"><ele>76.0</ele><time>2026-04-11T12:29:43.001Z</time></trkpt><trkpt lat="45.228056142259575" lon="9.297053801628657"><ele>76.0</ele><time>2026-04-11T12:29:44.001Z</time></trkpt><trkpt lat="45.22801682049617" lon="9.296977380368734"><ele>76.0</ele><time>2026-04-11T12:29:45.001Z</time></trkpt><trkpt lat="45.227889697427095" lon="9.29696047690269"><ele>75.8</ele><time>2026-04-11T12:29:47.001Z</time></trkpt><trkpt lat="45.2278232397211" lon="9.296996209358063"><ele>75.6</ele><time>2026-04-11T12:29:48.001Z</time></trkpt><trkpt lat="45.22774412662544" lon="9.297065611226435"><ele>75.4</ele><time>2026-04-11T12:29:49.001Z</time></trkpt><trkpt lat="45.22763765151358" lon="9.297155724772905"><ele>75.2</ele><time>2026-04-11T12:29:50.001Z</time></trkpt><trkpt lat="45.227512779810475" lon="9.297246062477788"><ele>75.0</ele><time>2026-04-11T12:29:51.001Z</time></trkpt><trkpt lat="45.227380185453754" lon="9.297342342377213"><ele>74.75</ele><time>2026-04-11T12:29:52.001Z</time></trkpt><trkpt lat="45.22724137889958" lon="9.297449735356366"><ele>74.5</ele><time>2026-04-11T12:29:53.001Z</time></trkpt><trkpt lat="45.22711061023224" lon="9.297553911220083"><ele>74.25</ele><time>2026-04-11T12:29:54.001Z</time></trkpt><trkpt lat="45.22698872072774" lon="9.2976550259436"><ele>74.0</ele><time>2026-04-11T12:29:55.001Z</time></trkpt><trkpt lat="45.22687072902518" lon="9.297737898008434"><ele>74.0</ele><time>2026-04-11T12:29:56.001Z</time></trkpt><trkpt lat="45.226748883018296" lon="9.297835997855675"><ele>74.0</ele><time>2026-04-11T12:29:57.001Z</time></trkpt><trkpt lat="45.2266254882213" lon="9.297918105763424"><ele>74.0</ele><time>2026-04-11T12:29:58.001Z</time></trkpt><trkpt lat="45.226502142233734" lon="9.297999394349882"><ele>74.0</ele><time>2026-04-11T12:29:59.001Z</time></trkpt><trkpt lat="45.2263793754078" lon="9.298095065274062"><ele>74.5</ele><time>2026-04-11T12:30:00.001Z</time></trkpt><trkpt lat="45.226258413203375" lon="9.298203512280736"><ele>75.0</ele><time>2026-04-11T12:30:01.001Z</time></trkpt><trkpt lat="45.22613337823341" lon="9.298317467099972"><ele>75.5</ele><time>2026-04-11T12:30:02.001Z</time></trkpt><trkpt lat="45.22600720911332" lon="9.298426293433048"><ele>76.0</ele><time>2026-04-11T12:30:03.001Z</time></trkpt><trkpt lat="45.22586498925332" lon="9.298552832305376"><ele>76.0</ele><time>2026-04-11T12:30:04.001Z</time></trkpt><trkpt lat="45.22571765543624" lon="9.298681379068663"><ele>76.0</ele><time>2026-04-11T12:30:05.001Z</time></trkpt><trkpt lat="45.22557138473644" lon="9.298808719833199"><ele>76.0</ele><time>2026-04-11T12:30:06.001Z</time></trkpt><trkpt lat="45.225434486697125" lon="9.298923689882761"><ele>76.0</ele><time>2026-04-11T12:30:07.001Z</time></trkpt><trkpt lat="45.225294183018704" lon="9.29904371971162"><ele>76.0</ele><time>2026-04-11T12:30:08.001Z</time></trkpt><trkpt lat="45.225155621029295" lon="9.299163597903988"><ele>76.0</ele><time>2026-04-11T12:30:09.001Z</time></trkpt><trkpt lat="45.225019362877575" lon="9.299282914892423"><ele>76.0</ele><time>2026-04-11T12:30:10.001Z</time></trkpt><trkpt lat="45.22487758703674" lon="9.299404925788"><ele>76.0</ele><time>2026-04-11T12:30:11.001Z</time></trkpt><trkpt lat="45.22476380402863" lon="9.299500504214462"><ele>76.0</ele><time>2026-04-11T12:30:12.001Z</time></trkpt><trkpt lat="45.22467155241949" lon="9.299580085124223"><ele>76.0</ele><time>2026-04-11T12:30:13Z</time></trkpt><trkpt lat="45.22459884568404" lon="9.299643467569615"><ele>75.8</ele><time>2026-04-11T12:30:14Z</time></trkpt><trkpt lat="45.22454077952826" lon="9.29969275783097"><ele>75.6</ele><time>2026-04-11T12:30:15Z</time></trkpt><trkpt lat="45.224424012408726" lon="9.299709552082996"><ele>75.4</ele><time>2026-04-11T12:30:17Z</time></trkpt><trkpt lat="45.22437236088002" lon="9.299601853237258"><ele>75.2</ele><time>2026-04-11T12:30:18Z</time></trkpt><trkpt lat="45.224286682348776" lon="9.299523561019663"><ele>75.0</ele><time>2026-04-11T12:30:19Z</time></trkpt><trkpt lat="45.22420960117188" lon="9.299476730038082"><ele>75.0</ele><time>2026-04-11T12:30:20Z</time></trkpt><trkpt lat="45.22412139703284" lon="9.299487955551715"><ele>75.0</ele><time>2026-04-11T12:30:21Z</time></trkpt><trkpt lat="45.224035362152186" lon="9.299580642503317"><ele>75.0</ele><time>2026-04-11T12:30:22Z</time></trkpt><trkpt lat="45.22394150336516" lon="9.299654374486813"><ele>75.0</ele><time>2026-04-11T12:30:23Z</time></trkpt><trkpt lat="45.22383656045489" lon="9.299737819444992"><ele>75.0</ele><time>2026-04-11T12:30:24Z</time></trkpt><trkpt lat="45.223699045519304" lon="9.299842672804203"><ele>74.33333333333333</ele><time>2026-04-11T12:30:25Z</time></trkpt><trkpt lat="45.22353522876562" lon="9.29997430807896"><ele>73.66666666666666</ele><time>2026-04-11T12:30:26Z</time></trkpt><trkpt lat="45.22337618079224" lon="9.300099708172725"><ele>73.0</ele><time>2026-04-11T12:30:27Z</time></trkpt><trkpt lat="45.223235924491895" lon="9.30020534876493"><ele>73.25</ele><time>2026-04-11T12:30:28Z</time></trkpt><trkpt lat="45.223100284565525" lon="9.300308803895174"><ele>73.5</ele><time>2026-04-11T12:30:29Z</time></trkpt><trkpt lat="45.22297609871529" lon="9.300404084047587"><ele>73.75</ele><time>2026-04-11T12:30:30Z</time></trkpt><trkpt lat="45.22284386801784" lon="9.300500756521789"><ele>74.0</ele><time>2026-04-11T12:30:31Z</time></trkpt><trkpt lat="45.222711612079756" lon="9.300589068082466"><ele>74.25</ele><time>2026-04-11T12:30:32Z</time></trkpt><trkpt lat="45.222586666979126" lon="9.300662490416473"><ele>74.5</ele><time>2026-04-11T12:30:33Z</time></trkpt><trkpt lat="45.222457407620944" lon="9.300694732663281"><ele>74.75</ele><time>2026-04-11T12:30:34Z</time></trkpt><trkpt lat="45.22232236658911" lon="9.300730713357227"><ele>75.0</ele><time>2026-04-11T12:30:35Z</time></trkpt><trkpt lat="45.22218345982646" lon="9.300769060839817"><ele>75.0</ele><time>2026-04-11T12:30:36Z</time></trkpt><trkpt lat="45.22204463880856" lon="9.300825035121395"><ele>75.0</ele><time>2026-04-11T12:30:37Z</time></trkpt><trkpt lat="45.2218993089059" lon="9.300868341964353"><ele>75.0</ele><time>2026-04-11T12:30:38Z</time></trkpt><trkpt lat="45.221758926626684" lon="9.300934160478946"><ele>75.0</ele><time>2026-04-11T12:30:39Z</time></trkpt><trkpt lat="45.22162143521875" lon="9.301023288364606"><ele>75.0</ele><time>2026-04-11T12:30:40Z</time></trkpt><trkpt lat="45.22148707741797" lon="9.301125789346758"><ele>75.0</ele><time>2026-04-11T12:30:41Z</time></trkpt><trkpt lat="45.22135158575385" lon="9.301236607293854"><ele>75.0</ele><time>2026-04-11T12:30:42Z</time></trkpt><trkpt lat="45.22120992817103" lon="9.301353160954097"><ele>74.66666666666667</ele><time>2026-04-11T12:30:43Z</time></trkpt><trkpt lat="45.22106680425104" lon="9.301476709847433"><ele>74.33333333333334</ele><time>2026-04-11T12:30:44Z</time></trkpt><trkpt lat="45.22092058113802" lon="9.301606010370481"><ele>74.0</ele><time>2026-04-11T12:30:45Z</time></trkpt><trkpt lat="45.22078423704114" lon="9.301724295976015"><ele>73.66666666666667</ele><time>2026-04-11T12:30:46Z</time></trkpt><trkpt lat="45.22064907332336" lon="9.301839906650729"><ele>73.33333333333333</ele><time>2026-04-11T12:30:47Z</time></trkpt><trkpt lat="45.220514837417326" lon="9.301948068029846"><ele>73.0</ele><time>2026-04-11T12:30:48Z</time></trkpt><trkpt lat="45.22037643874698" lon="9.3020579400845"><ele>73.0</ele><time>2026-04-11T12:30:49Z</time></trkpt><trkpt lat="45.220247354228164" lon="9.302158433971224"><ele>73.0</ele><time>2026-04-11T12:30:50Z</time></trkpt><trkpt lat="45.220125568133334" lon="9.302243450795295"><ele>73.0</ele><time>2026-04-11T12:30:51Z</time></trkpt><trkpt lat="45.22001481256302" lon="9.302320982791965"><ele>73.0</ele><time>2026-04-11T12:30:52Z</time></trkpt><trkpt lat="45.21990295112207" lon="9.30239431383005"><ele>73.4</ele><time>2026-04-11T12:30:53Z</time></trkpt><trkpt lat="45.21979964263929" lon="9.302455545915914"><ele>73.8</ele><time>2026-04-11T12:30:54Z</time></trkpt><trkpt lat="45.21972612972861" lon="9.302515489649634"><ele>74.2</ele><time>2026-04-11T12:30:55Z</time></trkpt><trkpt lat="45.219639257250066" lon="9.30257031745696"><ele>74.6</ele><time>2026-04-11T12:30:57Z</time></trkpt><trkpt lat="45.21955495170432" lon="9.302433007225194"><ele>75.0</ele><time>2026-04-11T12:31:00Z</time></trkpt><trkpt lat="45.21951206676682" lon="9.302321947716596"><ele>74.75</ele><time>2026-04-11T12:31:01Z</time></trkpt><trkpt lat="45.219437677959014" lon="9.302174298116514"><ele>74.5</ele><time>2026-04-11T12:31:02Z</time></trkpt><trkpt lat="45.21934262432132" lon="9.302012628761457"><ele>74.25</ele><time>2026-04-11T12:31:03Z</time></trkpt><trkpt lat="45.219255920547894" lon="9.301823159426755"><ele>74.0</ele><time>2026-04-11T12:31:04Z</time></trkpt><trkpt lat="45.21916106126701" lon="9.30167114101469"><ele>74.0</ele><time>2026-04-11T12:31:05Z</time></trkpt><trkpt lat="45.2190530392947" lon="9.301530630581352"><ele>74.0</ele><time>2026-04-11T12:31:06Z</time></trkpt><trkpt lat="45.218920356241526" lon="9.30137567608159"><ele>74.0</ele><time>2026-04-11T12:31:07Z</time></trkpt><trkpt lat="45.21880369746718" lon="9.301233549376644"><ele>74.25</ele><time>2026-04-11T12:31:08Z</time></trkpt><trkpt lat="45.21870124364356" lon="9.301114570717946"><ele>74.5</ele><time>2026-04-11T12:31:09Z</time></trkpt><trkpt lat="45.21860713066012" lon="9.301013838863103"><ele>74.75</ele><time>2026-04-11T12:31:10Z</time></trkpt><trkpt lat="45.218512786855776" lon="9.300936171125699"><ele>75.0</ele><time>2026-04-11T12:31:11Z</time></trkpt><trkpt lat="45.21837483187354" lon="9.300887175569969"><ele>75.0</ele><time>2026-04-11T12:31:12.001Z</time></trkpt><trkpt lat="45.21826992700818" lon="9.30081417558997"><ele>75.0</ele><time>2026-04-11T12:31:13.001Z</time></trkpt><trkpt lat="45.218199602533616" lon="9.30076281966461"><ele>75.0</ele><time>2026-04-11T12:31:14.001Z</time></trkpt><trkpt lat="45.218122763933444" lon="9.300663209402368"><ele>75.0</ele><time>2026-04-11T12:31:16.001Z</time></trkpt><trkpt lat="45.21808723093395" lon="9.300527250723988"><ele>75.0</ele><time>2026-04-11T12:31:18.001Z</time></trkpt><trkpt lat="45.21806665164557" lon="9.300427920969552"><ele>75.25</ele><time>2026-04-11T12:31:19.001Z</time></trkpt><trkpt lat="45.21801750593092" lon="9.300266081332381"><ele>75.5</ele><time>2026-04-11T12:31:20.001Z</time></trkpt><trkpt lat="45.2179501674881" lon="9.300060256020716"><ele>75.75</ele><time>2026-04-11T12:31:21.001Z</time></trkpt><trkpt lat="45.21789964311203" lon="9.299916943393928"><ele>76.0</ele><time>2026-04-11T12:31:22.001Z</time></trkpt><trkpt lat="45.21786741414899" lon="9.299832646236942"><ele>76.0</ele><time>2026-04-11T12:31:23.001Z</time></trkpt><trkpt lat="45.2178033882797" lon="9.299741156768514"><ele>76.0</ele><time>2026-04-11T12:31:25.001Z</time></trkpt><trkpt lat="45.21776680078578" lon="9.299652706982275"><ele>76.0</ele><time>2026-04-11T12:31:28.001Z</time></trkpt><trkpt lat="45.217655913774024" lon="9.299742418801877"><ele>76.0</ele><time>2026-04-11T12:31:29.001Z</time></trkpt><trkpt lat="45.217591503932056" lon="9.299773825418809"><ele>76.0</ele><time>2026-04-11T12:31:30.001Z</time></trkpt><trkpt lat="45.21752590468386" lon="9.29980685505023"><ele>76.0</ele><time>2026-04-11T12:31:31.001Z</time></trkpt><trkpt lat="45.21744901902698" lon="9.299844014518406"><ele>76.0</ele><time>2026-04-11T12:31:32.001Z</time></trkpt><trkpt lat="45.217373411847305" lon="9.299879561688375"><ele>76.0</ele><time>2026-04-11T12:31:33.001Z</time></trkpt><trkpt lat="45.21730028538913" lon="9.299917989499384"><ele>76.0</ele><time>2026-04-11T12:31:34.001Z</time></trkpt><trkpt lat="45.217227130180014" lon="9.299953744370683"><ele>76.0</ele><time>2026-04-11T12:31:35.001Z</time></trkpt><trkpt lat="45.21715794037611" lon="9.299986805025913"><ele>76.0</ele><time>2026-04-11T12:31:36.001Z</time></trkpt><trkpt lat="45.21709438272712" lon="9.300013261550273"><ele>76.0</ele><time>2026-04-11T12:31:37.001Z</time></trkpt><trkpt lat="45.21702365363406" lon="9.300040643079756"><ele>76.0</ele><time>2026-04-11T12:31:38.001Z</time></trkpt><trkpt lat="45.21694800854765" lon="9.300086246542163"><ele>76.0</ele><time>2026-04-11T12:31:39.001Z</time></trkpt><trkpt lat="45.216864817049576" lon="9.300138832652316"><ele>76.0</ele><time>2026-04-11T12:31:40.001Z</time></trkpt><trkpt lat="45.21678656376635" lon="9.30019444506375"><ele>76.0</ele><time>2026-04-11T12:31:41.001Z</time></trkpt><trkpt lat="45.21670844238514" lon="9.300246988554505"><ele>76.0</ele><time>2026-04-11T12:31:42.001Z</time></trkpt><trkpt lat="45.21663290475264" lon="9.300299415505973"><ele>76.0</ele><time>2026-04-11T12:31:43.001Z</time></trkpt><trkpt lat="45.216555074195306" lon="9.300353093399387"><ele>76.0</ele><time>2026-04-11T12:31:44.001Z</time></trkpt><trkpt lat="45.2164747750647" lon="9.300415196653825"><ele>75.83333333333333</ele><time>2026-04-11T12:31:45.001Z</time></trkpt><trkpt lat="45.21639633352459" lon="9.300482315759286"><ele>75.66666666666666</ele><time>2026-04-11T12:31:46.001Z</time></trkpt><trkpt lat="45.216316986633025" lon="9.300542553443393"><ele>75.5</ele><time>2026-04-11T12:31:47.001Z</time></trkpt><trkpt lat="45.2162440713562" lon="9.300590041006734"><ele>75.33333333333333</ele><time>2026-04-11T12:31:48.001Z</time></trkpt><trkpt lat="45.216165732454925" lon="9.300623834220145"><ele>75.16666666666667</ele><time>2026-04-11T12:31:49.001Z</time></trkpt><trkpt lat="45.216073769836946" lon="9.300652990416793"><ele>75.0</ele><time>2026-04-11T12:31:50.001Z</time></trkpt><trkpt lat="45.21598002224408" lon="9.300676975804302"><ele>74.8</ele><time>2026-04-11T12:31:51.001Z</time></trkpt><trkpt lat="45.215889955571384" lon="9.300707597017828"><ele>74.6</ele><time>2026-04-11T12:31:52.001Z</time></trkpt><trkpt lat="45.215804771664715" lon="9.300753304624585"><ele>74.4</ele><time>2026-04-11T12:31:53.001Z</time></trkpt><trkpt lat="45.21573058623746" lon="9.300831939077154"><ele>74.2</ele><time>2026-04-11T12:31:54.001Z</time></trkpt><trkpt lat="45.21564812486606" lon="9.300929835610383"><ele>74.0</ele><time>2026-04-11T12:31:55.001Z</time></trkpt><trkpt lat="45.21557374985158" lon="9.30104830784647"><ele>73.75</ele><time>2026-04-11T12:31:56.001Z</time></trkpt><trkpt lat="45.21549188616678" lon="9.301164986201595"><ele>73.5</ele><time>2026-04-11T12:31:57.001Z</time></trkpt><trkpt lat="45.21540581583576" lon="9.301285280833417"><ele>73.25</ele><time>2026-04-11T12:31:58.001Z</time></trkpt><trkpt lat="45.215310979673056" lon="9.301411615445517"><ele>73.0</ele><time>2026-04-11T12:31:59.001Z</time></trkpt><trkpt lat="45.21521190646665" lon="9.301540108396877"><ele>73.0</ele><time>2026-04-11T12:32:00.001Z</time></trkpt><trkpt lat="45.215110971856404" lon="9.301669086136874"><ele>73.0</ele><time>2026-04-11T12:32:01.001Z</time></trkpt><trkpt lat="45.21501597302571" lon="9.301792107037766"><ele>73.0</ele><time>2026-04-11T12:32:02.001Z</time></trkpt><trkpt lat="45.21492111067436" lon="9.301913654258696"><ele>73.0</ele><time>2026-04-11T12:32:03.001Z</time></trkpt><trkpt lat="45.21482067039709" lon="9.30203262843863"><ele>73.0</ele><time>2026-04-11T12:32:04.001Z</time></trkpt><trkpt lat="45.21471911638506" lon="9.302153825815173"><ele>73.0</ele><time>2026-04-11T12:32:05.001Z</time></trkpt><trkpt lat="45.21461630610906" lon="9.302290234158693"><ele>73.0</ele><time>2026-04-11T12:32:06.001Z</time></trkpt><trkpt lat="45.21451419139926" lon="9.302422586240773"><ele>73.0</ele><time>2026-04-11T12:32:07.001Z</time></trkpt><trkpt lat="45.21441132790737" lon="9.302561638649475"><ele>73.0</ele><time>2026-04-11T12:32:08.001Z</time></trkpt><trkpt lat="45.21431085141743" lon="9.30270625583182"><ele>73.0</ele><time>2026-04-11T12:32:09.001Z</time></trkpt><trkpt lat="45.2142188962553" lon="9.302854634435331"><ele>73.0</ele><time>2026-04-11T12:32:10.001Z</time></trkpt><trkpt lat="45.21412230937859" lon="9.302987759644303"><ele>73.0</ele><time>2026-04-11T12:32:11.001Z</time></trkpt><trkpt lat="45.214032001948205" lon="9.303135438385098"><ele>73.0</ele><time>2026-04-11T12:32:12.001Z</time></trkpt><trkpt lat="45.21394258895265" lon="9.303272183692401"><ele>73.0</ele><time>2026-04-11T12:32:13.001Z</time></trkpt><trkpt lat="45.21385802209973" lon="9.303420863124638"><ele>73.0</ele><time>2026-04-11T12:32:14.001Z</time></trkpt><trkpt lat="45.21375972593295" lon="9.303547479412684"><ele>73.0</ele><time>2026-04-11T12:32:15.001Z</time></trkpt><trkpt lat="45.21366160748332" lon="9.30367722874966"><ele>73.0</ele><time>2026-04-11T12:32:16.001Z</time></trkpt><trkpt lat="45.213569384845464" lon="9.30380765800444"><ele>73.0</ele><time>2026-04-11T12:32:17.001Z</time></trkpt><trkpt lat="45.21347294400459" lon="9.30393182231276"><ele>73.0</ele><time>2026-04-11T12:32:18.001Z</time></trkpt><trkpt lat="45.21337476609464" lon="9.304052910828592"><ele>73.0</ele><time>2026-04-11T12:32:19Z</time></trkpt><trkpt lat="45.213279599803926" lon="9.304172676543937"><ele>73.5</ele><time>2026-04-11T12:32:20Z</time></trkpt><trkpt lat="45.21318784030984" lon="9.304300491872548"><ele>74.0</ele><time>2026-04-11T12:32:21Z</time></trkpt><trkpt lat="45.21309514832882" lon="9.304431172127721"><ele>74.5</ele><time>2026-04-11T12:32:22Z</time></trkpt><trkpt lat="45.213006158425635" lon="9.304563801253074"><ele>75.0</ele><time>2026-04-11T12:32:23Z</time></trkpt><trkpt lat="45.212914100301575" lon="9.304701665429675"><ele>75.0</ele><time>2026-04-11T12:32:24Z</time></trkpt><trkpt lat="45.21282553306617" lon="9.304842766061487"><ele>75.0</ele><time>2026-04-11T12:32:25Z</time></trkpt><trkpt lat="45.21274009201548" lon="9.304986062272231"><ele>75.0</ele><time>2026-04-11T12:32:26Z</time></trkpt><trkpt lat="45.21265736675601" lon="9.305131065523062"><ele>75.0</ele><time>2026-04-11T12:32:27Z</time></trkpt><trkpt lat="45.2125787122046" lon="9.305270995487527"><ele>75.0</ele><time>2026-04-11T12:32:28Z</time></trkpt><trkpt lat="45.212503367956565" lon="9.305411953433232"><ele>75.0</ele><time>2026-04-11T12:32:29Z</time></trkpt><trkpt lat="45.212426385063424" lon="9.305554779575091"><ele>75.0</ele><time>2026-04-11T12:32:30Z</time></trkpt><trkpt lat="45.212349973046166" lon="9.305695085615964"><ele>75.0</ele><time>2026-04-11T12:32:31Z</time></trkpt><trkpt lat="45.21227164588294" lon="9.305832962481006"><ele>74.75</ele><time>2026-04-11T12:32:32Z</time></trkpt><trkpt lat="45.21219169804388" lon="9.305964643369675"><ele>74.5</ele><time>2026-04-11T12:32:33Z</time></trkpt><trkpt lat="45.21211538917724" lon="9.306101360182875"><ele>74.25</ele><time>2026-04-11T12:32:34Z</time></trkpt><trkpt lat="45.21203811404283" lon="9.306240886146314"><ele>74.0</ele><time>2026-04-11T12:32:35Z</time></trkpt><trkpt lat="45.21196169035565" lon="9.306378964864367"><ele>74.25</ele><time>2026-04-11T12:32:36Z</time></trkpt><trkpt lat="45.21188868895008" lon="9.30651726556232"><ele>74.5</ele><time>2026-04-11T12:32:37Z</time></trkpt><trkpt lat="45.21182084433736" lon="9.306644820248668"><ele>74.75</ele><time>2026-04-11T12:32:38Z</time></trkpt><trkpt lat="45.211751778647724" lon="9.306769665363852"><ele>75.0</ele><time>2026-04-11T12:32:39Z</time></trkpt><trkpt lat="45.2116731425835" lon="9.306883986414503"><ele>75.0</ele><time>2026-04-11T12:32:40Z</time></trkpt><trkpt lat="45.211586370240084" lon="9.306986299081458"><ele>75.0</ele><time>2026-04-11T12:32:41Z</time></trkpt><trkpt lat="45.21148843594435" lon="9.30707789470697"><ele>75.0</ele><time>2026-04-11T12:32:42Z</time></trkpt><trkpt lat="45.211391702921055" lon="9.307159530821846"><ele>75.0</ele><time>2026-04-11T12:32:43Z</time></trkpt><trkpt lat="45.21129735137424" lon="9.307231456311689"><ele>74.8</ele><time>2026-04-11T12:32:44Z</time></trkpt><trkpt lat="45.211198289428616" lon="9.307294820013201"><ele>74.6</ele><time>2026-04-11T12:32:45Z</time></trkpt><trkpt lat="45.211096392122684" lon="9.307347009876038"><ele>74.4</ele><time>2026-04-11T12:32:46Z</time></trkpt><trkpt lat="45.210997933757824" lon="9.307399182635756"><ele>74.2</ele><time>2026-04-11T12:32:47Z</time></trkpt><trkpt lat="45.210888195263756" lon="9.307446734485184"><ele>74.0</ele><time>2026-04-11T12:32:48Z</time></trkpt><trkpt lat="45.21077786495541" lon="9.307474066141436"><ele>73.75</ele><time>2026-04-11T12:32:49Z</time></trkpt><trkpt lat="45.21065692275745" lon="9.307459249620736"><ele>73.5</ele><time>2026-04-11T12:32:50Z</time></trkpt><trkpt lat="45.21053468172678" lon="9.30744948277278"><ele>73.25</ele><time>2026-04-11T12:32:51Z</time></trkpt><trkpt lat="45.21040874374901" lon="9.30744972442298"><ele>73.0</ele><time>2026-04-11T12:32:52Z</time></trkpt><trkpt lat="45.2102830574753" lon="9.307433454744043"><ele>73.0</ele><time>2026-04-11T12:32:53Z</time></trkpt><trkpt lat="45.210158634260644" lon="9.307422674727475"><ele>73.0</ele><time>2026-04-11T12:32:54Z</time></trkpt><trkpt lat="45.21004386550172" lon="9.307409021315275"><ele>73.0</ele><time>2026-04-11T12:32:55Z</time></trkpt><trkpt lat="45.2099375611282" lon="9.307394959855218"><ele>73.0</ele><time>2026-04-11T12:32:56Z</time></trkpt><trkpt lat="45.20984772980851" lon="9.307382123087228"><ele>73.0</ele><time>2026-04-11T12:32:57Z</time></trkpt><trkpt lat="45.209772747794574" lon="9.307369608999842"><ele>72.83333333333333</ele><time>2026-04-11T12:32:58Z</time></trkpt><trkpt lat="45.20967158432594" lon="9.307352681403472"><ele>72.66666666666666</ele><time>2026-04-11T12:33:00Z</time></trkpt><trkpt lat="45.209611477643726" lon="9.307310364680617"><ele>72.5</ele><time>2026-04-11T12:33:11Z</time></trkpt><trkpt lat="45.20955211225945" lon="9.307452998414984"><ele>72.33333333333333</ele><time>2026-04-11T12:33:12Z</time></trkpt><trkpt lat="45.20951357264384" lon="9.307526068262417"><ele>72.16666666666667</ele><time>2026-04-11T12:33:13Z</time></trkpt><trkpt lat="45.20947780296761" lon="9.307636684652232"><ele>72.0</ele><time>2026-04-11T12:33:14Z</time></trkpt><trkpt lat="45.20943205662645" lon="9.307741690069205"><ele>72.0</ele><time>2026-04-11T12:33:15Z</time></trkpt><trkpt lat="45.20936164092315" lon="9.307848228082579"><ele>72.0</ele><time>2026-04-11T12:33:16.001Z</time></trkpt><trkpt lat="45.209280218621814" lon="9.307947922902464"><ele>72.0</ele><time>2026-04-11T12:33:17.001Z</time></trkpt><trkpt lat="45.20919814070946" lon="9.30802187438703"><ele>72.0</ele><time>2026-04-11T12:33:18.001Z</time></trkpt><trkpt lat="45.20911618171628" lon="9.308095188754644"><ele>72.0</ele><time>2026-04-11T12:33:19.001Z</time></trkpt><trkpt lat="45.20902555599472" lon="9.308116544592359"><ele>72.2</ele><time>2026-04-11T12:33:20.001Z</time></trkpt><trkpt lat="45.20893512143966" lon="9.308161361168215"><ele>72.4</ele><time>2026-04-11T12:33:21.001Z</time></trkpt><trkpt lat="45.20885880047079" lon="9.30816112299851"><ele>72.6</ele><time>2026-04-11T12:33:22.001Z</time></trkpt><trkpt lat="45.20876100636325" lon="9.308148944948675"><ele>72.8</ele><time>2026-04-11T12:33:24.001Z</time></trkpt><trkpt lat="45.20865724091485" lon="9.308161140393077"><ele>73.0</ele><time>2026-04-11T12:33:27.001Z</time></trkpt><trkpt lat="45.208605834944294" lon="9.308255867860332"><ele>73.0</ele><time>2026-04-11T12:33:28.001Z</time></trkpt><trkpt lat="45.20855430132925" lon="9.30832270053644"><ele>73.0</ele><time>2026-04-11T12:33:29.001Z</time></trkpt><trkpt lat="45.20850392239824" lon="9.308387064348569"><ele>73.0</ele><time>2026-04-11T12:33:30.001Z</time></trkpt><trkpt lat="45.20841812631332" lon="9.308464161396381"><ele>73.0</ele><time>2026-04-11T12:33:32.001Z</time></trkpt><trkpt lat="45.20829647791782" lon="9.30834829895634"><ele>73.0</ele><time>2026-04-11T12:33:35.001Z</time></trkpt><trkpt lat="45.2082486736248" lon="9.308281192901724"><ele>73.0</ele><time>2026-04-11T12:33:36.001Z</time></trkpt><trkpt lat="45.20811467351403" lon="9.308327963565121"><ele>73.0</ele><time>2026-04-11T12:33:37.001Z</time></trkpt><trkpt lat="45.20803025532943" lon="9.308324828412804"><ele>73.0</ele><time>2026-04-11T12:33:38.001Z</time></trkpt><trkpt lat="45.207947328557935" lon="9.308339814519671"><ele>73.0</ele><time>2026-04-11T12:33:39.001Z</time></trkpt><trkpt lat="45.207872984077575" lon="9.30833226671376"><ele>73.0</ele><time>2026-04-11T12:33:40.001Z</time></trkpt><trkpt lat="45.20780322714651" lon="9.3083236990065"><ele>73.0</ele><time>2026-04-11T12:33:41.001Z</time></trkpt><trkpt lat="45.20773795941575" lon="9.308306777444388"><ele>73.0</ele><time>2026-04-11T12:33:42.001Z</time></trkpt><trkpt lat="45.20767583327252" lon="9.308277090591906"><ele>73.0</ele><time>2026-04-11T12:33:43.001Z</time></trkpt><trkpt lat="45.2076161767719" lon="9.308223449600359"><ele>73.0</ele><time>2026-04-11T12:33:44.001Z</time></trkpt><trkpt lat="45.20754890967054" lon="9.30816894347518"><ele>73.0</ele><time>2026-04-11T12:33:45.001Z</time></trkpt><trkpt lat="45.20748446256738" lon="9.308120607807457"><ele>73.0</ele><time>2026-04-11T12:33:46.001Z</time></trkpt><trkpt lat="45.20741649061779" lon="9.30806961731483"><ele>73.0</ele><time>2026-04-11T12:33:47.001Z</time></trkpt><trkpt lat="45.207335359659226" lon="9.308011856350236"><ele>72.0</ele><time>2026-04-11T12:33:48.001Z</time></trkpt><trkpt lat="45.20725524904683" lon="9.307957108790783"><ele>71.0</ele><time>2026-04-11T12:33:49.001Z</time></trkpt><trkpt lat="45.207169528390104" lon="9.30789138833325"><ele>70.0</ele><time>2026-04-11T12:33:50.001Z</time></trkpt><trkpt lat="45.20708639004644" lon="9.307818219559083"><ele>69.0</ele><time>2026-04-11T12:33:51.001Z</time></trkpt><trkpt lat="45.20700830411592" lon="9.30773746129521"><ele>68.0</ele><time>2026-04-11T12:33:52.001Z</time></trkpt><trkpt lat="45.20692819272659" lon="9.307625534048663"><ele>68.0</ele><time>2026-04-11T12:33:53.001Z</time></trkpt><trkpt lat="45.20683271624767" lon="9.307488780155811"><ele>68.0</ele><time>2026-04-11T12:33:54.001Z</time></trkpt><trkpt lat="45.20674737608044" lon="9.307349241250396"><ele>68.0</ele><time>2026-04-11T12:33:55.001Z</time></trkpt><trkpt lat="45.20666749697626" lon="9.307205175633921"><ele>68.0</ele><time>2026-04-11T12:33:56.001Z</time></trkpt><trkpt lat="45.20660192528693" lon="9.307075013264098"><ele>67.83333333333334</ele><time>2026-04-11T12:33:57.001Z</time></trkpt><trkpt lat="45.206544933891834" lon="9.306963930951921"><ele>67.66666666666667</ele><time>2026-04-11T12:33:58.001Z</time></trkpt><trkpt lat="45.206482114791264" lon="9.306876125389628"><ele>67.5</ele><time>2026-04-11T12:33:59.001Z</time></trkpt><trkpt lat="45.206408796413044" lon="9.306842939965286"><ele>67.33333333333333</ele><time>2026-04-11T12:34:00.001Z</time></trkpt><trkpt lat="45.20634080629444" lon="9.306820330571455"><ele>67.16666666666666</ele><time>2026-04-11T12:34:01.001Z</time></trkpt><trkpt lat="45.20625562950879" lon="9.306825305730648"><ele>67.0</ele><time>2026-04-11T12:34:02.001Z</time></trkpt><trkpt lat="45.206173631568916" lon="9.30685256387941"><ele>66.83333333333333</ele><time>2026-04-11T12:34:03.001Z</time></trkpt><trkpt lat="45.20608416776912" lon="9.306852007131518"><ele>66.66666666666666</ele><time>2026-04-11T12:34:04.001Z</time></trkpt><trkpt lat="45.20600103952241" lon="9.306879985974447"><ele>66.5</ele><time>2026-04-11T12:34:05.001Z</time></trkpt><trkpt lat="45.20591806775329" lon="9.30685895448961"><ele>66.33333333333333</ele><time>2026-04-11T12:34:06.001Z</time></trkpt><trkpt lat="45.205855461903944" lon="9.306785469690487"><ele>66.16666666666667</ele><time>2026-04-11T12:34:07.001Z</time></trkpt><trkpt lat="45.20577923026078" lon="9.306726440984146"><ele>66.0</ele><time>2026-04-11T12:34:08.001Z</time></trkpt><trkpt lat="45.20568416620164" lon="9.306653171438041"><ele>66.0</ele><time>2026-04-11T12:34:09.001Z</time></trkpt><trkpt lat="45.2055750884332" lon="9.306571064545277"><ele>66.0</ele><time>2026-04-11T12:34:10.001Z</time></trkpt><trkpt lat="45.20546434624669" lon="9.30648772915717"><ele>66.0</ele><time>2026-04-11T12:34:11.001Z</time></trkpt><trkpt lat="45.20536864800301" lon="9.306420809606218"><ele>66.0</ele><time>2026-04-11T12:34:12.001Z</time></trkpt><trkpt lat="45.205280486671576" lon="9.306380456287648"><ele>66.0</ele><time>2026-04-11T12:34:13.001Z</time></trkpt><trkpt lat="45.20522937852193" lon="9.306290288196259"><ele>65.83333333333333</ele><time>2026-04-11T12:34:14.001Z</time></trkpt><trkpt lat="45.20516608397349" lon="9.306236054873075"><ele>65.66666666666667</ele><time>2026-04-11T12:34:15.001Z</time></trkpt><trkpt lat="45.20510781288729" lon="9.306195740911823"><ele>65.5</ele><time>2026-04-11T12:34:16.001Z</time></trkpt><trkpt lat="45.205037937151616" lon="9.306207097559756"><ele>65.33333333333334</ele><time>2026-04-11T12:34:17.001Z</time></trkpt><trkpt lat="45.204975488058224" lon="9.306186042893607"><ele>65.16666666666667</ele><time>2026-04-11T12:34:18.001Z</time></trkpt><trkpt lat="45.204912897869626" lon="9.306172419157702"><ele>65.0</ele><time>2026-04-11T12:34:19.001Z</time></trkpt><trkpt lat="45.2048378115525" lon="9.306036177427352"><ele>65.2</ele><time>2026-04-11T12:34:21.001Z</time></trkpt><trkpt lat="45.20478584737488" lon="9.30592145951423"><ele>65.4</ele><time>2026-04-11T12:34:22.001Z</time></trkpt><trkpt lat="45.20472982330599" lon="9.305798938566904"><ele>65.6</ele><time>2026-04-11T12:34:23.001Z</time></trkpt><trkpt lat="45.204662768240624" lon="9.30565878453069"><ele>65.8</ele><time>2026-04-11T12:34:24.001Z</time></trkpt><trkpt lat="45.20459136844544" lon="9.30551630161267"><ele>66.0</ele><time>2026-04-11T12:34:25Z</time></trkpt><trkpt lat="45.20451621806163" lon="9.305366315494023"><ele>66.0</ele><time>2026-04-11T12:34:26Z</time></trkpt><trkpt lat="45.20443946374181" lon="9.30521264551594"><ele>66.0</ele><time>2026-04-11T12:34:27Z</time></trkpt><trkpt lat="45.20435858443236" lon="9.305050716802576"><ele>66.0</ele><time>2026-04-11T12:34:28Z</time></trkpt><trkpt lat="45.20427476766341" lon="9.304882907060065"><ele>66.0</ele><time>2026-04-11T12:34:29Z</time></trkpt><trkpt lat="45.20419321371435" lon="9.304717288130664"><ele>66.0</ele><time>2026-04-11T12:34:30Z</time></trkpt><trkpt lat="45.2041094868517" lon="9.304546259129634"><ele>66.0</ele><time>2026-04-11T12:34:31Z</time></trkpt><trkpt lat="45.204024566221456" lon="9.30437763167255"><ele>66.0</ele><time>2026-04-11T12:34:32Z</time></trkpt><trkpt lat="45.20394289456351" lon="9.304221410221368"><ele>66.0</ele><time>2026-04-11T12:34:33Z</time></trkpt><trkpt lat="45.203869456034994" lon="9.304080581236397"><ele>66.2</ele><time>2026-04-11T12:34:34Z</time></trkpt><trkpt lat="45.203806383786024" lon="9.303955754280533"><ele>66.39999999999999</ele><time>2026-04-11T12:34:35Z</time></trkpt><trkpt lat="45.20374162406543" lon="9.303855873785423"><ele>66.6</ele><time>2026-04-11T12:34:36Z</time></trkpt><trkpt lat="45.203664702349364" lon="9.303782904098798"><ele>66.8</ele><time>2026-04-11T12:34:37Z</time></trkpt><trkpt lat="45.20357666614112" lon="9.303732545203072"><ele>67.0</ele><time>2026-04-11T12:34:38Z</time></trkpt><trkpt lat="45.203477614618336" lon="9.30367178378234"><ele>67.0</ele><time>2026-04-11T12:34:39Z</time></trkpt><trkpt lat="45.20336670594856" lon="9.303603749137622"><ele>67.0</ele><time>2026-04-11T12:34:40Z</time></trkpt><trkpt lat="45.20325651459615" lon="9.303536154454578"><ele>67.0</ele><time>2026-04-11T12:34:41Z</time></trkpt><trkpt lat="45.20314749114084" lon="9.303466739992588"><ele>67.0</ele><time>2026-04-11T12:34:42Z</time></trkpt><trkpt lat="45.20302346225085" lon="9.30338273017237"><ele>68.0</ele><time>2026-04-11T12:34:43Z</time></trkpt><trkpt lat="45.202917413402815" lon="9.303310499409774"><ele>69.0</ele><time>2026-04-11T12:34:44Z</time></trkpt><trkpt lat="45.20283829946114" lon="9.3032566143063"><ele>70.0</ele><time>2026-04-11T12:34:45Z</time></trkpt><trkpt lat="45.20277024472534" lon="9.303241082315731"><ele>71.0</ele><time>2026-04-11T12:34:46Z</time></trkpt><trkpt lat="45.20268610477732" lon="9.303274634064685"><ele>72.0</ele><time>2026-04-11T12:34:49Z</time></trkpt><trkpt lat="45.20265339130068" lon="9.303468483848134"><ele>72.0</ele><time>2026-04-11T12:34:51Z</time></trkpt><trkpt lat="45.20264834833629" lon="9.303615494803969"><ele>72.0</ele><time>2026-04-11T12:34:52Z</time></trkpt><trkpt lat="45.2026339890562" lon="9.303752208953142"><ele>72.0</ele><time>2026-04-11T12:34:53Z</time></trkpt><trkpt lat="45.202592698230376" lon="9.303876551267022"><ele>72.0</ele><time>2026-04-11T12:34:54Z</time></trkpt><trkpt lat="45.20258141413465" lon="9.303994699600686"><ele>72.0</ele><time>2026-04-11T12:34:55Z</time></trkpt><trkpt lat="45.20254936444897" lon="9.304078414567432"><ele>72.0</ele><time>2026-04-11T12:34:56Z</time></trkpt><trkpt lat="45.20251058086594" lon="9.304155599805267"><ele>71.8</ele><time>2026-04-11T12:34:57Z</time></trkpt><trkpt lat="45.20247344482733" lon="9.304255800731372"><ele>71.6</ele><time>2026-04-11T12:34:58Z</time></trkpt><trkpt lat="45.202441126890015" lon="9.30441358505839"><ele>71.39999999999999</ele><time>2026-04-11T12:34:59Z</time></trkpt><trkpt lat="45.20241380747945" lon="9.304561857266625"><ele>71.2</ele><time>2026-04-11T12:35:00Z</time></trkpt><trkpt lat="45.20239656507527" lon="9.304683670760488"><ele>71.0</ele><time>2026-04-11T12:35:01Z</time></trkpt><trkpt lat="45.202383087888016" lon="9.30478704770391"><ele>71.0</ele><time>2026-04-11T12:35:02Z</time></trkpt><trkpt lat="45.20237016502253" lon="9.304902557971703"><ele>71.0</ele><time>2026-04-11T12:35:03Z</time></trkpt><trkpt lat="45.20234726737615" lon="9.305023075787942"><ele>71.0</ele><time>2026-04-11T12:35:04Z</time></trkpt><trkpt lat="45.20233253359478" lon="9.305142837256884"><ele>71.0</ele><time>2026-04-11T12:35:05Z</time></trkpt><trkpt lat="45.20231194811773" lon="9.305262185303608"><ele>71.0</ele><time>2026-04-11T12:35:06Z</time></trkpt><trkpt lat="45.202290869270705" lon="9.305376501479907"><ele>71.0</ele><time>2026-04-11T12:35:07Z</time></trkpt><trkpt lat="45.20227793478136" lon="9.30547453088247"><ele>71.0</ele><time>2026-04-11T12:35:08Z</time></trkpt><trkpt lat="45.20226361296548" lon="9.305583141718989"><ele>71.0</ele><time>2026-04-11T12:35:10Z</time></trkpt><trkpt lat="45.202252471044176" lon="9.305707107769981"><ele>71.0</ele><time>2026-04-11T12:35:12Z</time></trkpt><trkpt lat="45.20224088149599" lon="9.305806661531815"><ele>71.0</ele><time>2026-04-11T12:35:13Z</time></trkpt><trkpt lat="45.20222557964648" lon="9.305921032155132"><ele>71.0</ele><time>2026-04-11T12:35:14.001Z</time></trkpt><trkpt lat="45.20221754901351" lon="9.306021470880712"><ele>71.0</ele><time>2026-04-11T12:35:15.001Z</time></trkpt><trkpt lat="45.20221200426948" lon="9.306124380780446"><ele>71.0</ele><time>2026-04-11T12:35:16.001Z</time></trkpt><trkpt lat="45.202200317665074" lon="9.306234238506825"><ele>71.0</ele><time>2026-04-11T12:35:17.001Z</time></trkpt><trkpt lat="45.20218432268196" lon="9.306331772093626"><ele>71.0</ele><time>2026-04-11T12:35:18.001Z</time></trkpt><trkpt lat="45.20216728716651" lon="9.306422916455983"><ele>71.0</ele><time>2026-04-11T12:35:19.001Z</time></trkpt><trkpt lat="45.20214773801928" lon="9.306514175415954"><ele>71.0</ele><time>2026-04-11T12:35:20.001Z</time></trkpt><trkpt lat="45.202116309087415" lon="9.306598113389134"><ele>71.0</ele><time>2026-04-11T12:35:21.001Z</time></trkpt><trkpt lat="45.20207946977846" lon="9.306676259512896"><ele>71.0</ele><time>2026-04-11T12:35:22.001Z</time></trkpt><trkpt lat="45.202024589321766" lon="9.306732068029602"><ele>71.2</ele><time>2026-04-11T12:35:23.001Z</time></trkpt><trkpt lat="45.20196345372233" lon="9.306763783154539"><ele>71.39999999999999</ele><time>2026-04-11T12:35:24.001Z</time></trkpt><trkpt lat="45.201891239312054" lon="9.30679243997207"><ele>71.6</ele><time>2026-04-11T12:35:25.001Z</time></trkpt><trkpt lat="45.201798847141106" lon="9.306826034958796"><ele>71.8</ele><time>2026-04-11T12:35:26.001Z</time></trkpt><trkpt lat="45.201698047677716" lon="9.306853614093894"><ele>72.0</ele><time>2026-04-11T12:35:27.001Z</time></trkpt><trkpt lat="45.201587267999074" lon="9.30690609101329"><ele>71.8</ele><time>2026-04-11T12:35:28.001Z</time></trkpt><trkpt lat="45.20148825878229" lon="9.306943233076924"><ele>71.6</ele><time>2026-04-11T12:35:29.001Z</time></trkpt><trkpt lat="45.20141542806393" lon="9.306975985359506"><ele>71.39999999999999</ele><time>2026-04-11T12:35:30.001Z</time></trkpt><trkpt lat="45.20134856837779" lon="9.306980626735164"><ele>71.2</ele><time>2026-04-11T12:35:31.001Z</time></trkpt><trkpt lat="45.201224645910806" lon="9.30697217346006"><ele>71.0</ele><time>2026-04-11T12:35:33.001Z</time></trkpt><trkpt lat="45.20113198522758" lon="9.306986420783266"><ele>71.0</ele><time>2026-04-11T12:35:34.001Z</time></trkpt><trkpt lat="45.20103589401362" lon="9.307010148156037"><ele>71.0</ele><time>2026-04-11T12:35:35.001Z</time></trkpt><trkpt lat="45.200940657692534" lon="9.307058117369298"><ele>71.0</ele><time>2026-04-11T12:35:36.001Z</time></trkpt><trkpt lat="45.200840971618895" lon="9.307079399646415"><ele>71.0</ele><time>2026-04-11T12:35:37.001Z</time></trkpt><trkpt lat="45.20074308181352" lon="9.307103982115581"><ele>71.0</ele><time>2026-04-11T12:35:38.001Z</time></trkpt><trkpt lat="45.200648316937574" lon="9.307143543101688"><ele>71.0</ele><time>2026-04-11T12:35:39.001Z</time></trkpt><trkpt lat="45.20055189706868" lon="9.307189330968043"><ele>71.0</ele><time>2026-04-11T12:35:40.001Z</time></trkpt><trkpt lat="45.20045338077362" lon="9.307230371260237"><ele>71.0</ele><time>2026-04-11T12:35:41.001Z</time></trkpt><trkpt lat="45.200366680490674" lon="9.307267787463166"><ele>71.0</ele><time>2026-04-11T12:35:42.001Z</time></trkpt><trkpt lat="45.200280298866886" lon="9.307306937056302"><ele>71.0</ele><time>2026-04-11T12:35:43.001Z</time></trkpt><trkpt lat="45.20020200919739" lon="9.307331830567241"><ele>71.0</ele><time>2026-04-11T12:35:44.001Z</time></trkpt><trkpt lat="45.20011540750382" lon="9.30736704622988"><ele>71.0</ele><time>2026-04-11T12:35:45.001Z</time></trkpt><trkpt lat="45.2000364800018" lon="9.307391643655158"><ele>71.0</ele><time>2026-04-11T12:35:46.001Z</time></trkpt><trkpt lat="45.199961962342904" lon="9.307430662644888"><ele>71.0</ele><time>2026-04-11T12:35:47.001Z</time></trkpt><trkpt lat="45.199877909781705" lon="9.307438978558821"><ele>71.0</ele><time>2026-04-11T12:35:48.001Z</time></trkpt><trkpt lat="45.1997935979134" lon="9.307471565832625"><ele>71.0</ele><time>2026-04-11T12:35:49.001Z</time></trkpt><trkpt lat="45.19971564024119" lon="9.307514290558457"><ele>70.8</ele><time>2026-04-11T12:35:50.001Z</time></trkpt><trkpt lat="45.199630058841436" lon="9.30755817548758"><ele>70.6</ele><time>2026-04-11T12:35:51.001Z</time></trkpt><trkpt lat="45.199525259109485" lon="9.30759242059203"><ele>70.4</ele><time>2026-04-11T12:35:52.001Z</time></trkpt><trkpt lat="45.19943842344769" lon="9.307630748902401"><ele>70.2</ele><time>2026-04-11T12:35:53.001Z</time></trkpt><trkpt lat="45.199347792628835" lon="9.307639650539217"><ele>70.0</ele><time>2026-04-11T12:35:54.001Z</time></trkpt><trkpt lat="45.19926972644167" lon="9.307682756703251"><ele>70.0</ele><time>2026-04-11T12:35:55.001Z</time></trkpt><trkpt lat="45.19918345239986" lon="9.307696475280027"><ele>70.0</ele><time>2026-04-11T12:35:56.001Z</time></trkpt><trkpt lat="45.19909101170953" lon="9.3077203898101"><ele>70.0</ele><time>2026-04-11T12:35:57.001Z</time></trkpt><trkpt lat="45.19899092334865" lon="9.307743128291747"><ele>70.0</ele><time>2026-04-11T12:35:58.001Z</time></trkpt><trkpt lat="45.19889455635416" lon="9.307768652340533"><ele>70.0</ele><time>2026-04-11T12:35:59.001Z</time></trkpt><trkpt lat="45.19879908164127" lon="9.307792203761434"><ele>69.8</ele><time>2026-04-11T12:36:00.001Z</time></trkpt><trkpt lat="45.19870345363463" lon="9.307811535877239"><ele>69.6</ele><time>2026-04-11T12:36:01.001Z</time></trkpt><trkpt lat="45.19860974076379" lon="9.307809906184174"><ele>69.4</ele><time>2026-04-11T12:36:02.001Z</time></trkpt><trkpt lat="45.19852898708066" lon="9.307827856237903"><ele>69.2</ele><time>2026-04-11T12:36:03.001Z</time></trkpt><trkpt lat="45.19846028927317" lon="9.307843126505752"><ele>69.0</ele><time>2026-04-11T12:36:04.001Z</time></trkpt><trkpt lat="45.198330259911515" lon="9.307879199208186"><ele>69.0</ele><time>2026-04-11T12:36:06.001Z</time></trkpt><trkpt lat="45.198252746568016" lon="9.307893880711637"><ele>69.0</ele><time>2026-04-11T12:36:07.001Z</time></trkpt><trkpt lat="45.19815384886807" lon="9.307916929816146"><ele>69.0</ele><time>2026-04-11T12:36:08.001Z</time></trkpt><trkpt lat="45.19803418859267" lon="9.307944594326246"><ele>69.0</ele><time>2026-04-11T12:36:09.001Z</time></trkpt><trkpt lat="45.19788542932471" lon="9.307973985121937"><ele>69.0</ele><time>2026-04-11T12:36:10.001Z</time></trkpt><trkpt lat="45.197758671712265" lon="9.308002460850261"><ele>69.0</ele><time>2026-04-11T12:36:11.001Z</time></trkpt><trkpt lat="45.19762929209009" lon="9.308038313253247"><ele>69.0</ele><time>2026-04-11T12:36:12.001Z</time></trkpt><trkpt lat="45.19751351815037" lon="9.308060407341857"><ele>69.0</ele><time>2026-04-11T12:36:13.001Z</time></trkpt><trkpt lat="45.197408812583504" lon="9.30808222632898"><ele>69.4</ele><time>2026-04-11T12:36:14.001Z</time></trkpt><trkpt lat="45.19731383511749" lon="9.30809062874724"><ele>69.80000000000001</ele><time>2026-04-11T12:36:15.001Z</time></trkpt><trkpt lat="45.19721230469906" lon="9.308110341864415"><ele>70.19999999999999</ele><time>2026-04-11T12:36:16.001Z</time></trkpt><trkpt lat="45.197114740230596" lon="9.308139250098172"><ele>70.6</ele><time>2026-04-11T12:36:17.001Z</time></trkpt><trkpt lat="45.197020057106634" lon="9.308163484643192"><ele>71.0</ele><time>2026-04-11T12:36:18.001Z</time></trkpt><trkpt lat="45.19693999424564" lon="9.308187888986009"><ele>71.0</ele><time>2026-04-11T12:36:19.001Z</time></trkpt><trkpt lat="45.196861495464155" lon="9.308202217959481"><ele>71.0</ele><time>2026-04-11T12:36:20.001Z</time></trkpt><trkpt lat="45.19678675780179" lon="9.308221450257626"><ele>71.0</ele><time>2026-04-11T12:36:21.001Z</time></trkpt><trkpt lat="45.19669328250271" lon="9.308248429400036"><ele>71.0</ele><time>2026-04-11T12:36:23.001Z</time></trkpt><trkpt lat="45.19661506780738" lon="9.30824189363366"><ele>71.0</ele><time>2026-04-11T12:36:41Z</time></trkpt><trkpt lat="45.19658809747306" lon="9.308476606012626"><ele>71.0</ele><time>2026-04-11T12:36:43Z</time></trkpt><trkpt lat="45.19661588100449" lon="9.308657705965203"><ele>71.0</ele><time>2026-04-11T12:36:44Z</time></trkpt><trkpt lat="45.19663265676004" lon="9.308863914471761"><ele>71.0</ele><time>2026-04-11T12:36:45Z</time></trkpt><trkpt lat="45.19666415813946" lon="9.309126208689133"><ele>71.0</ele><time>2026-04-11T12:36:46Z</time></trkpt><trkpt lat="45.19669742848268" lon="9.30941257771675"><ele>71.0</ele><time>2026-04-11T12:36:47Z</time></trkpt><trkpt lat="45.196730202706384" lon="9.309724414750969"><ele>71.0</ele><time>2026-04-11T12:36:48Z</time></trkpt><trkpt lat="45.19676412684393" lon="9.310052535916453"><ele>70.5</ele><time>2026-04-11T12:36:49Z</time></trkpt><trkpt lat="45.19679708646369" lon="9.310382565848226"><ele>70.0</ele><time>2026-04-11T12:36:50Z</time></trkpt><trkpt lat="45.196827449207206" lon="9.310699021060703"><ele>69.66666666666666</ele><time>2026-04-11T12:36:51Z</time></trkpt><trkpt lat="45.196857670264144" lon="9.31100529840785"><ele>69.33333333333333</ele><time>2026-04-11T12:36:52Z</time></trkpt><trkpt lat="45.19688643050059" lon="9.311305627324552"><ele>69.0</ele><time>2026-04-11T12:36:53Z</time></trkpt><trkpt lat="45.19691440072189" lon="9.311584926972476"><ele>69.0</ele><time>2026-04-11T12:36:54Z</time></trkpt><trkpt lat="45.19693991270977" lon="9.311856823398225"><ele>69.0</ele><time>2026-04-11T12:36:55Z</time></trkpt><trkpt lat="45.196963648658624" lon="9.312103874500528"><ele>69.0</ele><time>2026-04-11T12:36:56Z</time></trkpt><trkpt lat="45.19697785974995" lon="9.312331503492931"><ele>69.0</ele><time>2026-04-11T12:36:57Z</time></trkpt><trkpt lat="45.196967813708824" lon="9.312548474070631"><ele>69.0</ele><time>2026-04-11T12:36:58Z</time></trkpt><trkpt lat="45.19692673064684" lon="9.312771500174325"><ele>69.0</ele><time>2026-04-11T12:36:59Z</time></trkpt><trkpt lat="45.19687163462896" lon="9.312990727871613"><ele>69.33333333333333</ele><time>2026-04-11T12:37:00Z</time></trkpt><trkpt lat="45.196816783603936" lon="9.31320780851962"><ele>69.66666666666666</ele><time>2026-04-11T12:37:01Z</time></trkpt><trkpt lat="45.196757350008895" lon="9.313419501351504"><ele>70.0</ele><time>2026-04-11T12:37:02Z</time></trkpt><trkpt lat="45.19670142800799" lon="9.313621041325854"><ele>70.0</ele><time>2026-04-11T12:37:03Z</time></trkpt><trkpt lat="45.19664867398224" lon="9.313814343866596"><ele>70.0</ele><time>2026-04-11T12:37:04Z</time></trkpt><trkpt lat="45.196598206492226" lon="9.313992078994614"><ele>70.0</ele><time>2026-04-11T12:37:05Z</time></trkpt><trkpt lat="45.19654738753477" lon="9.314157584040414"><ele>70.0</ele><time>2026-04-11T12:37:06Z</time></trkpt><trkpt lat="45.19649528376369" lon="9.314318180737942"><ele>69.75</ele><time>2026-04-11T12:37:07Z</time></trkpt><trkpt lat="45.19642743365595" lon="9.314472380160906"><ele>69.5</ele><time>2026-04-11T12:37:08Z</time></trkpt><trkpt lat="45.19633974281995" lon="9.314608494765672"><ele>69.25</ele><time>2026-04-11T12:37:09Z</time></trkpt><trkpt lat="45.19623278060096" lon="9.314727131227075"><ele>69.0</ele><time>2026-04-11T12:37:10Z</time></trkpt><trkpt lat="45.19611169266321" lon="9.314831705812283"><ele>68.5</ele><time>2026-04-11T12:37:11Z</time></trkpt><trkpt lat="45.195981039869814" lon="9.314921006058702"><ele>68.0</ele><time>2026-04-11T12:37:12Z</time></trkpt><trkpt lat="45.195852300492476" lon="9.315007703942042"><ele>67.5</ele><time>2026-04-11T12:37:13Z</time></trkpt><trkpt lat="45.19572347058852" lon="9.31509987785644"><ele>67.0</ele><time>2026-04-11T12:37:14Z</time></trkpt><trkpt lat="45.19559975382772" lon="9.31519318665725"><ele>67.0</ele><time>2026-04-11T12:37:15Z</time></trkpt><trkpt lat="45.195486478785675" lon="9.315278144100299"><ele>67.0</ele><time>2026-04-11T12:37:16Z</time></trkpt><trkpt lat="45.19537819112187" lon="9.315357955486729"><ele>67.0</ele><time>2026-04-11T12:37:17Z</time></trkpt><trkpt lat="45.195276737866855" lon="9.315432928368647"><ele>67.0</ele><time>2026-04-11T12:37:18Z</time></trkpt><trkpt lat="45.195178777958624" lon="9.315516799629851"><ele>67.25</ele><time>2026-04-11T12:37:19.001Z</time></trkpt><trkpt lat="45.19508858480079" lon="9.31561270957999"><ele>67.5</ele><time>2026-04-11T12:37:20.001Z</time></trkpt><trkpt lat="45.195006901791096" lon="9.31572190854062"><ele>67.75</ele><time>2026-04-11T12:37:21.001Z</time></trkpt><trkpt lat="45.19492025146519" lon="9.315829374664911"><ele>68.0</ele><time>2026-04-11T12:37:22.001Z</time></trkpt><trkpt lat="45.19483039182538" lon="9.315937911464824"><ele>68.0</ele><time>2026-04-11T12:37:23.001Z</time></trkpt><trkpt lat="45.19473246638017" lon="9.316039399335878"><ele>68.0</ele><time>2026-04-11T12:37:24.001Z</time></trkpt><trkpt lat="45.19462426840949" lon="9.316120766349927"><ele>68.0</ele><time>2026-04-11T12:37:25.001Z</time></trkpt><trkpt lat="45.19450281887044" lon="9.316180310987063"><ele>68.0</ele><time>2026-04-11T12:37:26.001Z</time></trkpt><trkpt lat="45.19436397655574" lon="9.316224711147454"><ele>68.0</ele><time>2026-04-11T12:37:27.001Z</time></trkpt><trkpt lat="45.19420878833485" lon="9.316254330014464"><ele>68.0</ele><time>2026-04-11T12:37:28.001Z</time></trkpt><trkpt lat="45.19405443062122" lon="9.316282517307851"><ele>68.0</ele><time>2026-04-11T12:37:29.001Z</time></trkpt><trkpt lat="45.19389517246192" lon="9.316312217150294"><ele>68.0</ele><time>2026-04-11T12:37:30.001Z</time></trkpt><trkpt lat="45.19372726162792" lon="9.316347701861249"><ele>68.0</ele><time>2026-04-11T12:37:31.001Z</time></trkpt><trkpt lat="45.19355903737292" lon="9.316385391719953"><ele>68.0</ele><time>2026-04-11T12:37:32.001Z</time></trkpt><trkpt lat="45.19338512016163" lon="9.316433868216777"><ele>68.0</ele><time>2026-04-11T12:37:33.001Z</time></trkpt><trkpt lat="45.19321566608024" lon="9.316495146131324"><ele>68.0</ele><time>2026-04-11T12:37:34.001Z</time></trkpt><trkpt lat="45.19305291833178" lon="9.31655637083665"><ele>68.0</ele><time>2026-04-11T12:37:35.001Z</time></trkpt><trkpt lat="45.192891834170226" lon="9.316616059941792"><ele>68.33333333333334</ele><time>2026-04-11T12:37:36.001Z</time></trkpt><trkpt lat="45.19272732000156" lon="9.316672291530667"><ele>68.66666666666667</ele><time>2026-04-11T12:37:37.001Z</time></trkpt><trkpt lat="45.192561466037404" lon="9.316727470726535"><ele>69.0</ele><time>2026-04-11T12:37:38.001Z</time></trkpt><trkpt lat="45.19239880625915" lon="9.316784528970286"><ele>69.33333333333333</ele><time>2026-04-11T12:37:39.001Z</time></trkpt><trkpt lat="45.19223652765117" lon="9.316845043767259"><ele>69.66666666666666</ele><time>2026-04-11T12:37:40.001Z</time></trkpt><trkpt lat="45.19207662135229" lon="9.316911272261603"><ele>70.0</ele><time>2026-04-11T12:37:41.001Z</time></trkpt><trkpt lat="45.191920399499885" lon="9.316983016167287"><ele>70.0</ele><time>2026-04-11T12:37:42.001Z</time></trkpt><trkpt lat="45.191770088946654" lon="9.317068002064024"><ele>70.0</ele><time>2026-04-11T12:37:43.001Z</time></trkpt><trkpt lat="45.19162790411756" lon="9.317171917455648"><ele>70.0</ele><time>2026-04-11T12:37:44.001Z</time></trkpt><trkpt lat="45.191499810004004" lon="9.317309531754228"><ele>69.0</ele><time>2026-04-11T12:37:45.001Z</time></trkpt><trkpt lat="45.191380577944294" lon="9.31745353642092"><ele>68.0</ele><time>2026-04-11T12:37:46.001Z</time></trkpt><trkpt lat="45.191261452310926" lon="9.317600472036219"><ele>67.0</ele><time>2026-04-11T12:37:47.001Z</time></trkpt><trkpt lat="45.19114350103616" lon="9.317751825444045"><ele>67.0</ele><time>2026-04-11T12:37:48.001Z</time></trkpt><trkpt lat="45.1910242266809" lon="9.317891463192048"><ele>67.0</ele><time>2026-04-11T12:37:49.001Z</time></trkpt><trkpt lat="45.190895135770624" lon="9.318019185621926"><ele>67.0</ele><time>2026-04-11T12:37:50.001Z</time></trkpt><trkpt lat="45.19076296750273" lon="9.318136523337374"><ele>66.33333333333333</ele><time>2026-04-11T12:37:51.001Z</time></trkpt><trkpt lat="45.19063152527136" lon="9.318253021506292"><ele>65.66666666666667</ele><time>2026-04-11T12:37:52.001Z</time></trkpt><trkpt lat="45.19050048675129" lon="9.318362280928136"><ele>65.0</ele><time>2026-04-11T12:37:53.001Z</time></trkpt><trkpt lat="45.190371319413494" lon="9.31845074815956"><ele>65.0</ele><time>2026-04-11T12:37:54.001Z</time></trkpt><trkpt lat="45.19023765646502" lon="9.318525335512456"><ele>65.0</ele><time>2026-04-11T12:37:55.001Z</time></trkpt><trkpt lat="45.19010266425085" lon="9.318575803628137"><ele>65.0</ele><time>2026-04-11T12:37:56.001Z</time></trkpt><trkpt lat="45.189968719599186" lon="9.318605279110086"><ele>65.0</ele><time>2026-04-11T12:37:57.001Z</time></trkpt><trkpt lat="45.18983540378592" lon="9.318616066831598"><ele>65.0</ele><time>2026-04-11T12:37:58.001Z</time></trkpt><trkpt lat="45.18969692206339" lon="9.318622340594219"><ele>65.0</ele><time>2026-04-11T12:37:59.001Z</time></trkpt><trkpt lat="45.18955946636693" lon="9.318618908699207"><ele>65.0</ele><time>2026-04-11T12:38:00.001Z</time></trkpt><trkpt lat="45.18943022324763" lon="9.31857625199126"><ele>65.0</ele><time>2026-04-11T12:38:01.001Z</time></trkpt><trkpt lat="45.18931455064869" lon="9.318551290897682"><ele>65.0</ele><time>2026-04-11T12:38:02.001Z</time></trkpt><trkpt lat="45.189223087940285" lon="9.318526785294738"><ele>65.0</ele><time>2026-04-11T12:38:03.001Z</time></trkpt><trkpt lat="45.18914714347456" lon="9.31849962423227"><ele>65.0</ele><time>2026-04-11T12:38:04.001Z</time></trkpt><trkpt lat="45.18905061204684" lon="9.318456027805524"><ele>65.0</ele><time>2026-04-11T12:38:06.001Z</time></trkpt><trkpt lat="45.18896832426437" lon="9.318415416127621"><ele>65.0</ele><time>2026-04-11T12:38:08.001Z</time></trkpt><trkpt lat="45.188885930254436" lon="9.318371632155026"><ele>65.0</ele><time>2026-04-11T12:38:10.001Z</time></trkpt><trkpt lat="45.188803928448635" lon="9.318328056569795"><ele>66.0</ele><time>2026-04-11T12:38:12.001Z</time></trkpt><trkpt lat="45.188689485853615" lon="9.318279200221234"><ele>67.0</ele><time>2026-04-11T12:38:14.001Z</time></trkpt><trkpt lat="45.18861990914722" lon="9.31824277531198"><ele>68.0</ele><time>2026-04-11T12:38:15.001Z</time></trkpt><trkpt lat="45.18853622573547" lon="9.318196035630363"><ele>69.0</ele><time>2026-04-11T12:38:16.001Z</time></trkpt><trkpt lat="45.188458196273864" lon="9.318151553229995"><ele>70.0</ele><time>2026-04-11T12:38:17.001Z</time></trkpt><trkpt lat="45.1883791592274" lon="9.318110035819709"><ele>70.0</ele><time>2026-04-11T12:38:18.001Z</time></trkpt><trkpt lat="45.188301077028555" lon="9.318074875541543"><ele>70.0</ele><time>2026-04-11T12:38:19.001Z</time></trkpt><trkpt lat="45.18822708040948" lon="9.318038785092114"><ele>70.0</ele><time>2026-04-11T12:38:20.001Z</time></trkpt><trkpt lat="45.18815465311986" lon="9.318004432090621"><ele>70.0</ele><time>2026-04-11T12:38:21.001Z</time></trkpt><trkpt lat="45.1880786951286" lon="9.317967077908165"><ele>70.0</ele><time>2026-04-11T12:38:22.001Z</time></trkpt><trkpt lat="45.18800141313216" lon="9.317926107361565"><ele>70.0</ele><time>2026-04-11T12:38:23.001Z</time></trkpt><trkpt lat="45.18792191187918" lon="9.317884896230652"><ele>69.66666666666666</ele><time>2026-04-11T12:38:24.001Z</time></trkpt><trkpt lat="45.18783988605492" lon="9.31784614754065"><ele>69.33333333333333</ele><time>2026-04-11T12:38:25.001Z</time></trkpt><trkpt lat="45.18776211764579" lon="9.317808778032182"><ele>69.0</ele><time>2026-04-11T12:38:26.001Z</time></trkpt><trkpt lat="45.18768596448068" lon="9.317768964718919"><ele>68.66666666666667</ele><time>2026-04-11T12:38:27.001Z</time></trkpt><trkpt lat="45.18760682692608" lon="9.317727789841978"><ele>68.33333333333334</ele><time>2026-04-11T12:38:28.001Z</time></trkpt><trkpt lat="45.18752943977436" lon="9.317687188080447"><ele>68.0</ele><time>2026-04-11T12:38:29.001Z</time></trkpt><trkpt lat="45.18745291395137" lon="9.317646435856991"><ele>68.0</ele><time>2026-04-11T12:38:30.001Z</time></trkpt><trkpt lat="45.18737704400084" lon="9.31760430324913"><ele>68.0</ele><time>2026-04-11T12:38:31.002Z</time></trkpt><trkpt lat="45.187300065919075" lon="9.317565239754714"><ele>68.0</ele><time>2026-04-11T12:38:32.002Z</time></trkpt><trkpt lat="45.187222652141664" lon="9.3175266948659"><ele>68.0</ele><time>2026-04-11T12:38:33.002Z</time></trkpt><trkpt lat="45.18714488969532" lon="9.317486186869044"><ele>68.0</ele><time>2026-04-11T12:38:34.002Z</time></trkpt><trkpt lat="45.18707603548208" lon="9.317446554825883"><ele>68.0</ele><time>2026-04-11T12:38:35.002Z</time></trkpt><trkpt lat="45.18701373934278" lon="9.317416489643534"><ele>68.0</ele><time>2026-04-11T12:38:36.002Z</time></trkpt><trkpt lat="45.18691264246286" lon="9.317363288215747"><ele>68.0</ele><time>2026-04-11T12:38:38Z</time></trkpt><trkpt lat="45.18683989384772" lon="9.317322257811885"><ele>68.0</ele><time>2026-04-11T12:38:40Z</time></trkpt><trkpt lat="45.18675440657844" lon="9.317273738430725"><ele>68.0</ele><time>2026-04-11T12:38:42Z</time></trkpt><trkpt lat="45.186650774693135" lon="9.317212416683251"><ele>68.0</ele><time>2026-04-11T12:38:44Z</time></trkpt><trkpt lat="45.186529688889316" lon="9.31714133969841"><ele>68.33333333333334</ele><time>2026-04-11T12:38:46Z</time></trkpt><trkpt lat="45.186464051041156" lon="9.317103554154405"><ele>68.66666666666667</ele><time>2026-04-11T12:38:47Z</time></trkpt><trkpt lat="45.18639735395257" lon="9.317066805207077"><ele>69.0</ele><time>2026-04-11T12:38:48Z</time></trkpt><trkpt lat="45.18632759785709" lon="9.31702946195068"><ele>69.33333333333333</ele><time>2026-04-11T12:38:49Z</time></trkpt><trkpt lat="45.18625138369567" lon="9.316990667102317"><ele>69.66666666666666</ele><time>2026-04-11T12:38:50Z</time></trkpt><trkpt lat="45.18617198859451" lon="9.316949975566562"><ele>70.0</ele><time>2026-04-11T12:38:51Z</time></trkpt><trkpt lat="45.186089436283275" lon="9.316903717237002"><ele>70.0</ele><time>2026-04-11T12:38:52Z</time></trkpt><trkpt lat="45.186003744631286" lon="9.316857489925615"><ele>70.0</ele><time>2026-04-11T12:38:53Z</time></trkpt><trkpt lat="45.185915945464416" lon="9.316807287349857"><ele>70.0</ele><time>2026-04-11T12:38:54Z</time></trkpt><trkpt lat="45.18582561439676" lon="9.316759467964024"><ele>70.0</ele><time>2026-04-11T12:38:55Z</time></trkpt><trkpt lat="45.18573721840228" lon="9.316715221660836"><ele>70.0</ele><time>2026-04-11T12:38:56Z</time></trkpt><trkpt lat="45.185653375360296" lon="9.316675964059874"><ele>69.83333333333333</ele><time>2026-04-11T12:38:57Z</time></trkpt><trkpt lat="45.18557674037906" lon="9.316636789466306"><ele>69.66666666666666</ele><time>2026-04-11T12:38:58Z</time></trkpt><trkpt lat="45.185503968264776" lon="9.316603634173843"><ele>69.5</ele><time>2026-04-11T12:38:59Z</time></trkpt><trkpt lat="45.18543188333407" lon="9.316566544909412"><ele>69.33333333333333</ele><time>2026-04-11T12:39:00Z</time></trkpt><trkpt lat="45.18535416807756" lon="9.316526125945657"><ele>69.16666666666667</ele><time>2026-04-11T12:39:01Z</time></trkpt><trkpt lat="45.18527010365264" lon="9.316483237257229"><ele>69.0</ele><time>2026-04-11T12:39:02Z</time></trkpt><trkpt lat="45.1851796399584" lon="9.316432810665997"><ele>69.0</ele><time>2026-04-11T12:39:03Z</time></trkpt><trkpt lat="45.18508357648698" lon="9.316383149471715"><ele>69.0</ele><time>2026-04-11T12:39:04Z</time></trkpt><trkpt lat="45.18498791358086" lon="9.31633629708218"><ele>69.0</ele><time>2026-04-11T12:39:05Z</time></trkpt><trkpt lat="45.18489452133475" lon="9.316287493834253"><ele>69.0</ele><time>2026-04-11T12:39:06Z</time></trkpt><trkpt lat="45.184797081923996" lon="9.31623424448993"><ele>69.0</ele><time>2026-04-11T12:39:07Z</time></trkpt><trkpt lat="45.18470086997315" lon="9.316185913093546"><ele>69.2</ele><time>2026-04-11T12:39:08Z</time></trkpt><trkpt lat="45.18461584015159" lon="9.316141892982136"><ele>69.4</ele><time>2026-04-11T12:39:09Z</time></trkpt><trkpt lat="45.18455360153627" lon="9.316105573274426"><ele>69.6</ele><time>2026-04-11T12:39:10Z</time></trkpt><trkpt lat="45.18444778036561" lon="9.31604803205191"><ele>69.8</ele><time>2026-04-11T12:39:12Z</time></trkpt><trkpt lat="45.18438370995738" lon="9.316009656715545"><ele>70.0</ele><time>2026-04-11T12:39:14Z</time></trkpt><trkpt lat="45.184272247966184" lon="9.31593189904691"><ele>70.0</ele><time>2026-04-11T12:39:18Z</time></trkpt><trkpt lat="45.18417681867626" lon="9.31588112567919"><ele>70.0</ele><time>2026-04-11T12:39:19Z</time></trkpt><trkpt lat="45.18405183023371" lon="9.315833967575537"><ele>70.0</ele><time>2026-04-11T12:39:20Z</time></trkpt><trkpt lat="45.18389527537471" lon="9.315742651379859"><ele>70.0</ele><time>2026-04-11T12:39:21Z</time></trkpt><trkpt lat="45.18371154075708" lon="9.315654078563519"><ele>70.5</ele><time>2026-04-11T12:39:22Z</time></trkpt><trkpt lat="45.18351247316127" lon="9.315524797610811"><ele>71.0</ele><time>2026-04-11T12:39:23.001Z</time></trkpt><trkpt lat="45.18329275351827" lon="9.315397322520731"><ele>70.5</ele><time>2026-04-11T12:39:24.001Z</time></trkpt><trkpt lat="45.18305799437807" lon="9.315247618175059"><ele>70.0</ele><time>2026-04-11T12:39:25.001Z</time></trkpt><trkpt lat="45.182804807196405" lon="9.315098384731082"><ele>70.0</ele><time>2026-04-11T12:39:26.001Z</time></trkpt><trkpt lat="45.18256081478142" lon="9.314925387161788"><ele>70.0</ele><time>2026-04-11T12:39:27.001Z</time></trkpt><trkpt lat="45.182322375520044" lon="9.314755778105706"><ele>70.0</ele><time>2026-04-11T12:39:28.001Z</time></trkpt><trkpt lat="45.18210660621751" lon="9.314609173063543"><ele>70.0</ele><time>2026-04-11T12:39:29.001Z</time></trkpt><trkpt lat="45.18189700012624" lon="9.314465434149612"><ele>70.0</ele><time>2026-04-11T12:39:30.001Z</time></trkpt><trkpt lat="45.18170564146003" lon="9.314330954816114"><ele>70.0</ele><time>2026-04-11T12:39:31.001Z</time></trkpt><trkpt lat="45.1815273079158" lon="9.314189742268574"><ele>70.0</ele><time>2026-04-11T12:39:32.001Z</time></trkpt><trkpt lat="45.18134157045503" lon="9.31410383260194"><ele>70.0</ele><time>2026-04-11T12:39:33.001Z</time></trkpt><trkpt lat="45.181156599608535" lon="9.314015351668163"><ele>70.0</ele><time>2026-04-11T12:39:34.001Z</time></trkpt><trkpt lat="45.18094430975719" lon="9.313949213492254"><ele>70.0</ele><time>2026-04-11T12:39:35.001Z</time></trkpt><trkpt lat="45.18073486944683" lon="9.313887927803735"><ele>70.33333333333333</ele><time>2026-04-11T12:39:36.001Z</time></trkpt><trkpt lat="45.180533074123" lon="9.31382758960113"><ele>70.66666666666667</ele><time>2026-04-11T12:39:37.001Z</time></trkpt><trkpt lat="45.18033427795551" lon="9.313764764482405"><ele>71.0</ele><time>2026-04-11T12:39:38.001Z</time></trkpt><trkpt lat="45.18013806739746" lon="9.313702948841811"><ele>71.0</ele><time>2026-04-11T12:39:39.001Z</time></trkpt><trkpt lat="45.17995042518418" lon="9.31363900411038"><ele>71.0</ele><time>2026-04-11T12:39:40.001Z</time></trkpt><trkpt lat="45.17977410961189" lon="9.313570907419942"><ele>71.0</ele><time>2026-04-11T12:39:41.001Z</time></trkpt><trkpt lat="45.17958835209956" lon="9.313501383793136"><ele>71.66666666666667</ele><time>2026-04-11T12:39:42.001Z</time></trkpt><trkpt lat="45.17939200235054" lon="9.313437523067352"><ele>72.33333333333333</ele><time>2026-04-11T12:39:43.001Z</time></trkpt><trkpt lat="45.17920062948479" lon="9.313355882512285"><ele>73.0</ele><time>2026-04-11T12:39:44.001Z</time></trkpt><trkpt lat="45.17900188017848" lon="9.313318225910018"><ele>73.0</ele><time>2026-04-11T12:39:45.001Z</time></trkpt><trkpt lat="45.1788136170066" lon="9.31325419866274"><ele>73.0</ele><time>2026-04-11T12:39:46.001Z</time></trkpt><trkpt lat="45.17864257197074" lon="9.313202721741767"><ele>73.0</ele><time>2026-04-11T12:39:47.001Z</time></trkpt><trkpt lat="45.17848556062666" lon="9.31312674336719"><ele>73.0</ele><time>2026-04-11T12:39:48.001Z</time></trkpt><trkpt lat="45.17834494757268" lon="9.3130844491661"><ele>73.0</ele><time>2026-04-11T12:39:49.001Z</time></trkpt><trkpt lat="45.178225391905116" lon="9.313082019465732"><ele>73.0</ele><time>2026-04-11T12:39:50.001Z</time></trkpt><trkpt lat="45.17812971439033" lon="9.313076458725254"><ele>73.0</ele><time>2026-04-11T12:39:51.001Z</time></trkpt><trkpt lat="45.17804990688145" lon="9.313120042901534"><ele>73.0</ele><time>2026-04-11T12:39:52.001Z</time></trkpt><trkpt lat="45.17799195118473" lon="9.31321800214314"><ele>73.0</ele><time>2026-04-11T12:39:53.001Z</time></trkpt><trkpt lat="45.17795575408034" lon="9.31334479800552"><ele>73.0</ele><time>2026-04-11T12:39:54.001Z</time></trkpt><trkpt lat="45.17793033424912" lon="9.313488068402275"><ele>73.0</ele><time>2026-04-11T12:39:55.001Z</time></trkpt><trkpt lat="45.17790210498696" lon="9.313672792603017"><ele>73.0</ele><time>2026-04-11T12:39:56.001Z</time></trkpt><trkpt lat="45.17786551533123" lon="9.313875730081929"><ele>73.2</ele><time>2026-04-11T12:39:57.001Z</time></trkpt><trkpt lat="45.177829318130236" lon="9.314065717202734"><ele>73.4</ele><time>2026-04-11T12:39:58.001Z</time></trkpt><trkpt lat="45.17779652649356" lon="9.314230419588055"><ele>73.60000000000001</ele><time>2026-04-11T12:39:59.001Z</time></trkpt><trkpt lat="45.17776499055061" lon="9.314370328701909"><ele>73.8</ele><time>2026-04-11T12:40:00.001Z</time></trkpt><trkpt lat="45.177735655450135" lon="9.314482054124392"><ele>74.0</ele><time>2026-04-11T12:40:01.001Z</time></trkpt><trkpt lat="45.177698301765126" lon="9.314555753621807"><ele>74.0</ele><time>2026-04-11T12:40:02.001Z</time></trkpt><trkpt lat="45.17757737191434" lon="9.314542614583742"><ele>74.0</ele><time>2026-04-11T12:40:04.001Z</time></trkpt><trkpt lat="45.17749965174786" lon="9.314496424723956"><ele>74.0</ele><time>2026-04-11T12:40:05.001Z</time></trkpt><trkpt lat="45.17739011575143" lon="9.314444537026965"><ele>74.0</ele><time>2026-04-11T12:40:06.001Z</time></trkpt><trkpt lat="45.17726130929407" lon="9.314361761160608"><ele>74.0</ele><time>2026-04-11T12:40:07.001Z</time></trkpt><trkpt lat="45.17712625159533" lon="9.314277331274788"><ele>74.0</ele><time>2026-04-11T12:40:08.001Z</time></trkpt><trkpt lat="45.177018611236086" lon="9.31421075464843"><ele>74.0</ele><time>2026-04-11T12:40:09.001Z</time></trkpt><trkpt lat="45.17692322856233" lon="9.314159956500323"><ele>74.0</ele><time>2026-04-11T12:40:10.001Z</time></trkpt><trkpt lat="45.17684132322488" lon="9.314125004562472"><ele>74.0</ele><time>2026-04-11T12:40:11.001Z</time></trkpt><trkpt lat="45.17676834101052" lon="9.314119649248944"><ele>74.0</ele><time>2026-04-11T12:40:12.001Z</time></trkpt><trkpt lat="45.17670704811159" lon="9.31416514198205"><ele>74.0</ele><time>2026-04-11T12:40:13.001Z</time></trkpt><trkpt lat="45.176657851622245" lon="9.31425857462823"><ele>74.0</ele><time>2026-04-11T12:40:14.001Z</time></trkpt><trkpt lat="45.176633634561554" lon="9.31440626156915"><ele>74.0</ele><time>2026-04-11T12:40:15.001Z</time></trkpt><trkpt lat="45.17660958301859" lon="9.314588106890582"><ele>74.0</ele><time>2026-04-11T12:40:16.001Z</time></trkpt><trkpt lat="45.176571810828214" lon="9.314761464489138"><ele>74.0</ele><time>2026-04-11T12:40:17.001Z</time></trkpt><trkpt lat="45.1765335161439" lon="9.314935429806715"><ele>74.0</ele><time>2026-04-11T12:40:18.001Z</time></trkpt><trkpt lat="45.176499165048845" lon="9.315119517664272"><ele>74.0</ele><time>2026-04-11T12:40:19.001Z</time></trkpt><trkpt lat="45.17646525767375" lon="9.31531498037933"><ele>74.0</ele><time>2026-04-11T12:40:20.001Z</time></trkpt><trkpt lat="45.17642512895422" lon="9.315505644168335"><ele>74.0</ele><time>2026-04-11T12:40:21.001Z</time></trkpt><trkpt lat="45.17639102852361" lon="9.315688105015159"><ele>74.0</ele><time>2026-04-11T12:40:22.001Z</time></trkpt><trkpt lat="45.1763602916699" lon="9.315860714783515"><ele>74.0</ele><time>2026-04-11T12:40:23.001Z</time></trkpt><trkpt lat="45.176332086626985" lon="9.316046139023696"><ele>74.0</ele><time>2026-04-11T12:40:24.001Z</time></trkpt><trkpt lat="45.1763057770986" lon="9.316226455546547"><ele>74.0</ele><time>2026-04-11T12:40:25.001Z</time></trkpt><trkpt lat="45.17628191750619" lon="9.316391289255602"><ele>74.0</ele><time>2026-04-11T12:40:26.001Z</time></trkpt><trkpt lat="45.17625955576017" lon="9.316535629568282"><ele>74.0</ele><time>2026-04-11T12:40:27.001Z</time></trkpt><trkpt lat="45.17623858921087" lon="9.316656218524617"><ele>74.0</ele><time>2026-04-11T12:40:28.001Z</time></trkpt><trkpt lat="45.1762071085596" lon="9.316755269906354"><ele>74.0</ele><time>2026-04-11T12:40:29.001Z</time></trkpt><trkpt lat="45.17615251529911" lon="9.316828072544132"><ele>74.0</ele><time>2026-04-11T12:40:30.001Z</time></trkpt><trkpt lat="45.17607364614837" lon="9.31686930451283"><ele>74.0</ele><time>2026-04-11T12:40:31.001Z</time></trkpt><trkpt lat="45.17598086459077" lon="9.316890761345446"><ele>74.0</ele><time>2026-04-11T12:40:32.001Z</time></trkpt><trkpt lat="45.17588686282611" lon="9.31687088105863"><ele>74.0</ele><time>2026-04-11T12:40:33.001Z</time></trkpt><trkpt lat="45.175785930338925" lon="9.316864370024582"><ele>74.0</ele><time>2026-04-11T12:40:34.001Z</time></trkpt><trkpt lat="45.17568952012554" lon="9.3168628241911"><ele>73.8</ele><time>2026-04-11T12:40:35.002Z</time></trkpt><trkpt lat="45.17560874705414" lon="9.316848382602204"><ele>73.60000000000001</ele><time>2026-04-11T12:40:36.002Z</time></trkpt><trkpt lat="45.17552313817325" lon="9.316842805552632"><ele>73.4</ele><time>2026-04-11T12:40:37.002Z</time></trkpt><trkpt lat="45.175433227591746" lon="9.316832250811961"><ele>73.2</ele><time>2026-04-11T12:40:38.002Z</time></trkpt><trkpt lat="45.17534774470554" lon="9.316814326507053"><ele>73.0</ele><time>2026-04-11T12:40:39.002Z</time></trkpt><trkpt lat="45.175225172787684" lon="9.316795607667888"><ele>73.0</ele><time>2026-04-11T12:40:40.002Z</time></trkpt><trkpt lat="45.17509550710621" lon="9.316771364883556"><ele>73.0</ele><time>2026-04-11T12:40:41.002Z</time></trkpt><trkpt lat="45.17497756487458" lon="9.316748394616669"><ele>73.0</ele><time>2026-04-11T12:40:42.002Z</time></trkpt><trkpt lat="45.1748658097243" lon="9.316726326765156"><ele>73.0</ele><time>2026-04-11T12:40:43Z</time></trkpt><trkpt lat="45.17476347229849" lon="9.31671103520787"><ele>72.8</ele><time>2026-04-11T12:40:44Z</time></trkpt><trkpt lat="45.17468392034505" lon="9.316693828336089"><ele>72.6</ele><time>2026-04-11T12:40:45Z</time></trkpt><trkpt lat="45.174599186268516" lon="9.316677810031594"><ele>72.4</ele><time>2026-04-11T12:40:47Z</time></trkpt><trkpt lat="45.17455708830464" lon="9.316915403326231"><ele>72.2</ele><time>2026-04-11T12:40:50Z</time></trkpt><trkpt lat="45.17453584679339" lon="9.317028773946026"><ele>72.0</ele><time>2026-04-11T12:40:51Z</time></trkpt><trkpt lat="45.17450545261944" lon="9.317179131920113"><ele>72.2</ele><time>2026-04-11T12:40:52Z</time></trkpt><trkpt lat="45.1744768081733" lon="9.317313003108914"><ele>72.4</ele><time>2026-04-11T12:40:53Z</time></trkpt><trkpt lat="45.174446962545815" lon="9.317459482705589"><ele>72.6</ele><time>2026-04-11T12:40:54Z</time></trkpt><trkpt lat="45.17441629489973" lon="9.317611369748134"><ele>72.8</ele><time>2026-04-11T12:40:55Z</time></trkpt><trkpt lat="45.17438802432809" lon="9.31776331108007"><ele>73.0</ele><time>2026-04-11T12:40:56Z</time></trkpt><trkpt lat="45.17436007565718" lon="9.317923121539945"><ele>72.75</ele><time>2026-04-11T12:40:57Z</time></trkpt><trkpt lat="45.17432702664466" lon="9.31807953068499"><ele>72.5</ele><time>2026-04-11T12:40:58Z</time></trkpt><trkpt lat="45.17429617959063" lon="9.318242102223557"><ele>72.25</ele><time>2026-04-11T12:40:59Z</time></trkpt><trkpt lat="45.174261283527265" lon="9.318430329774072"><ele>72.0</ele><time>2026-04-11T12:41:00Z</time></trkpt><trkpt lat="45.174220866185976" lon="9.318627967396779"><ele>72.0</ele><time>2026-04-11T12:41:01Z</time></trkpt><trkpt lat="45.174173138621775" lon="9.318819631407106"><ele>72.0</ele><time>2026-04-11T12:41:02Z</time></trkpt><trkpt lat="45.17414722786838" lon="9.319025972041453"><ele>72.0</ele><time>2026-04-11T12:41:03Z</time></trkpt><trkpt lat="45.17410915786004" lon="9.319220041388455"><ele>72.0</ele><time>2026-04-11T12:41:04Z</time></trkpt><trkpt lat="45.17407157649731" lon="9.319418333242316"><ele>71.75</ele><time>2026-04-11T12:41:05Z</time></trkpt><trkpt lat="45.17403681474139" lon="9.319597519504702"><ele>71.5</ele><time>2026-04-11T12:41:06Z</time></trkpt><trkpt lat="45.17400416698838" lon="9.319775825723607"><ele>71.25</ele><time>2026-04-11T12:41:07Z</time></trkpt><trkpt lat="45.173968121984736" lon="9.319967247520799"><ele>71.0</ele><time>2026-04-11T12:41:08Z</time></trkpt><trkpt lat="45.173934095387295" lon="9.320159141115843"><ele>71.0</ele><time>2026-04-11T12:41:09Z</time></trkpt><trkpt lat="45.17389789039389" lon="9.320359944622586"><ele>71.0</ele><time>2026-04-11T12:41:10Z</time></trkpt><trkpt lat="45.17386270098217" lon="9.320554917246627"><ele>71.0</ele><time>2026-04-11T12:41:11Z</time></trkpt><trkpt lat="45.17382615878181" lon="9.320752303086595"><ele>71.0</ele><time>2026-04-11T12:41:12Z</time></trkpt><trkpt lat="45.17378783666628" lon="9.320966647463496"><ele>71.0</ele><time>2026-04-11T12:41:13Z</time></trkpt><trkpt lat="45.17374540811426" lon="9.321177220339736"><ele>71.0</ele><time>2026-04-11T12:41:14Z</time></trkpt><trkpt lat="45.17370753898741" lon="9.32139237513369"><ele>71.0</ele><time>2026-04-11T12:41:15Z</time></trkpt><trkpt lat="45.17366599106923" lon="9.321610597415642"><ele>71.0</ele><time>2026-04-11T12:41:16Z</time></trkpt><trkpt lat="45.17362591755196" lon="9.321825135786066"><ele>71.0</ele><time>2026-04-11T12:41:17Z</time></trkpt><trkpt lat="45.173588767135065" lon="9.322042345421549"><ele>71.0</ele><time>2026-04-11T12:41:18Z</time></trkpt><trkpt lat="45.17354948621237" lon="9.322253222869227"><ele>71.5</ele><time>2026-04-11T12:41:19Z</time></trkpt><trkpt lat="45.17351057252434" lon="9.32245726760238"><ele>72.0</ele><time>2026-04-11T12:41:20Z</time></trkpt><trkpt lat="45.1734739884787" lon="9.3226607727209"><ele>72.5</ele><time>2026-04-11T12:41:21Z</time></trkpt><trkpt lat="45.17343458098201" lon="9.322848151975679"><ele>73.0</ele><time>2026-04-11T12:41:22Z</time></trkpt><trkpt lat="45.173389462936804" lon="9.323020334452615"><ele>72.5</ele><time>2026-04-11T12:41:23Z</time></trkpt><trkpt lat="45.17333266369184" lon="9.323204113725136"><ele>72.0</ele><time>2026-04-11T12:41:24Z</time></trkpt><trkpt lat="45.17327121079591" lon="9.323385163137594"><ele>71.5</ele><time>2026-04-11T12:41:25Z</time></trkpt><trkpt lat="45.17320721403568" lon="9.323573539970756"><ele>71.0</ele><time>2026-04-11T12:41:26Z</time></trkpt><trkpt lat="45.17314812026627" lon="9.323767174668346"><ele>71.0</ele><time>2026-04-11T12:41:27Z</time></trkpt><trkpt lat="45.17309136824288" lon="9.323956497541937"><ele>71.0</ele><time>2026-04-11T12:41:28Z</time></trkpt><trkpt lat="45.17303796590985" lon="9.32412306572597"><ele>71.0</ele><time>2026-04-11T12:41:29Z</time></trkpt><trkpt lat="45.17298422061847" lon="9.324281051436898"><ele>71.0</ele><time>2026-04-11T12:41:30Z</time></trkpt><trkpt lat="45.17294053995554" lon="9.324452275334059"><ele>71.0</ele><time>2026-04-11T12:41:31Z</time></trkpt><trkpt lat="45.17288440725834" lon="9.324615836205666"><ele>71.0</ele><time>2026-04-11T12:41:32.001Z</time></trkpt><trkpt lat="45.17283030122898" lon="9.324776543002"><ele>71.0</ele><time>2026-04-11T12:41:33.001Z</time></trkpt><trkpt lat="45.17278747786326" lon="9.324928677541234"><ele>71.0</ele><time>2026-04-11T12:41:34.001Z</time></trkpt><trkpt lat="45.17272828772262" lon="9.325079701318035"><ele>71.0</ele><time>2026-04-11T12:41:35.001Z</time></trkpt><trkpt lat="45.17269093144868" lon="9.325260920189772"><ele>71.0</ele><time>2026-04-11T12:41:36.001Z</time></trkpt><trkpt lat="45.17263135561093" lon="9.325458507124514"><ele>71.0</ele><time>2026-04-11T12:41:37.001Z</time></trkpt><trkpt lat="45.17257682300899" lon="9.325676349929783"><ele>71.0</ele><time>2026-04-11T12:41:38.001Z</time></trkpt><trkpt lat="45.17252292667816" lon="9.325875444610341"><ele>71.0</ele><time>2026-04-11T12:41:39.001Z</time></trkpt><trkpt lat="45.172469278509276" lon="9.326072611758727"><ele>71.0</ele><time>2026-04-11T12:41:40.001Z</time></trkpt><trkpt lat="45.172420434576125" lon="9.326274857971882"><ele>71.0</ele><time>2026-04-11T12:41:41.001Z</time></trkpt><trkpt lat="45.17237805694976" lon="9.326479602931457"><ele>70.75</ele><time>2026-04-11T12:41:42.001Z</time></trkpt><trkpt lat="45.172336759594536" lon="9.326678938502825"><ele>70.5</ele><time>2026-04-11T12:41:43.001Z</time></trkpt><trkpt lat="45.172282816040536" lon="9.32687865408489"><ele>70.25</ele><time>2026-04-11T12:41:44.001Z</time></trkpt><trkpt lat="45.1722312724736" lon="9.327076081630244"><ele>70.0</ele><time>2026-04-11T12:41:45.001Z</time></trkpt><trkpt lat="45.17217959952759" lon="9.327269221790399"><ele>70.0</ele><time>2026-04-11T12:41:46.001Z</time></trkpt><trkpt lat="45.17213090739227" lon="9.327466879199392"><ele>70.0</ele><time>2026-04-11T12:41:47.001Z</time></trkpt><trkpt lat="45.17207999182228" lon="9.327668256704566"><ele>70.0</ele><time>2026-04-11T12:41:48.001Z</time></trkpt><trkpt lat="45.17203786844561" lon="9.3278458474999"><ele>70.0</ele><time>2026-04-11T12:41:49.001Z</time></trkpt><trkpt lat="45.17199477787702" lon="9.328030505650514"><ele>70.0</ele><time>2026-04-11T12:41:50.001Z</time></trkpt><trkpt lat="45.171948514198874" lon="9.328205048671032"><ele>70.0</ele><time>2026-04-11T12:41:51.001Z</time></trkpt><trkpt lat="45.17190371778276" lon="9.32835977795725"><ele>70.0</ele><time>2026-04-11T12:41:52.001Z</time></trkpt><trkpt lat="45.171853203365316" lon="9.328516607427307"><ele>70.0</ele><time>2026-04-11T12:41:53.001Z</time></trkpt><trkpt lat="45.17179311782977" lon="9.328667198854559"><ele>70.0</ele><time>2026-04-11T12:41:54.001Z</time></trkpt><trkpt lat="45.17172124817396" lon="9.328813348577969"><ele>70.0</ele><time>2026-04-11T12:41:55.001Z</time></trkpt><trkpt lat="45.17163102984545" lon="9.328953638445679"><ele>70.0</ele><time>2026-04-11T12:41:56.001Z</time></trkpt><trkpt lat="45.17153975969963" lon="9.329112699210667"><ele>70.0</ele><time>2026-04-11T12:41:57.001Z</time></trkpt><trkpt lat="45.17144494760325" lon="9.329270467202731"><ele>70.0</ele><time>2026-04-11T12:41:58.001Z</time></trkpt><trkpt lat="45.171350456746936" lon="9.329430442392942"><ele>70.0</ele><time>2026-04-11T12:41:59.001Z</time></trkpt><trkpt lat="45.17126465657286" lon="9.329572548927894"><ele>70.0</ele><time>2026-04-11T12:42:00.001Z</time></trkpt><trkpt lat="45.17118703393327" lon="9.32970718566726"><ele>70.0</ele><time>2026-04-11T12:42:01.001Z</time></trkpt><trkpt lat="45.17110309272104" lon="9.329855554642686"><ele>70.0</ele><time>2026-04-11T12:42:02.001Z</time></trkpt><trkpt lat="45.17100387537545" lon="9.330021176784395"><ele>70.0</ele><time>2026-04-11T12:42:03.001Z</time></trkpt><trkpt lat="45.17090883273405" lon="9.330182873238586"><ele>70.0</ele><time>2026-04-11T12:42:04.001Z</time></trkpt><trkpt lat="45.17080655061027" lon="9.3303321910614"><ele>70.0</ele><time>2026-04-11T12:42:05.001Z</time></trkpt><trkpt lat="45.170727981669366" lon="9.330502928906949"><ele>69.75</ele><time>2026-04-11T12:42:06.001Z</time></trkpt><trkpt lat="45.17064024389347" lon="9.330650859696455"><ele>69.5</ele><time>2026-04-11T12:42:07.001Z</time></trkpt><trkpt lat="45.17054605447827" lon="9.330805054982381"><ele>69.25</ele><time>2026-04-11T12:42:08.001Z</time></trkpt><trkpt lat="45.1704474151736" lon="9.330976378578947"><ele>69.0</ele><time>2026-04-11T12:42:09.001Z</time></trkpt><trkpt lat="45.1703513674243" lon="9.331133392540712"><ele>69.0</ele><time>2026-04-11T12:42:10.001Z</time></trkpt><trkpt lat="45.17025922850273" lon="9.33129671657717"><ele>69.0</ele><time>2026-04-11T12:42:11.001Z</time></trkpt><trkpt lat="45.170172680679215" lon="9.331451426923875"><ele>69.0</ele><time>2026-04-11T12:42:12.001Z</time></trkpt><trkpt lat="45.17008009341708" lon="9.331620298030558"><ele>69.0</ele><time>2026-04-11T12:42:13.001Z</time></trkpt><trkpt lat="45.16999036350916" lon="9.331775222979992"><ele>69.0</ele><time>2026-04-11T12:42:14.001Z</time></trkpt><trkpt lat="45.16991229872342" lon="9.331912313830353"><ele>69.0</ele><time>2026-04-11T12:42:15.001Z</time></trkpt><trkpt lat="45.16983695770213" lon="9.33205481984443"><ele>69.0</ele><time>2026-04-11T12:42:16.001Z</time></trkpt><trkpt lat="45.1697597590039" lon="9.332185171699939"><ele>69.0</ele><time>2026-04-11T12:42:17.001Z</time></trkpt><trkpt lat="45.16969466532575" lon="9.332298638681825"><ele>69.5</ele><time>2026-04-11T12:42:18.001Z</time></trkpt><trkpt lat="45.16964099715585" lon="9.332394751700534"><ele>70.0</ele><time>2026-04-11T12:42:19.001Z</time></trkpt><trkpt lat="45.16959688974059" lon="9.332473143465975"><ele>70.5</ele><time>2026-04-11T12:42:20.001Z</time></trkpt><trkpt lat="45.16953685029729" lon="9.332566342298948"><ele>71.0</ele><time>2026-04-11T12:42:22.001Z</time></trkpt><trkpt lat="45.16942046062633" lon="9.332465998555646"><ele>71.5</ele><time>2026-04-11T12:42:27.001Z</time></trkpt><trkpt lat="45.16938741213392" lon="9.332385292086109"><ele>72.0</ele><time>2026-04-11T12:42:29.001Z</time></trkpt><trkpt lat="45.16934946450447" lon="9.33230646228133"><ele>71.6</ele><time>2026-04-11T12:42:31.001Z</time></trkpt><trkpt lat="45.16929590236333" lon="9.332198709833547"><ele>71.2</ele><time>2026-04-11T12:42:34.001Z</time></trkpt><trkpt lat="45.16924861616312" lon="9.332106159513842"><ele>70.8</ele><time>2026-04-11T12:42:36.001Z</time></trkpt><trkpt lat="45.16920505621169" lon="9.332021636976396"><ele>70.4</ele><time>2026-04-11T12:42:37.001Z</time></trkpt><trkpt lat="45.169141733444555" lon="9.331899477576428"><ele>70.0</ele><time>2026-04-11T12:42:38.001Z</time></trkpt><trkpt lat="45.16906062338078" lon="9.331740865486148"><ele>70.0</ele><time>2026-04-11T12:42:39.001Z</time></trkpt><trkpt lat="45.16898771818721" lon="9.331606493131721"><ele>70.0</ele><time>2026-04-11T12:42:40.001Z</time></trkpt><trkpt lat="45.1689158444853" lon="9.331468480874966"><ele>70.0</ele><time>2026-04-11T12:42:41.001Z</time></trkpt><trkpt lat="45.168838112380996" lon="9.331322785735345"><ele>70.0</ele><time>2026-04-11T12:42:42.001Z</time></trkpt><trkpt lat="45.168763250838566" lon="9.331181847526233"><ele>70.0</ele><time>2026-04-11T12:42:43.001Z</time></trkpt><trkpt lat="45.16869228964342" lon="9.331047053006062"><ele>70.0</ele><time>2026-04-11T12:42:44.001Z</time></trkpt><trkpt lat="45.16862869243892" lon="9.330923930133817"><ele>70.0</ele><time>2026-04-11T12:42:45.002Z</time></trkpt><trkpt lat="45.16856300260394" lon="9.330803122670165"><ele>70.0</ele><time>2026-04-11T12:42:46.002Z</time></trkpt><trkpt lat="45.16849969942993" lon="9.330691490295155"><ele>70.0</ele><time>2026-04-11T12:42:47.002Z</time></trkpt><trkpt lat="45.16844620673481" lon="9.330590465957814"><ele>70.0</ele><time>2026-04-11T12:42:48.002Z</time></trkpt><trkpt lat="45.16839228530263" lon="9.330490469174135"><ele>70.0</ele><time>2026-04-11T12:42:49Z</time></trkpt><trkpt lat="45.16834475507504" lon="9.330392868429497"><ele>70.0</ele><time>2026-04-11T12:42:50Z</time></trkpt><trkpt lat="45.168288419301234" lon="9.33028850745665"><ele>70.0</ele><time>2026-04-11T12:42:51Z</time></trkpt><trkpt lat="45.16822709027674" lon="9.330183420311062"><ele>70.0</ele><time>2026-04-11T12:42:52Z</time></trkpt><trkpt lat="45.16816927901833" lon="9.330080964603154"><ele>70.0</ele><time>2026-04-11T12:42:53Z</time></trkpt><trkpt lat="45.16811929886655" lon="9.32998186543765"><ele>70.0</ele><time>2026-04-11T12:42:54Z</time></trkpt><trkpt lat="45.16807275749821" lon="9.32990277334357"><ele>70.0</ele><time>2026-04-11T12:42:55Z</time></trkpt><trkpt lat="45.16801904216239" lon="9.329798823301187"><ele>70.0</ele><time>2026-04-11T12:42:56Z</time></trkpt><trkpt lat="45.16797424314648" lon="9.32969280844826"><ele>70.0</ele><time>2026-04-11T12:42:57Z</time></trkpt><trkpt lat="45.16792616095108" lon="9.329592661967208"><ele>70.0</ele><time>2026-04-11T12:42:58Z</time></trkpt><trkpt lat="45.16786953231248" lon="9.329491870625613"><ele>70.16666666666666</ele><time>2026-04-11T12:42:59Z</time></trkpt><trkpt lat="45.1678106371642" lon="9.329384796157502"><ele>70.33333333333333</ele><time>2026-04-11T12:43:00Z</time></trkpt><trkpt lat="45.16776207702606" lon="9.329288520008074"><ele>70.5</ele><time>2026-04-11T12:43:01Z</time></trkpt><trkpt lat="45.16771523392779" lon="9.329198314615107"><ele>70.66666666666667</ele><time>2026-04-11T12:43:02Z</time></trkpt><trkpt lat="45.16766920272986" lon="9.329107642691302"><ele>70.83333333333334</ele><time>2026-04-11T12:43:03Z</time></trkpt><trkpt lat="45.167626292583456" lon="9.329022304418894"><ele>71.0</ele><time>2026-04-11T12:43:04Z</time></trkpt><trkpt lat="45.16758035993829" lon="9.328939893475548"><ele>70.83333333333334</ele><time>2026-04-11T12:43:05Z</time></trkpt><trkpt lat="45.16753080861258" lon="9.328854740885975"><ele>70.66666666666667</ele><time>2026-04-11T12:43:06Z</time></trkpt><trkpt lat="45.167484379453334" lon="9.328759469545604"><ele>70.5</ele><time>2026-04-11T12:43:07Z</time></trkpt><trkpt lat="45.16744492285594" lon="9.328681421222646"><ele>70.33333333333333</ele><time>2026-04-11T12:43:08Z</time></trkpt><trkpt lat="45.16746023796518" lon="9.32857163764003"><ele>70.16666666666666</ele><time>2026-04-11T12:43:09Z</time></trkpt><trkpt lat="45.1673878719902" lon="9.328409909870569"><ele>70.0</ele><time>2026-04-11T12:43:11Z</time></trkpt><trkpt lat="45.16732262319368" lon="9.32830042559544"><ele>69.8</ele><time>2026-04-11T12:43:12Z</time></trkpt><trkpt lat="45.167256470395856" lon="9.328175849228186"><ele>69.6</ele><time>2026-04-11T12:43:13Z</time></trkpt><trkpt lat="45.167182603794195" lon="9.328036431463458"><ele>69.4</ele><time>2026-04-11T12:43:14Z</time></trkpt><trkpt lat="45.167119707306206" lon="9.32791771896738"><ele>69.2</ele><time>2026-04-11T12:43:15Z</time></trkpt><trkpt lat="45.167061088715876" lon="9.327806794199763"><ele>69.0</ele><time>2026-04-11T12:43:16Z</time></trkpt><trkpt lat="45.1670000688189" lon="9.327690362193062"><ele>68.8</ele><time>2026-04-11T12:43:17Z</time></trkpt><trkpt lat="45.16693897183407" lon="9.327573783086585"><ele>68.60000000000001</ele><time>2026-04-11T12:43:18Z</time></trkpt><trkpt lat="45.16687497719818" lon="9.32745167501067"><ele>68.4</ele><time>2026-04-11T12:43:19Z</time></trkpt><trkpt lat="45.16680911973764" lon="9.327325845328167"><ele>68.2</ele><time>2026-04-11T12:43:20Z</time></trkpt><trkpt lat="45.1667409686669" lon="9.32719539316352"><ele>68.0</ele><time>2026-04-11T12:43:21Z</time></trkpt><trkpt lat="45.16667440630127" lon="9.327067982060534"><ele>68.0</ele><time>2026-04-11T12:43:22Z</time></trkpt><trkpt lat="45.16660796087919" lon="9.326940794764957"><ele>68.0</ele><time>2026-04-11T12:43:23Z</time></trkpt><trkpt lat="45.16654390057823" lon="9.326817279969488"><ele>68.0</ele><time>2026-04-11T12:43:24Z</time></trkpt><trkpt lat="45.16647804908917" lon="9.326688876799672"><ele>68.0</ele><time>2026-04-11T12:43:25Z</time></trkpt><trkpt lat="45.166411636566274" lon="9.326559379689067"><ele>68.0</ele><time>2026-04-11T12:43:26Z</time></trkpt><trkpt lat="45.1663444198158" lon="9.326428314442735"><ele>69.0</ele><time>2026-04-11T12:43:27Z</time></trkpt><trkpt lat="45.166278270364415" lon="9.326299330277115"><ele>70.0</ele><time>2026-04-11T12:43:28Z</time></trkpt><trkpt lat="45.166208779589425" lon="9.326163830941246"><ele>71.0</ele><time>2026-04-11T12:43:29Z</time></trkpt><trkpt lat="45.16613772480557" lon="9.32602564484393"><ele>72.0</ele><time>2026-04-11T12:43:30Z</time></trkpt><trkpt lat="45.166065513938285" lon="9.32588529463696"><ele>72.0</ele><time>2026-04-11T12:43:31Z</time></trkpt><trkpt lat="45.165983985440235" lon="9.325726834553114"><ele>72.0</ele><time>2026-04-11T12:43:32Z</time></trkpt><trkpt lat="45.16590706361953" lon="9.325578939258863"><ele>72.0</ele><time>2026-04-11T12:43:33Z</time></trkpt><trkpt lat="45.165842841262" lon="9.325455516403956"><ele>72.0</ele><time>2026-04-11T12:43:34Z</time></trkpt><trkpt lat="45.165786588218445" lon="9.325347409003706"><ele>72.0</ele><time>2026-04-11T12:43:35Z</time></trkpt><trkpt lat="45.16572658884346" lon="9.325232101903193"><ele>72.0</ele><time>2026-04-11T12:43:36.001Z</time></trkpt><trkpt lat="45.16566351890567" lon="9.325110893759781"><ele>72.0</ele><time>2026-04-11T12:43:37.001Z</time></trkpt><trkpt lat="45.165605645586105" lon="9.324999672493135"><ele>72.0</ele><time>2026-04-11T12:43:38.001Z</time></trkpt><trkpt lat="45.165556300427745" lon="9.324905997608672"><ele>72.0</ele><time>2026-04-11T12:43:39.001Z</time></trkpt><trkpt lat="45.16550584808635" lon="9.324810380520718"><ele>72.4</ele><time>2026-04-11T12:43:40.001Z</time></trkpt><trkpt lat="45.16545847709143" lon="9.324720603237214"><ele>72.80000000000001</ele><time>2026-04-11T12:43:41.001Z</time></trkpt><trkpt lat="45.16540911249956" lon="9.324627047717657"><ele>73.2</ele><time>2026-04-11T12:43:42.001Z</time></trkpt><trkpt lat="45.16534624217867" lon="9.324507896141006"><ele>73.60000000000001</ele><time>2026-04-11T12:43:43.001Z</time></trkpt><trkpt lat="45.16528130508436" lon="9.324384827626636"><ele>74.0</ele><time>2026-04-11T12:43:44.001Z</time></trkpt><trkpt lat="45.165211966182014" lon="9.324253416872585"><ele>74.0</ele><time>2026-04-11T12:43:45.001Z</time></trkpt><trkpt lat="45.16512929518639" lon="9.324134504197428"><ele>74.0</ele><time>2026-04-11T12:43:46.001Z</time></trkpt><trkpt lat="45.165073892659365" lon="9.32399675517016"><ele>74.0</ele><time>2026-04-11T12:43:47.001Z</time></trkpt><trkpt lat="45.16499698509669" lon="9.323883047102317"><ele>74.0</ele><time>2026-04-11T12:43:48.001Z</time></trkpt><trkpt lat="45.164929607117095" lon="9.32376983727489"><ele>74.0</ele><time>2026-04-11T12:43:49.001Z</time></trkpt><trkpt lat="45.16486791863153" lon="9.323655388717908"><ele>73.4</ele><time>2026-04-11T12:43:50.001Z</time></trkpt><trkpt lat="45.16480185416011" lon="9.323545135585974"><ele>72.80000000000001</ele><time>2026-04-11T12:43:51.001Z</time></trkpt><trkpt lat="45.16474026966355" lon="9.323414891660123"><ele>72.19999999999999</ele><time>2026-04-11T12:43:52.001Z</time></trkpt><trkpt lat="45.164670713750205" lon="9.323296599467547"><ele>71.6</ele><time>2026-04-11T12:43:53.001Z</time></trkpt><trkpt lat="45.16458994610231" lon="9.323190413977374"><ele>71.0</ele><time>2026-04-11T12:43:54.001Z</time></trkpt><trkpt lat="45.16452759633617" lon="9.323075427727767"><ele>71.2</ele><time>2026-04-11T12:43:55.001Z</time></trkpt><trkpt lat="45.1644611737894" lon="9.322957556064909"><ele>71.39999999999999</ele><time>2026-04-11T12:43:56.001Z</time></trkpt><trkpt lat="45.16439657818807" lon="9.322844304223977"><ele>71.6</ele><time>2026-04-11T12:43:57.001Z</time></trkpt><trkpt lat="45.164342684135306" lon="9.322731093139177"><ele>71.8</ele><time>2026-04-11T12:43:58.001Z</time></trkpt><trkpt lat="45.16430234675558" lon="9.322600234628478"><ele>72.0</ele><time>2026-04-11T12:43:59.001Z</time></trkpt><trkpt lat="45.16426535441478" lon="9.322486317918022"><ele>72.0</ele><time>2026-04-11T12:44:00.001Z</time></trkpt><trkpt lat="45.16423466879" lon="9.322374216899265"><ele>72.0</ele><time>2026-04-11T12:44:01.001Z</time></trkpt><trkpt lat="45.16423008323813" lon="9.32224924624323"><ele>72.0</ele><time>2026-04-11T12:44:02.001Z</time></trkpt><trkpt lat="45.1642098874698" lon="9.322141606384957"><ele>72.0</ele><time>2026-04-11T12:44:03.001Z</time></trkpt><trkpt lat="45.16419198134601" lon="9.322046170166075"><ele>72.0</ele><time>2026-04-11T12:44:04.001Z</time></trkpt><trkpt lat="45.16415654003931" lon="9.321952304061854"><ele>72.0</ele><time>2026-04-11T12:44:05.001Z</time></trkpt><trkpt lat="45.16413749910114" lon="9.321850208402912"><ele>71.66666666666667</ele><time>2026-04-11T12:44:06.001Z</time></trkpt><trkpt lat="45.164114921260804" lon="9.32171224389428"><ele>71.33333333333333</ele><time>2026-04-11T12:44:08.001Z</time></trkpt><trkpt lat="45.164031341770674" lon="9.321690318716213"><ele>71.0</ele><time>2026-04-11T12:44:09.001Z</time></trkpt><trkpt lat="45.16397276955756" lon="9.32163514284652"><ele>70.66666666666666</ele><time>2026-04-11T12:44:10.001Z</time></trkpt><trkpt lat="45.1638900906301" lon="9.321583171038531"><ele>70.33333333333333</ele><time>2026-04-11T12:44:11.001Z</time></trkpt><trkpt lat="45.163828316266844" lon="9.321510619484712"><ele>70.0</ele><time>2026-04-11T12:44:12.001Z</time></trkpt><trkpt lat="45.16376081755029" lon="9.321469035583661"><ele>70.0</ele><time>2026-04-11T12:44:13.001Z</time></trkpt><trkpt lat="45.163699691922446" lon="9.321418244342963"><ele>70.0</ele><time>2026-04-11T12:44:14.001Z</time></trkpt><trkpt lat="45.163616303312935" lon="9.321329904023186"><ele>70.0</ele><time>2026-04-11T12:44:16.001Z</time></trkpt><trkpt lat="45.16356330123946" lon="9.32123784158968"><ele>70.0</ele><time>2026-04-11T12:44:18.001Z</time></trkpt><trkpt lat="45.16345985395666" lon="9.321307164315062"><ele>70.0</ele><time>2026-04-11T12:44:19.001Z</time></trkpt><trkpt lat="45.16339282258389" lon="9.321306504922653"><ele>70.0</ele><time>2026-04-11T12:44:20.001Z</time></trkpt><trkpt lat="45.16332509609074" lon="9.321294990075797"><ele>70.28571428571429</ele><time>2026-04-11T12:44:21.001Z</time></trkpt><trkpt lat="45.16325685656899" lon="9.32127901341572"><ele>70.57142857142857</ele><time>2026-04-11T12:44:22.001Z</time></trkpt><trkpt lat="45.16319017248484" lon="9.321260276074554"><ele>70.85714285714286</ele><time>2026-04-11T12:44:23.001Z</time></trkpt><trkpt lat="45.16312387698719" lon="9.321235824713842"><ele>71.14285714285714</ele><time>2026-04-11T12:44:24.001Z</time></trkpt><trkpt lat="45.16305365605948" lon="9.321214711567633"><ele>71.42857142857143</ele><time>2026-04-11T12:44:25.001Z</time></trkpt><trkpt lat="45.1629816449495" lon="9.321197510275416"><ele>71.71428571428572</ele><time>2026-04-11T12:44:26.001Z</time></trkpt><trkpt lat="45.16290268000333" lon="9.321179648735095"><ele>72.0</ele><time>2026-04-11T12:44:27.001Z</time></trkpt><trkpt lat="45.16281904428004" lon="9.321157636553517"><ele>72.0</ele><time>2026-04-11T12:44:28.001Z</time></trkpt><trkpt lat="45.16273611379983" lon="9.321132541187515"><ele>72.0</ele><time>2026-04-11T12:44:29.001Z</time></trkpt><trkpt lat="45.16264841859581" lon="9.321104785225387"><ele>72.0</ele><time>2026-04-11T12:44:30.001Z</time></trkpt><trkpt lat="45.162557413370436" lon="9.321079027826142"><ele>72.0</ele><time>2026-04-11T12:44:31.001Z</time></trkpt><trkpt lat="45.16246462969831" lon="9.321057998250087"><ele>72.0</ele><time>2026-04-11T12:44:32.001Z</time></trkpt><trkpt lat="45.16237021882895" lon="9.321036656772835"><ele>72.0</ele><time>2026-04-11T12:44:33.001Z</time></trkpt><trkpt lat="45.1622713495467" lon="9.321013291280458"><ele>72.0</ele><time>2026-04-11T12:44:34.001Z</time></trkpt><trkpt lat="45.16216675482837" lon="9.320983310413858"><ele>72.0</ele><time>2026-04-11T12:44:35.001Z</time></trkpt><trkpt lat="45.162066285189724" lon="9.320957376367614"><ele>72.0</ele><time>2026-04-11T12:44:36.001Z</time></trkpt><trkpt lat="45.161969154384174" lon="9.320926894087597"><ele>72.0</ele><time>2026-04-11T12:44:37.001Z</time></trkpt><trkpt lat="45.16187533504824" lon="9.320897389468845"><ele>72.0</ele><time>2026-04-11T12:44:38.001Z</time></trkpt><trkpt lat="45.16178231952381" lon="9.32086735217613"><ele>72.0</ele><time>2026-04-11T12:44:39.001Z</time></trkpt><trkpt lat="45.16168992367674" lon="9.320838910319477"><ele>72.0</ele><time>2026-04-11T12:44:40.001Z</time></trkpt><trkpt lat="45.16159813044452" lon="9.320814756675835"><ele>72.0</ele><time>2026-04-11T12:44:41.001Z</time></trkpt><trkpt lat="45.1615048522081" lon="9.32079564276189"><ele>72.0</ele><time>2026-04-11T12:44:42.001Z</time></trkpt><trkpt lat="45.16141357753805" lon="9.320775781577126"><ele>72.16666666666667</ele><time>2026-04-11T12:44:43.001Z</time></trkpt><trkpt lat="45.161323348667445" lon="9.320757417892699"><ele>72.33333333333333</ele><time>2026-04-11T12:44:44.001Z</time></trkpt><trkpt lat="45.16124145567046" lon="9.320746980185206"><ele>72.5</ele><time>2026-04-11T12:44:45.001Z</time></trkpt><trkpt lat="45.16116066205063" lon="9.320749783505748"><ele>72.66666666666666</ele><time>2026-04-11T12:44:46.001Z</time></trkpt><trkpt lat="45.16107817539922" lon="9.320756814812526"><ele>72.83333333333333</ele><time>2026-04-11T12:44:47.001Z</time></trkpt><trkpt lat="45.160994886381715" lon="9.320737756109466"><ele>73.0</ele><time>2026-04-11T12:44:48.002Z</time></trkpt><trkpt lat="45.1609130390354" lon="9.320721292862489"><ele>73.0</ele><time>2026-04-11T12:44:49.002Z</time></trkpt><trkpt lat="45.16082598993549" lon="9.320700832685054"><ele>73.0</ele><time>2026-04-11T12:44:50.002Z</time></trkpt><trkpt lat="45.16073220179062" lon="9.320676611727961"><ele>73.0</ele><time>2026-04-11T12:44:51.002Z</time></trkpt><trkpt lat="45.160640095793184" lon="9.320652825183723"><ele>73.0</ele><time>2026-04-11T12:44:52.002Z</time></trkpt><trkpt lat="45.1605383065167" lon="9.320649734847478"><ele>73.0</ele><time>2026-04-11T12:44:53.002Z</time></trkpt><trkpt lat="45.16043989432872" lon="9.320622001803454"><ele>73.2</ele><time>2026-04-11T12:44:54.002Z</time></trkpt><trkpt lat="45.16034533094432" lon="9.320578113468146"><ele>73.4</ele><time>2026-04-11T12:44:55Z</time></trkpt><trkpt lat="45.160245551762465" lon="9.320553090208122"><ele>73.60000000000001</ele><time>2026-04-11T12:44:56Z</time></trkpt><trkpt lat="45.160154898408024" lon="9.32053035749521"><ele>73.8</ele><time>2026-04-11T12:44:57Z</time></trkpt><trkpt lat="45.160071108538354" lon="9.320509344139682"><ele>74.0</ele><time>2026-04-11T12:44:58Z</time></trkpt><trkpt lat="45.159998389113134" lon="9.320491107082104"><ele>74.0</ele><time>2026-04-11T12:44:59Z</time></trkpt><trkpt lat="45.15992757780145" lon="9.320473006577009"><ele>74.0</ele><time>2026-04-11T12:45:00Z</time></trkpt><trkpt lat="45.1598576972461" lon="9.320454792507968"><ele>74.0</ele><time>2026-04-11T12:45:01Z</time></trkpt><trkpt lat="45.1597482563585" lon="9.320434631558355"><ele>74.0</ele><time>2026-04-11T12:45:03Z</time></trkpt><trkpt lat="45.1596791839975" lon="9.320411165252537"><ele>74.0</ele><time>2026-04-11T12:45:05Z</time></trkpt><trkpt lat="45.15961252991966" lon="9.320390890638603"><ele>74.0</ele><time>2026-04-11T12:45:09Z</time></trkpt><trkpt lat="45.159562646213885" lon="9.320583646800191"><ele>74.16666666666667</ele><time>2026-04-11T12:45:11Z</time></trkpt><trkpt lat="45.159558770966676" lon="9.320676640559855"><ele>74.33333333333334</ele><time>2026-04-11T12:45:12Z</time></trkpt><trkpt lat="45.15954488316188" lon="9.320831229866961"><ele>74.5</ele><time>2026-04-11T12:45:14Z</time></trkpt><trkpt lat="45.15954095679194" lon="9.32092621325522"><ele>74.66666666666667</ele><time>2026-04-11T12:45:15Z</time></trkpt><trkpt lat="45.159530754139745" lon="9.321029021837624"><ele>74.83333333333333</ele><time>2026-04-11T12:45:16Z</time></trkpt><trkpt lat="45.1595156659775" lon="9.321136844336237"><ele>75.0</ele><time>2026-04-11T12:45:17Z</time></trkpt><trkpt lat="45.159500079610346" lon="9.321242969781682"><ele>74.99999999999999</ele><time>2026-04-11T12:45:18Z</time></trkpt><trkpt lat="45.159484642373975" lon="9.32134083014421"><ele>75.0</ele><time>2026-04-11T12:45:19Z</time></trkpt><trkpt lat="45.159470577681326" lon="9.321439211539749"><ele>75.0</ele><time>2026-04-11T12:45:20Z</time></trkpt><trkpt lat="45.1594595189772" lon="9.321545207143739"><ele>75.0</ele><time>2026-04-11T12:45:21Z</time></trkpt><trkpt lat="45.15944676827372" lon="9.32165384134454"><ele>75.0</ele><time>2026-04-11T12:45:22Z</time></trkpt><trkpt lat="45.15943351081402" lon="9.321749924584456"><ele>74.99999999999999</ele><time>2026-04-11T12:45:23Z</time></trkpt><trkpt lat="45.15942197712193" lon="9.321847926377169"><ele>75.0</ele><time>2026-04-11T12:45:24Z</time></trkpt><trkpt lat="45.15941086245547" lon="9.32194416070622"><ele>74.85714285714285</ele><time>2026-04-11T12:45:25Z</time></trkpt><trkpt lat="45.15939899287898" lon="9.32203595871137"><ele>74.71428571428571</ele><time>2026-04-11T12:45:26Z</time></trkpt><trkpt lat="45.15939067689795" lon="9.32213149059161"><ele>74.57142857142857</ele><time>2026-04-11T12:45:27Z</time></trkpt><trkpt lat="45.159380690195604" lon="9.322228927441346"><ele>74.42857142857142</ele><time>2026-04-11T12:45:28Z</time></trkpt><trkpt lat="45.15937109817205" lon="9.32232553237897"><ele>74.28571428571428</ele><time>2026-04-11T12:45:29Z</time></trkpt><trkpt lat="45.15935819481122" lon="9.322424026303779"><ele>74.14285714285714</ele><time>2026-04-11T12:45:30Z</time></trkpt><trkpt lat="45.159341640718175" lon="9.322525445840414"><ele>74.0</ele><time>2026-04-11T12:45:31Z</time></trkpt><trkpt lat="45.15932825602082" lon="9.322623447029757"><ele>74.0</ele><time>2026-04-11T12:45:32Z</time></trkpt><trkpt lat="45.15931475602111" lon="9.322710974535683"><ele>74.0</ele><time>2026-04-11T12:45:33Z</time></trkpt><trkpt lat="45.15929011748043" lon="9.322817621169953"><ele>74.0</ele><time>2026-04-11T12:45:35Z</time></trkpt><trkpt lat="45.15916879399453" lon="9.32279081004132"><ele>74.0</ele><time>2026-04-11T12:45:38Z</time></trkpt><trkpt lat="45.159055622011266" lon="9.32275696532931"><ele>74.0</ele><time>2026-04-11T12:45:40Z</time></trkpt><trkpt lat="45.158935143811455" lon="9.322720935650413"><ele>74.0</ele><time>2026-04-11T12:45:42.001Z</time></trkpt><trkpt lat="45.15882601555227" lon="9.322688317744024"><ele>74.0</ele><time>2026-04-11T12:45:44.001Z</time></trkpt><trkpt lat="45.158758574277286" lon="9.322668027502006"><ele>74.0</ele><time>2026-04-11T12:45:46.001Z</time></trkpt><trkpt lat="45.15872313018138" lon="9.322925100592805"><ele>74.0</ele><time>2026-04-11T12:45:48.001Z</time></trkpt><trkpt lat="45.158727569973486" lon="9.323069313111686"><ele>74.0</ele><time>2026-04-11T12:45:50.001Z</time></trkpt><trkpt lat="45.158793695425175" lon="9.323107869785094"><ele>74.0</ele><time>2026-04-11T12:45:52.001Z</time></trkpt><trkpt lat="45.15885961034183" lon="9.323148744916608"><ele>74.0</ele><time>2026-04-11T12:45:54.001Z</time></trkpt><trkpt lat="45.158892490282405" lon="9.323044194263924"><ele>74.0</ele><time>2026-04-11T12:45:55.001Z</time></trkpt><trkpt lat="45.15891962778567" lon="9.322901750151683"><ele>74.0</ele><time>2026-04-11T12:45:57.001Z</time></trkpt><trkpt lat="45.15892500020563" lon="9.322775524882278"><ele>74.0</ele><time>2026-04-11T12:45:59.001Z</time></trkpt><trkpt lat="45.15905661367161" lon="9.322804797844016"><ele>73.8</ele><time>2026-04-11T12:46:02.001Z</time></trkpt><trkpt lat="45.159137100708094" lon="9.322834303356116"><ele>73.60000000000001</ele><time>2026-04-11T12:46:04.001Z</time></trkpt><trkpt lat="45.15920642495786" lon="9.322849932462132"><ele>73.4</ele><time>2026-04-11T12:46:06.001Z</time></trkpt><trkpt lat="45.15927482254064" lon="9.322877348456533"><ele>73.2</ele><time>2026-04-11T12:46:18.001Z</time></trkpt><trkpt lat="45.1592641604677" lon="9.323056284510088"><ele>73.0</ele><time>2026-04-11T12:46:21.001Z</time></trkpt><trkpt lat="45.159240728175824" lon="9.323196990332363"><ele>73.0</ele><time>2026-04-11T12:46:23.001Z</time></trkpt><trkpt lat="45.15921944742872" lon="9.323346826629233"><ele>73.0</ele><time>2026-04-11T12:46:25.001Z</time></trkpt><trkpt lat="45.15920102607643" lon="9.323512965174816"><ele>73.0</ele><time>2026-04-11T12:46:27.001Z</time></trkpt><trkpt lat="45.159176096714255" lon="9.32362870522648"><ele>73.0</ele><time>2026-04-11T12:46:29.001Z</time></trkpt><trkpt lat="45.15910577392507" lon="9.32359583944792"><ele>73.0</ele><time>2026-04-11T12:46:31.001Z</time></trkpt><trkpt lat="45.15897737346542" lon="9.323569191993583"><ele>72.83333333333333</ele><time>2026-04-11T12:46:33.001Z</time></trkpt><trkpt lat="45.15890852746416" lon="9.32354982917731"><ele>72.66666666666666</ele><time>2026-04-11T12:46:34.001Z</time></trkpt><trkpt lat="45.158819054941894" lon="9.323527463666187"><ele>72.5</ele><time>2026-04-11T12:46:35.001Z</time></trkpt><trkpt lat="45.15872961688855" lon="9.32350073344167"><ele>72.33333333333333</ele><time>2026-04-11T12:46:36.001Z</time></trkpt><trkpt lat="45.15864701613554" lon="9.323476061567607"><ele>72.16666666666667</ele><time>2026-04-11T12:46:37.001Z</time></trkpt><trkpt lat="45.15857165416177" lon="9.32345423571694"><ele>72.0</ele><time>2026-04-11T12:46:38.001Z</time></trkpt><trkpt lat="45.158505177302054" lon="9.323438711857877"><ele>72.0</ele><time>2026-04-11T12:46:39.001Z</time></trkpt><trkpt lat="45.1584062007411" lon="9.323404440869924"><ele>72.0</ele><time>2026-04-11T12:46:41.001Z</time></trkpt><trkpt lat="45.158339959056576" lon="9.323528533778395"><ele>72.0</ele><time>2026-04-11T12:46:44.001Z</time></trkpt><trkpt lat="45.15833717344077" lon="9.32361845760877"><ele>72.0</ele><time>2026-04-11T12:46:45.001Z</time></trkpt><trkpt lat="45.158311899344284" lon="9.323793683097756"><ele>72.0</ele><time>2026-04-11T12:46:47.001Z</time></trkpt><trkpt lat="45.1582866146139" lon="9.323954760511183"><ele>72.16666666666667</ele><time>2026-04-11T12:46:49.001Z</time></trkpt><trkpt lat="45.158272033603346" lon="9.324088820418007"><ele>72.33333333333333</ele><time>2026-04-11T12:46:51.001Z</time></trkpt><trkpt lat="45.15836968817749" lon="9.324166335408709"><ele>72.5</ele><time>2026-04-11T12:46:53.001Z</time></trkpt><trkpt lat="45.15843529911167" lon="9.324183987704824"><ele>72.66666666666666</ele><time>2026-04-11T12:46:54.001Z</time></trkpt><trkpt lat="45.15850449941639" lon="9.324192128883562"><ele>72.83333333333333</ele><time>2026-04-11T12:46:55.002Z</time></trkpt><trkpt lat="45.15857789527618" lon="9.324207735095946"><ele>73.0</ele><time>2026-04-11T12:46:56.002Z</time></trkpt><trkpt lat="45.15865472207506" lon="9.324223434059965"><ele>73.0</ele><time>2026-04-11T12:46:57.002Z</time></trkpt><trkpt lat="45.15873545718195" lon="9.324265130452579"><ele>73.0</ele><time>2026-04-11T12:46:59.002Z</time></trkpt><trkpt lat="45.15871933561686" lon="9.324387104146158"><ele>73.0</ele><time>2026-04-11T12:47:01Z</time></trkpt><trkpt lat="45.15870482985003" lon="9.324488030517644"><ele>73.0</ele><time>2026-04-11T12:47:02Z</time></trkpt><trkpt lat="45.15868790277994" lon="9.324600326517109"><ele>73.0</ele><time>2026-04-11T12:47:03Z</time></trkpt><trkpt lat="45.158677513628646" lon="9.324731467670844"><ele>73.0</ele><time>2026-04-11T12:47:04Z</time></trkpt><trkpt lat="45.158664151631186" lon="9.324878420360573"><ele>72.6</ele><time>2026-04-11T12:47:05Z</time></trkpt><trkpt lat="45.158650443579724" lon="9.325015392527744"><ele>72.19999999999999</ele><time>2026-04-11T12:47:06Z</time></trkpt><trkpt lat="45.15863388316301" lon="9.325144210883451"><ele>71.8</ele><time>2026-04-11T12:47:07Z</time></trkpt><trkpt lat="45.15861784239823" lon="9.325261151390235"><ele>71.39999999999999</ele><time>2026-04-11T12:47:08Z</time></trkpt><trkpt lat="45.15860334621126" lon="9.32536375685167"><ele>71.0</ele><time>2026-04-11T12:47:09Z</time></trkpt><trkpt lat="45.158580289514326" lon="9.325537763656998"><ele>71.0</ele><time>2026-04-11T12:47:11Z</time></trkpt><trkpt lat="45.15855202513479" lon="9.325684901982928"><ele>71.0</ele><time>2026-04-11T12:47:13Z</time></trkpt><trkpt lat="45.158539122067985" lon="9.325786765960501"><ele>71.0</ele><time>2026-04-11T12:47:15Z</time></trkpt><trkpt lat="45.1585371487393" lon="9.325908286800459"><ele>71.0</ele><time>2026-04-11T12:47:18Z</time></trkpt><trkpt lat="45.158788347798655" lon="9.32588491068819"><ele>71.0</ele><time>2026-04-11T12:47:22Z</time></trkpt><trkpt lat="45.15872349869955" lon="9.325758083505132"><ele>71.0</ele><time>2026-04-11T12:47:24Z</time></trkpt><trkpt lat="45.15865006688522" lon="9.325734221307744"><ele>71.0</ele><time>2026-04-11T12:47:25Z</time></trkpt><trkpt lat="45.15857169581342" lon="9.325655571821324"><ele>71.0</ele><time>2026-04-11T12:47:27Z</time></trkpt><trkpt lat="45.15858214720582" lon="9.325481524767063"><ele>71.0</ele><time>2026-04-11T12:47:29Z</time></trkpt><trkpt lat="45.158602353650494" lon="9.325379098292904"><ele>71.0</ele><time>2026-04-11T12:47:30Z</time></trkpt><trkpt lat="45.15861962040391" lon="9.325263119549884"><ele>71.0</ele><time>2026-04-11T12:47:31Z</time></trkpt><trkpt lat="45.15863032245043" lon="9.325137663269663"><ele>71.0</ele><time>2026-04-11T12:47:32Z</time></trkpt><trkpt lat="45.158645007349264" lon="9.325014027435591"><ele>71.0</ele><time>2026-04-11T12:47:33Z</time></trkpt><trkpt lat="45.1586614469611" lon="9.324897982405474"><ele>71.0</ele><time>2026-04-11T12:47:34Z</time></trkpt><trkpt lat="45.15867827901849" lon="9.324776523674165"><ele>71.0</ele><time>2026-04-11T12:47:35Z</time></trkpt><trkpt lat="45.158693296212235" lon="9.324661779028181"><ele>71.39999999999999</ele><time>2026-04-11T12:47:36Z</time></trkpt><trkpt lat="45.15870994225056" lon="9.324559475999425"><ele>71.8</ele><time>2026-04-11T12:47:37Z</time></trkpt><trkpt lat="45.15872581780394" lon="9.324468118909708"><ele>72.19999999999999</ele><time>2026-04-11T12:47:38Z</time></trkpt><trkpt lat="45.158752915487575" lon="9.324327898967907"><ele>72.6</ele><time>2026-04-11T12:47:40Z</time></trkpt><trkpt lat="45.15880351373505" lon="9.324236169423912"><ele>73.0</ele><time>2026-04-11T12:47:44Z</time></trkpt><trkpt lat="45.158949906773344" lon="9.324303049478809"><ele>73.0</ele><time>2026-04-11T12:47:46Z</time></trkpt><trkpt lat="45.159046549668595" lon="9.324319293126264"><ele>73.0</ele><time>2026-04-11T12:47:48.001Z</time></trkpt><trkpt lat="45.159133780927114" lon="9.324295481344897"><ele>73.0</ele><time>2026-04-11T12:47:50.001Z</time></trkpt><trkpt lat="45.159151153138815" lon="9.32420561979989"><ele>73.0</ele><time>2026-04-11T12:47:51.001Z</time></trkpt><trkpt lat="45.15916158343678" lon="9.324101141752838"><ele>73.0</ele><time>2026-04-11T12:47:53.001Z</time></trkpt><trkpt lat="45.159175056952265" lon="9.323991266139258"><ele>73.0</ele><time>2026-04-11T12:47:55.001Z</time></trkpt><trkpt lat="45.15919121960298" lon="9.323860823223237"><ele>73.0</ele><time>2026-04-11T12:47:57.001Z</time></trkpt><trkpt lat="45.159197231204466" lon="9.32371926282215"><ele>73.0</ele><time>2026-04-11T12:47:59.001Z</time></trkpt><trkpt lat="45.159216378608534" lon="9.323582572262675"><ele>73.0</ele><time>2026-04-11T12:48:01.001Z</time></trkpt><trkpt lat="45.15924206105668" lon="9.323467009707352"><ele>73.0</ele><time>2026-04-11T12:48:03.001Z</time></trkpt><trkpt lat="45.15925773821678" lon="9.323356373118706"><ele>73.0</ele><time>2026-04-11T12:48:05.001Z</time></trkpt><trkpt lat="45.15927735554583" lon="9.323209771063853"><ele>73.0</ele><time>2026-04-11T12:48:07.001Z</time></trkpt><trkpt lat="45.15929924471085" lon="9.32304619142948"><ele>73.0</ele><time>2026-04-11T12:48:09.001Z</time></trkpt><trkpt lat="45.15931781620762" lon="9.32290740496818"><ele>73.0</ele><time>2026-04-11T12:48:11.001Z</time></trkpt><trkpt lat="45.15933558711128" lon="9.322774600569113"><ele>73.0</ele><time>2026-04-11T12:48:13.001Z</time></trkpt><trkpt lat="45.159355555537076" lon="9.322618346227626"><ele>73.0</ele><time>2026-04-11T12:48:15.001Z</time></trkpt><trkpt lat="45.15937805898452" lon="9.322445152742372"><ele>73.0</ele><time>2026-04-11T12:48:17.001Z</time></trkpt><trkpt lat="45.15939025296751" lon="9.322351303590377"><ele>73.0</ele><time>2026-04-11T12:48:18.001Z</time></trkpt><trkpt lat="45.159401640617844" lon="9.32225281319302"><ele>73.0</ele><time>2026-04-11T12:48:19.001Z</time></trkpt><trkpt lat="45.15941395530793" lon="9.322150592676547"><ele>73.0</ele><time>2026-04-11T12:48:20.001Z</time></trkpt><trkpt lat="45.15942647656198" lon="9.322046657515742"><ele>73.0</ele><time>2026-04-11T12:48:21.001Z</time></trkpt><trkpt lat="45.15943897381236" lon="9.32194292159816"><ele>73.0</ele><time>2026-04-11T12:48:22.001Z</time></trkpt><trkpt lat="45.15945146940673" lon="9.32183919940017"><ele>73.0</ele><time>2026-04-11T12:48:23.001Z</time></trkpt><trkpt lat="45.15946429869554" lon="9.321732707328277"><ele>73.14285714285714</ele><time>2026-04-11T12:48:24.001Z</time></trkpt><trkpt lat="45.15947670597601" lon="9.321629718238814"><ele>73.28571428571429</ele><time>2026-04-11T12:48:25.001Z</time></trkpt><trkpt lat="45.15948897097961" lon="9.321527910133241"><ele>73.42857142857143</ele><time>2026-04-11T12:48:26.001Z</time></trkpt><trkpt lat="45.15950104221548" lon="9.321427710154717"><ele>73.57142857142857</ele><time>2026-04-11T12:48:27.001Z</time></trkpt><trkpt lat="45.159496377759304" lon="9.321329273221837"><ele>73.71428571428571</ele><time>2026-04-11T12:48:28.001Z</time></trkpt><trkpt lat="45.15951623936861" lon="9.321238671711496"><ele>73.85714285714286</ele><time>2026-04-11T12:48:29.001Z</time></trkpt><trkpt lat="45.15953352687038" lon="9.32115102852349"><ele>74.0</ele><time>2026-04-11T12:48:30.001Z</time></trkpt><trkpt lat="45.159551510059885" lon="9.321011332914075"><ele>74.16666666666667</ele><time>2026-04-11T12:48:32.001Z</time></trkpt><trkpt lat="45.159437762985746" lon="9.320890762415091"><ele>74.33333333333334</ele><time>2026-04-11T12:48:35.001Z</time></trkpt><trkpt lat="45.15936896600848" lon="9.32088490544706"><ele>74.5</ele><time>2026-04-11T12:48:36.001Z</time></trkpt><trkpt lat="45.15930301548677" lon="9.320844342766932"><ele>74.66666666666667</ele><time>2026-04-11T12:48:37.001Z</time></trkpt><trkpt lat="45.15922542336495" lon="9.320841559983366"><ele>74.83333333333333</ele><time>2026-04-11T12:48:38.001Z</time></trkpt><trkpt lat="45.15915168060442" lon="9.320809313613097"><ele>75.0</ele><time>2026-04-11T12:48:39.001Z</time></trkpt><trkpt lat="45.15908210736549" lon="9.320793897592877"><ele>74.66666666666667</ele><time>2026-04-11T12:48:40.001Z</time></trkpt><trkpt lat="45.15901624737816" lon="9.320751001751264"><ele>74.33333333333333</ele><time>2026-04-11T12:48:41.001Z</time></trkpt><trkpt lat="45.15894586159471" lon="9.320748255695893"><ele>74.0</ele><time>2026-04-11T12:48:42.001Z</time></trkpt><trkpt lat="45.15885814752979" lon="9.320715344824352"><ele>73.66666666666666</ele><time>2026-04-11T12:48:44.001Z</time></trkpt><trkpt lat="45.15878688446235" lon="9.32068235537262"><ele>73.33333333333333</ele><time>2026-04-11T12:48:57.001Z</time></trkpt><trkpt lat="45.158690593926856" lon="9.32065432140214"><ele>73.0</ele><time>2026-04-11T12:48:59.001Z</time></trkpt><trkpt lat="45.15863171597553" lon="9.320846594621413"><ele>73.0</ele><time>2026-04-11T12:49:00.001Z</time></trkpt><trkpt lat="45.15860866866851" lon="9.320949889706993"><ele>73.0</ele><time>2026-04-11T12:49:01.001Z</time></trkpt><trkpt lat="45.15859573625665" lon="9.321073544944209"><ele>73.0</ele><time>2026-04-11T12:49:02.002Z</time></trkpt><trkpt lat="45.15857660773719" lon="9.3212028774802"><ele>73.0</ele><time>2026-04-11T12:49:03.002Z</time></trkpt><trkpt lat="45.158554525423554" lon="9.321350863867712"><ele>73.0</ele><time>2026-04-11T12:49:04.002Z</time></trkpt><trkpt lat="45.15853333792255" lon="9.321505043734334"><ele>73.25</ele><time>2026-04-11T12:49:05.002Z</time></trkpt><trkpt lat="45.158509954097546" lon="9.321666101286272"><ele>73.5</ele><time>2026-04-11T12:49:06.002Z</time></trkpt><trkpt lat="45.15847996859337" lon="9.321857156118142"><ele>73.75</ele><time>2026-04-11T12:49:07Z</time></trkpt><trkpt lat="45.15845305673932" lon="9.322048618756794"><ele>74.0</ele><time>2026-04-11T12:49:08Z</time></trkpt><trkpt lat="45.158424644876646" lon="9.322246478411515"><ele>74.0</ele><time>2026-04-11T12:49:09Z</time></trkpt><trkpt lat="45.15839549698751" lon="9.322447995181461"><ele>74.0</ele><time>2026-04-11T12:49:10Z</time></trkpt><trkpt lat="45.15836741850996" lon="9.322649109639256"><ele>74.0</ele><time>2026-04-11T12:49:11Z</time></trkpt><trkpt lat="45.15833886821555" lon="9.322864357085917"><ele>74.0</ele><time>2026-04-11T12:49:12Z</time></trkpt><trkpt lat="45.158308368589985" lon="9.323086696449552"><ele>73.33333333333334</ele><time>2026-04-11T12:49:13Z</time></trkpt><trkpt lat="45.15827395423343" lon="9.323323333587387"><ele>72.66666666666667</ele><time>2026-04-11T12:49:14Z</time></trkpt><trkpt lat="45.158241674412615" lon="9.32355314113118"><ele>72.0</ele><time>2026-04-11T12:49:15Z</time></trkpt><trkpt lat="45.158207949600154" lon="9.323782515576243"><ele>72.0</ele><time>2026-04-11T12:49:16Z</time></trkpt><trkpt lat="45.15817306186329" lon="9.324013540807076"><ele>72.0</ele><time>2026-04-11T12:49:17Z</time></trkpt><trkpt lat="45.1581420172036" lon="9.32424227889066"><ele>72.0</ele><time>2026-04-11T12:49:18Z</time></trkpt><trkpt lat="45.15811731349494" lon="9.324472093634958"><ele>72.0</ele><time>2026-04-11T12:49:19Z</time></trkpt><trkpt lat="45.158106894788425" lon="9.32470065303726"><ele>72.0</ele><time>2026-04-11T12:49:20Z</time></trkpt><trkpt lat="45.15811189210474" lon="9.324926530242353"><ele>72.0</ele><time>2026-04-11T12:49:21Z</time></trkpt><trkpt lat="45.15813964775709" lon="9.32514558775145"><ele>71.66666666666667</ele><time>2026-04-11T12:49:22Z</time></trkpt><trkpt lat="45.158175268874935" lon="9.325364648292489"><ele>71.33333333333334</ele><time>2026-04-11T12:49:23Z</time></trkpt><trkpt lat="45.158210318468214" lon="9.325581102307844"><ele>71.0</ele><time>2026-04-11T12:49:24Z</time></trkpt><trkpt lat="45.15824561790107" lon="9.32579974337962"><ele>71.0</ele><time>2026-04-11T12:49:25Z</time></trkpt><trkpt lat="45.15827971958641" lon="9.326023425714064"><ele>71.0</ele><time>2026-04-11T12:49:26Z</time></trkpt><trkpt lat="45.158311993841885" lon="9.32624911311641"><ele>71.0</ele><time>2026-04-11T12:49:27Z</time></trkpt><trkpt lat="45.158347245050905" lon="9.326476609485404"><ele>71.0</ele><time>2026-04-11T12:49:28Z</time></trkpt><trkpt lat="45.15838590839112" lon="9.326705649146087"><ele>71.0</ele><time>2026-04-11T12:49:29Z</time></trkpt><trkpt lat="45.15842424332298" lon="9.326935121389123"><ele>71.0</ele><time>2026-04-11T12:49:30Z</time></trkpt><trkpt lat="45.15846252810561" lon="9.32716067744189"><ele>71.0</ele><time>2026-04-11T12:49:31Z</time></trkpt><trkpt lat="45.15849767427753" lon="9.327380550240893"><ele>71.0</ele><time>2026-04-11T12:49:32Z</time></trkpt><trkpt lat="45.15853326484342" lon="9.327611150775997"><ele>71.0</ele><time>2026-04-11T12:49:33Z</time></trkpt><trkpt lat="45.15856535910099" lon="9.327838873829318"><ele>70.66666666666667</ele><time>2026-04-11T12:49:34Z</time></trkpt><trkpt lat="45.15859495574253" lon="9.32806741997513"><ele>70.33333333333333</ele><time>2026-04-11T12:49:35Z</time></trkpt><trkpt lat="45.1586194941482" lon="9.328296443525478"><ele>70.0</ele><time>2026-04-11T12:49:36Z</time></trkpt><trkpt lat="45.1586325911174" lon="9.328526513576234"><ele>70.0</ele><time>2026-04-11T12:49:37Z</time></trkpt><trkpt lat="45.158632587374306" lon="9.3287649690258"><ele>70.0</ele><time>2026-04-11T12:49:38Z</time></trkpt><trkpt lat="45.15862925379539" lon="9.329017498824486"><ele>70.0</ele><time>2026-04-11T12:49:39Z</time></trkpt><trkpt lat="45.15861385256431" lon="9.329279857560325"><ele>70.0</ele><time>2026-04-11T12:49:40Z</time></trkpt><trkpt lat="45.158591267863834" lon="9.32953403357187"><ele>70.0</ele><time>2026-04-11T12:49:41Z</time></trkpt><trkpt lat="45.15856777889901" lon="9.329792228905958"><ele>70.0</ele><time>2026-04-11T12:49:42Z</time></trkpt><trkpt lat="45.15854531299322" lon="9.330050574734168"><ele>70.0</ele><time>2026-04-11T12:49:43Z</time></trkpt><trkpt lat="45.158522659416654" lon="9.330306823412648"><ele>70.0</ele><time>2026-04-11T12:49:44Z</time></trkpt><trkpt lat="45.158500494721984" lon="9.330564052309635"><ele>70.0</ele><time>2026-04-11T12:49:45Z</time></trkpt><trkpt lat="45.15847751955004" lon="9.33082079841258"><ele>70.0</ele><time>2026-04-11T12:49:46Z</time></trkpt><trkpt lat="45.1584560407013" lon="9.33107655531341"><ele>70.0</ele><time>2026-04-11T12:49:47Z</time></trkpt><trkpt lat="45.158435003693576" lon="9.33132071595811"><ele>70.0</ele><time>2026-04-11T12:49:48Z</time></trkpt><trkpt lat="45.158415458427434" lon="9.331578406595456"><ele>70.0</ele><time>2026-04-11T12:49:49Z</time></trkpt><trkpt lat="45.15839255096525" lon="9.331825777788024"><ele>70.0</ele><time>2026-04-11T12:49:50Z</time></trkpt><trkpt lat="45.158370991056394" lon="9.332071511052984"><ele>70.0</ele><time>2026-04-11T12:49:51Z</time></trkpt><trkpt lat="45.158346914439036" lon="9.332318848338423"><ele>70.0</ele><time>2026-04-11T12:49:52Z</time></trkpt><trkpt lat="45.158327542224264" lon="9.332557368732369"><ele>70.0</ele><time>2026-04-11T12:49:53Z</time></trkpt><trkpt lat="45.158309299953444" lon="9.332794541471921"><ele>70.0</ele><time>2026-04-11T12:49:54Z</time></trkpt><trkpt lat="45.158287775900085" lon="9.333031686098376"><ele>69.66666666666666</ele><time>2026-04-11T12:49:55Z</time></trkpt><trkpt lat="45.158267762681305" lon="9.33326551667443"><ele>69.33333333333333</ele><time>2026-04-11T12:49:56Z</time></trkpt><trkpt lat="45.15824546833018" lon="9.333494406535154"><ele>69.0</ele><time>2026-04-11T12:49:57Z</time></trkpt><trkpt lat="45.15822627758503" lon="9.333728191474723"><ele>69.33333333333333</ele><time>2026-04-11T12:49:58Z</time></trkpt><trkpt lat="45.15820545308876" lon="9.3339642512031"><ele>69.66666666666666</ele><time>2026-04-11T12:49:59.001Z</time></trkpt><trkpt lat="45.15818639200198" lon="9.334197359221013"><ele>70.0</ele><time>2026-04-11T12:50:00.001Z</time></trkpt><trkpt lat="45.15816620228823" lon="9.334416396853586"><ele>70.2</ele><time>2026-04-11T12:50:01.001Z</time></trkpt><trkpt lat="45.15815057114428" lon="9.334608932409402"><ele>70.4</ele><time>2026-04-11T12:50:02.001Z</time></trkpt><trkpt lat="45.1581361062732" lon="9.334746163215076"><ele>70.6</ele><time>2026-04-11T12:50:03.001Z</time></trkpt><trkpt lat="45.15812388982821" lon="9.334847253754713"><ele>70.8</ele><time>2026-04-11T12:50:04.001Z</time></trkpt><trkpt lat="45.158162340372485" lon="9.334758472288641"><ele>71.0</ele><time>2026-04-11T12:50:12.001Z</time></trkpt><trkpt lat="45.15819941824714" lon="9.33461553604533"><ele>70.66666666666667</ele><time>2026-04-11T12:50:13.001Z</time></trkpt><trkpt lat="45.15820718967469" lon="9.334428606928736"><ele>70.33333333333333</ele><time>2026-04-11T12:50:14.001Z</time></trkpt><trkpt lat="45.15822333728641" lon="9.334213189266922"><ele>70.0</ele><time>2026-04-11T12:50:15.001Z</time></trkpt><trkpt lat="45.158242688513916" lon="9.333958697556536"><ele>69.66666666666666</ele><time>2026-04-11T12:50:16.001Z</time></trkpt><trkpt lat="45.15826319651618" lon="9.333690436434676"><ele>69.33333333333333</ele><time>2026-04-11T12:50:17.001Z</time></trkpt><trkpt lat="45.15828707741805" lon="9.333407800492411"><ele>69.0</ele><time>2026-04-11T12:50:18.001Z</time></trkpt><trkpt lat="45.15832808858142" lon="9.33315821030313"><ele>69.33333333333333</ele><time>2026-04-11T12:50:19.001Z</time></trkpt><trkpt lat="45.158350685825916" lon="9.332894529679649"><ele>69.66666666666666</ele><time>2026-04-11T12:50:20.001Z</time></trkpt><trkpt lat="45.15836316977495" lon="9.332615763332528"><ele>70.0</ele><time>2026-04-11T12:50:21.001Z</time></trkpt><trkpt lat="45.1583913166772" lon="9.332317382495487"><ele>70.0</ele><time>2026-04-11T12:50:22.001Z</time></trkpt><trkpt lat="45.158414592866684" lon="9.332008047239068"><ele>70.0</ele><time>2026-04-11T12:50:23.001Z</time></trkpt><trkpt lat="45.15845978372642" lon="9.331692746878874"><ele>70.0</ele><time>2026-04-11T12:50:24.001Z</time></trkpt><trkpt lat="45.158485687974" lon="9.331402909525085"><ele>70.0</ele><time>2026-04-11T12:50:25.001Z</time></trkpt><trkpt lat="45.158508389716864" lon="9.331121619796766"><ele>70.0</ele><time>2026-04-11T12:50:26.001Z</time></trkpt><trkpt lat="45.15852901080639" lon="9.330862563178766"><ele>70.0</ele><time>2026-04-11T12:50:27.001Z</time></trkpt><trkpt lat="45.15854805588398" lon="9.330615066045384"><ele>70.2</ele><time>2026-04-11T12:50:28.001Z</time></trkpt><trkpt lat="45.15855241296391" lon="9.330374056838277"><ele>70.4</ele><time>2026-04-11T12:50:29.001Z</time></trkpt><trkpt lat="45.15856994395529" lon="9.330202576411148"><ele>70.6</ele><time>2026-04-11T12:50:30.001Z</time></trkpt><trkpt lat="45.158576193815186" lon="9.330087536167547"><ele>70.8</ele><time>2026-04-11T12:50:31.001Z</time></trkpt><trkpt lat="45.15859762457022" lon="9.329986579994547"><ele>71.0</ele><time>2026-04-11T12:50:33.001Z</time></trkpt><trkpt lat="45.15833272736812" lon="9.329930777824345"><ele>71.0</ele><time>2026-04-11T12:50:38.001Z</time></trkpt><trkpt lat="45.15825773350303" lon="9.329909451500482"><ele>71.0</ele><time>2026-04-11T12:50:39.001Z</time></trkpt><trkpt lat="45.15817383502606" lon="9.329890335453648"><ele>71.0</ele><time>2026-04-11T12:50:40.001Z</time></trkpt><trkpt lat="45.15808893330887" lon="9.329871012125945"><ele>71.0</ele><time>2026-04-11T12:50:41.001Z</time></trkpt><trkpt lat="45.1579995035474" lon="9.329851757861618"><ele>71.0</ele><time>2026-04-11T12:50:42.001Z</time></trkpt><trkpt lat="45.15790614101385" lon="9.329830840301131"><ele>71.0</ele><time>2026-04-11T12:50:43.001Z</time></trkpt><trkpt lat="45.15780653528289" lon="9.329811512928133"><ele>70.8</ele><time>2026-04-11T12:50:44.001Z</time></trkpt><trkpt lat="45.157708716958545" lon="9.329786563841155"><ele>70.6</ele><time>2026-04-11T12:50:45.001Z</time></trkpt><trkpt lat="45.157615711344405" lon="9.329761224473636"><ele>70.4</ele><time>2026-04-11T12:50:46.001Z</time></trkpt><trkpt lat="45.1575201588936" lon="9.329733106255285"><ele>70.2</ele><time>2026-04-11T12:50:47.001Z</time></trkpt><trkpt lat="45.157420866791675" lon="9.329704032439777"><ele>70.0</ele><time>2026-04-11T12:50:48.001Z</time></trkpt><trkpt lat="45.157314447548174" lon="9.329681417198497"><ele>69.8</ele><time>2026-04-11T12:50:49.001Z</time></trkpt><trkpt lat="45.157213105337654" lon="9.329661409411747"><ele>69.6</ele><time>2026-04-11T12:50:50.001Z</time></trkpt><trkpt lat="45.15710867254969" lon="9.32963693718051"><ele>69.4</ele><time>2026-04-11T12:50:51.001Z</time></trkpt><trkpt lat="45.157007164474564" lon="9.32961326737885"><ele>69.2</ele><time>2026-04-11T12:50:52.001Z</time></trkpt><trkpt lat="45.15690907073048" lon="9.329586448903289"><ele>69.0</ele><time>2026-04-11T12:50:53.001Z</time></trkpt><trkpt lat="45.156808555007515" lon="9.329561226121761"><ele>69.0</ele><time>2026-04-11T12:50:54.001Z</time></trkpt><trkpt lat="45.15670925980786" lon="9.329536789000484"><ele>69.0</ele><time>2026-04-11T12:50:55.001Z</time></trkpt><trkpt lat="45.15661536033737" lon="9.329519053934169"><ele>69.0</ele><time>2026-04-11T12:50:56.001Z</time></trkpt><trkpt lat="45.15650722456687" lon="9.329514297884225"><ele>69.0</ele><time>2026-04-11T12:50:57.001Z</time></trkpt><trkpt lat="45.15639242559849" lon="9.329496652648169"><ele>69.0</ele><time>2026-04-11T12:50:58.001Z</time></trkpt><trkpt lat="45.15626471230412" lon="9.329462038731899"><ele>69.0</ele><time>2026-04-11T12:50:59.001Z</time></trkpt><trkpt lat="45.15613219445208" lon="9.329427350770278"><ele>69.0</ele><time>2026-04-11T12:51:00.001Z</time></trkpt><trkpt lat="45.1559954823002" lon="9.329388075496"><ele>69.0</ele><time>2026-04-11T12:51:01.001Z</time></trkpt><trkpt lat="45.15586388289745" lon="9.329354555166901"><ele>69.0</ele><time>2026-04-11T12:51:02.001Z</time></trkpt><trkpt lat="45.155743975297995" lon="9.329326864757439"><ele>69.4</ele><time>2026-04-11T12:51:03.001Z</time></trkpt><trkpt lat="45.15563831482106" lon="9.329300422380348"><ele>69.80000000000001</ele><time>2026-04-11T12:51:04.001Z</time></trkpt><trkpt lat="45.15553543537311" lon="9.329272672779904"><ele>70.19999999999999</ele><time>2026-04-11T12:51:05.001Z</time></trkpt><trkpt lat="45.15544369312166" lon="9.329250459093982"><ele>70.6</ele><time>2026-04-11T12:51:06.001Z</time></trkpt><trkpt lat="45.15535558090209" lon="9.329223230943203"><ele>71.0</ele><time>2026-04-11T12:51:07.001Z</time></trkpt><trkpt lat="45.15527275620048" lon="9.32920209620853"><ele>71.0</ele><time>2026-04-11T12:51:08.001Z</time></trkpt><trkpt lat="45.155178155554495" lon="9.329179877961185"><ele>71.0</ele><time>2026-04-11T12:51:09.001Z</time></trkpt><trkpt lat="45.15509112914803" lon="9.329156312307132"><ele>71.0</ele><time>2026-04-11T12:51:10.001Z</time></trkpt><trkpt lat="45.15500397452635" lon="9.32913589354854"><ele>71.0</ele><time>2026-04-11T12:51:11.001Z</time></trkpt><trkpt lat="45.15491668573675" lon="9.329115145921067"><ele>71.0</ele><time>2026-04-11T12:51:12.002Z</time></trkpt><trkpt lat="45.154820544984084" lon="9.329090227571246"><ele>70.8</ele><time>2026-04-11T12:51:13Z</time></trkpt><trkpt lat="45.15472395790039" lon="9.329066093239572"><ele>70.6</ele><time>2026-04-11T12:51:14Z</time></trkpt><trkpt lat="45.154620516976614" lon="9.32904055877792"><ele>70.4</ele><time>2026-04-11T12:51:15Z</time></trkpt><trkpt lat="45.15451556615991" lon="9.329010975279248"><ele>70.2</ele><time>2026-04-11T12:51:16Z</time></trkpt><trkpt lat="45.154408678136804" lon="9.32898402854668"><ele>70.0</ele><time>2026-04-11T12:51:17Z</time></trkpt><trkpt lat="45.15430254280407" lon="9.328958616273626"><ele>70.0</ele><time>2026-04-11T12:51:18Z</time></trkpt><trkpt lat="45.154192589877056" lon="9.328934755343905"><ele>70.0</ele><time>2026-04-11T12:51:19Z</time></trkpt><trkpt lat="45.154081535335735" lon="9.32891034833574"><ele>70.0</ele><time>2026-04-11T12:51:20Z</time></trkpt><trkpt lat="45.15397196749064" lon="9.328881191903562"><ele>70.0</ele><time>2026-04-11T12:51:21Z</time></trkpt><trkpt lat="45.15386565407635" lon="9.328853334933061"><ele>70.0</ele><time>2026-04-11T12:51:22Z</time></trkpt><trkpt lat="45.153756646115866" lon="9.328828514859378"><ele>70.0</ele><time>2026-04-11T12:51:23Z</time></trkpt><trkpt lat="45.153651429034284" lon="9.328800292540997"><ele>70.0</ele><time>2026-04-11T12:51:24Z</time></trkpt><trkpt lat="45.153554196308676" lon="9.328771577959879"><ele>70.0</ele><time>2026-04-11T12:51:25Z</time></trkpt><trkpt lat="45.15345866239419" lon="9.328751138648562"><ele>70.0</ele><time>2026-04-11T12:51:26Z</time></trkpt><trkpt lat="45.1533738762991" lon="9.328730645897226"><ele>70.0</ele><time>2026-04-11T12:51:27Z</time></trkpt><trkpt lat="45.15330913601445" lon="9.328676144341657"><ele>70.0</ele><time>2026-04-11T12:51:28Z</time></trkpt><trkpt lat="45.15321816255834" lon="9.328647143387267"><ele>70.0</ele><time>2026-04-11T12:51:30Z</time></trkpt><trkpt lat="45.15314433247121" lon="9.328623608149003"><ele>70.0</ele><time>2026-04-11T12:51:32Z</time></trkpt><trkpt lat="45.15306715970299" lon="9.32859906123641"><ele>70.0</ele><time>2026-04-11T12:51:34Z</time></trkpt><trkpt lat="45.15298940244617" lon="9.328577049075284"><ele>70.0</ele><time>2026-04-11T12:51:36Z</time></trkpt><trkpt lat="45.15290837207636" lon="9.328556576401088"><ele>70.0</ele><time>2026-04-11T12:51:38Z</time></trkpt><trkpt lat="45.15284596049615" lon="9.328541924654235"><ele>70.0</ele><time>2026-04-11T12:51:40Z</time></trkpt><trkpt lat="45.15278372250336" lon="9.328527313508546"><ele>70.0</ele><time>2026-04-11T12:51:42Z</time></trkpt><trkpt lat="45.15271245115467" lon="9.32851172896167"><ele>70.0</ele><time>2026-04-11T12:51:44Z</time></trkpt><trkpt lat="45.1526369148142" lon="9.328494933637511"><ele>70.0</ele><time>2026-04-11T12:51:46Z</time></trkpt><trkpt lat="45.1525609487257" lon="9.328478042755199"><ele>70.0</ele><time>2026-04-11T12:51:48Z</time></trkpt><trkpt lat="45.152490731842505" lon="9.328460369900881"><ele>70.0</ele><time>2026-04-11T12:51:50Z</time></trkpt><trkpt lat="45.15241234329775" lon="9.328439610007221"><ele>70.0</ele><time>2026-04-11T12:51:52Z</time></trkpt><trkpt lat="45.15234169919726" lon="9.328416490632438"><ele>70.0</ele><time>2026-04-11T12:51:54Z</time></trkpt><trkpt lat="45.15226711517797" lon="9.328394234408313"><ele>70.0</ele><time>2026-04-11T12:51:57Z</time></trkpt><trkpt lat="45.15219403577968" lon="9.328382038652247"><ele>70.0</ele><time>2026-04-11T12:52:01Z</time></trkpt><trkpt lat="45.152301816978245" lon="9.328408488631451"><ele>70.0</ele><time>2026-04-11T12:52:27.001Z</time></trkpt><trkpt lat="45.15221675467644" lon="9.328441520875586"><ele>70.0</ele><time>2026-04-11T12:52:28.001Z</time></trkpt><trkpt lat="45.152397373171375" lon="9.328449787891945"><ele>70.0</ele><time>2026-04-11T12:52:29.001Z</time></trkpt><trkpt lat="45.15250818622832" lon="9.328481869852933"><ele>70.0</ele><time>2026-04-11T12:52:31.001Z</time></trkpt><trkpt lat="45.15262700708598" lon="9.328521186238529"><ele>70.0</ele><time>2026-04-11T12:52:33.001Z</time></trkpt><trkpt lat="45.152742301524675" lon="9.328547751175531"><ele>70.0</ele><time>2026-04-11T12:52:35.001Z</time></trkpt><trkpt lat="45.1528704494288" lon="9.32856607634143"><ele>70.0</ele><time>2026-04-11T12:52:37.001Z</time></trkpt><trkpt lat="45.152947718205304" lon="9.328586027733742"><ele>70.0</ele><time>2026-04-11T12:52:38.001Z</time></trkpt><trkpt lat="45.15301988858812" lon="9.328607666064592"><ele>70.0</ele><time>2026-04-11T12:52:39.001Z</time></trkpt><trkpt lat="45.15309526623043" lon="9.328628616170635"><ele>70.0</ele><time>2026-04-11T12:52:40.001Z</time></trkpt><trkpt lat="45.15317635087272" lon="9.328655482200702"><ele>70.0</ele><time>2026-04-11T12:52:41.001Z</time></trkpt><trkpt lat="45.153249450474135" lon="9.3286798136022"><ele>70.0</ele><time>2026-04-11T12:52:42.001Z</time></trkpt><trkpt lat="45.15333023547354" lon="9.328711878116817"><ele>70.0</ele><time>2026-04-11T12:52:43.001Z</time></trkpt><trkpt lat="45.15341285904864" lon="9.328738517000145"><ele>70.0</ele><time>2026-04-11T12:52:44.001Z</time></trkpt><trkpt lat="45.1534979728752" lon="9.328758204260268"><ele>70.0</ele><time>2026-04-11T12:52:45.001Z</time></trkpt><trkpt lat="45.15358477986324" lon="9.328778227372776"><ele>70.0</ele><time>2026-04-11T12:52:46.001Z</time></trkpt><trkpt lat="45.15367079577074" lon="9.328797514563524"><ele>70.0</ele><time>2026-04-11T12:52:47.001Z</time></trkpt><trkpt lat="45.15375551453127" lon="9.328816115039103"><ele>70.0</ele><time>2026-04-11T12:52:48.001Z</time></trkpt><trkpt lat="45.15384465886739" lon="9.328840867525962"><ele>70.0</ele><time>2026-04-11T12:52:49.001Z</time></trkpt><trkpt lat="45.15393110506599" lon="9.328863552274925"><ele>70.0</ele><time>2026-04-11T12:52:50.001Z</time></trkpt><trkpt lat="45.15401807702127" lon="9.328885886745228"><ele>70.0</ele><time>2026-04-11T12:52:51.001Z</time></trkpt><trkpt lat="45.15410947357754" lon="9.328908786729011"><ele>70.0</ele><time>2026-04-11T12:52:52.001Z</time></trkpt><trkpt lat="45.154197779541995" lon="9.328934017929905"><ele>70.0</ele><time>2026-04-11T12:52:53.001Z</time></trkpt><trkpt lat="45.15428471589439" lon="9.328956509517917"><ele>70.0</ele><time>2026-04-11T12:52:54.001Z</time></trkpt><trkpt lat="45.154373213678426" lon="9.328974489056522"><ele>70.0</ele><time>2026-04-11T12:52:55.001Z</time></trkpt><trkpt lat="45.15446401809494" lon="9.328993701461265"><ele>70.0</ele><time>2026-04-11T12:52:56.001Z</time></trkpt><trkpt lat="45.154559057007624" lon="9.329021597126083"><ele>70.0</ele><time>2026-04-11T12:52:57.001Z</time></trkpt><trkpt lat="45.154646456063226" lon="9.329044400476532"><ele>70.0</ele><time>2026-04-11T12:52:58.001Z</time></trkpt><trkpt lat="45.15474292746719" lon="9.329062261080248"><ele>70.0</ele><time>2026-04-11T12:52:59.001Z</time></trkpt><trkpt lat="45.15483051033118" lon="9.329088040001238"><ele>70.2</ele><time>2026-04-11T12:53:00.001Z</time></trkpt><trkpt lat="45.15492358711856" lon="9.329114440217198"><ele>70.4</ele><time>2026-04-11T12:53:01.001Z</time></trkpt><trkpt lat="45.155018902670065" lon="9.329143036073951"><ele>70.6</ele><time>2026-04-11T12:53:02.001Z</time></trkpt><trkpt lat="45.1551144111041" lon="9.329181882127823"><ele>70.8</ele><time>2026-04-11T12:53:03.001Z</time></trkpt><trkpt lat="45.15521489959696" lon="9.329210335225623"><ele>71.0</ele><time>2026-04-11T12:53:04.001Z</time></trkpt><trkpt lat="45.15531625983761" lon="9.329234960899964"><ele>71.0</ele><time>2026-04-11T12:53:05.001Z</time></trkpt><trkpt lat="45.15542441705109" lon="9.329262324372854"><ele>71.0</ele><time>2026-04-11T12:53:06.001Z</time></trkpt><trkpt lat="45.15553907102835" lon="9.329290914134619"><ele>71.0</ele><time>2026-04-11T12:53:07.001Z</time></trkpt><trkpt lat="45.15565566398817" lon="9.329321873161588"><ele>71.0</ele><time>2026-04-11T12:53:08.001Z</time></trkpt><trkpt lat="45.15578199852742" lon="9.329352948755286"><ele>70.5</ele><time>2026-04-11T12:53:09.001Z</time></trkpt><trkpt lat="45.1559007032336" lon="9.32938667200548"><ele>70.0</ele><time>2026-04-11T12:53:10.001Z</time></trkpt><trkpt lat="45.15601499211893" lon="9.32941308609226"><ele>69.5</ele><time>2026-04-11T12:53:11.001Z</time></trkpt><trkpt lat="45.15612894878949" lon="9.329438892014926"><ele>69.0</ele><time>2026-04-11T12:53:12.001Z</time></trkpt><trkpt lat="45.15623851038161" lon="9.329466077805147"><ele>69.0</ele><time>2026-04-11T12:53:13.001Z</time></trkpt><trkpt lat="45.15633742630746" lon="9.32949198278139"><ele>69.0</ele><time>2026-04-11T12:53:14.001Z</time></trkpt><trkpt lat="45.1564342188863" lon="9.329515980966818"><ele>69.0</ele><time>2026-04-11T12:53:15.002Z</time></trkpt><trkpt lat="45.156531735764425" lon="9.329536898214448"><ele>69.0</ele><time>2026-04-11T12:53:16.002Z</time></trkpt><trkpt lat="45.156634135570926" lon="9.329545369951868"><ele>69.0</ele><time>2026-04-11T12:53:17.002Z</time></trkpt><trkpt lat="45.15674268432539" lon="9.329555478773392"><ele>69.0</ele><time>2026-04-11T12:53:18.002Z</time></trkpt><trkpt lat="45.15685213088678" lon="9.329581308567864"><ele>69.0</ele><time>2026-04-11T12:53:19Z</time></trkpt><trkpt lat="45.156967848947225" lon="9.329613293228975"><ele>69.0</ele><time>2026-04-11T12:53:20Z</time></trkpt><trkpt lat="45.157090664212554" lon="9.32964363097099"><ele>69.0</ele><time>2026-04-11T12:53:21Z</time></trkpt><trkpt lat="45.15721539097176" lon="9.329671717423146"><ele>69.0</ele><time>2026-04-11T12:53:22Z</time></trkpt><trkpt lat="45.15732914482506" lon="9.329700560123738"><ele>69.0</ele><time>2026-04-11T12:53:23Z</time></trkpt><trkpt lat="45.15743228501169" lon="9.329727839332143"><ele>69.0</ele><time>2026-04-11T12:53:24Z</time></trkpt><trkpt lat="45.15753234661565" lon="9.32975161939295"><ele>69.0</ele><time>2026-04-11T12:53:25Z</time></trkpt><trkpt lat="45.157633901846694" lon="9.329778251032295"><ele>69.0</ele><time>2026-04-11T12:53:26Z</time></trkpt><trkpt lat="45.15774585012314" lon="9.32981140157992"><ele>69.2</ele><time>2026-04-11T12:53:27Z</time></trkpt><trkpt lat="45.15786427887648" lon="9.329843333215287"><ele>69.4</ele><time>2026-04-11T12:53:28Z</time></trkpt><trkpt lat="45.15796749096673" lon="9.329864854470475"><ele>69.6</ele><time>2026-04-11T12:53:29Z</time></trkpt><trkpt lat="45.158060393726544" lon="9.329886737901596"><ele>69.8</ele><time>2026-04-11T12:53:30Z</time></trkpt><trkpt lat="45.1581459094238" lon="9.329906185676622"><ele>70.0</ele><time>2026-04-11T12:53:31Z</time></trkpt><trkpt lat="45.15821631581226" lon="9.329927496500309"><ele>70.2</ele><time>2026-04-11T12:53:32Z</time></trkpt><trkpt lat="45.158286904124" lon="9.32994207811409"><ele>70.4</ele><time>2026-04-11T12:53:33Z</time></trkpt><trkpt lat="45.158399156089786" lon="9.329968662378777"><ele>70.6</ele><time>2026-04-11T12:53:35Z</time></trkpt><trkpt lat="45.158490682081066" lon="9.329997534709145"><ele>70.8</ele><time>2026-04-11T12:53:37Z</time></trkpt><trkpt lat="45.15853063540014" lon="9.330116394836784"><ele>71.0</ele><time>2026-04-11T12:53:40Z</time></trkpt><trkpt lat="45.15851514865456" lon="9.330251762010766"><ele>71.0</ele><time>2026-04-11T12:53:42Z</time></trkpt><trkpt lat="45.15850462551815" lon="9.33035755151181"><ele>71.0</ele><time>2026-04-11T12:53:43Z</time></trkpt><trkpt lat="45.15849550888684" lon="9.330488098158337"><ele>71.0</ele><time>2026-04-11T12:53:44Z</time></trkpt><trkpt lat="45.15848467913572" lon="9.330638855094529"><ele>71.0</ele><time>2026-04-11T12:53:45Z</time></trkpt><trkpt lat="45.158470842279286" lon="9.330794607042643"><ele>71.0</ele><time>2026-04-11T12:53:46Z</time></trkpt><trkpt lat="45.158458154575335" lon="9.33096624546202"><ele>70.75</ele><time>2026-04-11T12:53:47Z</time></trkpt><trkpt lat="45.158445164301625" lon="9.331140049529173"><ele>70.5</ele><time>2026-04-11T12:53:48Z</time></trkpt><trkpt lat="45.15843064934093" lon="9.331319529205993"><ele>70.25</ele><time>2026-04-11T12:53:49Z</time></trkpt><trkpt lat="45.158412356122405" lon="9.331501430116539"><ele>70.0</ele><time>2026-04-11T12:53:50Z</time></trkpt><trkpt lat="45.158397313212724" lon="9.33169348326593"><ele>70.0</ele><time>2026-04-11T12:53:51Z</time></trkpt><trkpt lat="45.158383121378684" lon="9.331888333678904"><ele>70.0</ele><time>2026-04-11T12:53:52Z</time></trkpt><trkpt lat="45.15836623497312" lon="9.332083304047737"><ele>70.0</ele><time>2026-04-11T12:53:53Z</time></trkpt><trkpt lat="45.158348545942495" lon="9.332296196061781"><ele>70.0</ele><time>2026-04-11T12:53:54Z</time></trkpt><trkpt lat="45.15832891126008" lon="9.332522693604018"><ele>70.0</ele><time>2026-04-11T12:53:55Z</time></trkpt><trkpt lat="45.15830965653093" lon="9.332747661410897"><ele>70.0</ele><time>2026-04-11T12:53:56Z</time></trkpt><trkpt lat="45.15828863937898" lon="9.33298168844065"><ele>70.0</ele><time>2026-04-11T12:53:57Z</time></trkpt><trkpt lat="45.15827046772443" lon="9.333221801345182"><ele>70.0</ele><time>2026-04-11T12:53:58Z</time></trkpt><trkpt lat="45.15824952380681" lon="9.33346659060611"><ele>70.0</ele><time>2026-04-11T12:53:59Z</time></trkpt><trkpt lat="45.15822636580536" lon="9.333714262183928"><ele>70.0</ele><time>2026-04-11T12:54:00Z</time></trkpt><trkpt lat="45.158205277421445" lon="9.333960930837579"><ele>70.33333333333333</ele><time>2026-04-11T12:54:01Z</time></trkpt><trkpt lat="45.15818369532603" lon="9.334211566963997"><ele>70.66666666666667</ele><time>2026-04-11T12:54:02Z</time></trkpt><trkpt lat="45.15816233582008" lon="9.334443452486314"><ele>71.0</ele><time>2026-04-11T12:54:03Z</time></trkpt><trkpt lat="45.15814164924081" lon="9.334669221964782"><ele>71.33333333333334</ele><time>2026-04-11T12:54:04Z</time></trkpt><trkpt lat="45.15812204458583" lon="9.334895470626186"><ele>71.66666666666667</ele><time>2026-04-11T12:54:05Z</time></trkpt><trkpt lat="45.158101825024595" lon="9.335126111588314"><ele>72.0</ele><time>2026-04-11T12:54:06Z</time></trkpt><trkpt lat="45.15808133324772" lon="9.335359119645224"><ele>71.66666666666667</ele><time>2026-04-11T12:54:07Z</time></trkpt><trkpt lat="45.15805925155986" lon="9.335603552301686"><ele>71.33333333333334</ele><time>2026-04-11T12:54:08.001Z</time></trkpt><trkpt lat="45.158036813666214" lon="9.33584425875954"><ele>71.0</ele><time>2026-04-11T12:54:09.001Z</time></trkpt><trkpt lat="45.15801438931271" lon="9.336081867698839"><ele>71.0</ele><time>2026-04-11T12:54:10.001Z</time></trkpt><trkpt lat="45.15799398674549" lon="9.336319931648127"><ele>71.0</ele><time>2026-04-11T12:54:11.001Z</time></trkpt><trkpt lat="45.15797126395777" lon="9.336562818691476"><ele>71.0</ele><time>2026-04-11T12:54:12.001Z</time></trkpt><trkpt lat="45.157947970981596" lon="9.336809237854489"><ele>70.66666666666667</ele><time>2026-04-11T12:54:13.001Z</time></trkpt><trkpt lat="45.157927166895156" lon="9.337051024445312"><ele>70.33333333333333</ele><time>2026-04-11T12:54:14.001Z</time></trkpt><trkpt lat="45.157905725599534" lon="9.337293819640289"><ele>70.0</ele><time>2026-04-11T12:54:15.001Z</time></trkpt><trkpt lat="45.157882497360035" lon="9.33753683870638"><ele>70.66666666666666</ele><time>2026-04-11T12:54:16.001Z</time></trkpt><trkpt lat="45.157860964498056" lon="9.337779600878177"><ele>71.33333333333333</ele><time>2026-04-11T12:54:17.001Z</time></trkpt><trkpt lat="45.157839460045864" lon="9.338023570059113"><ele>72.0</ele><time>2026-04-11T12:54:18.001Z</time></trkpt><trkpt lat="45.157818151101495" lon="9.338267242179734"><ele>71.0</ele><time>2026-04-11T12:54:19.001Z</time></trkpt><trkpt lat="45.157796398827855" lon="9.338508674464716"><ele>70.0</ele><time>2026-04-11T12:54:20.001Z</time></trkpt><trkpt lat="45.15777363401617" lon="9.338747572397468"><ele>69.0</ele><time>2026-04-11T12:54:21.001Z</time></trkpt><trkpt lat="45.15775173327305" lon="9.33898568590957"><ele>69.0</ele><time>2026-04-11T12:54:22.001Z</time></trkpt><trkpt lat="45.15773051389879" lon="9.339225188982596"><ele>69.0</ele><time>2026-04-11T12:54:23.001Z</time></trkpt><trkpt lat="45.15770867244163" lon="9.339464122938027"><ele>69.0</ele><time>2026-04-11T12:54:24.001Z</time></trkpt><trkpt lat="45.15768678358888" lon="9.339701645749713"><ele>69.33333333333333</ele><time>2026-04-11T12:54:25.001Z</time></trkpt><trkpt lat="45.157664564148504" lon="9.339940594366043"><ele>69.66666666666666</ele><time>2026-04-11T12:54:26.001Z</time></trkpt><trkpt lat="45.15764201990569" lon="9.340178968416886"><ele>70.0</ele><time>2026-04-11T12:54:27.001Z</time></trkpt><trkpt lat="45.157621253664736" lon="9.340417214112167"><ele>70.33333333333333</ele><time>2026-04-11T12:54:28.001Z</time></trkpt><trkpt lat="45.15760105915138" lon="9.340656994640991"><ele>70.66666666666667</ele><time>2026-04-11T12:54:29.001Z</time></trkpt><trkpt lat="45.15758124308436" lon="9.340896596557501"><ele>71.0</ele><time>2026-04-11T12:54:30.001Z</time></trkpt><trkpt lat="45.15755944522232" lon="9.341135795076934"><ele>71.0</ele><time>2026-04-11T12:54:31.001Z</time></trkpt><trkpt lat="45.15753853461776" lon="9.341371310880495"><ele>71.0</ele><time>2026-04-11T12:54:32.001Z</time></trkpt><trkpt lat="45.157517875512575" lon="9.34161036162743"><ele>71.0</ele><time>2026-04-11T12:54:33.001Z</time></trkpt><trkpt lat="45.15749571190789" lon="9.341844063938199"><ele>71.0</ele><time>2026-04-11T12:54:34.001Z</time></trkpt><trkpt lat="45.15747766873394" lon="9.342076378939996"><ele>71.0</ele><time>2026-04-11T12:54:35.001Z</time></trkpt><trkpt lat="45.157460944664535" lon="9.342311222216328"><ele>71.0</ele><time>2026-04-11T12:54:36.001Z</time></trkpt><trkpt lat="45.157442710909116" lon="9.342544823860742"><ele>71.0</ele><time>2026-04-11T12:54:37.001Z</time></trkpt><trkpt lat="45.15742115604099" lon="9.342783706429728"><ele>71.0</ele><time>2026-04-11T12:54:38.001Z</time></trkpt><trkpt lat="45.1573981674709" lon="9.343028385419911"><ele>71.0</ele><time>2026-04-11T12:54:39.001Z</time></trkpt><trkpt lat="45.157373405636804" lon="9.343269899909759"><ele>70.66666666666667</ele><time>2026-04-11T12:54:40.001Z</time></trkpt><trkpt lat="45.157341972195475" lon="9.343512899829742"><ele>70.33333333333333</ele><time>2026-04-11T12:54:41.001Z</time></trkpt><trkpt lat="45.15731020911312" lon="9.34375723569452"><ele>70.0</ele><time>2026-04-11T12:54:42.001Z</time></trkpt><trkpt lat="45.15728439036165" lon="9.344000978883809"><ele>70.0</ele><time>2026-04-11T12:54:43.001Z</time></trkpt><trkpt lat="45.1572574662966" lon="9.344243730227205"><ele>70.0</ele><time>2026-04-11T12:54:44.001Z</time></trkpt><trkpt lat="45.15723070492268" lon="9.344485879449465"><ele>70.0</ele><time>2026-04-11T12:54:45.001Z</time></trkpt><trkpt lat="45.15720626059257" lon="9.344725042528262"><ele>69.66666666666666</ele><time>2026-04-11T12:54:46.001Z</time></trkpt><trkpt lat="45.15718354951027" lon="9.344961415877151"><ele>69.33333333333333</ele><time>2026-04-11T12:54:47.001Z</time></trkpt><trkpt lat="45.15715642216308" lon="9.345201801016206"><ele>69.0</ele><time>2026-04-11T12:54:48.001Z</time></trkpt><trkpt lat="45.157136085223904" lon="9.345441442209944"><ele>69.33333333333333</ele><time>2026-04-11T12:54:49.001Z</time></trkpt><trkpt lat="45.157111955675425" lon="9.345679786749514"><ele>69.66666666666666</ele><time>2026-04-11T12:54:50.001Z</time></trkpt><trkpt lat="45.157088568396226" lon="9.345909349065733"><ele>70.0</ele><time>2026-04-11T12:54:51.001Z</time></trkpt><trkpt lat="45.15706245183054" lon="9.34613222709648"><ele>70.0</ele><time>2026-04-11T12:54:52.001Z</time></trkpt><trkpt lat="45.15703323228652" lon="9.346340748626604"><ele>70.0</ele><time>2026-04-11T12:54:53.001Z</time></trkpt><trkpt lat="45.156996456870374" lon="9.346528037337169"><ele>70.0</ele><time>2026-04-11T12:54:54.001Z</time></trkpt><trkpt lat="45.156939309425766" lon="9.346695627858816"><ele>70.0</ele><time>2026-04-11T12:54:55.001Z</time></trkpt><trkpt lat="45.156863064563964" lon="9.346832162639163"><ele>70.25</ele><time>2026-04-11T12:54:56.001Z</time></trkpt><trkpt lat="45.15677774177396" lon="9.346973581512344"><ele>70.5</ele><time>2026-04-11T12:54:57.001Z</time></trkpt><trkpt lat="45.156650007957566" lon="9.347074235563035"><ele>70.75</ele><time>2026-04-11T12:54:58.001Z</time></trkpt><trkpt lat="45.1565281474113" lon="9.34719438646048"><ele>71.0</ele><time>2026-04-11T12:54:59.001Z</time></trkpt><trkpt lat="45.15642201952198" lon="9.347350746275657"><ele>71.0</ele><time>2026-04-11T12:55:00.001Z</time></trkpt><trkpt lat="45.156273007718646" lon="9.3474633397779"><ele>71.0</ele><time>2026-04-11T12:55:01.001Z</time></trkpt><trkpt lat="45.15614318232403" lon="9.34760859078985"><ele>71.0</ele><time>2026-04-11T12:55:02.001Z</time></trkpt><trkpt lat="45.15600603240856" lon="9.34776163655969"><ele>71.0</ele><time>2026-04-11T12:55:03.001Z</time></trkpt><trkpt lat="45.155869730506645" lon="9.347914915225214"><ele>71.0</ele><time>2026-04-11T12:55:04.001Z</time></trkpt><trkpt lat="45.15573741086407" lon="9.348064656976582"><ele>71.0</ele><time>2026-04-11T12:55:05.001Z</time></trkpt><trkpt lat="45.15560188279971" lon="9.348218790160644"><ele>70.33333333333334</ele><time>2026-04-11T12:55:06.001Z</time></trkpt><trkpt lat="45.155466223735196" lon="9.348371922311756"><ele>69.66666666666667</ele><time>2026-04-11T12:55:07.001Z</time></trkpt><trkpt lat="45.15532900683232" lon="9.348525093463696"><ele>69.0</ele><time>2026-04-11T12:55:08.001Z</time></trkpt><trkpt lat="45.1551900316714" lon="9.348678182870664"><ele>69.0</ele><time>2026-04-11T12:55:09.001Z</time></trkpt><trkpt lat="45.15505202194029" lon="9.34883426676698"><ele>69.0</ele><time>2026-04-11T12:55:10.001Z</time></trkpt><trkpt lat="45.15491575772705" lon="9.348987279931459"><ele>69.0</ele><time>2026-04-11T12:55:11.001Z</time></trkpt><trkpt lat="45.15478739115575" lon="9.349129122828048"><ele>69.25</ele><time>2026-04-11T12:55:12.001Z</time></trkpt><trkpt lat="45.15467233787829" lon="9.349255879744154"><ele>69.5</ele><time>2026-04-11T12:55:13.001Z</time></trkpt><trkpt lat="45.154566941025486" lon="9.349375531030178"><ele>69.75</ele><time>2026-04-11T12:55:14.002Z</time></trkpt><trkpt lat="45.1544693833836" lon="9.34948514284835"><ele>70.0</ele><time>2026-04-11T12:55:15.002Z</time></trkpt><trkpt lat="45.1543790414814" lon="9.34958560539426"><ele>70.0</ele><time>2026-04-11T12:55:16.002Z</time></trkpt><trkpt lat="45.15430440641323" lon="9.349667171905125"><ele>70.0</ele><time>2026-04-11T12:55:17.002Z</time></trkpt><trkpt lat="45.154237820225745" lon="9.349740448530573"><ele>70.0</ele><time>2026-04-11T12:55:18.002Z</time></trkpt><trkpt lat="45.15418359522001" lon="9.349804405108902"><ele>70.0</ele><time>2026-04-11T12:55:19.002Z</time></trkpt><trkpt lat="45.15409670851841" lon="9.349868507117204"><ele>70.0</ele><time>2026-04-11T12:55:21.002Z</time></trkpt><trkpt lat="45.15403499655726" lon="9.349916640352284"><ele>70.0</ele><time>2026-04-11T12:55:23.002Z</time></trkpt><trkpt lat="45.15398534526955" lon="9.349971975157269"><ele>70.4</ele><time>2026-04-11T12:55:25Z</time></trkpt><trkpt lat="45.15391856019805" lon="9.350046405090488"><ele>70.8</ele><time>2026-04-11T12:55:27Z</time></trkpt><trkpt lat="45.15384804963677" lon="9.350124986962655"><ele>71.2</ele><time>2026-04-11T12:55:29Z</time></trkpt><trkpt lat="45.15379039954356" lon="9.350189236209246"><ele>71.6</ele><time>2026-04-11T12:55:30Z</time></trkpt><trkpt lat="45.15370676756624" lon="9.350282441508288"><ele>72.0</ele><time>2026-04-11T12:55:31Z</time></trkpt><trkpt lat="45.153607118207105" lon="9.35039349767165"><ele>72.0</ele><time>2026-04-11T12:55:32Z</time></trkpt><trkpt lat="45.15349911093473" lon="9.350513868492794"><ele>72.0</ele><time>2026-04-11T12:55:33Z</time></trkpt><trkpt lat="45.15338378301738" lon="9.350642397869876"><ele>72.0</ele><time>2026-04-11T12:55:34Z</time></trkpt><trkpt lat="45.153282473863605" lon="9.35075693175947"><ele>72.0</ele><time>2026-04-11T12:55:35Z</time></trkpt><trkpt lat="45.153156967770066" lon="9.35084857969072"><ele>72.0</ele><time>2026-04-11T12:55:36Z</time></trkpt><trkpt lat="45.15303500001287" lon="9.35092542265621"><ele>72.0</ele><time>2026-04-11T12:55:37Z</time></trkpt><trkpt lat="45.15290933530529" lon="9.350997598472373"><ele>72.0</ele><time>2026-04-11T12:55:38Z</time></trkpt><trkpt lat="45.15277843557209" lon="9.351062461644702"><ele>72.0</ele><time>2026-04-11T12:55:39Z</time></trkpt><trkpt lat="45.15228546812003" lon="9.350466583826513"><ele>72.0</ele><time>2026-04-11T12:55:40Z</time></trkpt><trkpt lat="45.15215674766223" lon="9.350515592588426"><ele>72.0</ele><time>2026-04-11T12:55:41Z</time></trkpt><trkpt lat="45.152042777916314" lon="9.350557450030678"><ele>72.0</ele><time>2026-04-11T12:55:42Z</time></trkpt><trkpt lat="45.15195405903784" lon="9.350586204322054"><ele>72.0</ele><time>2026-04-11T12:55:43Z</time></trkpt><trkpt lat="45.151889290233754" lon="9.350607172057233"><ele>72.0</ele><time>2026-04-11T12:55:44Z</time></trkpt><trkpt lat="45.151821289859576" lon="9.350611700463734"><ele>71.4</ele><time>2026-04-11T12:55:47Z</time></trkpt><trkpt lat="45.15176838424228" lon="9.350520779122808"><ele>70.80000000000001</ele><time>2026-04-11T12:55:49Z</time></trkpt><trkpt lat="45.151736995077684" lon="9.350416046195127"><ele>70.2</ele><time>2026-04-11T12:55:50Z</time></trkpt><trkpt lat="45.15169489601142" lon="9.350289968253787"><ele>69.60000000000001</ele><time>2026-04-11T12:55:51Z</time></trkpt><trkpt lat="45.151633432465964" lon="9.350156297745487"><ele>69.0</ele><time>2026-04-11T12:55:52Z</time></trkpt><trkpt lat="45.151559862783074" lon="9.350002290335949"><ele>69.25</ele><time>2026-04-11T12:55:53Z</time></trkpt><trkpt lat="45.151487783604594" lon="9.349834834373526"><ele>69.5</ele><time>2026-04-11T12:55:54Z</time></trkpt><trkpt lat="45.15141988315709" lon="9.349672561977828"><ele>69.75</ele><time>2026-04-11T12:55:55Z</time></trkpt><trkpt lat="45.151351593377036" lon="9.34951788528351"><ele>70.0</ele><time>2026-04-11T12:55:56Z</time></trkpt><trkpt lat="45.1512621888134" lon="9.34935576194412"><ele>70.0</ele><time>2026-04-11T12:55:57Z</time></trkpt><trkpt lat="45.151158446048726" lon="9.349194129807628"><ele>70.0</ele><time>2026-04-11T12:55:58Z</time></trkpt><trkpt lat="45.1510564025605" lon="9.349038286796377"><ele>70.0</ele><time>2026-04-11T12:55:59Z</time></trkpt><trkpt lat="45.1509606437222" lon="9.348887818065325"><ele>70.0</ele><time>2026-04-11T12:56:00Z</time></trkpt><trkpt lat="45.150865633762415" lon="9.348742396617727"><ele>70.2</ele><time>2026-04-11T12:56:01Z</time></trkpt><trkpt lat="45.15077905613528" lon="9.348606416672864"><ele>70.4</ele><time>2026-04-11T12:56:02Z</time></trkpt><trkpt lat="45.15070862325283" lon="9.34848747669409"><ele>70.6</ele><time>2026-04-11T12:56:03Z</time></trkpt><trkpt lat="45.15065685342839" lon="9.348393638061484"><ele>70.8</ele><time>2026-04-11T12:56:04Z</time></trkpt><trkpt lat="45.15061142027" lon="9.348287355059561"><ele>71.0</ele><time>2026-04-11T12:56:05Z</time></trkpt><trkpt lat="45.15056419699754" lon="9.348138971852203"><ele>71.25</ele><time>2026-04-11T12:56:06Z</time></trkpt><trkpt lat="45.15050234052362" lon="9.347937816308534"><ele>71.5</ele><time>2026-04-11T12:56:07Z</time></trkpt><trkpt lat="45.15043939344155" lon="9.347743763248848"><ele>71.75</ele><time>2026-04-11T12:56:08Z</time></trkpt><trkpt lat="45.150389234102924" lon="9.34759204724144"><ele>72.0</ele><time>2026-04-11T12:56:09Z</time></trkpt><trkpt lat="45.15034275940138" lon="9.347446392434897"><ele>72.0</ele><time>2026-04-11T12:56:10Z</time></trkpt><trkpt lat="45.150292001864045" lon="9.347305250246398"><ele>72.0</ele><time>2026-04-11T12:56:11Z</time></trkpt><trkpt lat="45.15023786233505" lon="9.347148971138116"><ele>72.0</ele><time>2026-04-11T12:56:12Z</time></trkpt><trkpt lat="45.15019061229287" lon="9.347014096074282"><ele>72.0</ele><time>2026-04-11T12:56:13Z</time></trkpt><trkpt lat="45.150148607102274" lon="9.34688860089468"><ele>72.0</ele><time>2026-04-11T12:56:14Z</time></trkpt><trkpt lat="45.15010513093661" lon="9.346761503047713"><ele>72.0</ele><time>2026-04-11T12:56:15Z</time></trkpt><trkpt lat="45.15006044799227" lon="9.346638930362026"><ele>72.0</ele><time>2026-04-11T12:56:16Z</time></trkpt><trkpt lat="45.15000911099609" lon="9.34651100626954"><ele>72.0</ele><time>2026-04-11T12:56:17Z</time></trkpt><trkpt lat="45.149961852711776" lon="9.346397689487851"><ele>72.0</ele><time>2026-04-11T12:56:18Z</time></trkpt><trkpt lat="45.14992231622209" lon="9.346274452950567"><ele>72.0</ele><time>2026-04-11T12:56:19Z</time></trkpt><trkpt lat="45.14987943953417" lon="9.346143570983179"><ele>71.6</ele><time>2026-04-11T12:56:20.001Z</time></trkpt><trkpt lat="45.1498340365848" lon="9.346009296486303"><ele>71.2</ele><time>2026-04-11T12:56:21.001Z</time></trkpt><trkpt lat="45.149783609748766" lon="9.34586998615211"><ele>70.8</ele><time>2026-04-11T12:56:22.001Z</time></trkpt><trkpt lat="45.14973530620325" lon="9.345734310956212"><ele>70.4</ele><time>2026-04-11T12:56:23.001Z</time></trkpt><trkpt lat="45.149687353583126" lon="9.34559528793041"><ele>70.0</ele><time>2026-04-11T12:56:24.001Z</time></trkpt><trkpt lat="45.14964398807561" lon="9.345446185983342"><ele>69.8</ele><time>2026-04-11T12:56:25.001Z</time></trkpt><trkpt lat="45.14960258742687" lon="9.34530816284877"><ele>69.6</ele><time>2026-04-11T12:56:26.001Z</time></trkpt><trkpt lat="45.149560560863335" lon="9.345179204846492"><ele>69.4</ele><time>2026-04-11T12:56:27.001Z</time></trkpt><trkpt lat="45.14952027032271" lon="9.345057378339273"><ele>69.2</ele><time>2026-04-11T12:56:28.001Z</time></trkpt><trkpt lat="45.14947779208534" lon="9.344932832676397"><ele>69.0</ele><time>2026-04-11T12:56:29.001Z</time></trkpt><trkpt lat="45.149431965212976" lon="9.34481141486024"><ele>69.2</ele><time>2026-04-11T12:56:30.001Z</time></trkpt><trkpt lat="45.14938424116408" lon="9.34468722187699"><ele>69.4</ele><time>2026-04-11T12:56:31.001Z</time></trkpt><trkpt lat="45.149347914933436" lon="9.344567074905886"><ele>69.6</ele><time>2026-04-11T12:56:32.001Z</time></trkpt><trkpt lat="45.14931284434103" lon="9.344436639801406"><ele>69.8</ele><time>2026-04-11T12:56:33.001Z</time></trkpt><trkpt lat="45.14927149218357" lon="9.344305861564438"><ele>70.0</ele><time>2026-04-11T12:56:34.001Z</time></trkpt><trkpt lat="45.14923389950166" lon="9.344164766947491"><ele>70.0</ele><time>2026-04-11T12:56:35.001Z</time></trkpt><trkpt lat="45.149199272392735" lon="9.344013050003968"><ele>70.0</ele><time>2026-04-11T12:56:36.001Z</time></trkpt><trkpt lat="45.14916884066893" lon="9.34387202483293"><ele>70.0</ele><time>2026-04-11T12:56:37.001Z</time></trkpt><trkpt lat="45.149141371317604" lon="9.343760146064543"><ele>70.0</ele><time>2026-04-11T12:56:38.001Z</time></trkpt><trkpt lat="45.14911396620253" lon="9.343635005264785"><ele>70.0</ele><time>2026-04-11T12:56:39.001Z</time></trkpt><trkpt lat="45.14908218772606" lon="9.343517459176773"><ele>70.0</ele><time>2026-04-11T12:56:40.001Z</time></trkpt><trkpt lat="45.14904947789685" lon="9.343414852649257"><ele>70.0</ele><time>2026-04-11T12:56:41.001Z</time></trkpt><trkpt lat="45.14902212477866" lon="9.343306243318796"><ele>70.0</ele><time>2026-04-11T12:56:42.001Z</time></trkpt><trkpt lat="45.14900859396337" lon="9.343177731590826"><ele>70.0</ele><time>2026-04-11T12:56:43.001Z</time></trkpt><trkpt lat="45.148997571913554" lon="9.342998060327538"><ele>70.0</ele><time>2026-04-11T12:56:44.001Z</time></trkpt><trkpt lat="45.148986517939655" lon="9.342774734903015"><ele>70.0</ele><time>2026-04-11T12:56:45.001Z</time></trkpt><trkpt lat="45.14897093818688" lon="9.34257118439976"><ele>70.0</ele><time>2026-04-11T12:56:46.001Z</time></trkpt><trkpt lat="45.148958058177485" lon="9.34240680403461"><ele>70.0</ele><time>2026-04-11T12:56:47.001Z</time></trkpt><trkpt lat="45.14894347207301" lon="9.342243811422673"><ele>70.0</ele><time>2026-04-11T12:56:48.001Z</time></trkpt><trkpt lat="45.14893530624736" lon="9.342085849559075"><ele>70.2</ele><time>2026-04-11T12:56:49.001Z</time></trkpt><trkpt lat="45.14893572958339" lon="9.34194834453635"><ele>70.4</ele><time>2026-04-11T12:56:50.001Z</time></trkpt><trkpt lat="45.14892644431391" lon="9.341812562902927"><ele>70.6</ele><time>2026-04-11T12:56:51.001Z</time></trkpt><trkpt lat="45.148907207191975" lon="9.341671575168002"><ele>70.8</ele><time>2026-04-11T12:56:52.001Z</time></trkpt><trkpt lat="45.14889031833063" lon="9.341540064492168"><ele>71.0</ele><time>2026-04-11T12:56:53.001Z</time></trkpt><trkpt lat="45.148882562159116" lon="9.341426714334906"><ele>71.0</ele><time>2026-04-11T12:56:54.001Z</time></trkpt><trkpt lat="45.14887784807498" lon="9.341322811858179"><ele>71.0</ele><time>2026-04-11T12:56:55.001Z</time></trkpt><trkpt lat="45.14887049511258" lon="9.34122538773344"><ele>71.0</ele><time>2026-04-11T12:56:56.001Z</time></trkpt><trkpt lat="45.14885331172709" lon="9.341087561948818"><ele>71.0</ele><time>2026-04-11T12:56:58.001Z</time></trkpt><trkpt lat="45.148844550927784" lon="9.340979317493895"><ele>71.0</ele><time>2026-04-11T12:57:01.001Z</time></trkpt><trkpt lat="45.14884187574767" lon="9.34087038587555"><ele>71.0</ele><time>2026-04-11T12:57:18.001Z</time></trkpt><trkpt lat="45.148892966377254" lon="9.340797120306652"><ele>71.0</ele><time>2026-04-11T12:57:19.001Z</time></trkpt><trkpt lat="45.14891544456512" lon="9.34067991092086"><ele>71.0</ele><time>2026-04-11T12:57:20.001Z</time></trkpt><trkpt lat="45.14891631240591" lon="9.340545446056538"><ele>71.0</ele><time>2026-04-11T12:57:21.002Z</time></trkpt><trkpt lat="45.1489290361264" lon="9.340417837054108"><ele>71.0</ele><time>2026-04-11T12:57:22.002Z</time></trkpt><trkpt lat="45.148936994397296" lon="9.340303681388768"><ele>71.0</ele><time>2026-04-11T12:57:23.002Z</time></trkpt><trkpt lat="45.14893871013124" lon="9.340209034163193"><ele>71.0</ele><time>2026-04-11T12:57:24.002Z</time></trkpt><trkpt lat="45.1489305598565" lon="9.340086027655675"><ele>71.0</ele><time>2026-04-11T12:57:26.002Z</time></trkpt><trkpt lat="45.14885307483926" lon="9.339964586473002"><ele>71.0</ele><time>2026-04-11T12:57:30.002Z</time></trkpt><trkpt lat="45.148807300587116" lon="9.339889794001358"><ele>71.0</ele><time>2026-04-11T12:57:30.999Z</time></trkpt><trkpt lat="45.148775768354334" lon="9.339780956362812"><ele>71.0</ele><time>2026-04-11T12:57:31.999Z</time></trkpt><trkpt lat="45.14875041961051" lon="9.339650185795342"><ele>71.0</ele><time>2026-04-11T12:57:32.999Z</time></trkpt><trkpt lat="45.14872749984115" lon="9.339510836881765"><ele>71.0</ele><time>2026-04-11T12:57:33.999Z</time></trkpt><trkpt lat="45.14870123360698" lon="9.339353301106453"><ele>71.0</ele><time>2026-04-11T12:57:34.999Z</time></trkpt><trkpt lat="45.14867649364282" lon="9.339182676889342"><ele>71.0</ele><time>2026-04-11T12:57:35.999Z</time></trkpt><trkpt lat="45.14865478162142" lon="9.339008485654858"><ele>71.0</ele><time>2026-04-11T12:57:36.999Z</time></trkpt><trkpt lat="45.148630955258746" lon="9.33882431756207"><ele>71.25</ele><time>2026-04-11T12:57:37.999Z</time></trkpt><trkpt lat="45.14860701656654" lon="9.338638993180293"><ele>71.5</ele><time>2026-04-11T12:57:38.999Z</time></trkpt><trkpt lat="45.148585626849446" lon="9.338451303330855"><ele>71.75</ele><time>2026-04-11T12:57:39.999Z</time></trkpt><trkpt lat="45.148565252412375" lon="9.338265820731143"><ele>72.0</ele><time>2026-04-11T12:57:40.999Z</time></trkpt><trkpt lat="45.14854375038402" lon="9.338076141419783"><ele>71.75</ele><time>2026-04-11T12:57:42Z</time></trkpt><trkpt lat="45.14852507544505" lon="9.337887593724018"><ele>71.5</ele><time>2026-04-11T12:57:43Z</time></trkpt><trkpt lat="45.14851230283379" lon="9.337709806318921"><ele>71.25</ele><time>2026-04-11T12:57:44Z</time></trkpt><trkpt lat="45.148500945898526" lon="9.337537694239773"><ele>71.0</ele><time>2026-04-11T12:57:45Z</time></trkpt><trkpt lat="45.148495427997" lon="9.337373604410574"><ele>70.75</ele><time>2026-04-11T12:57:46Z</time></trkpt><trkpt lat="45.14849437102964" lon="9.337199999004811"><ele>70.5</ele><time>2026-04-11T12:57:47Z</time></trkpt><trkpt lat="45.14850837449771" lon="9.337018834923661"><ele>70.25</ele><time>2026-04-11T12:57:48Z</time></trkpt><trkpt lat="45.14853154850574" lon="9.336845378168796"><ele>70.0</ele><time>2026-04-11T12:57:49Z</time></trkpt><trkpt lat="45.14855460890742" lon="9.336675226423633"><ele>70.0</ele><time>2026-04-11T12:57:50Z</time></trkpt><trkpt lat="45.148574294010196" lon="9.336500772323012"><ele>70.0</ele><time>2026-04-11T12:57:51Z</time></trkpt><trkpt lat="45.14859125091415" lon="9.33632227086169"><ele>70.0</ele><time>2026-04-11T12:57:52Z</time></trkpt><trkpt lat="45.148613979030706" lon="9.336152418551762"><ele>70.0</ele><time>2026-04-11T12:57:53Z</time></trkpt><trkpt lat="45.14863723697785" lon="9.335984988575555"><ele>69.75</ele><time>2026-04-11T12:57:54Z</time></trkpt><trkpt lat="45.148657223632505" lon="9.335816141455389"><ele>69.5</ele><time>2026-04-11T12:57:55Z</time></trkpt><trkpt lat="45.148671424989054" lon="9.33564999060095"><ele>69.25</ele><time>2026-04-11T12:57:56Z</time></trkpt><trkpt lat="45.14867933685565" lon="9.33548074542921"><ele>69.0</ele><time>2026-04-11T12:57:57Z</time></trkpt><trkpt lat="45.148685249382254" lon="9.335312985426615"><ele>68.4</ele><time>2026-04-11T12:57:58Z</time></trkpt><trkpt lat="45.148684060910355" lon="9.335153372516913"><ele>67.80000000000001</ele><time>2026-04-11T12:57:59Z</time></trkpt><trkpt lat="45.148691038884486" lon="9.335014101533151"><ele>67.19999999999999</ele><time>2026-04-11T12:58:00Z</time></trkpt><trkpt lat="45.14870452299004" lon="9.334886899520995"><ele>66.6</ele><time>2026-04-11T12:58:01Z</time></trkpt><trkpt lat="45.148711345026534" lon="9.33477057605233"><ele>66.0</ele><time>2026-04-11T12:58:02Z</time></trkpt><trkpt lat="45.14871676927786" lon="9.334658385188968"><ele>66.0</ele><time>2026-04-11T12:58:03Z</time></trkpt><trkpt lat="45.14872491117636" lon="9.334550701854312"><ele>66.0</ele><time>2026-04-11T12:58:04Z</time></trkpt><trkpt lat="45.1487347888575" lon="9.334436783904131"><ele>66.0</ele><time>2026-04-11T12:58:05Z</time></trkpt><trkpt lat="45.14874454835719" lon="9.334309051897167"><ele>66.0</ele><time>2026-04-11T12:58:06Z</time></trkpt><trkpt lat="45.148752141715505" lon="9.33417995274944"><ele>66.0</ele><time>2026-04-11T12:58:07Z</time></trkpt><trkpt lat="45.148758153552194" lon="9.334058931320614"><ele>66.0</ele><time>2026-04-11T12:58:08Z</time></trkpt><trkpt lat="45.148760658552135" lon="9.333942760616699"><ele>66.0</ele><time>2026-04-11T12:58:09Z</time></trkpt><trkpt lat="45.14875879904168" lon="9.333831246066046"><ele>66.0</ele><time>2026-04-11T12:58:10Z</time></trkpt><trkpt lat="45.14875678456865" lon="9.333710403068554"><ele>66.0</ele><time>2026-04-11T12:58:11Z</time></trkpt><trkpt lat="45.148760772485275" lon="9.333593584288591"><ele>66.0</ele><time>2026-04-11T12:58:12Z</time></trkpt><trkpt lat="45.148767787511424" lon="9.33347624972078"><ele>66.0</ele><time>2026-04-11T12:58:13Z</time></trkpt><trkpt lat="45.14878113412419" lon="9.333345690658993"><ele>66.0</ele><time>2026-04-11T12:58:14Z</time></trkpt><trkpt lat="45.148800664264314" lon="9.33321240452478"><ele>66.0</ele><time>2026-04-11T12:58:15Z</time></trkpt><trkpt lat="45.148821548957" lon="9.33308431060369"><ele>66.0</ele><time>2026-04-11T12:58:16Z</time></trkpt><trkpt lat="45.14884512649126" lon="9.33295400013706"><ele>66.0</ele><time>2026-04-11T12:58:17Z</time></trkpt><trkpt lat="45.148872613300156" lon="9.332818759165711"><ele>66.0</ele><time>2026-04-11T12:58:18Z</time></trkpt><trkpt lat="45.14889962114631" lon="9.33268847910696"><ele>66.0</ele><time>2026-04-11T12:58:19Z</time></trkpt><trkpt lat="45.14892819120365" lon="9.332559021278547"><ele>65.6</ele><time>2026-04-11T12:58:20Z</time></trkpt><trkpt lat="45.148956932831084" lon="9.33242854569901"><ele>65.19999999999999</ele><time>2026-04-11T12:58:21Z</time></trkpt><trkpt lat="45.14899013337892" lon="9.332300154313085"><ele>64.80000000000001</ele><time>2026-04-11T12:58:22Z</time></trkpt><trkpt lat="45.14903498083799" lon="9.332169955059465"><ele>64.4</ele><time>2026-04-11T12:58:23Z</time></trkpt><trkpt lat="45.14908252459171" lon="9.332052761234696"><ele>64.0</ele><time>2026-04-11T12:58:24Z</time></trkpt><trkpt lat="45.14913115782598" lon="9.331941640575659"><ele>64.0</ele><time>2026-04-11T12:58:25.001Z</time></trkpt><trkpt lat="45.149189614226955" lon="9.331831421632229"><ele>64.0</ele><time>2026-04-11T12:58:26.001Z</time></trkpt><trkpt lat="45.14924384727158" lon="9.33171043977993"><ele>64.0</ele><time>2026-04-11T12:58:27.001Z</time></trkpt><trkpt lat="45.1493040644009" lon="9.331585921507825"><ele>64.0</ele><time>2026-04-11T12:58:28.001Z</time></trkpt><trkpt lat="45.14935551708116" lon="9.331451563711315"><ele>64.0</ele><time>2026-04-11T12:58:29.001Z</time></trkpt><trkpt lat="45.14941631068183" lon="9.331316088108114"><ele>64.0</ele><time>2026-04-11T12:58:30.001Z</time></trkpt><trkpt lat="45.14947414621487" lon="9.331185366236326"><ele>64.0</ele><time>2026-04-11T12:58:31.001Z</time></trkpt><trkpt lat="45.14952465825077" lon="9.331048510216723"><ele>64.0</ele><time>2026-04-11T12:58:32.001Z</time></trkpt><trkpt lat="45.149566253165666" lon="9.330900834296012"><ele>64.0</ele><time>2026-04-11T12:58:33.001Z</time></trkpt><trkpt lat="45.14960513578866" lon="9.330755329740287"><ele>64.0</ele><time>2026-04-11T12:58:34.001Z</time></trkpt><trkpt lat="45.14964265212757" lon="9.3306113765283"><ele>63.800000000000004</ele><time>2026-04-11T12:58:35.001Z</time></trkpt><trkpt lat="45.14968108054664" lon="9.330472088944251"><ele>63.60000000000001</ele><time>2026-04-11T12:58:36.001Z</time></trkpt><trkpt lat="45.149719747795814" lon="9.330334423403222"><ele>63.4</ele><time>2026-04-11T12:58:37.001Z</time></trkpt><trkpt lat="45.14976543701251" lon="9.33019789527472"><ele>63.2</ele><time>2026-04-11T12:58:38.001Z</time></trkpt><trkpt lat="45.149822619870626" lon="9.330066190194733"><ele>63.0</ele><time>2026-04-11T12:58:39.001Z</time></trkpt><trkpt lat="45.14988084538112" lon="9.329938225258513"><ele>64.5</ele><time>2026-04-11T12:58:40.001Z</time></trkpt><trkpt lat="45.149944936504376" lon="9.329810869928163"><ele>66.0</ele><time>2026-04-11T12:58:41.001Z</time></trkpt><trkpt lat="45.15002199423354" lon="9.3296868141325"><ele>67.5</ele><time>2026-04-11T12:58:42.001Z</time></trkpt><trkpt lat="45.150110490235825" lon="9.32956371749971"><ele>69.0</ele><time>2026-04-11T12:58:43.001Z</time></trkpt><trkpt lat="45.15019907040206" lon="9.329433993934273"><ele>69.0</ele><time>2026-04-11T12:58:44.001Z</time></trkpt><trkpt lat="45.15027529398181" lon="9.329310935564667"><ele>69.0</ele><time>2026-04-11T12:58:45.001Z</time></trkpt><trkpt lat="45.15034758611746" lon="9.329199498087734"><ele>69.0</ele><time>2026-04-11T12:58:46.001Z</time></trkpt><trkpt lat="45.150417673478216" lon="9.329092629421643"><ele>69.0</ele><time>2026-04-11T12:58:47.001Z</time></trkpt><trkpt lat="45.15048225190914" lon="9.328992932503846"><ele>69.0</ele><time>2026-04-11T12:58:48.001Z</time></trkpt><trkpt lat="45.15053736405567" lon="9.328908980418388"><ele>69.0</ele><time>2026-04-11T12:58:49.001Z</time></trkpt><trkpt lat="45.150583869309784" lon="9.328838206325692"><ele>69.0</ele><time>2026-04-11T12:58:50.001Z</time></trkpt><trkpt lat="45.150661013151975" lon="9.328723168725919"><ele>69.0</ele><time>2026-04-11T12:58:52.001Z</time></trkpt><trkpt lat="45.15071001319368" lon="9.328662084547414"><ele>69.0</ele><time>2026-04-11T12:59:00.001Z</time></trkpt><trkpt lat="45.150770554445465" lon="9.328534505284377"><ele>69.0</ele><time>2026-04-11T12:59:02.001Z</time></trkpt><trkpt lat="45.15081694595992" lon="9.328458557194192"><ele>69.0</ele><time>2026-04-11T12:59:03.001Z</time></trkpt><trkpt lat="45.15087601398236" lon="9.328374028805943"><ele>69.60000000000001</ele><time>2026-04-11T12:59:04.001Z</time></trkpt><trkpt lat="45.15094310636439" lon="9.328282575092459"><ele>70.2</ele><time>2026-04-11T12:59:05.001Z</time></trkpt><trkpt lat="45.15101404893394" lon="9.328181114724815"><ele>70.80000000000001</ele><time>2026-04-11T12:59:06.001Z</time></trkpt><trkpt lat="45.151085873044785" lon="9.328069836540655"><ele>71.4</ele><time>2026-04-11T12:59:07.001Z</time></trkpt><trkpt lat="45.151157300801884" lon="9.327953705873366"><ele>72.0</ele><time>2026-04-11T12:59:08.001Z</time></trkpt><trkpt lat="45.15123065807582" lon="9.32783035832446"><ele>72.0</ele><time>2026-04-11T12:59:09.001Z</time></trkpt><trkpt lat="45.15130321993205" lon="9.327706755514622"><ele>72.0</ele><time>2026-04-11T12:59:10.001Z</time></trkpt><trkpt lat="45.151375234755925" lon="9.327581305954334"><ele>72.0</ele><time>2026-04-11T12:59:11.001Z</time></trkpt><trkpt lat="45.151447915666935" lon="9.327457406758608"><ele>72.0</ele><time>2026-04-11T12:59:12.001Z</time></trkpt><trkpt lat="45.151521535575455" lon="9.327337690264244"><ele>71.75</ele><time>2026-04-11T12:59:13.001Z</time></trkpt><trkpt lat="45.15159463250328" lon="9.32721581620281"><ele>71.5</ele><time>2026-04-11T12:59:14.001Z</time></trkpt><trkpt lat="45.15166894803823" lon="9.327093900659852"><ele>71.25</ele><time>2026-04-11T12:59:15.001Z</time></trkpt><trkpt lat="45.15174732026246" lon="9.326970518060001"><ele>71.0</ele><time>2026-04-11T12:59:16.001Z</time></trkpt><trkpt lat="45.151827610112356" lon="9.326843573830645"><ele>71.0</ele><time>2026-04-11T12:59:17.001Z</time></trkpt><trkpt lat="45.15190803058039" lon="9.326714011280172"><ele>71.0</ele><time>2026-04-11T12:59:18.001Z</time></trkpt><trkpt lat="45.15198828486167" lon="9.326583050992822"><ele>71.0</ele><time>2026-04-11T12:59:19.001Z</time></trkpt><trkpt lat="45.15206684920652" lon="9.326453582321577"><ele>71.0</ele><time>2026-04-11T12:59:20.002Z</time></trkpt><trkpt lat="45.15214616523275" lon="9.326321190743755"><ele>70.75</ele><time>2026-04-11T12:59:21.002Z</time></trkpt><trkpt lat="45.152227745096624" lon="9.326188318945187"><ele>70.5</ele><time>2026-04-11T12:59:22.002Z</time></trkpt><trkpt lat="45.15230949827596" lon="9.326048728264828"><ele>70.25</ele><time>2026-04-11T12:59:23.002Z</time></trkpt><trkpt lat="45.15238914901167" lon="9.325907315487525"><ele>70.0</ele><time>2026-04-11T12:59:24.002Z</time></trkpt><trkpt lat="45.152470836801406" lon="9.325764359567428"><ele>69.75</ele><time>2026-04-11T12:59:25.002Z</time></trkpt><trkpt lat="45.15255544381923" lon="9.325617555856619"><ele>69.5</ele><time>2026-04-11T12:59:26.002Z</time></trkpt><trkpt lat="45.15265280687577" lon="9.325458854222664"><ele>69.25</ele><time>2026-04-11T12:59:27.002Z</time></trkpt><trkpt lat="45.15274619978786" lon="9.325304346482415"><ele>69.0</ele><time>2026-04-11T12:59:28.002Z</time></trkpt><trkpt lat="45.15284459109652" lon="9.325143377546276"><ele>69.0</ele><time>2026-04-11T12:59:29.002Z</time></trkpt><trkpt lat="45.152945651129365" lon="9.324976964256534"><ele>69.0</ele><time>2026-04-11T12:59:30.002Z</time></trkpt><trkpt lat="45.153045913977515" lon="9.324811131907468"><ele>69.0</ele><time>2026-04-11T12:59:31.002Z</time></trkpt><trkpt lat="45.15314787161557" lon="9.324651578696383"><ele>69.25</ele><time>2026-04-11T12:59:32.002Z</time></trkpt><trkpt lat="45.153250941233686" lon="9.32449679675111"><ele>69.5</ele><time>2026-04-11T12:59:33.002Z</time></trkpt><trkpt lat="45.15335213658104" lon="9.324342734084738"><ele>69.75</ele><time>2026-04-11T12:59:34.002Z</time></trkpt><trkpt lat="45.15345203204622" lon="9.324187093588677"><ele>70.0</ele><time>2026-04-11T12:59:35.002Z</time></trkpt><trkpt lat="45.15354004142601" lon="9.324042719461202"><ele>70.0</ele><time>2026-04-11T12:59:36.002Z</time></trkpt><trkpt lat="45.15359906771501" lon="9.32394985331296"><ele>70.0</ele><time>2026-04-11T12:59:37Z</time></trkpt><trkpt lat="45.15364929425105" lon="9.32387974998193"><ele>70.0</ele><time>2026-04-11T12:59:39Z</time></trkpt><trkpt lat="45.15371805935113" lon="9.323836308187897"><ele>70.0</ele><time>2026-04-11T12:59:44Z</time></trkpt><trkpt lat="45.15378524506949" lon="9.323758523098734"><ele>70.0</ele><time>2026-04-11T12:59:46Z</time></trkpt><trkpt lat="45.15405276827689" lon="9.324012497113356"><ele>70.0</ele><time>2026-04-11T12:59:47Z</time></trkpt><trkpt lat="45.15414176530171" lon="9.324033522219997"><ele>70.0</ele><time>2026-04-11T12:59:48Z</time></trkpt><trkpt lat="45.15423699939603" lon="9.324057227066831"><ele>70.0</ele><time>2026-04-11T12:59:49Z</time></trkpt><trkpt lat="45.15434013517455" lon="9.324082495981669"><ele>70.0</ele><time>2026-04-11T12:59:50Z</time></trkpt><trkpt lat="45.154444092824" lon="9.32410571835854"><ele>70.0</ele><time>2026-04-11T12:59:51Z</time></trkpt><trkpt lat="45.15454998663963" lon="9.324131180251797"><ele>70.0</ele><time>2026-04-11T12:59:52Z</time></trkpt><trkpt lat="45.15466761292697" lon="9.324155393457065"><ele>70.0</ele><time>2026-04-11T12:59:53Z</time></trkpt><trkpt lat="45.15479476214311" lon="9.324183580443881"><ele>70.0</ele><time>2026-04-11T12:59:54Z</time></trkpt><trkpt lat="45.154923256016275" lon="9.32421327528363"><ele>70.0</ele><time>2026-04-11T12:59:55Z</time></trkpt><trkpt lat="45.15504115400025" lon="9.32424003473318"><ele>70.0</ele><time>2026-04-11T12:59:56Z</time></trkpt><trkpt lat="45.155161606931856" lon="9.324267293518801"><ele>70.0</ele><time>2026-04-11T12:59:57Z</time></trkpt><trkpt lat="45.15528356765662" lon="9.324294532035623"><ele>70.0</ele><time>2026-04-11T12:59:58Z</time></trkpt><trkpt lat="45.15540224322102" lon="9.324322116658568"><ele>70.0</ele><time>2026-04-11T12:59:59Z</time></trkpt><trkpt lat="45.155511080590685" lon="9.324349060527146"><ele>70.0</ele><time>2026-04-11T13:00:00Z</time></trkpt><trkpt lat="45.155617542254745" lon="9.324374485864494"><ele>70.0</ele><time>2026-04-11T13:00:01Z</time></trkpt><trkpt lat="45.15572001736491" lon="9.324399582619597"><ele>70.0</ele><time>2026-04-11T13:00:02Z</time></trkpt><trkpt lat="45.15582497031178" lon="9.324426091034528"><ele>70.0</ele><time>2026-04-11T13:00:03Z</time></trkpt><trkpt lat="45.15593459332965" lon="9.324448677114097"><ele>70.0</ele><time>2026-04-11T13:00:04Z</time></trkpt><trkpt lat="45.156038867816015" lon="9.324472294342891"><ele>70.0</ele><time>2026-04-11T13:00:05Z</time></trkpt><trkpt lat="45.15613111789591" lon="9.324496673265221"><ele>70.0</ele><time>2026-04-11T13:00:06Z</time></trkpt><trkpt lat="45.15622037862415" lon="9.324519084405278"><ele>70.0</ele><time>2026-04-11T13:00:07Z</time></trkpt><trkpt lat="45.156307450706315" lon="9.32454072254782"><ele>70.0</ele><time>2026-04-11T13:00:08Z</time></trkpt><trkpt lat="45.15639172198361" lon="9.32456301000283"><ele>70.0</ele><time>2026-04-11T13:00:09Z</time></trkpt><trkpt lat="45.156473323514774" lon="9.32457828116034"><ele>70.0</ele><time>2026-04-11T13:00:10Z</time></trkpt><trkpt lat="45.15655067232539" lon="9.324595654868212"><ele>70.0</ele><time>2026-04-11T13:00:11Z</time></trkpt><trkpt lat="45.156632811461165" lon="9.32461624828247"><ele>70.0</ele><time>2026-04-11T13:00:12Z</time></trkpt><trkpt lat="45.156717023507106" lon="9.324637552277135"><ele>70.0</ele><time>2026-04-11T13:00:13Z</time></trkpt><trkpt lat="45.15679787407666" lon="9.324653418865243"><ele>70.0</ele><time>2026-04-11T13:00:14Z</time></trkpt><trkpt lat="45.15686550873322" lon="9.324665169292343"><ele>70.0</ele><time>2026-04-11T13:00:15Z</time></trkpt><trkpt lat="45.15697851782581" lon="9.324693864546123"><ele>70.0</ele><time>2026-04-11T13:00:17.001Z</time></trkpt><trkpt lat="45.15707412948859" lon="9.324729590576531"><ele>70.0</ele><time>2026-04-11T13:00:19.001Z</time></trkpt><trkpt lat="45.1571963347911" lon="9.324773033380852"><ele>70.0</ele><time>2026-04-11T13:00:21.001Z</time></trkpt><trkpt lat="45.15726024995279" lon="9.324785375491132"><ele>70.0</ele><time>2026-04-11T13:00:22.001Z</time></trkpt><trkpt lat="45.1573242377837" lon="9.324791873517176"><ele>70.0</ele><time>2026-04-11T13:00:23.001Z</time></trkpt><trkpt lat="45.15739532850567" lon="9.32479967233947"><ele>70.0</ele><time>2026-04-11T13:00:24.001Z</time></trkpt><trkpt lat="45.15746701002037" lon="9.3248097526244"><ele>70.0</ele><time>2026-04-11T13:00:25.001Z</time></trkpt><trkpt lat="45.15753768808819" lon="9.324824845060983"><ele>70.0</ele><time>2026-04-11T13:00:26.001Z</time></trkpt><trkpt lat="45.157603060291834" lon="9.324840729525825"><ele>70.0</ele><time>2026-04-11T13:00:27.001Z</time></trkpt><trkpt lat="45.15772968690246" lon="9.324868764683144"><ele>70.0</ele><time>2026-04-11T13:00:29.001Z</time></trkpt><trkpt lat="45.15779988314539" lon="9.324884284690237"><ele>70.0</ele><time>2026-04-11T13:00:30.001Z</time></trkpt><trkpt lat="45.15790347502055" lon="9.32491581478631"><ele>70.0</ele><time>2026-04-11T13:00:32.001Z</time></trkpt><trkpt lat="45.15797339494479" lon="9.324944374871686"><ele>70.0</ele><time>2026-04-11T13:00:34.001Z</time></trkpt><trkpt lat="45.158030920672495" lon="9.324842179472471"><ele>70.33333333333333</ele><time>2026-04-11T13:00:40.001Z</time></trkpt><trkpt lat="45.15800888660631" lon="9.324685607135757"><ele>70.66666666666666</ele><time>2026-04-11T13:00:42.001Z</time></trkpt><trkpt lat="45.15802010256426" lon="9.324518046022904"><ele>71.0</ele><time>2026-04-11T13:00:44.001Z</time></trkpt><trkpt lat="45.158033945198575" lon="9.324428065235843"><ele>71.33333333333333</ele><time>2026-04-11T13:00:45.001Z</time></trkpt><trkpt lat="45.1580492428985" lon="9.324327394275283"><ele>71.66666666666667</ele><time>2026-04-11T13:00:46.001Z</time></trkpt><trkpt lat="45.15806508123793" lon="9.32422644852806"><ele>72.0</ele><time>2026-04-11T13:00:47.001Z</time></trkpt><trkpt lat="45.158189448977275" lon="9.32415948476697"><ele>72.0</ele><time>2026-04-11T13:00:48.001Z</time></trkpt><trkpt lat="45.15820308629068" lon="9.32405788863872"><ele>72.0</ele><time>2026-04-11T13:00:49.001Z</time></trkpt><trkpt lat="45.15821815355029" lon="9.32395095689858"><ele>72.0</ele><time>2026-04-11T13:00:50.001Z</time></trkpt><trkpt lat="45.158231224354125" lon="9.323858576161992"><ele>72.0</ele><time>2026-04-11T13:00:51.001Z</time></trkpt><trkpt lat="45.15825516229346" lon="9.323689389558131"><ele>72.0</ele><time>2026-04-11T13:00:53.001Z</time></trkpt><trkpt lat="45.15827757773013" lon="9.323530963568304"><ele>72.0</ele><time>2026-04-11T13:00:55.001Z</time></trkpt><trkpt lat="45.15830068254005" lon="9.323367665291123"><ele>72.0</ele><time>2026-04-11T13:00:57.001Z</time></trkpt><trkpt lat="45.158323274382575" lon="9.323209612317875"><ele>72.0</ele><time>2026-04-11T13:00:59.001Z</time></trkpt><trkpt lat="45.15834445391824" lon="9.323062968680912"><ele>72.0</ele><time>2026-04-11T13:01:01.001Z</time></trkpt><trkpt lat="45.1583580811391" lon="9.3229686160197"><ele>72.0</ele><time>2026-04-11T13:01:03.001Z</time></trkpt><trkpt lat="45.15837409279096" lon="9.322857753950604"><ele>74.0</ele><time>2026-04-11T13:01:06.001Z</time></trkpt><trkpt lat="45.15839098802133" lon="9.32274158281623"><ele>74.0</ele><time>2026-04-11T13:01:09.001Z</time></trkpt><trkpt lat="45.1584052720844" lon="9.322644111394002"><ele>74.0</ele><time>2026-04-11T13:01:11.001Z</time></trkpt><trkpt lat="45.158421643715435" lon="9.322532394874406"><ele>74.0</ele><time>2026-04-11T13:01:14.002Z</time></trkpt></trkseg></trk></gpx>